GFSSW_prec_precacc_027.txt.gz
Total_Precipitation_Accumulation
0.05 0.05 0.07 0.07 0.06 0.03 0.00 0.00 0.00 0.01 0.03 0.04 0.05 0.09 0.19 0.26 0.25 0.07 0.01 0.00 0.00 0.00 0.00 0.00 0.00 0.00 0.00 0.00 0.00 0.00 0.00 0.00 0.00 0.00 0.00 0.00 0.00 0.00 0.00 0.00 0.00 0.00 0.00 0.00 0.00
0.04 0.04 0.06 0.08 0.08 0.05 0.01 0.00 0.00 0.00 0.00 0.00 0.02 0.05 0.09 0.10 0.15 0.13 0.00 0.00 0.01 0.00 0.00 0.00 0.00 0.00 0.00 0.00 0.00 0.00 0.00 0.00 0.00 0.00 0.00 0.00 0.00 0.00 0.00 0.00 0.00 0.00 0.00 0.00 0.00
0.05 0.05 0.05 0.07 0.09 0.09 0.06 0.01 0.00 0.00 0.00 0.00 0.00 0.01 0.07 0.08 0.09 0.02 0.00 0.01 0.11 0.15 0.00 0.00 0.00 0.01 0.01 0.00 0.00 0.00 0.00 0.00 0.00 0.00 0.00 0.00 0.00 0.00 0.00 0.00 0.00 0.00 0.00 0.00 0.00
0.08 0.08 0.07 0.07 0.08 0.10 0.09 0.05 0.00 0.00 0.00 0.00 0.00 0.00 0.03 0.10 0.04 0.00 0.00 0.00 0.11 0.29 0.01 0.00 0.00 0.03 0.02 0.01 0.00 0.00 0.00 0.00 0.00 0.00 0.00 0.00 0.00 0.00 0.00 0.00 0.00 0.00 0.00 0.00 0.00
0.12 0.11 0.11 0.10 0.09 0.09 0.10 0.08 0.02 0.00 0.00 0.01 0.02 0.03 0.02 0.06 0.02 0.00 0.00 0.00 0.01 0.18 0.05 0.00 0.00 0.01 0.01 0.00 0.01 0.00 0.00 0.00 0.00 0.00 0.00 0.00 0.00 0.00 0.00 0.00 0.00 0.00 0.00 0.00 0.00
0.11 0.11 0.09 0.08 0.09 0.09 0.10 0.08 0.02 0.00 0.00 0.01 0.04 0.05 0.03 0.02 0.00 0.00 0.00 0.00 0.00 0.05 0.08 0.02 0.01 0.01 0.01 0.01 0.03 0.00 0.00 0.00 0.00 0.00 0.00 0.00 0.00 0.00 0.00 0.00 0.00 0.00 0.00 0.00 0.00
0.13 0.14 0.11 0.11 0.13 0.11 0.11 0.10 0.09 0.03 0.00 0.02 0.05 0.02 0.03 0.00 0.00 0.00 0.00 0.00 0.00 0.04 0.07 0.05 0.02 0.10 0.08 0.05 0.01 0.02 0.03 0.01 0.00 0.00 0.00 0.00 0.00 0.00 0.00 0.00 0.00 0.00 0.00 0.00 0.00
0.14 0.14 0.14 0.14 0.16 0.17 0.15 0.13 0.16 0.13 0.06 0.03 0.01 0.04 0.04 0.00 0.00 0.00 0.00 0.00 0.00 0.01 0.07 0.05 0.01 0.03 0.06 0.07 0.05 0.09 0.11 0.03 0.00 0.00 0.00 0.00 0.00 0.00 0.00 0.00 0.00 0.00 0.00 0.00 0.00
0.16 0.14 0.17 0.21 0.21 0.21 0.24 0.25 0.29 0.17 0.19 0.12 0.02 0.04 0.01 0.00 0.00 0.00 0.00 0.00 0.00 0.00 0.02 0.03 0.02 0.05 0.08 0.13 0.15 0.16 0.06 0.02 0.00 0.00 0.00 0.00 0.00 0.00 0.00 0.00 0.00 0.00 0.00 0.00 0.00
0.17 0.19 0.23 0.23 0.27 0.29 0.34 0.57 0.51 0.35 0.26 0.22 0.05 0.05 0.00 0.00 0.00 0.00 0.00 0.00 0.00 0.01 0.03 0.02 0.04 0.05 0.08 0.17 0.14 0.06 0.05 0.03 0.01 0.00 0.01 0.00 0.00 0.00 0.00 0.00 0.00 0.00 0.00 0.00 0.00
0.27 0.26 0.23 0.28 0.31 0.35 0.60 1.09 0.80 0.45 0.23 0.05 0.01 0.00 0.00 0.00 0.00 0.00 0.00 0.00 0.00 0.02 0.04 0.04 0.07 0.04 0.04 0.05 0.06 0.05 0.07 0.04 0.01 0.01 0.02 0.00 0.00 0.00 0.00 0.00 0.00 0.00 0.00 0.00 0.00
0.28 0.25 0.25 0.24 0.33 0.65 0.92 1.07 0.51 0.11 0.10 0.03 0.00 0.00 0.00 0.00 0.00 0.00 0.00 0.00 0.01 0.01 0.04 0.12 0.08 0.00 0.05 0.05 0.08 0.11 0.12 0.04 0.03 0.02 0.04 0.01 0.00 0.00 0.00 0.00 0.00 0.00 0.00 0.00 0.00
0.21 0.27 0.28 0.38 0.55 0.86 0.86 0.55 0.20 0.25 0.36 0.16 0.02 0.01 0.00 0.02 0.02 0.03 0.00 0.00 0.01 0.03 0.06 0.09 0.03 0.01 0.10 0.13 0.12 0.10 0.14 0.10 0.04 0.06 0.05 0.04 0.01 0.00 0.00 0.00 0.00 0.00 0.00 0.00 0.00
0.34 0.37 0.49 0.66 1.07 0.68 0.66 0.38 0.42 0.53 0.68 0.13 0.02 0.04 0.07 0.15 0.10 0.00 0.00 0.02 0.06 0.03 0.07 0.12 0.02 0.08 0.12 0.32 0.12 0.11 0.07 0.11 0.17 0.15 0.04 0.06 0.03 0.00 0.00 0.00 0.00 0.00 0.00 0.00 0.00
0.76 0.63 0.49 0.78 1.00 0.87 0.49 0.35 0.64 0.78 0.56 0.02 0.02 0.01 0.05 0.12 0.07 0.01 0.00 0.10 0.08 0.08 0.20 0.18 0.02 0.09 0.13 0.32 0.09 0.17 0.07 0.11 0.23 0.35 0.34 0.07 0.09 0.01 0.00 0.00 0.00 0.00 0.00 0.00 0.00
0.87 0.81 0.70 0.78 0.82 0.71 0.53 0.49 1.00 0.87 0.27 0.02 0.03 0.06 0.11 0.07 0.06 0.09 0.06 0.12 0.18 0.41 0.33 0.09 0.07 0.20 0.16 0.17 0.18 0.18 0.24 0.26 0.47 0.48 0.69 0.30 0.07 0.01 0.00 0.00 0.00 0.00 0.00 0.00 0.00
0.83 1.04 1.05 0.61 0.61 0.60 1.09 1.02 1.09 0.46 0.05 0.12 0.08 0.11 0.08 0.06 0.07 0.14 0.18 0.17 0.33 0.62 0.52 0.40 0.28 0.29 0.22 0.32 0.55 0.47 0.59 0.79 0.72 0.89 0.42 0.15 0.16 0.06 0.00 0.00 0.00 0.00 0.00 0.00 0.00
1.06 1.15 1.22 0.81 0.64 0.78 1.54 1.02 0.56 0.09 0.04 0.08 0.11 0.20 0.26 0.08 0.09 0.10 0.34 0.19 0.13 0.33 0.47 0.30 0.27 0.28 0.25 0.33 0.68 0.59 0.55 0.61 0.37 0.28 0.17 0.08 0.26 0.05 0.00 0.00 0.00 0.00 0.00 0.00 0.00
1.33 1.61 1.36 1.12 0.90 1.12 1.18 0.82 0.18 0.07 0.09 0.12 0.20 0.24 0.24 0.09 0.08 0.11 0.16 0.12 0.03 0.10 0.39 0.27 0.26 0.21 0.19 0.13 0.42 0.66 0.63 0.35 0.50 0.18 0.27 0.09 0.08 0.04 0.01 0.00 0.00 0.00 0.00 0.00 0.00
1.76 2.16 1.18 0.91 1.24 1.19 0.89 0.50 0.05 0.09 0.20 0.16 0.13 0.05 0.05 0.02 0.04 0.04 0.04 0.01 0.00 0.01 0.17 0.28 0.40 0.46 0.38 0.32 0.41 0.52 0.31 0.48 1.02 0.61 0.19 0.06 0.02 0.04 0.00 0.00 0.00 0.00 0.00 0.00 0.00
1.83 1.99 1.15 1.09 1.72 1.55 0.87 0.31 0.05 0.08 0.13 0.13 0.05 0.02 0.01 0.00 0.00 0.00 0.01 0.00 0.00 0.00 0.14 0.33 0.55 0.66 0.85 0.53 0.34 0.56 0.57 0.37 0.51 0.43 0.25 0.10 0.02 0.00 0.00 0.01 0.01 0.01 0.00 0.00 0.00
1.66 1.48 1.33 1.56 1.97 1.24 0.38 0.18 0.12 0.13 0.17 0.13 0.10 0.02 0.00 0.00 0.00 0.00 0.00 0.01 0.00 0.02 0.16 0.32 0.66 0.69 0.58 0.16 0.11 0.19 0.23 0.18 0.64 0.42 0.36 0.31 0.12 0.00 0.01 0.01 0.01 0.01 0.01 0.01 0.01
1.49 1.24 1.95 1.08 0.84 0.51 0.17 0.23 0.21 0.08 0.13 0.15 0.07 0.01 0.00 0.00 0.00 0.00 0.00 0.00 0.00 0.02 0.19 0.44 0.99 0.76 0.61 0.44 0.48 0.64 0.32 0.36 0.60 0.91 0.70 0.38 0.16 0.00 0.00 0.00 0.01 0.01 0.01 0.01 0.01
1.51 1.42 2.83 1.91 0.51 0.09 0.17 0.27 0.24 0.06 0.07 0.13 0.10 0.03 0.04 0.02 0.00 0.00 0.00 0.00 0.00 0.00 0.16 0.72 0.80 0.85 0.68 0.62 0.87 0.72 0.33 0.52 0.99 0.94 0.32 0.16 0.07 0.02 0.01 0.01 0.01 0.02 0.03 0.02 0.01
1.02 0.67 0.70 0.82 0.41 0.06 0.24 0.27 0.36 0.23 0.12 0.17 0.11 0.04 0.06 0.02 0.00 0.00 0.00 0.00 0.00 0.00 0.16 0.66 1.15 1.28 0.54 0.32 0.69 0.60 0.31 0.43 0.91 0.49 0.32 0.10 0.05 0.03 0.03 0.01 0.01 0.06 0.05 0.01 0.00
0.64 0.55 0.10 0.04 0.03 0.02 0.16 0.24 0.34 0.34 0.27 0.19 0.13 0.04 0.04 0.05 0.00 0.00 0.00 0.00 0.00 0.01 0.15 0.55 0.95 0.81 0.34 0.20 0.40 0.47 0.23 0.33 0.54 0.39 0.26 0.10 0.10 0.06 0.03 0.00 0.01 0.15 0.07 0.03 0.02
0.62 0.48 0.12 0.06 0.03 0.03 0.06 0.12 0.22 0.37 0.24 0.09 0.08 0.11 0.06 0.03 0.01 0.00 0.00 0.00 0.00 0.01 0.07 0.34 0.63 0.81 0.64 0.41 0.55 0.51 0.26 0.30 0.40 0.33 0.21 0.11 0.09 0.02 0.02 0.08 0.24 0.44 0.09 0.03 0.02

GFSSW_prec_precacc_030.txt.gz
Total_Precipitation_Accumulation
0.05 0.05 0.07 0.07 0.07 0.07 0.06 0.02 0.00 0.01 0.03 0.04 0.05 0.09 0.19 0.26 0.26 0.08 0.01 0.00 0.00 0.00 0.00 0.00 0.00 0.00 0.00 0.00 0.00 0.00 0.00 0.00 0.00 0.00 0.00 0.00 0.00 0.00 0.00 0.00 0.00 0.00 0.00 0.00 0.00
0.04 0.04 0.06 0.08 0.08 0.07 0.06 0.05 0.01 0.00 0.00 0.00 0.02 0.05 0.09 0.10 0.16 0.14 0.00 0.00 0.01 0.00 0.00 0.00 0.00 0.00 0.00 0.00 0.00 0.00 0.00 0.00 0.00 0.00 0.00 0.00 0.00 0.00 0.00 0.00 0.00 0.00 0.00 0.00 0.00
0.05 0.06 0.05 0.07 0.09 0.09 0.08 0.06 0.04 0.00 0.00 0.00 0.00 0.01 0.07 0.08 0.10 0.03 0.00 0.01 0.11 0.15 0.00 0.00 0.00 0.01 0.01 0.00 0.00 0.00 0.00 0.00 0.00 0.00 0.00 0.00 0.00 0.00 0.00 0.00 0.00 0.00 0.00 0.00 0.00
0.08 0.08 0.07 0.07 0.08 0.10 0.10 0.09 0.08 0.04 0.01 0.00 0.00 0.00 0.03 0.11 0.04 0.01 0.00 0.02 0.15 0.32 0.02 0.00 0.00 0.03 0.02 0.01 0.00 0.00 0.00 0.00 0.00 0.00 0.00 0.00 0.00 0.00 0.00 0.00 0.00 0.00 0.00 0.00 0.00
0.12 0.11 0.11 0.10 0.09 0.09 0.11 0.09 0.09 0.08 0.02 0.01 0.02 0.03 0.02 0.06 0.02 0.00 0.00 0.00 0.03 0.24 0.07 0.00 0.00 0.01 0.01 0.00 0.01 0.00 0.00 0.00 0.00 0.00 0.00 0.00 0.00 0.00 0.00 0.00 0.00 0.00 0.00 0.00 0.00
0.11 0.11 0.09 0.09 0.10 0.09 0.11 0.09 0.08 0.10 0.04 0.01 0.04 0.05 0.03 0.02 0.00 0.00 0.00 0.00 0.00 0.09 0.12 0.03 0.01 0.01 0.01 0.01 0.03 0.00 0.00 0.00 0.00 0.00 0.00 0.00 0.00 0.00 0.00 0.00 0.00 0.00 0.00 0.00 0.00
0.13 0.14 0.12 0.12 0.14 0.12 0.12 0.12 0.15 0.12 0.12 0.03 0.05 0.02 0.03 0.00 0.00 0.00 0.00 0.00 0.00 0.05 0.13 0.06 0.02 0.10 0.08 0.05 0.01 0.02 0.03 0.01 0.00 0.00 0.00 0.00 0.00 0.00 0.00 0.00 0.00 0.00 0.00 0.00 0.00
0.14 0.14 0.14 0.14 0.18 0.19 0.16 0.13 0.20 0.26 0.29 0.08 0.02 0.04 0.04 0.00 0.00 0.00 0.00 0.00 0.00 0.02 0.14 0.11 0.01 0.03 0.06 0.07 0.05 0.09 0.11 0.03 0.00 0.00 0.00 0.00 0.00 0.00 0.00 0.00 0.00 0.00 0.00 0.00 0.00
0.17 0.15 0.17 0.24 0.25 0.24 0.25 0.25 0.30 0.29 0.40 0.24 0.03 0.04 0.01 0.00 0.00 0.00 0.00 0.00 0.00 0.07 0.12 0.07 0.03 0.05 0.08 0.13 0.15 0.16 0.06 0.02 0.00 0.00 0.00 0.00 0.00 0.00 0.00 0.00 0.00 0.00 0.00 0.00 0.00
0.20 0.21 0.27 0.28 0.33 0.33 0.35 0.57 0.51 0.54 0.58 0.41 0.07 0.06 0.00 0.00 0.00 0.00 0.00 0.00 0.00 0.03 0.09 0.06 0.06 0.05 0.08 0.17 0.14 0.06 0.05 0.03 0.01 0.00 0.01 0.00 0.00 0.00 0.00 0.00 0.00 0.00 0.00 0.00 0.00
0.30 0.28 0.25 0.30 0.34 0.37 0.61 1.10 0.88 0.78 0.71 0.24 0.03 0.00 0.00 0.00 0.00 0.00 0.00 0.00 0.00 0.03 0.05 0.05 0.08 0.05 0.04 0.05 0.06 0.05 0.07 0.04 0.01 0.01 0.02 0.00 0.00 0.00 0.00 0.00 0.00 0.00 0.00 0.00 0.00
0.31 0.27 0.29 0.27 0.36 0.67 0.94 1.09 0.69 0.50 0.47 0.14 0.01 0.00 0.00 0.00 0.00 0.00 0.00 0.00 0.01 0.02 0.04 0.12 0.08 0.00 0.05 0.05 0.08 0.11 0.12 0.04 0.03 0.02 0.04 0.01 0.00 0.00 0.00 0.00 0.00 0.00 0.00 0.00 0.00
0.23 0.28 0.32 0.42 0.61 0.89 0.87 0.56 0.34 0.70 0.73 0.33 0.04 0.02 0.00 0.02 0.02 0.03 0.00 0.00 0.01 0.03 0.07 0.10 0.03 0.01 0.10 0.13 0.12 0.10 0.14 0.10 0.04 0.06 0.05 0.04 0.01 0.00 0.00 0.00 0.00 0.00 0.00 0.00 0.00
0.34 0.39 0.53 0.72 1.15 0.77 0.68 0.38 0.59 0.99 0.98 0.31 0.04 0.04 0.07 0.15 0.10 0.00 0.00 0.02 0.06 0.03 0.08 0.12 0.02 0.08 0.12 0.32 0.12 0.11 0.07 0.11 0.17 0.15 0.04 0.06 0.03 0.00 0.00 0.00 0.00 0.00 0.00 0.00 0.00
0.76 0.64 0.51 0.84 1.05 0.90 0.57 0.38 0.79 1.24 0.80 0.13 0.03 0.01 0.05 0.12 0.07 0.01 0.00 0.10 0.08 0.08 0.20 0.18 0.02 0.09 0.13 0.32 0.09 0.17 0.07 0.11 0.23 0.35 0.35 0.07 0.09 0.01 0.00 0.00 0.00 0.00 0.00 0.00 0.00
0.87 0.81 0.71 0.80 0.85 0.78 0.66 0.54 1.22 1.22 0.53 0.12 0.05 0.06 0.12 0.08 0.06 0.09 0.06 0.12 0.18 0.41 0.33 0.09 0.07 0.20 0.16 0.17 0.18 0.18 0.24 0.26 0.47 0.48 0.69 0.30 0.07 0.01 0.00 0.00 0.00 0.00 0.00 0.00 0.00
0.83 1.04 1.05 0.63 0.66 0.68 1.18 1.06 1.36 0.68 0.15 0.14 0.09 0.12 0.08 0.06 0.08 0.14 0.18 0.18 0.33 0.62 0.52 0.40 0.28 0.29 0.22 0.32 0.55 0.47 0.59 0.79 0.72 0.89 0.42 0.15 0.16 0.06 0.00 0.00 0.00 0.00 0.00 0.00 0.00
1.07 1.16 1.24 0.86 0.75 0.84 1.67 1.09 0.69 0.18 0.08 0.08 0.11 0.21 0.27 0.08 0.10 0.10 0.34 0.19 0.13 0.33 0.47 0.30 0.27 0.28 0.25 0.33 0.69 0.59 0.55 0.61 0.37 0.28 0.17 0.08 0.26 0.05 0.00 0.00 0.00 0.00 0.00 0.00 0.00
1.34 1.62 1.46 1.26 0.99 1.13 1.29 0.88 0.34 0.11 0.09 0.12 0.21 0.26 0.27 0.09 0.09 0.11 0.17 0.12 0.03 0.10 0.39 0.27 0.26 0.21 0.19 0.13 0.42 0.66 0.63 0.35 0.50 0.18 0.27 0.09 0.08 0.04 0.01 0.00 0.00 0.00 0.00 0.00 0.00
1.79 2.23 1.27 1.02 1.26 1.20 0.99 0.64 0.15 0.10 0.20 0.16 0.13 0.06 0.06 0.03 0.04 0.04 0.04 0.01 0.00 0.01 0.17 0.28 0.40 0.46 0.38 0.32 0.41 0.52 0.31 0.48 1.03 0.61 0.19 0.06 0.02 0.04 0.00 0.00 0.00 0.00 0.00 0.00 0.00
1.87 2.03 1.25 1.15 1.73 1.57 1.08 0.57 0.08 0.08 0.13 0.13 0.05 0.02 0.01 0.00 0.00 0.01 0.01 0.00 0.00 0.00 0.14 0.33 0.55 0.66 0.85 0.53 0.34 0.56 0.58 0.37 0.51 0.43 0.25 0.10 0.02 0.00 0.00 0.01 0.01 0.01 0.00 0.00 0.00
1.68 1.56 1.40 1.61 1.98 1.26 0.48 0.29 0.14 0.13 0.17 0.13 0.10 0.02 0.00 0.00 0.00 0.00 0.00 0.01 0.00 0.02 0.16 0.32 0.66 0.69 0.58 0.16 0.11 0.19 0.23 0.18 0.64 0.42 0.37 0.32 0.13 0.00 0.01 0.01 0.01 0.01 0.01 0.01 0.01
1.51 1.37 2.03 1.10 0.85 0.55 0.29 0.26 0.22 0.09 0.13 0.15 0.07 0.01 0.00 0.00 0.00 0.00 0.00 0.00 0.00 0.02 0.19 0.44 0.99 0.76 0.61 0.44 0.48 0.64 0.32 0.36 0.61 0.96 0.74 0.39 0.16 0.00 0.00 0.00 0.01 0.01 0.01 0.01 0.01
1.51 1.45 2.85 1.92 0.52 0.12 0.23 0.30 0.25 0.06 0.07 0.13 0.10 0.03 0.04 0.02 0.00 0.00 0.00 0.00 0.00 0.00 0.16 0.72 0.80 0.85 0.68 0.62 0.88 0.72 0.33 0.52 1.05 1.07 0.35 0.17 0.07 0.02 0.01 0.01 0.01 0.02 0.03 0.02 0.01
1.02 0.67 0.70 0.82 0.43 0.07 0.25 0.28 0.36 0.23 0.12 0.17 0.11 0.04 0.06 0.02 0.00 0.00 0.00 0.00 0.00 0.00 0.16 0.66 1.15 1.28 0.54 0.32 0.69 0.60 0.31 0.43 0.96 0.54 0.42 0.14 0.06 0.03 0.03 0.01 0.01 0.06 0.05 0.02 0.00
0.64 0.55 0.10 0.04 0.03 0.02 0.16 0.26 0.34 0.34 0.27 0.19 0.13 0.04 0.04 0.05 0.00 0.00 0.00 0.00 0.00 0.01 0.15 0.55 0.95 0.81 0.34 0.20 0.40 0.47 0.23 0.35 0.56 0.41 0.29 0.12 0.11 0.06 0.03 0.02 0.02 0.16 0.08 0.03 0.02
0.62 0.48 0.13 0.06 0.04 0.04 0.06 0.12 0.23 0.37 0.24 0.09 0.08 0.11 0.06 0.03 0.01 0.00 0.00 0.00 0.00 0.01 0.07 0.34 0.63 0.82 0.64 0.41 0.55 0.52 0.26 0.31 0.41 0.35 0.23 0.12 0.11 0.02 0.03 0.09 0.26 0.45 0.09 0.03 0.02

GFSSW_prec_precacc_033.txt.gz
Total_Precipitation_Accumulation
0.05 0.05 0.07 0.07 0.07 0.07 0.06 0.05 0.04 0.03 0.03 0.04 0.05 0.09 0.19 0.26 0.26 0.09 0.02 0.00 0.00 0.00 0.00 0.00 0.00 0.00 0.00 0.00 0.00 0.00 0.00 0.00 0.00 0.00 0.00 0.00 0.00 0.00 0.00 0.00 0.00 0.00 0.00 0.00 0.00
0.04 0.04 0.06 0.08 0.08 0.07 0.06 0.05 0.04 0.04 0.01 0.00 0.02 0.05 0.09 0.10 0.16 0.14 0.00 0.00 0.01 0.00 0.00 0.00 0.00 0.00 0.00 0.00 0.00 0.00 0.00 0.00 0.00 0.00 0.00 0.00 0.00 0.00 0.00 0.00 0.00 0.00 0.00 0.00 0.00
0.05 0.06 0.05 0.07 0.10 0.09 0.08 0.06 0.05 0.04 0.03 0.00 0.00 0.01 0.07 0.08 0.11 0.03 0.00 0.01 0.11 0.15 0.00 0.00 0.00 0.01 0.01 0.00 0.00 0.00 0.00 0.00 0.00 0.00 0.00 0.00 0.00 0.00 0.00 0.00 0.00 0.00 0.00 0.00 0.00
0.08 0.08 0.07 0.07 0.08 0.10 0.10 0.09 0.09 0.07 0.06 0.03 0.00 0.00 0.03 0.11 0.05 0.01 0.00 0.03 0.16 0.33 0.02 0.00 0.00 0.03 0.02 0.01 0.00 0.00 0.00 0.00 0.00 0.00 0.00 0.00 0.00 0.00 0.00 0.00 0.00 0.00 0.00 0.00 0.00
0.12 0.11 0.11 0.10 0.09 0.10 0.12 0.10 0.10 0.11 0.10 0.06 0.03 0.03 0.02 0.06 0.02 0.00 0.00 0.02 0.10 0.30 0.08 0.00 0.00 0.01 0.01 0.00 0.01 0.00 0.00 0.00 0.00 0.00 0.00 0.00 0.00 0.00 0.00 0.00 0.00 0.00 0.00 0.00 0.00
0.12 0.12 0.10 0.10 0.10 0.10 0.12 0.10 0.09 0.12 0.12 0.11 0.07 0.05 0.03 0.02 0.00 0.00 0.00 0.00 0.01 0.14 0.14 0.04 0.01 0.01 0.01 0.01 0.03 0.00 0.00 0.00 0.00 0.00 0.00 0.00 0.00 0.00 0.00 0.00 0.00 0.00 0.00 0.00 0.00
0.14 0.14 0.12 0.12 0.14 0.12 0.13 0.14 0.16 0.14 0.20 0.26 0.13 0.03 0.03 0.00 0.00 0.00 0.00 0.00 0.00 0.06 0.16 0.09 0.04 0.10 0.08 0.05 0.01 0.02 0.03 0.01 0.00 0.00 0.00 0.00 0.00 0.00 0.00 0.00 0.00 0.00 0.00 0.00 0.00
0.17 0.16 0.15 0.15 0.19 0.22 0.21 0.16 0.21 0.30 0.35 0.32 0.14 0.05 0.04 0.00 0.00 0.00 0.00 0.00 0.00 0.02 0.16 0.21 0.03 0.03 0.06 0.07 0.05 0.09 0.11 0.03 0.00 0.00 0.00 0.00 0.00 0.00 0.00 0.00 0.00 0.00 0.00 0.00 0.00
0.22 0.18 0.20 0.27 0.31 0.31 0.31 0.26 0.30 0.31 0.47 0.66 0.25 0.06 0.01 0.00 0.00 0.00 0.00 0.00 0.00 0.09 0.19 0.17 0.08 0.06 0.08 0.13 0.15 0.16 0.06 0.02 0.00 0.00 0.00 0.00 0.00 0.00 0.00 0.00 0.00 0.00 0.00 0.00 0.00
0.23 0.24 0.30 0.31 0.35 0.39 0.39 0.57 0.51 0.56 0.66 0.95 0.28 0.08 0.00 0.00 0.00 0.00 0.00 0.00 0.00 0.10 0.14 0.12 0.11 0.11 0.10 0.18 0.14 0.06 0.05 0.03 0.01 0.00 0.01 0.00 0.00 0.00 0.00 0.00 0.00 0.00 0.00 0.00 0.00
0.33 0.29 0.26 0.33 0.36 0.41 0.62 1.10 0.89 0.82 0.96 0.67 0.15 0.01 0.00 0.00 0.00 0.00 0.00 0.00 0.01 0.07 0.09 0.08 0.11 0.08 0.05 0.05 0.06 0.05 0.07 0.04 0.01 0.01 0.02 0.00 0.00 0.00 0.00 0.00 0.00 0.00 0.00 0.00 0.00
0.34 0.27 0.29 0.31 0.41 0.76 1.05 1.11 0.69 0.57 0.74 0.39 0.02 0.00 0.00 0.00 0.00 0.00 0.00 0.00 0.02 0.02 0.05 0.15 0.12 0.01 0.05 0.05 0.08 0.11 0.12 0.04 0.03 0.02 0.04 0.01 0.00 0.00 0.00 0.00 0.00 0.00 0.00 0.00 0.00
0.24 0.29 0.33 0.45 0.66 1.01 0.99 0.57 0.35 0.73 0.97 0.60 0.11 0.03 0.00 0.02 0.02 0.03 0.00 0.00 0.01 0.03 0.07 0.10 0.03 0.01 0.10 0.13 0.12 0.10 0.14 0.10 0.04 0.06 0.05 0.04 0.01 0.00 0.00 0.00 0.00 0.00 0.00 0.00 0.00
0.35 0.39 0.55 0.76 1.17 0.82 0.71 0.41 0.60 1.07 1.10 0.52 0.19 0.07 0.07 0.15 0.10 0.00 0.00 0.02 0.06 0.03 0.08 0.12 0.02 0.08 0.12 0.32 0.12 0.11 0.07 0.11 0.17 0.15 0.04 0.06 0.03 0.00 0.00 0.00 0.00 0.00 0.00 0.00 0.00
0.76 0.64 0.51 0.89 1.07 0.91 0.63 0.39 0.81 1.40 0.95 0.31 0.15 0.02 0.05 0.12 0.07 0.01 0.00 0.10 0.08 0.08 0.20 0.18 0.02 0.09 0.13 0.32 0.09 0.17 0.07 0.11 0.23 0.35 0.35 0.07 0.09 0.01 0.00 0.00 0.00 0.00 0.00 0.00 0.00
0.87 0.81 0.72 0.81 0.86 0.80 0.74 0.54 1.26 1.38 0.80 0.40 0.12 0.07 0.13 0.09 0.06 0.09 0.07 0.12 0.18 0.41 0.33 0.09 0.07 0.20 0.16 0.17 0.18 0.18 0.24 0.26 0.47 0.48 0.69 0.30 0.07 0.01 0.00 0.00 0.00 0.00 0.00 0.00 0.00
0.85 1.06 1.07 0.65 0.69 0.72 1.22 1.06 1.38 0.78 0.39 0.28 0.12 0.12 0.09 0.07 0.08 0.14 0.18 0.18 0.33 0.62 0.52 0.40 0.28 0.29 0.22 0.32 0.55 0.47 0.59 0.79 0.72 0.89 0.42 0.15 0.16 0.06 0.00 0.00 0.00 0.00 0.00 0.00 0.00
1.09 1.18 1.25 0.89 0.78 0.84 1.68 1.09 0.74 0.30 0.22 0.12 0.12 0.21 0.27 0.09 0.10 0.11 0.34 0.19 0.13 0.33 0.47 0.30 0.27 0.28 0.25 0.33 0.69 0.59 0.55 0.61 0.37 0.28 0.17 0.08 0.26 0.05 0.00 0.00 0.00 0.00 0.00 0.00 0.00
1.36 1.64 1.52 1.33 1.03 1.13 1.30 0.88 0.45 0.25 0.12 0.14 0.23 0.27 0.28 0.10 0.09 0.12 0.17 0.12 0.03 0.10 0.39 0.27 0.26 0.21 0.19 0.13 0.42 0.66 0.63 0.35 0.50 0.18 0.27 0.09 0.08 0.04 0.01 0.00 0.00 0.00 0.00 0.00 0.00
1.79 2.23 1.32 1.10 1.27 1.20 1.03 0.68 0.29 0.17 0.20 0.16 0.16 0.07 0.06 0.03 0.05 0.05 0.04 0.01 0.00 0.01 0.17 0.28 0.40 0.46 0.38 0.32 0.41 0.52 0.31 0.48 1.03 0.61 0.19 0.06 0.02 0.04 0.00 0.00 0.00 0.00 0.00 0.00 0.00
1.87 2.06 1.28 1.18 1.74 1.63 1.20 0.74 0.16 0.10 0.14 0.13 0.05 0.02 0.01 0.01 0.01 0.01 0.01 0.00 0.00 0.00 0.14 0.33 0.55 0.66 0.85 0.53 0.34 0.56 0.58 0.37 0.51 0.43 0.25 0.10 0.02 0.00 0.00 0.01 0.01 0.01 0.00 0.00 0.00
1.68 1.59 1.41 1.61 1.99 1.36 0.77 0.52 0.24 0.14 0.17 0.13 0.10 0.02 0.00 0.00 0.00 0.00 0.00 0.01 0.00 0.02 0.16 0.32 0.66 0.69 0.58 0.16 0.11 0.19 0.23 0.18 0.64 0.42 0.37 0.32 0.13 0.00 0.01 0.01 0.01 0.01 0.01 0.01 0.01
1.51 1.37 2.03 1.10 0.87 0.64 0.36 0.28 0.23 0.09 0.13 0.15 0.07 0.01 0.00 0.00 0.00 0.00 0.00 0.00 0.00 0.02 0.19 0.44 0.99 0.76 0.61 0.44 0.48 0.64 0.32 0.36 0.61 0.98 0.74 0.39 0.17 0.00 0.00 0.00 0.01 0.01 0.02 0.01 0.01
1.51 1.45 2.85 1.92 0.53 0.16 0.29 0.33 0.26 0.06 0.07 0.13 0.10 0.03 0.04 0.02 0.00 0.00 0.00 0.00 0.00 0.00 0.16 0.72 0.80 0.85 0.68 0.62 0.88 0.72 0.33 0.52 1.06 1.11 0.36 0.18 0.07 0.02 0.01 0.01 0.02 0.03 0.03 0.02 0.02
1.02 0.67 0.70 0.82 0.43 0.07 0.27 0.29 0.36 0.23 0.12 0.17 0.11 0.04 0.06 0.02 0.00 0.00 0.00 0.00 0.00 0.00 0.16 0.66 1.15 1.28 0.54 0.32 0.69 0.60 0.31 0.43 0.96 0.55 0.49 0.16 0.06 0.03 0.03 0.03 0.02 0.07 0.07 0.04 0.04
0.64 0.55 0.10 0.04 0.03 0.02 0.17 0.27 0.34 0.34 0.27 0.19 0.13 0.04 0.04 0.05 0.00 0.00 0.00 0.00 0.00 0.01 0.15 0.55 0.95 0.81 0.34 0.20 0.40 0.47 0.23 0.35 0.56 0.41 0.30 0.12 0.11 0.06 0.04 0.04 0.03 0.17 0.11 0.07 0.07
0.62 0.48 0.13 0.06 0.04 0.04 0.06 0.12 0.23 0.37 0.24 0.09 0.08 0.11 0.06 0.03 0.01 0.00 0.00 0.00 0.00 0.01 0.07 0.34 0.63 0.82 0.64 0.41 0.55 0.52 0.26 0.31 0.41 0.35 0.24 0.14 0.12 0.03 0.05 0.10 0.27 0.46 0.10 0.04 0.02

GFSSW_prec_precacc_036.txt.gz
Total_Precipitation_Accumulation
0.05 0.05 0.07 0.07 0.08 0.07 0.07 0.05 0.05 0.06 0.12 0.09 0.05 0.09 0.19 0.26 0.26 0.09 0.02 0.00 0.00 0.00 0.00 0.00 0.00 0.00 0.00 0.00 0.00 0.00 0.00 0.00 0.00 0.00 0.00 0.00 0.00 0.00 0.00 0.00 0.00 0.00 0.00 0.00 0.00
0.04 0.04 0.06 0.08 0.09 0.07 0.06 0.05 0.04 0.04 0.06 0.11 0.04 0.05 0.09 0.11 0.16 0.14 0.00 0.00 0.01 0.00 0.00 0.00 0.00 0.00 0.00 0.00 0.00 0.00 0.00 0.00 0.00 0.00 0.00 0.00 0.00 0.00 0.00 0.00 0.00 0.00 0.00 0.00 0.00
0.06 0.06 0.06 0.08 0.10 0.09 0.08 0.06 0.05 0.04 0.05 0.09 0.07 0.01 0.07 0.08 0.11 0.03 0.00 0.01 0.11 0.15 0.00 0.00 0.00 0.01 0.01 0.00 0.00 0.00 0.00 0.00 0.00 0.00 0.00 0.00 0.00 0.00 0.00 0.00 0.00 0.00 0.00 0.00 0.00
0.10 0.09 0.09 0.08 0.09 0.11 0.10 0.10 0.09 0.07 0.06 0.09 0.12 0.01 0.03 0.12 0.05 0.01 0.00 0.03 0.16 0.34 0.02 0.00 0.00 0.03 0.02 0.01 0.00 0.00 0.00 0.00 0.00 0.00 0.00 0.00 0.00 0.00 0.00 0.00 0.00 0.00 0.00 0.00 0.00
0.16 0.15 0.13 0.11 0.10 0.10 0.12 0.10 0.10 0.11 0.11 0.10 0.15 0.09 0.03 0.06 0.02 0.00 0.00 0.02 0.12 0.32 0.08 0.00 0.00 0.01 0.01 0.00 0.01 0.00 0.00 0.00 0.00 0.00 0.00 0.00 0.00 0.00 0.00 0.00 0.00 0.00 0.00 0.00 0.00
0.15 0.16 0.13 0.12 0.12 0.10 0.12 0.10 0.10 0.13 0.13 0.12 0.21 0.17 0.03 0.02 0.00 0.00 0.01 0.01 0.03 0.16 0.14 0.04 0.01 0.01 0.01 0.01 0.03 0.00 0.00 0.00 0.00 0.00 0.00 0.00 0.00 0.00 0.00 0.00 0.00 0.00 0.00 0.00 0.00
0.17 0.18 0.13 0.14 0.17 0.13 0.13 0.15 0.17 0.15 0.20 0.27 0.28 0.25 0.03 0.00 0.00 0.00 0.01 0.02 0.03 0.09 0.16 0.09 0.04 0.10 0.08 0.05 0.01 0.02 0.03 0.01 0.00 0.00 0.00 0.00 0.00 0.00 0.00 0.00 0.00 0.00 0.00 0.00 0.00
0.21 0.19 0.16 0.17 0.21 0.24 0.26 0.19 0.22 0.31 0.35 0.33 0.38 0.28 0.05 0.00 0.00 0.00 0.00 0.00 0.00 0.03 0.18 0.25 0.06 0.03 0.06 0.07 0.05 0.09 0.11 0.03 0.00 0.00 0.00 0.00 0.00 0.00 0.00 0.00 0.00 0.00 0.00 0.00 0.00
0.25 0.21 0.23 0.30 0.33 0.35 0.35 0.27 0.30 0.31 0.47 0.67 0.63 0.26 0.03 0.00 0.00 0.00 0.00 0.00 0.00 0.10 0.28 0.22 0.13 0.07 0.08 0.13 0.15 0.16 0.06 0.02 0.00 0.00 0.00 0.00 0.00 0.00 0.00 0.00 0.00 0.00 0.00 0.00 0.00
0.25 0.26 0.33 0.34 0.37 0.43 0.42 0.57 0.51 0.56 0.66 1.05 0.75 0.31 0.02 0.00 0.00 0.00 0.00 0.00 0.02 0.12 0.18 0.18 0.20 0.15 0.10 0.18 0.15 0.06 0.05 0.03 0.01 0.00 0.01 0.00 0.00 0.00 0.00 0.00 0.00 0.00 0.00 0.00 0.00
0.36 0.30 0.28 0.34 0.39 0.46 0.68 1.11 0.89 0.82 0.97 0.89 0.35 0.08 0.00 0.00 0.00 0.00 0.00 0.00 0.06 0.14 0.11 0.10 0.15 0.17 0.09 0.06 0.06 0.05 0.07 0.04 0.01 0.01 0.02 0.00 0.00 0.00 0.00 0.00 0.00 0.00 0.00 0.00 0.00
0.35 0.28 0.30 0.34 0.45 0.82 1.16 1.19 0.70 0.58 0.77 0.54 0.11 0.03 0.00 0.00 0.00 0.00 0.00 0.01 0.03 0.06 0.09 0.16 0.14 0.03 0.09 0.07 0.09 0.11 0.12 0.04 0.03 0.02 0.04 0.01 0.00 0.00 0.00 0.00 0.00 0.00 0.00 0.00 0.00
0.25 0.29 0.34 0.47 0.67 1.02 1.02 0.59 0.35 0.74 1.11 0.80 0.28 0.11 0.00 0.02 0.02 0.03 0.00 0.00 0.01 0.03 0.09 0.11 0.03 0.01 0.11 0.14 0.12 0.10 0.14 0.10 0.04 0.06 0.05 0.04 0.01 0.00 0.00 0.00 0.00 0.00 0.00 0.00 0.00
0.35 0.39 0.56 0.76 1.18 0.82 0.72 0.44 0.60 1.08 1.28 0.86 0.39 0.15 0.07 0.15 0.10 0.01 0.00 0.02 0.06 0.03 0.08 0.13 0.02 0.08 0.12 0.32 0.12 0.11 0.07 0.11 0.17 0.15 0.04 0.06 0.03 0.00 0.00 0.00 0.00 0.00 0.00 0.00 0.00
0.77 0.64 0.52 0.94 1.08 0.92 0.64 0.40 0.81 1.43 1.10 0.61 0.31 0.05 0.05 0.12 0.07 0.04 0.02 0.10 0.08 0.08 0.20 0.18 0.02 0.09 0.13 0.32 0.09 0.17 0.07 0.11 0.23 0.35 0.35 0.07 0.09 0.01 0.00 0.00 0.00 0.00 0.00 0.00 0.00
0.88 0.84 0.77 0.83 0.87 0.82 0.76 0.54 1.26 1.41 1.03 0.77 0.24 0.08 0.14 0.09 0.06 0.10 0.07 0.12 0.18 0.42 0.34 0.09 0.07 0.20 0.16 0.17 0.18 0.18 0.24 0.26 0.47 0.48 0.69 0.30 0.07 0.01 0.00 0.00 0.00 0.00 0.00 0.00 0.00
0.86 1.09 1.11 0.67 0.71 0.73 1.23 1.06 1.38 0.81 0.53 0.55 0.20 0.13 0.09 0.07 0.08 0.15 0.19 0.18 0.33 0.64 0.55 0.41 0.28 0.29 0.22 0.32 0.55 0.47 0.59 0.79 0.72 0.89 0.42 0.15 0.16 0.06 0.00 0.00 0.00 0.00 0.00 0.00 0.00
1.09 1.19 1.26 0.91 0.79 0.85 1.68 1.09 0.75 0.35 0.38 0.28 0.13 0.22 0.28 0.09 0.11 0.11 0.34 0.19 0.13 0.33 0.47 0.30 0.27 0.28 0.25 0.33 0.69 0.59 0.55 0.61 0.37 0.28 0.17 0.08 0.26 0.05 0.00 0.00 0.00 0.00 0.00 0.00 0.00
1.36 1.64 1.54 1.35 1.03 1.14 1.31 0.89 0.48 0.42 0.37 0.19 0.24 0.27 0.29 0.10 0.10 0.12 0.17 0.12 0.03 0.10 0.39 0.27 0.26 0.21 0.19 0.13 0.42 0.66 0.63 0.35 0.50 0.18 0.27 0.09 0.08 0.04 0.01 0.00 0.00 0.00 0.00 0.00 0.00
1.79 2.23 1.33 1.12 1.27 1.20 1.09 0.73 0.35 0.27 0.23 0.16 0.18 0.08 0.07 0.04 0.05 0.05 0.05 0.01 0.00 0.01 0.17 0.28 0.40 0.46 0.38 0.32 0.41 0.52 0.31 0.48 1.03 0.61 0.19 0.06 0.02 0.04 0.00 0.00 0.00 0.00 0.00 0.00 0.00
1.87 2.06 1.29 1.18 1.75 1.67 1.33 0.92 0.28 0.16 0.14 0.13 0.05 0.02 0.01 0.01 0.01 0.01 0.01 0.00 0.00 0.00 0.14 0.33 0.55 0.66 0.85 0.53 0.34 0.56 0.58 0.37 0.51 0.43 0.25 0.10 0.02 0.00 0.00 0.01 0.01 0.01 0.00 0.00 0.00
1.68 1.59 1.41 1.61 2.06 1.54 0.98 0.66 0.33 0.16 0.17 0.13 0.10 0.02 0.00 0.00 0.00 0.00 0.00 0.01 0.00 0.02 0.16 0.32 0.66 0.69 0.58 0.16 0.11 0.19 0.23 0.18 0.64 0.42 0.37 0.32 0.13 0.00 0.01 0.01 0.01 0.01 0.01 0.01 0.01
1.51 1.37 2.03 1.11 0.90 0.66 0.38 0.29 0.24 0.10 0.13 0.15 0.07 0.01 0.00 0.00 0.00 0.00 0.00 0.00 0.00 0.02 0.19 0.44 0.99 0.76 0.61 0.44 0.48 0.64 0.32 0.36 0.61 0.98 0.74 0.40 0.17 0.00 0.00 0.00 0.01 0.01 0.02 0.01 0.01
1.51 1.45 2.85 1.92 0.53 0.16 0.29 0.33 0.26 0.06 0.07 0.13 0.10 0.03 0.04 0.02 0.00 0.00 0.00 0.00 0.00 0.00 0.16 0.72 0.80 0.85 0.68 0.62 0.88 0.72 0.33 0.52 1.06 1.11 0.36 0.18 0.07 0.02 0.01 0.01 0.02 0.04 0.04 0.02 0.02
1.02 0.67 0.70 0.82 0.43 0.07 0.27 0.29 0.36 0.23 0.12 0.17 0.11 0.04 0.06 0.02 0.00 0.00 0.00 0.00 0.00 0.00 0.16 0.66 1.15 1.28 0.54 0.32 0.69 0.60 0.31 0.43 0.96 0.55 0.51 0.16 0.06 0.03 0.04 0.05 0.06 0.08 0.08 0.06 0.06
0.64 0.55 0.10 0.04 0.03 0.02 0.17 0.27 0.34 0.34 0.27 0.19 0.13 0.04 0.04 0.05 0.00 0.00 0.00 0.00 0.00 0.01 0.15 0.55 0.95 0.81 0.34 0.20 0.40 0.47 0.23 0.35 0.56 0.41 0.30 0.12 0.11 0.06 0.04 0.06 0.05 0.17 0.11 0.08 0.08
0.62 0.48 0.13 0.06 0.04 0.04 0.06 0.12 0.23 0.37 0.24 0.09 0.08 0.11 0.06 0.03 0.01 0.00 0.00 0.00 0.00 0.01 0.07 0.34 0.63 0.82 0.64 0.41 0.55 0.52 0.26 0.31 0.41 0.35 0.24 0.14 0.12 0.04 0.05 0.11 0.27 0.46 0.11 0.05 0.02

GFSSW_prec_precacc_039.txt.gz
Total_Precipitation_Accumulation
0.05 0.05 0.07 0.08 0.08 0.07 0.07 0.05 0.05 0.06 0.12 0.17 0.20 0.14 0.19 0.26 0.26 0.10 0.02 0.00 0.00 0.00 0.00 0.00 0.00 0.00 0.00 0.00 0.00 0.00 0.00 0.00 0.00 0.00 0.00 0.00 0.00 0.00 0.00 0.00 0.00 0.00 0.00 0.00 0.00
0.06 0.06 0.08 0.10 0.10 0.08 0.07 0.05 0.04 0.04 0.06 0.14 0.20 0.18 0.09 0.11 0.16 0.14 0.00 0.00 0.01 0.00 0.00 0.00 0.00 0.00 0.00 0.00 0.00 0.00 0.00 0.00 0.00 0.00 0.00 0.00 0.00 0.00 0.00 0.00 0.00 0.00 0.00 0.00 0.00
0.08 0.09 0.08 0.11 0.12 0.11 0.09 0.07 0.05 0.04 0.05 0.09 0.19 0.21 0.12 0.09 0.11 0.03 0.00 0.01 0.11 0.15 0.00 0.00 0.00 0.01 0.01 0.00 0.00 0.00 0.00 0.00 0.00 0.00 0.00 0.00 0.00 0.00 0.00 0.00 0.00 0.00 0.00 0.00 0.00
0.12 0.11 0.11 0.10 0.11 0.12 0.12 0.11 0.09 0.07 0.06 0.09 0.16 0.25 0.16 0.12 0.05 0.01 0.00 0.03 0.16 0.34 0.02 0.00 0.00 0.03 0.02 0.01 0.00 0.00 0.00 0.00 0.00 0.00 0.00 0.00 0.00 0.00 0.00 0.00 0.00 0.00 0.00 0.00 0.00
0.17 0.18 0.17 0.13 0.12 0.14 0.14 0.12 0.10 0.12 0.12 0.11 0.17 0.49 0.31 0.07 0.02 0.00 0.01 0.02 0.13 0.33 0.08 0.00 0.00 0.01 0.01 0.00 0.01 0.00 0.00 0.00 0.00 0.00 0.00 0.00 0.00 0.00 0.00 0.00 0.00 0.00 0.00 0.00 0.00
0.17 0.19 0.15 0.14 0.18 0.14 0.13 0.11 0.10 0.14 0.14 0.13 0.22 0.43 0.32 0.04 0.00 0.00 0.02 0.04 0.05 0.18 0.14 0.04 0.01 0.01 0.01 0.01 0.03 0.00 0.00 0.00 0.00 0.00 0.00 0.00 0.00 0.00 0.00 0.00 0.00 0.00 0.00 0.00 0.00
0.20 0.21 0.14 0.17 0.22 0.17 0.15 0.16 0.18 0.16 0.21 0.28 0.29 0.42 0.24 0.02 0.00 0.00 0.03 0.11 0.09 0.12 0.16 0.09 0.04 0.10 0.08 0.05 0.01 0.02 0.03 0.01 0.00 0.00 0.00 0.00 0.00 0.00 0.00 0.00 0.00 0.00 0.00 0.00 0.00
0.24 0.21 0.19 0.21 0.24 0.30 0.28 0.28 0.31 0.35 0.38 0.33 0.38 0.44 0.19 0.00 0.00 0.00 0.02 0.06 0.13 0.16 0.22 0.27 0.08 0.03 0.06 0.07 0.05 0.09 0.11 0.03 0.00 0.00 0.00 0.00 0.00 0.00 0.00 0.00 0.00 0.00 0.00 0.00 0.00
0.26 0.23 0.27 0.32 0.37 0.39 0.37 0.28 0.31 0.31 0.47 0.67 0.63 0.36 0.12 0.00 0.00 0.00 0.00 0.01 0.03 0.16 0.38 0.29 0.16 0.08 0.08 0.13 0.15 0.16 0.06 0.02 0.00 0.00 0.00 0.00 0.00 0.00 0.00 0.00 0.00 0.00 0.00 0.00 0.00
0.27 0.27 0.35 0.35 0.40 0.48 0.48 0.58 0.52 0.56 0.66 1.06 0.77 0.49 0.07 0.00 0.00 0.00 0.00 0.00 0.03 0.17 0.25 0.24 0.26 0.16 0.10 0.18 0.15 0.06 0.05 0.03 0.01 0.00 0.01 0.00 0.00 0.00 0.00 0.00 0.00 0.00 0.00 0.00 0.00
0.37 0.30 0.28 0.35 0.43 0.49 0.75 1.12 0.89 0.83 0.99 0.89 0.37 0.16 0.00 0.00 0.01 0.00 0.00 0.00 0.12 0.22 0.15 0.16 0.19 0.20 0.09 0.06 0.06 0.05 0.07 0.04 0.01 0.01 0.02 0.00 0.00 0.00 0.00 0.00 0.00 0.00 0.00 0.00 0.00
0.35 0.28 0.30 0.35 0.49 0.86 1.20 1.21 0.71 0.58 0.78 0.55 0.12 0.06 0.00 0.00 0.01 0.00 0.00 0.02 0.08 0.10 0.11 0.19 0.18 0.06 0.16 0.09 0.09 0.11 0.12 0.04 0.03 0.02 0.04 0.01 0.00 0.00 0.00 0.00 0.00 0.00 0.00 0.00 0.00
0.25 0.29 0.34 0.48 0.68 1.02 1.02 0.59 0.36 0.74 1.11 0.81 0.29 0.16 0.02 0.02 0.02 0.03 0.00 0.01 0.04 0.07 0.10 0.11 0.05 0.04 0.17 0.20 0.13 0.11 0.14 0.10 0.04 0.06 0.05 0.04 0.01 0.00 0.00 0.00 0.00 0.00 0.00 0.00 0.00
0.37 0.41 0.57 0.79 1.19 0.83 0.72 0.46 0.60 1.08 1.30 0.94 0.48 0.22 0.09 0.15 0.10 0.01 0.01 0.03 0.07 0.07 0.11 0.16 0.02 0.08 0.13 0.36 0.13 0.11 0.07 0.11 0.17 0.15 0.04 0.06 0.03 0.00 0.00 0.00 0.00 0.00 0.00 0.00 0.00
0.79 0.67 0.56 1.03 1.11 0.93 0.66 0.42 0.81 1.45 1.20 0.75 0.50 0.14 0.06 0.12 0.07 0.05 0.03 0.10 0.08 0.09 0.21 0.21 0.02 0.09 0.14 0.32 0.09 0.17 0.07 0.11 0.23 0.35 0.35 0.07 0.09 0.01 0.00 0.00 0.00 0.00 0.00 0.00 0.00
0.90 0.85 0.80 0.85 0.88 0.83 0.77 0.54 1.26 1.47 1.25 1.12 0.49 0.13 0.15 0.09 0.06 0.11 0.09 0.12 0.18 0.42 0.34 0.10 0.07 0.20 0.16 0.17 0.18 0.18 0.24 0.26 0.47 0.48 0.69 0.30 0.07 0.01 0.00 0.00 0.00 0.00 0.00 0.00 0.00
0.86 1.10 1.12 0.67 0.73 0.73 1.23 1.06 1.40 0.90 0.73 0.83 0.34 0.15 0.10 0.08 0.10 0.17 0.20 0.18 0.33 0.65 0.56 0.41 0.28 0.29 0.22 0.32 0.55 0.47 0.59 0.79 0.72 0.89 0.42 0.15 0.16 0.06 0.00 0.00 0.00 0.00 0.00 0.00 0.00
1.09 1.19 1.27 0.91 0.79 0.85 1.68 1.09 0.78 0.45 0.62 0.41 0.14 0.22 0.28 0.10 0.12 0.13 0.35 0.19 0.13 0.33 0.48 0.30 0.27 0.28 0.25 0.33 0.69 0.59 0.55 0.61 0.37 0.28 0.17 0.08 0.26 0.05 0.00 0.00 0.00 0.00 0.00 0.00 0.00
1.36 1.64 1.54 1.36 1.03 1.14 1.31 0.91 0.57 0.61 0.63 0.25 0.25 0.28 0.30 0.10 0.11 0.16 0.18 0.12 0.03 0.10 0.39 0.27 0.26 0.21 0.19 0.13 0.42 0.66 0.63 0.35 0.50 0.18 0.27 0.09 0.08 0.04 0.01 0.00 0.00 0.00 0.00 0.00 0.00
1.79 2.23 1.33 1.12 1.27 1.20 1.09 0.77 0.42 0.35 0.26 0.16 0.21 0.09 0.07 0.04 0.06 0.07 0.05 0.01 0.00 0.01 0.17 0.28 0.40 0.46 0.38 0.32 0.41 0.52 0.31 0.48 1.03 0.61 0.19 0.06 0.02 0.04 0.00 0.00 0.00 0.00 0.00 0.00 0.00
1.87 2.06 1.29 1.18 1.75 1.67 1.35 0.94 0.30 0.17 0.14 0.13 0.05 0.02 0.01 0.01 0.01 0.01 0.01 0.00 0.00 0.00 0.14 0.33 0.55 0.66 0.85 0.53 0.34 0.56 0.58 0.37 0.51 0.43 0.25 0.10 0.02 0.00 0.00 0.01 0.01 0.01 0.00 0.00 0.00
1.68 1.59 1.41 1.61 2.06 1.55 0.99 0.67 0.33 0.16 0.17 0.13 0.10 0.02 0.00 0.00 0.00 0.00 0.00 0.01 0.00 0.02 0.16 0.32 0.66 0.69 0.58 0.16 0.11 0.19 0.23 0.18 0.64 0.42 0.37 0.32 0.13 0.00 0.01 0.01 0.01 0.01 0.01 0.01 0.01
1.51 1.37 2.03 1.11 0.90 0.66 0.38 0.29 0.24 0.10 0.13 0.15 0.07 0.01 0.00 0.00 0.00 0.00 0.00 0.00 0.00 0.02 0.19 0.44 0.99 0.76 0.61 0.44 0.48 0.64 0.32 0.36 0.61 0.98 0.74 0.40 0.17 0.00 0.00 0.00 0.01 0.01 0.02 0.01 0.01
1.51 1.45 2.85 1.92 0.53 0.16 0.29 0.33 0.26 0.06 0.07 0.13 0.10 0.03 0.04 0.02 0.00 0.00 0.00 0.00 0.00 0.00 0.16 0.72 0.80 0.85 0.68 0.62 0.88 0.72 0.33 0.52 1.06 1.11 0.36 0.18 0.07 0.02 0.01 0.01 0.02 0.04 0.04 0.02 0.02
1.02 0.67 0.70 0.82 0.43 0.07 0.27 0.29 0.36 0.23 0.12 0.17 0.11 0.04 0.06 0.02 0.00 0.00 0.00 0.00 0.00 0.00 0.16 0.66 1.15 1.28 0.54 0.32 0.69 0.60 0.31 0.43 0.96 0.55 0.51 0.16 0.06 0.03 0.04 0.05 0.07 0.09 0.08 0.06 0.06
0.64 0.55 0.10 0.04 0.03 0.02 0.17 0.27 0.34 0.34 0.27 0.19 0.13 0.04 0.04 0.05 0.00 0.00 0.00 0.00 0.00 0.01 0.15 0.55 0.95 0.81 0.34 0.20 0.40 0.47 0.23 0.35 0.56 0.41 0.30 0.12 0.11 0.06 0.04 0.06 0.06 0.17 0.11 0.08 0.08
0.62 0.48 0.13 0.06 0.04 0.04 0.06 0.12 0.23 0.37 0.24 0.09 0.08 0.11 0.06 0.03 0.01 0.00 0.00 0.00 0.00 0.01 0.07 0.34 0.63 0.82 0.64 0.41 0.55 0.52 0.26 0.31 0.41 0.35 0.24 0.14 0.12 0.04 0.05 0.12 0.27 0.46 0.11 0.05 0.02

GFSSW_prec_precacc_042.txt.gz
Total_Precipitation_Accumulation
0.08 0.08 0.10 0.11 0.11 0.09 0.07 0.06 0.05 0.06 0.12 0.17 0.21 0.23 0.29 0.29 0.27 0.11 0.03 0.00 0.00 0.00 0.00 0.00 0.00 0.00 0.00 0.00 0.00 0.00 0.00 0.00 0.00 0.00 0.00 0.00 0.00 0.00 0.00 0.00 0.00 0.00 0.00 0.00 0.00
0.08 0.08 0.09 0.12 0.12 0.10 0.09 0.07 0.05 0.04 0.06 0.14 0.21 0.24 0.23 0.18 0.17 0.14 0.00 0.00 0.01 0.00 0.00 0.00 0.00 0.00 0.00 0.00 0.00 0.00 0.00 0.00 0.00 0.00 0.00 0.00 0.00 0.00 0.00 0.00 0.00 0.00 0.00 0.00 0.00
0.09 0.10 0.09 0.13 0.13 0.13 0.12 0.09 0.06 0.04 0.05 0.09 0.19 0.24 0.31 0.29 0.13 0.03 0.00 0.01 0.11 0.15 0.01 0.00 0.00 0.01 0.01 0.00 0.00 0.00 0.00 0.00 0.00 0.00 0.00 0.00 0.00 0.00 0.00 0.00 0.00 0.00 0.00 0.00 0.00
0.13 0.13 0.12 0.12 0.13 0.16 0.15 0.14 0.13 0.08 0.06 0.09 0.16 0.26 0.42 0.33 0.07 0.01 0.00 0.03 0.16 0.34 0.04 0.01 0.00 0.03 0.02 0.01 0.00 0.00 0.00 0.00 0.00 0.00 0.00 0.00 0.00 0.00 0.00 0.00 0.00 0.00 0.00 0.00 0.00
0.19 0.19 0.18 0.14 0.14 0.18 0.17 0.14 0.13 0.12 0.12 0.11 0.18 0.52 0.57 0.34 0.04 0.01 0.01 0.02 0.13 0.34 0.10 0.01 0.00 0.01 0.01 0.00 0.01 0.00 0.00 0.00 0.00 0.00 0.00 0.00 0.00 0.00 0.00 0.00 0.00 0.00 0.00 0.00 0.00
0.18 0.20 0.16 0.15 0.20 0.18 0.15 0.15 0.14 0.15 0.14 0.14 0.23 0.47 0.46 0.18 0.01 0.00 0.02 0.04 0.06 0.19 0.15 0.05 0.01 0.01 0.01 0.01 0.03 0.00 0.00 0.00 0.00 0.00 0.00 0.00 0.00 0.00 0.00 0.00 0.00 0.00 0.00 0.00 0.00
0.22 0.21 0.16 0.18 0.24 0.22 0.16 0.20 0.22 0.18 0.22 0.29 0.32 0.46 0.30 0.06 0.02 0.01 0.03 0.13 0.11 0.13 0.17 0.10 0.04 0.10 0.08 0.05 0.01 0.02 0.03 0.01 0.00 0.00 0.00 0.00 0.00 0.00 0.00 0.00 0.00 0.00 0.00 0.00 0.00
0.26 0.22 0.21 0.23 0.27 0.33 0.30 0.35 0.40 0.44 0.43 0.39 0.44 0.47 0.23 0.01 0.04 0.02 0.04 0.13 0.24 0.31 0.26 0.28 0.08 0.03 0.06 0.07 0.05 0.09 0.11 0.03 0.00 0.00 0.00 0.00 0.00 0.00 0.00 0.00 0.00 0.00 0.00 0.00 0.00
0.30 0.24 0.29 0.34 0.39 0.41 0.40 0.31 0.34 0.36 0.53 0.69 0.66 0.39 0.15 0.00 0.02 0.00 0.03 0.10 0.12 0.34 0.50 0.39 0.20 0.08 0.08 0.13 0.15 0.16 0.06 0.02 0.00 0.00 0.00 0.00 0.00 0.00 0.00 0.00 0.00 0.00 0.00 0.00 0.00
0.31 0.28 0.35 0.35 0.43 0.55 0.60 0.65 0.55 0.57 0.67 1.07 0.78 0.52 0.09 0.01 0.01 0.01 0.04 0.05 0.07 0.29 0.39 0.32 0.33 0.17 0.11 0.18 0.15 0.06 0.05 0.03 0.01 0.00 0.01 0.00 0.00 0.00 0.00 0.00 0.00 0.00 0.00 0.00 0.00
0.39 0.31 0.29 0.35 0.45 0.51 0.77 1.12 0.90 0.84 1.00 0.89 0.37 0.20 0.01 0.03 0.03 0.02 0.02 0.03 0.21 0.36 0.49 0.32 0.21 0.21 0.09 0.06 0.06 0.05 0.07 0.04 0.01 0.01 0.02 0.00 0.00 0.00 0.00 0.00 0.00 0.00 0.00 0.00 0.00
0.37 0.30 0.32 0.35 0.50 0.88 1.20 1.21 0.72 0.59 0.78 0.55 0.12 0.15 0.01 0.03 0.06 0.02 0.01 0.03 0.09 0.14 0.33 0.48 0.21 0.07 0.16 0.09 0.09 0.11 0.12 0.04 0.03 0.02 0.04 0.01 0.00 0.00 0.00 0.00 0.00 0.00 0.00 0.00 0.00
0.30 0.34 0.41 0.51 0.70 1.02 1.02 0.59 0.36 0.74 1.12 0.81 0.30 0.23 0.04 0.04 0.10 0.03 0.01 0.03 0.06 0.09 0.13 0.23 0.10 0.07 0.21 0.22 0.15 0.11 0.14 0.10 0.04 0.06 0.05 0.04 0.01 0.00 0.00 0.00 0.00 0.00 0.00 0.00 0.00
0.41 0.44 0.64 0.87 1.20 0.83 0.72 0.46 0.60 1.08 1.31 0.94 0.49 0.25 0.12 0.16 0.20 0.01 0.02 0.07 0.10 0.10 0.13 0.16 0.02 0.12 0.16 0.42 0.16 0.12 0.07 0.11 0.17 0.15 0.04 0.06 0.03 0.00 0.00 0.00 0.00 0.00 0.00 0.00 0.00
0.81 0.70 0.59 1.09 1.12 0.93 0.67 0.42 0.81 1.45 1.20 0.76 0.53 0.23 0.14 0.13 0.11 0.06 0.04 0.12 0.10 0.10 0.23 0.22 0.03 0.11 0.17 0.34 0.13 0.19 0.07 0.11 0.23 0.35 0.35 0.07 0.09 0.01 0.00 0.00 0.00 0.00 0.00 0.00 0.00
0.90 0.88 0.80 0.85 0.88 0.84 0.77 0.54 1.26 1.49 1.32 1.20 0.62 0.34 0.23 0.11 0.07 0.12 0.12 0.13 0.19 0.44 0.35 0.12 0.08 0.20 0.17 0.18 0.19 0.18 0.24 0.26 0.47 0.48 0.69 0.30 0.07 0.01 0.00 0.00 0.00 0.00 0.00 0.00 0.00
0.86 1.10 1.12 0.67 0.73 0.73 1.23 1.06 1.41 0.93 0.78 0.90 0.50 0.23 0.11 0.10 0.11 0.20 0.30 0.19 0.35 0.69 0.61 0.46 0.31 0.29 0.22 0.33 0.56 0.47 0.59 0.79 0.72 0.89 0.42 0.15 0.16 0.06 0.00 0.00 0.00 0.00 0.00 0.00 0.00
1.09 1.19 1.27 0.91 0.79 0.85 1.69 1.10 0.82 0.50 0.74 0.58 0.18 0.23 0.29 0.13 0.14 0.21 0.40 0.20 0.13 0.33 0.48 0.31 0.28 0.28 0.25 0.33 0.69 0.59 0.55 0.61 0.37 0.28 0.17 0.08 0.26 0.05 0.00 0.00 0.00 0.00 0.00 0.00 0.00
1.36 1.64 1.54 1.36 1.03 1.14 1.33 0.94 0.65 0.76 0.85 0.37 0.27 0.30 0.32 0.11 0.13 0.22 0.18 0.12 0.03 0.10 0.39 0.27 0.26 0.21 0.19 0.13 0.42 0.66 0.63 0.35 0.50 0.18 0.27 0.09 0.08 0.04 0.01 0.00 0.00 0.00 0.00 0.00 0.00
1.79 2.23 1.33 1.12 1.27 1.20 1.09 0.81 0.45 0.37 0.28 0.16 0.23 0.10 0.08 0.04 0.08 0.07 0.05 0.01 0.00 0.01 0.17 0.28 0.40 0.46 0.38 0.32 0.41 0.52 0.31 0.48 1.03 0.61 0.19 0.06 0.02 0.04 0.00 0.00 0.00 0.00 0.00 0.00 0.00
1.87 2.06 1.29 1.18 1.75 1.67 1.35 0.94 0.30 0.17 0.14 0.13 0.05 0.02 0.01 0.01 0.01 0.01 0.01 0.00 0.00 0.00 0.14 0.33 0.55 0.66 0.85 0.53 0.34 0.56 0.58 0.37 0.51 0.43 0.25 0.10 0.02 0.00 0.00 0.01 0.01 0.01 0.00 0.00 0.00
1.68 1.59 1.41 1.61 2.06 1.55 0.99 0.67 0.33 0.16 0.17 0.13 0.10 0.02 0.00 0.00 0.00 0.00 0.00 0.01 0.00 0.02 0.16 0.32 0.66 0.69 0.58 0.16 0.11 0.19 0.23 0.18 0.64 0.42 0.37 0.32 0.13 0.00 0.01 0.01 0.01 0.01 0.01 0.01 0.01
1.51 1.37 2.03 1.11 0.90 0.66 0.38 0.29 0.24 0.10 0.13 0.15 0.07 0.01 0.00 0.00 0.00 0.00 0.00 0.00 0.00 0.02 0.19 0.44 0.99 0.76 0.61 0.44 0.48 0.64 0.32 0.36 0.61 0.98 0.74 0.40 0.17 0.00 0.00 0.00 0.01 0.01 0.02 0.01 0.01
1.51 1.45 2.85 1.92 0.53 0.16 0.29 0.33 0.26 0.06 0.07 0.13 0.10 0.03 0.04 0.02 0.00 0.00 0.00 0.00 0.00 0.00 0.16 0.72 0.80 0.85 0.68 0.62 0.88 0.72 0.33 0.52 1.06 1.11 0.36 0.18 0.07 0.02 0.01 0.01 0.02 0.04 0.04 0.02 0.02
1.02 0.67 0.70 0.82 0.43 0.07 0.27 0.29 0.36 0.23 0.12 0.17 0.11 0.04 0.06 0.02 0.00 0.00 0.00 0.00 0.00 0.00 0.16 0.66 1.15 1.28 0.54 0.32 0.69 0.60 0.31 0.43 0.96 0.55 0.51 0.16 0.06 0.03 0.04 0.05 0.07 0.09 0.08 0.06 0.06
0.64 0.55 0.10 0.04 0.03 0.02 0.17 0.27 0.34 0.34 0.27 0.19 0.13 0.04 0.04 0.05 0.00 0.00 0.00 0.00 0.00 0.01 0.15 0.55 0.95 0.81 0.34 0.20 0.40 0.47 0.23 0.35 0.56 0.41 0.30 0.12 0.11 0.06 0.04 0.06 0.06 0.17 0.11 0.08 0.08
0.62 0.48 0.13 0.06 0.04 0.04 0.06 0.12 0.23 0.37 0.24 0.09 0.08 0.11 0.07 0.03 0.01 0.00 0.00 0.00 0.00 0.01 0.07 0.34 0.63 0.82 0.64 0.41 0.55 0.52 0.26 0.31 0.41 0.35 0.24 0.14 0.12 0.04 0.05 0.12 0.27 0.46 0.11 0.05 0.02

GFSSW_prec_precacc_045.txt.gz
Total_Precipitation_Accumulation
0.08 0.10 0.12 0.12 0.12 0.10 0.10 0.09 0.10 0.08 0.12 0.17 0.21 0.23 0.32 0.37 0.34 0.13 0.04 0.00 0.00 0.00 0.00 0.00 0.00 0.00 0.00 0.00 0.00 0.00 0.00 0.00 0.00 0.00 0.00 0.00 0.00 0.00 0.00 0.00 0.00 0.00 0.00 0.00 0.00
0.09 0.09 0.10 0.12 0.13 0.12 0.11 0.11 0.09 0.08 0.07 0.14 0.21 0.24 0.24 0.30 0.28 0.16 0.00 0.00 0.01 0.00 0.00 0.00 0.01 0.00 0.00 0.00 0.00 0.00 0.00 0.00 0.00 0.00 0.00 0.00 0.00 0.00 0.00 0.00 0.00 0.00 0.00 0.00 0.00
0.10 0.11 0.11 0.14 0.15 0.14 0.13 0.12 0.09 0.07 0.07 0.09 0.19 0.24 0.31 0.33 0.22 0.04 0.00 0.01 0.11 0.15 0.01 0.00 0.01 0.01 0.01 0.00 0.00 0.00 0.00 0.00 0.00 0.00 0.00 0.00 0.00 0.00 0.00 0.00 0.00 0.00 0.00 0.00 0.00
0.14 0.14 0.14 0.13 0.14 0.17 0.17 0.15 0.16 0.11 0.10 0.10 0.16 0.26 0.44 0.45 0.16 0.02 0.01 0.03 0.16 0.34 0.05 0.01 0.01 0.03 0.02 0.01 0.00 0.00 0.00 0.00 0.00 0.00 0.00 0.00 0.00 0.00 0.00 0.00 0.00 0.00 0.00 0.00 0.00
0.20 0.22 0.18 0.15 0.14 0.19 0.18 0.15 0.17 0.14 0.14 0.12 0.19 0.52 0.60 0.44 0.10 0.05 0.03 0.02 0.13 0.34 0.11 0.02 0.01 0.01 0.01 0.00 0.01 0.00 0.00 0.00 0.00 0.00 0.00 0.00 0.00 0.00 0.00 0.00 0.00 0.00 0.00 0.00 0.00
0.21 0.23 0.17 0.16 0.21 0.20 0.16 0.17 0.18 0.16 0.16 0.15 0.24 0.49 0.50 0.24 0.03 0.05 0.02 0.05 0.06 0.19 0.16 0.06 0.01 0.01 0.01 0.01 0.03 0.00 0.00 0.00 0.00 0.00 0.00 0.00 0.00 0.00 0.00 0.00 0.00 0.00 0.00 0.00 0.00
0.26 0.25 0.18 0.20 0.25 0.23 0.19 0.23 0.27 0.20 0.23 0.29 0.36 0.51 0.35 0.08 0.02 0.04 0.04 0.13 0.11 0.13 0.17 0.11 0.04 0.10 0.08 0.05 0.01 0.02 0.03 0.01 0.00 0.00 0.00 0.00 0.00 0.00 0.00 0.00 0.00 0.00 0.00 0.00 0.00
0.30 0.27 0.24 0.24 0.27 0.33 0.33 0.37 0.44 0.52 0.55 0.44 0.50 0.53 0.24 0.02 0.05 0.04 0.06 0.16 0.25 0.37 0.29 0.31 0.08 0.03 0.06 0.07 0.05 0.09 0.11 0.03 0.00 0.00 0.00 0.00 0.00 0.00 0.00 0.00 0.00 0.00 0.00 0.00 0.00
0.35 0.29 0.30 0.35 0.39 0.41 0.45 0.32 0.38 0.41 0.63 0.75 0.71 0.42 0.17 0.02 0.03 0.02 0.06 0.21 0.17 0.44 0.63 0.53 0.26 0.10 0.08 0.13 0.15 0.16 0.06 0.02 0.00 0.00 0.00 0.00 0.00 0.00 0.00 0.00 0.00 0.00 0.00 0.00 0.00
0.36 0.32 0.37 0.36 0.43 0.56 0.65 0.66 0.56 0.57 0.67 1.08 0.80 0.53 0.10 0.02 0.02 0.02 0.05 0.21 0.15 0.39 0.54 0.43 0.38 0.18 0.11 0.18 0.15 0.06 0.05 0.03 0.01 0.00 0.01 0.00 0.00 0.00 0.00 0.00 0.00 0.00 0.00 0.00 0.00
0.46 0.38 0.36 0.41 0.46 0.52 0.78 1.12 0.90 0.84 1.00 0.89 0.38 0.22 0.06 0.05 0.04 0.04 0.06 0.19 0.38 0.47 0.56 0.34 0.23 0.22 0.10 0.06 0.06 0.05 0.07 0.04 0.01 0.01 0.02 0.00 0.00 0.00 0.00 0.00 0.00 0.00 0.00 0.00 0.00
0.42 0.38 0.43 0.48 0.52 0.90 1.20 1.21 0.72 0.59 0.78 0.55 0.12 0.17 0.03 0.05 0.13 0.04 0.07 0.22 0.29 0.34 0.65 0.61 0.23 0.07 0.16 0.09 0.09 0.11 0.12 0.04 0.03 0.02 0.04 0.01 0.00 0.00 0.00 0.00 0.00 0.00 0.00 0.00 0.00
0.35 0.40 0.47 0.62 0.73 1.03 1.02 0.59 0.36 0.74 1.12 0.81 0.31 0.28 0.05 0.06 0.22 0.04 0.10 0.13 0.16 0.32 0.51 0.62 0.20 0.08 0.22 0.22 0.15 0.11 0.14 0.10 0.04 0.06 0.05 0.04 0.01 0.00 0.00 0.00 0.00 0.00 0.00 0.00 0.00
0.43 0.47 0.66 0.91 1.22 0.83 0.72 0.46 0.60 1.08 1.31 0.94 0.53 0.30 0.16 0.20 0.35 0.01 0.04 0.09 0.14 0.27 0.29 0.46 0.25 0.20 0.21 0.44 0.17 0.13 0.07 0.11 0.17 0.15 0.04 0.06 0.03 0.00 0.00 0.00 0.00 0.00 0.00 0.00 0.00
0.81 0.70 0.59 1.10 1.12 0.94 0.68 0.42 0.81 1.45 1.23 0.80 0.65 0.36 0.24 0.16 0.19 0.07 0.05 0.13 0.11 0.11 0.24 0.24 0.10 0.18 0.22 0.38 0.14 0.19 0.07 0.11 0.23 0.35 0.35 0.07 0.09 0.01 0.00 0.00 0.00 0.00 0.00 0.00 0.00
0.91 0.88 0.80 0.85 0.88 0.84 0.77 0.54 1.26 1.50 1.36 1.26 0.69 0.48 0.26 0.14 0.10 0.13 0.16 0.14 0.21 0.45 0.36 0.12 0.09 0.24 0.26 0.20 0.21 0.19 0.25 0.26 0.47 0.48 0.69 0.30 0.07 0.01 0.00 0.00 0.00 0.00 0.00 0.00 0.00
0.86 1.10 1.12 0.67 0.73 0.73 1.23 1.06 1.41 0.94 0.80 0.92 0.60 0.30 0.12 0.12 0.13 0.22 0.41 0.20 0.36 0.71 0.65 0.51 0.33 0.29 0.26 0.35 0.57 0.48 0.60 0.79 0.72 0.89 0.42 0.15 0.16 0.06 0.00 0.00 0.00 0.00 0.00 0.00 0.00
1.09 1.19 1.27 0.91 0.79 0.85 1.69 1.10 0.83 0.51 0.77 0.67 0.28 0.27 0.32 0.15 0.14 0.23 0.50 0.21 0.13 0.34 0.49 0.34 0.33 0.29 0.25 0.33 0.69 0.59 0.55 0.61 0.37 0.28 0.17 0.08 0.26 0.05 0.00 0.00 0.00 0.00 0.00 0.00 0.00
1.36 1.64 1.54 1.36 1.03 1.14 1.33 0.94 0.67 0.78 0.89 0.44 0.28 0.31 0.33 0.11 0.14 0.27 0.30 0.14 0.03 0.10 0.39 0.27 0.26 0.21 0.19 0.13 0.42 0.66 0.63 0.35 0.50 0.18 0.27 0.09 0.08 0.04 0.01 0.00 0.00 0.00 0.00 0.00 0.00
1.79 2.23 1.33 1.12 1.27 1.20 1.09 0.82 0.46 0.38 0.28 0.16 0.23 0.11 0.08 0.04 0.08 0.09 0.07 0.01 0.00 0.01 0.17 0.28 0.40 0.46 0.38 0.32 0.41 0.52 0.31 0.48 1.03 0.61 0.19 0.06 0.02 0.04 0.00 0.00 0.00 0.00 0.00 0.00 0.00
1.87 2.06 1.29 1.18 1.75 1.67 1.35 0.94 0.30 0.17 0.14 0.13 0.05 0.02 0.01 0.01 0.01 0.01 0.01 0.00 0.00 0.00 0.14 0.33 0.55 0.66 0.85 0.53 0.34 0.56 0.58 0.37 0.51 0.43 0.25 0.10 0.02 0.00 0.00 0.01 0.01 0.01 0.00 0.00 0.00
1.68 1.59 1.41 1.61 2.06 1.55 0.99 0.67 0.33 0.16 0.17 0.13 0.10 0.02 0.00 0.00 0.00 0.00 0.00 0.01 0.00 0.02 0.16 0.32 0.66 0.69 0.58 0.16 0.11 0.19 0.23 0.18 0.64 0.42 0.37 0.32 0.13 0.00 0.01 0.01 0.01 0.01 0.01 0.01 0.01
1.51 1.37 2.03 1.11 0.90 0.66 0.38 0.29 0.24 0.10 0.13 0.15 0.07 0.01 0.00 0.00 0.00 0.00 0.00 0.00 0.00 0.02 0.19 0.44 0.99 0.76 0.61 0.44 0.48 0.64 0.32 0.36 0.61 0.98 0.74 0.40 0.17 0.00 0.00 0.00 0.01 0.01 0.02 0.01 0.01
1.51 1.45 2.85 1.92 0.53 0.16 0.29 0.33 0.26 0.06 0.07 0.13 0.10 0.03 0.04 0.02 0.00 0.00 0.00 0.00 0.00 0.00 0.16 0.72 0.80 0.85 0.68 0.62 0.88 0.72 0.33 0.52 1.06 1.11 0.36 0.18 0.07 0.02 0.01 0.01 0.02 0.04 0.04 0.02 0.02
1.02 0.67 0.70 0.82 0.43 0.07 0.27 0.29 0.36 0.23 0.12 0.17 0.11 0.04 0.06 0.02 0.00 0.00 0.00 0.00 0.00 0.00 0.16 0.66 1.15 1.28 0.54 0.32 0.69 0.60 0.31 0.43 0.96 0.55 0.51 0.16 0.06 0.03 0.04 0.05 0.07 0.09 0.08 0.06 0.06
0.64 0.55 0.10 0.04 0.03 0.02 0.17 0.27 0.34 0.34 0.27 0.19 0.13 0.04 0.04 0.05 0.00 0.00 0.00 0.00 0.00 0.01 0.15 0.55 0.95 0.81 0.34 0.20 0.40 0.47 0.23 0.35 0.56 0.41 0.30 0.12 0.11 0.06 0.04 0.06 0.06 0.17 0.11 0.08 0.08
0.62 0.48 0.13 0.06 0.04 0.04 0.06 0.12 0.23 0.37 0.24 0.09 0.08 0.11 0.07 0.03 0.01 0.00 0.00 0.00 0.00 0.01 0.07 0.34 0.63 0.82 0.64 0.41 0.55 0.52 0.26 0.31 0.41 0.35 0.24 0.14 0.12 0.04 0.05 0.12 0.27 0.46 0.11 0.05 0.02

GFSSW_prec_precacc_048.txt.gz
Total_Precipitation_Accumulation
0.09 0.11 0.13 0.12 0.12 0.11 0.10 0.10 0.11 0.12 0.18 0.21 0.21 0.23 0.32 0.38 0.36 0.18 0.06 0.00 0.00 0.00 0.00 0.00 0.01 0.01 0.00 0.00 0.00 0.00 0.00 0.00 0.00 0.00 0.00 0.00 0.00 0.00 0.00 0.00 0.00 0.00 0.00 0.00 0.00
0.09 0.10 0.11 0.13 0.14 0.13 0.12 0.12 0.10 0.09 0.11 0.17 0.21 0.24 0.24 0.30 0.29 0.17 0.01 0.00 0.01 0.00 0.01 0.00 0.02 0.01 0.00 0.00 0.00 0.00 0.00 0.00 0.00 0.00 0.00 0.00 0.00 0.00 0.00 0.00 0.00 0.00 0.00 0.00 0.00
0.11 0.12 0.12 0.16 0.15 0.14 0.13 0.12 0.09 0.08 0.09 0.11 0.19 0.24 0.31 0.33 0.23 0.04 0.00 0.01 0.11 0.15 0.01 0.00 0.03 0.02 0.01 0.00 0.00 0.00 0.00 0.00 0.00 0.00 0.00 0.00 0.00 0.00 0.00 0.00 0.00 0.00 0.00 0.00 0.00
0.15 0.16 0.17 0.15 0.16 0.18 0.17 0.15 0.17 0.14 0.12 0.14 0.19 0.27 0.44 0.46 0.17 0.03 0.01 0.03 0.17 0.34 0.06 0.02 0.03 0.05 0.02 0.01 0.00 0.00 0.00 0.00 0.00 0.00 0.00 0.00 0.00 0.00 0.00 0.00 0.00 0.00 0.00 0.00 0.00
0.22 0.25 0.20 0.18 0.16 0.21 0.19 0.17 0.20 0.16 0.16 0.13 0.21 0.55 0.61 0.45 0.11 0.07 0.04 0.03 0.17 0.36 0.11 0.03 0.02 0.02 0.02 0.00 0.01 0.00 0.00 0.00 0.00 0.00 0.00 0.00 0.00 0.00 0.00 0.00 0.00 0.00 0.00 0.00 0.00
0.22 0.25 0.19 0.19 0.24 0.21 0.18 0.21 0.21 0.20 0.20 0.15 0.27 0.53 0.53 0.26 0.04 0.06 0.04 0.05 0.06 0.20 0.17 0.07 0.01 0.01 0.01 0.01 0.03 0.00 0.00 0.00 0.00 0.00 0.00 0.00 0.00 0.00 0.00 0.00 0.00 0.00 0.00 0.00 0.00
0.28 0.28 0.21 0.22 0.26 0.24 0.20 0.25 0.30 0.21 0.24 0.32 0.41 0.55 0.36 0.09 0.03 0.07 0.05 0.14 0.13 0.14 0.18 0.12 0.04 0.10 0.08 0.05 0.01 0.02 0.03 0.01 0.00 0.00 0.00 0.00 0.00 0.00 0.00 0.00 0.00 0.00 0.00 0.00 0.00
0.36 0.33 0.30 0.26 0.28 0.34 0.33 0.40 0.48 0.56 0.59 0.46 0.56 0.57 0.25 0.02 0.05 0.08 0.08 0.18 0.29 0.38 0.34 0.36 0.09 0.04 0.06 0.07 0.05 0.09 0.11 0.03 0.00 0.00 0.00 0.00 0.00 0.00 0.00 0.00 0.00 0.00 0.00 0.00 0.00
0.42 0.38 0.38 0.40 0.39 0.41 0.45 0.33 0.42 0.44 0.70 0.78 0.76 0.46 0.19 0.05 0.04 0.05 0.08 0.23 0.20 0.50 0.75 0.71 0.32 0.12 0.09 0.13 0.15 0.16 0.06 0.02 0.00 0.00 0.00 0.00 0.00 0.00 0.00 0.00 0.00 0.00 0.00 0.00 0.00
0.44 0.40 0.44 0.45 0.48 0.57 0.66 0.66 0.56 0.57 0.67 1.11 0.82 0.56 0.10 0.05 0.02 0.03 0.06 0.27 0.18 0.47 0.72 0.65 0.51 0.24 0.12 0.18 0.15 0.06 0.05 0.03 0.01 0.00 0.01 0.00 0.00 0.00 0.00 0.00 0.00 0.00 0.00 0.00 0.00
0.50 0.42 0.40 0.49 0.57 0.53 0.78 1.12 0.90 0.84 1.01 0.89 0.38 0.23 0.11 0.15 0.06 0.06 0.08 0.31 0.47 0.57 0.62 0.45 0.33 0.23 0.10 0.06 0.06 0.05 0.07 0.04 0.01 0.01 0.02 0.00 0.00 0.00 0.00 0.00 0.00 0.00 0.00 0.00 0.00
0.45 0.39 0.45 0.52 0.62 0.90 1.20 1.21 0.72 0.59 0.78 0.55 0.12 0.17 0.07 0.08 0.15 0.08 0.13 0.60 0.36 0.39 0.72 0.66 0.25 0.07 0.17 0.09 0.09 0.11 0.12 0.04 0.03 0.02 0.04 0.01 0.00 0.00 0.00 0.00 0.00 0.00 0.00 0.00 0.00
0.35 0.40 0.48 0.65 0.76 1.03 1.02 0.59 0.36 0.74 1.12 0.81 0.31 0.29 0.12 0.07 0.24 0.08 0.25 0.55 0.40 0.39 0.56 0.64 0.20 0.08 0.22 0.23 0.15 0.11 0.14 0.10 0.04 0.06 0.05 0.04 0.01 0.00 0.00 0.00 0.00 0.00 0.00 0.00 0.00
0.43 0.47 0.66 0.93 1.22 0.83 0.73 0.47 0.60 1.08 1.31 0.97 0.58 0.32 0.20 0.22 0.40 0.02 0.46 0.49 0.57 0.49 0.46 0.60 0.31 0.23 0.21 0.45 0.17 0.13 0.07 0.11 0.17 0.15 0.04 0.06 0.03 0.00 0.00 0.00 0.00 0.00 0.00 0.00 0.00
0.82 0.70 0.59 1.10 1.12 0.94 0.68 0.42 0.81 1.45 1.30 0.85 0.72 0.42 0.30 0.22 0.26 0.13 0.38 0.37 0.35 0.36 0.49 0.44 0.31 0.38 0.26 0.41 0.15 0.20 0.07 0.11 0.23 0.35 0.35 0.07 0.09 0.01 0.00 0.00 0.00 0.00 0.00 0.00 0.00
0.91 0.88 0.80 0.85 0.88 0.84 0.77 0.54 1.26 1.50 1.41 1.32 0.77 0.58 0.27 0.18 0.12 0.16 0.23 0.19 0.25 0.48 0.42 0.26 0.25 0.46 0.33 0.29 0.24 0.20 0.25 0.26 0.47 0.48 0.69 0.30 0.07 0.01 0.00 0.00 0.00 0.00 0.00 0.00 0.00
0.86 1.10 1.12 0.67 0.73 0.73 1.23 1.06 1.41 0.95 0.83 0.99 0.70 0.31 0.12 0.14 0.15 0.22 0.43 0.21 0.36 0.72 0.67 0.57 0.40 0.35 0.34 0.45 0.62 0.48 0.61 0.81 0.73 0.89 0.42 0.15 0.16 0.06 0.00 0.00 0.00 0.00 0.00 0.00 0.00
1.09 1.19 1.27 0.91 0.79 0.85 1.69 1.10 0.83 0.52 0.80 0.73 0.30 0.28 0.34 0.16 0.16 0.26 0.55 0.21 0.13 0.34 0.51 0.40 0.39 0.31 0.29 0.36 0.70 0.60 0.56 0.61 0.37 0.28 0.17 0.08 0.26 0.05 0.00 0.00 0.00 0.00 0.00 0.00 0.00
1.36 1.64 1.54 1.36 1.03 1.14 1.33 0.94 0.67 0.78 0.90 0.45 0.29 0.31 0.33 0.11 0.14 0.31 0.32 0.14 0.03 0.11 0.40 0.29 0.28 0.21 0.19 0.13 0.42 0.66 0.63 0.35 0.50 0.18 0.27 0.09 0.08 0.04 0.01 0.00 0.00 0.00 0.00 0.00 0.00
1.79 2.23 1.33 1.12 1.27 1.20 1.09 0.82 0.46 0.38 0.28 0.16 0.23 0.11 0.08 0.04 0.09 0.09 0.11 0.02 0.00 0.01 0.17 0.28 0.40 0.46 0.38 0.32 0.41 0.52 0.31 0.48 1.03 0.61 0.19 0.06 0.02 0.04 0.00 0.00 0.00 0.00 0.00 0.00 0.00
1.87 2.06 1.29 1.18 1.75 1.67 1.35 0.94 0.30 0.17 0.14 0.13 0.05 0.02 0.01 0.01 0.01 0.01 0.01 0.00 0.00 0.00 0.14 0.33 0.55 0.66 0.85 0.53 0.34 0.56 0.58 0.37 0.51 0.43 0.25 0.10 0.02 0.00 0.00 0.01 0.01 0.01 0.00 0.00 0.00
1.68 1.59 1.41 1.61 2.06 1.55 0.99 0.67 0.33 0.16 0.17 0.13 0.10 0.02 0.00 0.00 0.00 0.00 0.00 0.01 0.00 0.02 0.16 0.32 0.66 0.69 0.58 0.16 0.11 0.19 0.23 0.18 0.64 0.42 0.37 0.32 0.13 0.00 0.01 0.01 0.01 0.01 0.01 0.01 0.01
1.51 1.37 2.03 1.11 0.90 0.66 0.38 0.29 0.24 0.10 0.13 0.15 0.07 0.01 0.00 0.00 0.00 0.00 0.00 0.00 0.00 0.02 0.19 0.44 0.99 0.76 0.61 0.44 0.48 0.64 0.32 0.36 0.61 0.98 0.74 0.40 0.17 0.00 0.00 0.00 0.01 0.01 0.02 0.01 0.01
1.51 1.45 2.85 1.92 0.53 0.16 0.29 0.33 0.26 0.06 0.07 0.13 0.10 0.03 0.04 0.02 0.00 0.00 0.00 0.00 0.00 0.00 0.16 0.72 0.80 0.85 0.68 0.62 0.88 0.72 0.33 0.52 1.06 1.11 0.36 0.18 0.07 0.02 0.01 0.01 0.02 0.04 0.04 0.02 0.02
1.02 0.67 0.70 0.82 0.43 0.07 0.27 0.29 0.36 0.23 0.12 0.17 0.11 0.04 0.06 0.02 0.00 0.00 0.00 0.00 0.00 0.00 0.16 0.66 1.15 1.28 0.54 0.32 0.69 0.60 0.31 0.43 0.96 0.55 0.51 0.16 0.06 0.03 0.04 0.05 0.07 0.09 0.08 0.06 0.06
0.64 0.55 0.10 0.04 0.03 0.02 0.17 0.27 0.34 0.34 0.27 0.19 0.13 0.04 0.04 0.05 0.00 0.00 0.00 0.00 0.00 0.01 0.15 0.55 0.95 0.81 0.34 0.20 0.40 0.47 0.23 0.35 0.56 0.41 0.30 0.12 0.11 0.06 0.04 0.06 0.06 0.17 0.11 0.08 0.08
0.62 0.48 0.13 0.06 0.04 0.04 0.06 0.12 0.23 0.37 0.24 0.09 0.08 0.11 0.07 0.03 0.01 0.00 0.00 0.00 0.00 0.01 0.07 0.34 0.63 0.82 0.64 0.41 0.55 0.52 0.26 0.31 0.41 0.35 0.24 0.14 0.12 0.04 0.05 0.12 0.27 0.46 0.11 0.05 0.02

GFSSW_prec_precacc_051.txt.gz
Total_Precipitation_Accumulation
0.09 0.11 0.14 0.14 0.14 0.12 0.11 0.11 0.12 0.13 0.19 0.24 0.26 0.26 0.32 0.38 0.36 0.19 0.09 0.01 0.00 0.01 0.01 0.00 0.01 0.01 0.00 0.00 0.00 0.00 0.00 0.00 0.00 0.00 0.00 0.00 0.00 0.00 0.00 0.00 0.00 0.00 0.00 0.00 0.00
0.10 0.12 0.14 0.15 0.15 0.13 0.12 0.12 0.11 0.10 0.11 0.19 0.26 0.28 0.24 0.30 0.29 0.17 0.02 0.03 0.01 0.00 0.01 0.00 0.02 0.03 0.00 0.00 0.00 0.00 0.00 0.00 0.00 0.00 0.00 0.00 0.00 0.00 0.00 0.00 0.00 0.00 0.00 0.00 0.00
0.12 0.14 0.14 0.17 0.17 0.15 0.14 0.13 0.10 0.08 0.10 0.13 0.21 0.27 0.32 0.33 0.23 0.04 0.00 0.01 0.13 0.15 0.02 0.00 0.03 0.04 0.01 0.00 0.00 0.00 0.00 0.00 0.00 0.00 0.00 0.00 0.00 0.00 0.00 0.00 0.00 0.00 0.00 0.00 0.00
0.16 0.17 0.18 0.16 0.18 0.20 0.18 0.16 0.17 0.14 0.12 0.15 0.20 0.33 0.47 0.47 0.18 0.04 0.01 0.04 0.20 0.36 0.06 0.02 0.04 0.06 0.02 0.01 0.00 0.00 0.00 0.00 0.00 0.00 0.00 0.00 0.00 0.00 0.00 0.00 0.00 0.00 0.00 0.00 0.00
0.22 0.26 0.21 0.19 0.19 0.24 0.21 0.17 0.22 0.18 0.16 0.13 0.25 0.64 0.66 0.46 0.11 0.10 0.06 0.07 0.27 0.42 0.12 0.03 0.02 0.03 0.02 0.00 0.01 0.00 0.00 0.00 0.00 0.00 0.00 0.00 0.00 0.00 0.00 0.00 0.00 0.00 0.00 0.00 0.00
0.26 0.30 0.22 0.23 0.28 0.23 0.19 0.21 0.23 0.25 0.29 0.17 0.34 0.59 0.57 0.28 0.04 0.07 0.07 0.06 0.13 0.27 0.18 0.07 0.01 0.02 0.02 0.01 0.03 0.00 0.00 0.00 0.00 0.00 0.00 0.00 0.00 0.00 0.00 0.00 0.00 0.00 0.00 0.00 0.00
0.34 0.35 0.29 0.34 0.31 0.25 0.20 0.25 0.33 0.26 0.28 0.34 0.50 0.59 0.38 0.09 0.06 0.10 0.07 0.14 0.14 0.19 0.19 0.12 0.04 0.12 0.09 0.06 0.01 0.02 0.03 0.01 0.00 0.00 0.00 0.00 0.00 0.00 0.00 0.00 0.00 0.00 0.00 0.00 0.00
0.41 0.39 0.36 0.39 0.31 0.34 0.33 0.40 0.51 0.60 0.64 0.47 0.61 0.62 0.27 0.02 0.06 0.11 0.11 0.19 0.32 0.46 0.34 0.40 0.09 0.06 0.07 0.08 0.05 0.09 0.11 0.03 0.00 0.00 0.00 0.00 0.00 0.00 0.00 0.00 0.00 0.00 0.00 0.00 0.00
0.47 0.42 0.42 0.47 0.46 0.42 0.45 0.33 0.43 0.45 0.73 0.79 0.77 0.51 0.22 0.06 0.05 0.07 0.10 0.23 0.27 0.55 0.78 0.82 0.43 0.16 0.10 0.13 0.15 0.16 0.06 0.02 0.00 0.00 0.00 0.00 0.00 0.00 0.00 0.00 0.00 0.00 0.00 0.00 0.00
0.47 0.42 0.47 0.47 0.53 0.59 0.66 0.66 0.56 0.57 0.68 1.12 0.83 0.59 0.11 0.07 0.06 0.10 0.09 0.29 0.25 0.50 0.82 0.80 0.68 0.31 0.14 0.18 0.15 0.06 0.05 0.03 0.01 0.00 0.01 0.00 0.00 0.00 0.00 0.00 0.00 0.00 0.00 0.00 0.00
0.52 0.43 0.41 0.50 0.62 0.54 0.78 1.12 0.90 0.87 1.05 0.91 0.38 0.25 0.15 0.21 0.16 0.17 0.14 0.37 0.50 0.60 0.67 0.57 0.47 0.27 0.10 0.06 0.06 0.05 0.07 0.04 0.01 0.01 0.02 0.00 0.00 0.00 0.00 0.00 0.00 0.00 0.00 0.00 0.00
0.46 0.40 0.45 0.52 0.62 0.90 1.20 1.21 0.72 0.60 0.79 0.55 0.12 0.17 0.10 0.14 0.32 0.18 0.25 0.69 0.38 0.42 0.75 0.75 0.40 0.08 0.17 0.09 0.09 0.11 0.12 0.04 0.03 0.02 0.04 0.01 0.00 0.00 0.00 0.00 0.00 0.00 0.00 0.00 0.00
0.36 0.41 0.48 0.65 0.76 1.03 1.02 0.60 0.36 0.74 1.13 0.81 0.31 0.33 0.27 0.13 0.29 0.11 0.40 0.69 0.42 0.41 0.58 0.66 0.26 0.09 0.23 0.23 0.15 0.11 0.14 0.10 0.04 0.06 0.05 0.04 0.01 0.00 0.00 0.00 0.00 0.00 0.00 0.00 0.00
0.44 0.47 0.66 0.93 1.22 0.83 0.73 0.47 0.60 1.08 1.34 1.00 0.65 0.59 0.33 0.35 0.48 0.09 0.65 0.63 0.61 0.51 0.51 0.68 0.38 0.24 0.22 0.45 0.17 0.13 0.07 0.11 0.17 0.15 0.04 0.06 0.03 0.00 0.00 0.00 0.00 0.00 0.00 0.00 0.00
0.82 0.70 0.59 1.10 1.12 0.94 0.68 0.42 0.81 1.46 1.39 0.90 0.79 0.52 0.46 0.29 0.34 0.27 0.66 0.53 0.39 0.38 0.58 0.57 0.36 0.40 0.27 0.41 0.15 0.20 0.07 0.11 0.23 0.35 0.35 0.07 0.09 0.01 0.00 0.00 0.00 0.00 0.00 0.00 0.00
0.91 0.88 0.80 0.85 0.88 0.84 0.77 0.54 1.26 1.51 1.45 1.34 0.82 0.62 0.31 0.28 0.18 0.42 0.61 0.36 0.40 0.57 0.59 0.35 0.34 0.54 0.34 0.29 0.25 0.20 0.25 0.26 0.47 0.48 0.69 0.30 0.07 0.01 0.00 0.00 0.00 0.00 0.00 0.00 0.00
0.87 1.10 1.12 0.67 0.73 0.73 1.23 1.06 1.41 0.96 0.85 1.05 0.73 0.32 0.21 0.21 0.22 0.43 0.68 0.43 0.56 0.86 0.78 0.74 0.63 0.52 0.40 0.50 0.64 0.48 0.62 0.82 0.74 0.90 0.42 0.15 0.16 0.06 0.00 0.00 0.00 0.00 0.00 0.00 0.00
1.09 1.19 1.27 0.91 0.79 0.86 1.69 1.10 0.84 0.54 0.81 0.73 0.31 0.29 0.35 0.16 0.16 0.27 0.56 0.24 0.15 0.35 0.53 0.59 0.62 0.53 0.41 0.45 0.76 0.60 0.57 0.62 0.37 0.28 0.17 0.08 0.26 0.05 0.00 0.00 0.00 0.00 0.00 0.00 0.00
1.36 1.64 1.54 1.36 1.03 1.14 1.33 0.95 0.67 0.78 0.90 0.46 0.29 0.31 0.34 0.12 0.15 0.34 0.33 0.14 0.03 0.11 0.40 0.30 0.33 0.25 0.28 0.20 0.48 0.68 0.65 0.35 0.50 0.18 0.27 0.09 0.08 0.04 0.01 0.00 0.00 0.00 0.00 0.00 0.00
1.79 2.23 1.33 1.12 1.27 1.20 1.09 0.83 0.46 0.38 0.28 0.16 0.23 0.11 0.08 0.04 0.09 0.09 0.11 0.02 0.00 0.01 0.17 0.28 0.41 0.46 0.38 0.33 0.41 0.53 0.32 0.49 1.03 0.61 0.19 0.06 0.02 0.04 0.00 0.00 0.00 0.00 0.00 0.00 0.00
1.87 2.06 1.29 1.18 1.75 1.67 1.35 0.94 0.30 0.17 0.14 0.13 0.05 0.02 0.01 0.01 0.01 0.01 0.01 0.00 0.00 0.00 0.14 0.33 0.55 0.66 0.85 0.53 0.34 0.56 0.58 0.38 0.51 0.43 0.25 0.10 0.02 0.00 0.00 0.01 0.01 0.01 0.00 0.00 0.00
1.68 1.59 1.41 1.61 2.06 1.55 0.99 0.67 0.33 0.16 0.17 0.13 0.10 0.02 0.00 0.00 0.00 0.00 0.00 0.01 0.00 0.02 0.16 0.32 0.66 0.69 0.58 0.16 0.11 0.19 0.23 0.18 0.64 0.42 0.37 0.32 0.13 0.00 0.01 0.01 0.01 0.01 0.01 0.01 0.01
1.51 1.37 2.03 1.11 0.90 0.66 0.38 0.29 0.24 0.10 0.13 0.15 0.07 0.01 0.00 0.00 0.00 0.00 0.00 0.00 0.00 0.02 0.19 0.44 0.99 0.76 0.61 0.44 0.48 0.64 0.32 0.36 0.61 0.98 0.74 0.40 0.17 0.00 0.00 0.00 0.01 0.01 0.02 0.01 0.01
1.51 1.45 2.85 1.92 0.53 0.16 0.29 0.33 0.26 0.06 0.07 0.13 0.10 0.03 0.04 0.02 0.00 0.00 0.00 0.00 0.00 0.00 0.16 0.72 0.80 0.85 0.68 0.62 0.88 0.72 0.33 0.52 1.06 1.11 0.36 0.18 0.07 0.02 0.01 0.01 0.02 0.04 0.04 0.02 0.02
1.02 0.67 0.70 0.82 0.43 0.07 0.27 0.29 0.36 0.23 0.12 0.17 0.11 0.04 0.06 0.02 0.00 0.00 0.00 0.00 0.00 0.00 0.16 0.66 1.15 1.28 0.54 0.32 0.69 0.60 0.31 0.43 0.96 0.55 0.51 0.16 0.06 0.03 0.04 0.05 0.07 0.09 0.08 0.06 0.06
0.64 0.56 0.10 0.04 0.03 0.02 0.17 0.27 0.34 0.34 0.27 0.19 0.13 0.04 0.04 0.05 0.00 0.00 0.00 0.00 0.00 0.01 0.15 0.55 0.95 0.81 0.34 0.20 0.40 0.47 0.23 0.35 0.56 0.41 0.30 0.12 0.11 0.06 0.04 0.06 0.06 0.17 0.11 0.08 0.08
0.62 0.48 0.14 0.06 0.04 0.04 0.06 0.12 0.23 0.37 0.24 0.09 0.08 0.11 0.07 0.03 0.01 0.00 0.00 0.00 0.00 0.01 0.07 0.34 0.63 0.82 0.64 0.41 0.55 0.52 0.26 0.31 0.41 0.35 0.24 0.14 0.12 0.04 0.05 0.12 0.27 0.46 0.11 0.05 0.02

GFSSW_prec_precacc_054.txt.gz
Total_Precipitation_Accumulation
0.10 0.12 0.16 0.16 0.15 0.13 0.12 0.11 0.12 0.13 0.20 0.24 0.26 0.29 0.38 0.39 0.36 0.19 0.10 0.02 0.01 0.01 0.01 0.00 0.01 0.02 0.00 0.00 0.00 0.00 0.06 0.11 0.00 0.00 0.00 0.00 0.00 0.00 0.00 0.00 0.00 0.00 0.00 0.00 0.00
0.11 0.13 0.16 0.16 0.16 0.14 0.14 0.13 0.11 0.10 0.12 0.20 0.27 0.31 0.30 0.31 0.29 0.17 0.02 0.05 0.05 0.02 0.01 0.00 0.02 0.03 0.01 0.00 0.00 0.00 0.00 0.01 0.00 0.00 0.00 0.00 0.00 0.00 0.00 0.00 0.00 0.00 0.00 0.00 0.00
0.13 0.15 0.15 0.18 0.18 0.17 0.16 0.14 0.11 0.09 0.10 0.13 0.22 0.31 0.40 0.36 0.23 0.04 0.00 0.02 0.19 0.20 0.02 0.00 0.03 0.05 0.02 0.00 0.00 0.00 0.00 0.00 0.00 0.00 0.00 0.00 0.00 0.00 0.00 0.00 0.00 0.00 0.00 0.00 0.00
0.17 0.18 0.20 0.19 0.22 0.24 0.21 0.18 0.18 0.15 0.13 0.16 0.21 0.37 0.53 0.49 0.19 0.06 0.01 0.04 0.24 0.42 0.06 0.03 0.04 0.07 0.03 0.01 0.00 0.00 0.00 0.00 0.00 0.00 0.00 0.00 0.00 0.00 0.00 0.00 0.00 0.00 0.00 0.00 0.00
0.23 0.30 0.27 0.25 0.26 0.30 0.25 0.19 0.23 0.19 0.18 0.15 0.28 0.72 0.71 0.49 0.11 0.11 0.09 0.10 0.35 0.51 0.13 0.03 0.02 0.03 0.02 0.00 0.01 0.00 0.00 0.00 0.00 0.00 0.00 0.00 0.00 0.00 0.00 0.00 0.00 0.00 0.00 0.00 0.00
0.29 0.34 0.28 0.30 0.35 0.29 0.21 0.22 0.24 0.25 0.35 0.21 0.43 0.65 0.62 0.31 0.04 0.07 0.10 0.18 0.25 0.32 0.20 0.07 0.01 0.02 0.02 0.01 0.03 0.00 0.00 0.00 0.00 0.00 0.00 0.00 0.00 0.00 0.00 0.00 0.00 0.00 0.00 0.00 0.00
0.38 0.39 0.32 0.39 0.34 0.27 0.20 0.25 0.33 0.27 0.31 0.34 0.55 0.61 0.42 0.09 0.06 0.12 0.09 0.19 0.31 0.22 0.20 0.12 0.04 0.13 0.11 0.07 0.01 0.02 0.03 0.01 0.00 0.00 0.00 0.00 0.00 0.00 0.00 0.00 0.00 0.00 0.00 0.00 0.00
0.44 0.41 0.37 0.45 0.36 0.36 0.33 0.40 0.51 0.60 0.65 0.48 0.62 0.66 0.30 0.02 0.07 0.13 0.18 0.22 0.39 0.57 0.35 0.40 0.09 0.07 0.11 0.09 0.06 0.09 0.11 0.03 0.00 0.00 0.00 0.00 0.00 0.00 0.00 0.00 0.00 0.00 0.00 0.00 0.00
0.49 0.42 0.44 0.51 0.50 0.46 0.45 0.33 0.43 0.45 0.74 0.79 0.78 0.53 0.23 0.06 0.05 0.08 0.21 0.28 0.34 0.71 0.86 0.83 0.47 0.19 0.13 0.15 0.16 0.16 0.06 0.02 0.00 0.00 0.00 0.00 0.00 0.00 0.00 0.00 0.00 0.00 0.00 0.00 0.00
0.49 0.43 0.47 0.47 0.57 0.62 0.66 0.66 0.56 0.57 0.69 1.12 0.86 0.62 0.13 0.08 0.08 0.14 0.21 0.32 0.35 0.64 0.91 0.87 0.78 0.38 0.18 0.21 0.16 0.06 0.05 0.03 0.01 0.00 0.01 0.00 0.00 0.00 0.00 0.00 0.00 0.00 0.00 0.00 0.00
0.54 0.44 0.41 0.51 0.63 0.54 0.78 1.13 0.93 0.92 1.08 0.95 0.41 0.28 0.17 0.25 0.27 0.29 0.30 0.40 0.72 0.69 0.69 0.63 0.51 0.29 0.11 0.06 0.06 0.05 0.07 0.04 0.01 0.01 0.02 0.00 0.00 0.00 0.00 0.00 0.00 0.00 0.00 0.00 0.00
0.47 0.41 0.45 0.53 0.62 0.91 1.21 1.21 0.72 0.62 0.81 0.55 0.12 0.17 0.10 0.17 0.48 0.38 0.37 0.82 0.72 0.49 0.76 0.79 0.42 0.08 0.17 0.09 0.09 0.11 0.12 0.04 0.03 0.02 0.04 0.01 0.00 0.00 0.00 0.00 0.00 0.00 0.00 0.00 0.00
0.37 0.41 0.48 0.65 0.76 1.04 1.03 0.60 0.36 0.74 1.15 0.82 0.31 0.34 0.27 0.30 0.58 0.33 0.62 0.83 0.58 0.42 0.59 0.67 0.26 0.10 0.24 0.24 0.15 0.11 0.14 0.10 0.04 0.06 0.05 0.04 0.01 0.00 0.00 0.00 0.00 0.00 0.00 0.00 0.00
0.44 0.48 0.66 0.93 1.22 0.83 0.73 0.47 0.60 1.08 1.39 1.03 0.68 0.63 0.41 0.86 0.89 0.25 0.86 0.69 0.62 0.53 0.53 0.69 0.41 0.29 0.25 0.46 0.17 0.13 0.07 0.11 0.17 0.15 0.04 0.06 0.03 0.00 0.00 0.00 0.00 0.00 0.00 0.00 0.00
0.82 0.70 0.59 1.10 1.12 0.94 0.68 0.42 0.81 1.47 1.45 0.94 0.85 0.64 0.69 0.53 0.45 0.43 0.74 0.54 0.40 0.39 0.60 0.61 0.42 0.49 0.32 0.43 0.15 0.20 0.07 0.11 0.23 0.35 0.35 0.07 0.09 0.01 0.00 0.00 0.00 0.00 0.00 0.00 0.00
0.91 0.88 0.80 0.85 0.88 0.84 0.77 0.54 1.26 1.53 1.56 1.46 0.94 0.78 0.39 0.33 0.21 0.47 0.70 0.39 0.41 0.58 0.62 0.44 0.37 0.66 0.42 0.34 0.25 0.20 0.25 0.26 0.47 0.48 0.69 0.30 0.07 0.01 0.00 0.00 0.00 0.00 0.00 0.00 0.00
0.87 1.10 1.12 0.67 0.73 0.73 1.24 1.07 1.41 0.98 0.88 1.09 0.87 0.44 0.30 0.31 0.39 0.61 0.80 0.47 0.57 0.89 0.80 0.89 0.77 0.59 0.42 0.52 0.65 0.48 0.62 0.83 0.75 0.90 0.42 0.15 0.16 0.06 0.00 0.00 0.00 0.00 0.00 0.00 0.00
1.09 1.19 1.27 0.91 0.79 0.86 1.70 1.11 0.84 0.55 0.82 0.75 0.33 0.31 0.37 0.23 0.26 0.44 0.77 0.35 0.18 0.36 0.58 0.68 0.80 0.65 0.46 0.45 0.76 0.60 0.58 0.64 0.38 0.28 0.17 0.08 0.26 0.05 0.00 0.00 0.00 0.00 0.00 0.00 0.00
1.36 1.64 1.54 1.36 1.03 1.14 1.33 0.95 0.67 0.78 0.90 0.46 0.29 0.32 0.34 0.12 0.15 0.37 0.36 0.17 0.06 0.13 0.47 0.38 0.39 0.36 0.34 0.23 0.49 0.68 0.65 0.36 0.50 0.18 0.27 0.09 0.08 0.04 0.01 0.00 0.00 0.00 0.00 0.00 0.00
1.79 2.23 1.33 1.12 1.27 1.20 1.09 0.83 0.46 0.38 0.28 0.16 0.24 0.11 0.08 0.04 0.09 0.09 0.11 0.02 0.00 0.01 0.17 0.28 0.43 0.53 0.46 0.42 0.49 0.54 0.32 0.50 1.03 0.61 0.19 0.06 0.02 0.04 0.00 0.00 0.00 0.00 0.00 0.00 0.00
1.87 2.06 1.29 1.18 1.75 1.67 1.35 0.94 0.30 0.17 0.14 0.13 0.05 0.02 0.01 0.01 0.01 0.01 0.01 0.00 0.00 0.00 0.14 0.33 0.55 0.69 0.87 0.55 0.38 0.58 0.58 0.38 0.52 0.43 0.25 0.10 0.02 0.00 0.00 0.01 0.01 0.01 0.00 0.00 0.00
1.68 1.59 1.41 1.61 2.06 1.56 0.99 0.67 0.33 0.16 0.17 0.13 0.10 0.02 0.00 0.00 0.00 0.00 0.00 0.01 0.00 0.02 0.16 0.32 0.66 0.70 0.58 0.16 0.11 0.20 0.23 0.18 0.65 0.43 0.37 0.32 0.13 0.00 0.01 0.01 0.01 0.01 0.01 0.01 0.01
1.51 1.37 2.03 1.11 0.90 0.66 0.38 0.29 0.24 0.10 0.13 0.15 0.07 0.01 0.00 0.00 0.00 0.00 0.00 0.00 0.00 0.02 0.19 0.44 0.99 0.76 0.61 0.44 0.48 0.64 0.32 0.36 0.61 0.98 0.74 0.40 0.17 0.00 0.00 0.00 0.01 0.01 0.02 0.01 0.01
1.51 1.45 2.85 1.92 0.53 0.16 0.29 0.33 0.26 0.06 0.07 0.13 0.10 0.03 0.04 0.02 0.00 0.00 0.00 0.00 0.00 0.00 0.16 0.72 0.80 0.85 0.68 0.62 0.88 0.72 0.33 0.52 1.06 1.11 0.36 0.18 0.07 0.02 0.01 0.01 0.02 0.04 0.04 0.02 0.02
1.02 0.67 0.70 0.82 0.43 0.07 0.27 0.29 0.36 0.23 0.12 0.17 0.11 0.04 0.06 0.02 0.00 0.00 0.00 0.00 0.00 0.00 0.16 0.66 1.15 1.28 0.54 0.32 0.69 0.60 0.31 0.43 0.96 0.55 0.51 0.16 0.06 0.03 0.04 0.05 0.07 0.09 0.08 0.06 0.06
0.64 0.56 0.11 0.04 0.03 0.02 0.17 0.27 0.34 0.34 0.27 0.19 0.13 0.04 0.04 0.05 0.00 0.00 0.00 0.00 0.00 0.01 0.15 0.55 0.95 0.81 0.34 0.20 0.40 0.47 0.23 0.35 0.56 0.41 0.30 0.12 0.11 0.06 0.04 0.06 0.06 0.17 0.11 0.08 0.08
0.62 0.49 0.14 0.06 0.04 0.04 0.06 0.12 0.23 0.37 0.24 0.09 0.08 0.11 0.07 0.03 0.01 0.00 0.00 0.00 0.00 0.01 0.07 0.34 0.63 0.82 0.64 0.41 0.55 0.52 0.26 0.31 0.41 0.35 0.24 0.14 0.12 0.04 0.05 0.12 0.27 0.46 0.11 0.05 0.02

GFSSW_prec_precacc_057.txt.gz
Total_Precipitation_Accumulation
0.11 0.13 0.16 0.17 0.16 0.14 0.13 0.13 0.14 0.14 0.20 0.24 0.27 0.30 0.39 0.44 0.39 0.19 0.10 0.02 0.03 0.02 0.01 0.00 0.01 0.02 0.00 0.00 0.02 0.02 0.12 0.23 0.06 0.01 0.00 0.00 0.00 0.00 0.00 0.00 0.00 0.00 0.00 0.00 0.01
0.11 0.13 0.16 0.17 0.18 0.16 0.16 0.14 0.13 0.13 0.13 0.20 0.27 0.32 0.32 0.37 0.30 0.17 0.02 0.05 0.10 0.13 0.02 0.00 0.02 0.03 0.02 0.02 0.02 0.07 0.12 0.06 0.02 0.00 0.00 0.01 0.00 0.00 0.00 0.00 0.00 0.00 0.00 0.00 0.00
0.13 0.15 0.16 0.23 0.23 0.22 0.22 0.18 0.14 0.12 0.12 0.14 0.22 0.32 0.45 0.42 0.25 0.04 0.00 0.02 0.19 0.31 0.06 0.00 0.03 0.05 0.04 0.02 0.01 0.00 0.02 0.00 0.01 0.01 0.01 0.01 0.00 0.00 0.00 0.00 0.00 0.00 0.00 0.00 0.00
0.17 0.20 0.25 0.24 0.26 0.33 0.31 0.25 0.21 0.17 0.14 0.16 0.22 0.39 0.58 0.58 0.22 0.06 0.01 0.04 0.24 0.50 0.16 0.05 0.04 0.08 0.03 0.01 0.00 0.00 0.00 0.00 0.02 0.02 0.02 0.00 0.00 0.00 0.00 0.00 0.00 0.00 0.00 0.00 0.00
0.24 0.33 0.30 0.28 0.28 0.36 0.36 0.23 0.24 0.20 0.18 0.16 0.29 0.80 0.75 0.53 0.12 0.11 0.09 0.10 0.38 0.66 0.16 0.04 0.02 0.04 0.02 0.00 0.01 0.00 0.00 0.00 0.00 0.00 0.00 0.00 0.00 0.00 0.00 0.00 0.00 0.00 0.00 0.00 0.00
0.30 0.36 0.29 0.31 0.38 0.37 0.23 0.22 0.24 0.26 0.36 0.23 0.45 0.68 0.65 0.32 0.04 0.08 0.11 0.20 0.30 0.54 0.26 0.07 0.01 0.02 0.02 0.01 0.03 0.00 0.00 0.00 0.00 0.00 0.00 0.00 0.00 0.00 0.00 0.00 0.00 0.00 0.00 0.00 0.00
0.39 0.40 0.32 0.41 0.37 0.30 0.20 0.25 0.33 0.27 0.31 0.34 0.55 0.62 0.43 0.09 0.08 0.16 0.10 0.23 0.38 0.39 0.28 0.12 0.04 0.13 0.11 0.08 0.01 0.02 0.04 0.01 0.00 0.00 0.00 0.00 0.00 0.00 0.00 0.00 0.00 0.00 0.00 0.00 0.00
0.45 0.42 0.37 0.46 0.38 0.37 0.33 0.40 0.51 0.60 0.66 0.51 0.62 0.68 0.30 0.02 0.09 0.14 0.19 0.25 0.44 0.70 0.41 0.40 0.09 0.07 0.13 0.11 0.06 0.09 0.12 0.03 0.00 0.00 0.00 0.00 0.00 0.00 0.00 0.00 0.00 0.00 0.00 0.00 0.00
0.49 0.43 0.44 0.52 0.51 0.46 0.45 0.33 0.43 0.45 0.74 0.80 0.80 0.57 0.24 0.07 0.05 0.08 0.22 0.36 0.41 0.82 0.97 0.84 0.49 0.20 0.16 0.17 0.18 0.18 0.06 0.02 0.00 0.00 0.00 0.00 0.00 0.00 0.00 0.00 0.00 0.00 0.00 0.00 0.00
0.50 0.44 0.47 0.47 0.58 0.62 0.66 0.66 0.56 0.57 0.69 1.12 0.91 0.64 0.15 0.12 0.09 0.14 0.27 0.47 0.46 0.80 1.11 1.00 0.82 0.40 0.19 0.22 0.17 0.07 0.05 0.03 0.01 0.00 0.01 0.00 0.00 0.00 0.00 0.00 0.00 0.00 0.00 0.00 0.00
0.54 0.44 0.41 0.51 0.63 0.54 0.78 1.13 0.93 0.94 1.09 0.98 0.43 0.30 0.19 0.26 0.31 0.33 0.44 0.50 0.89 1.06 0.88 0.67 0.52 0.29 0.11 0.06 0.06 0.05 0.07 0.04 0.01 0.01 0.02 0.00 0.00 0.00 0.00 0.00 0.00 0.00 0.00 0.00 0.00
0.47 0.42 0.45 0.53 0.62 0.91 1.21 1.21 0.72 0.62 0.82 0.56 0.13 0.17 0.10 0.17 0.56 0.58 0.70 0.96 0.86 0.92 0.85 0.80 0.42 0.08 0.17 0.09 0.09 0.11 0.12 0.04 0.03 0.02 0.04 0.01 0.00 0.00 0.00 0.00 0.00 0.00 0.00 0.00 0.00
0.37 0.42 0.48 0.65 0.76 1.04 1.03 0.60 0.36 0.74 1.15 0.82 0.31 0.34 0.27 0.30 0.65 0.59 0.90 1.00 0.77 0.57 0.60 0.67 0.26 0.10 0.24 0.24 0.15 0.11 0.14 0.10 0.04 0.06 0.05 0.04 0.01 0.00 0.00 0.00 0.00 0.00 0.00 0.00 0.00
0.44 0.48 0.66 0.93 1.22 0.83 0.73 0.47 0.60 1.08 1.39 1.03 0.69 0.65 0.44 0.90 0.97 0.35 1.07 0.99 0.84 0.59 0.54 0.70 0.41 0.29 0.25 0.46 0.17 0.13 0.07 0.11 0.17 0.15 0.04 0.06 0.03 0.00 0.00 0.00 0.00 0.00 0.00 0.00 0.00
0.82 0.71 0.59 1.10 1.12 0.94 0.68 0.42 0.81 1.47 1.45 0.94 0.86 0.67 0.83 0.79 0.53 0.49 0.88 0.75 0.49 0.41 0.60 0.62 0.42 0.49 0.33 0.43 0.15 0.21 0.07 0.11 0.23 0.35 0.35 0.07 0.09 0.01 0.00 0.00 0.00 0.00 0.00 0.00 0.00
0.91 0.88 0.80 0.85 0.88 0.84 0.77 0.54 1.26 1.54 1.63 1.58 1.28 1.19 0.69 0.47 0.29 0.66 0.76 0.42 0.41 0.58 0.62 0.44 0.37 0.66 0.48 0.36 0.26 0.21 0.25 0.26 0.47 0.48 0.69 0.30 0.07 0.01 0.00 0.00 0.00 0.00 0.00 0.00 0.00
0.87 1.10 1.12 0.67 0.73 0.73 1.24 1.07 1.41 0.98 0.92 1.21 1.03 0.52 0.32 0.33 0.41 0.64 0.81 0.48 0.57 0.89 0.81 0.91 0.80 0.60 0.51 0.59 0.67 0.49 0.62 0.83 0.75 0.90 0.42 0.15 0.16 0.06 0.00 0.00 0.00 0.00 0.00 0.00 0.00
1.09 1.19 1.27 0.91 0.79 0.86 1.70 1.11 0.84 0.55 0.82 0.76 0.34 0.32 0.40 0.27 0.38 0.52 0.80 0.36 0.18 0.36 0.58 0.70 0.93 0.70 0.53 0.54 0.82 0.60 0.58 0.64 0.38 0.28 0.17 0.08 0.26 0.05 0.00 0.00 0.00 0.00 0.00 0.00 0.00
1.36 1.64 1.54 1.36 1.03 1.14 1.34 0.95 0.67 0.78 0.90 0.46 0.29 0.32 0.34 0.12 0.21 0.46 0.39 0.18 0.07 0.13 0.48 0.39 0.42 0.40 0.39 0.25 0.52 0.69 0.65 0.36 0.50 0.18 0.27 0.09 0.08 0.04 0.01 0.00 0.00 0.00 0.00 0.00 0.00
1.79 2.23 1.33 1.12 1.27 1.20 1.09 0.83 0.46 0.38 0.28 0.16 0.24 0.11 0.08 0.04 0.09 0.09 0.12 0.02 0.00 0.01 0.18 0.29 0.44 0.54 0.51 0.46 0.50 0.54 0.32 0.50 1.03 0.61 0.19 0.06 0.02 0.04 0.00 0.00 0.00 0.00 0.00 0.00 0.00
1.87 2.06 1.29 1.18 1.75 1.67 1.35 0.94 0.30 0.17 0.14 0.13 0.05 0.02 0.01 0.01 0.01 0.01 0.01 0.00 0.00 0.00 0.14 0.33 0.56 0.71 0.91 0.64 0.41 0.58 0.58 0.38 0.52 0.43 0.25 0.10 0.02 0.00 0.00 0.01 0.01 0.01 0.00 0.00 0.00
1.68 1.59 1.41 1.61 2.06 1.56 0.99 0.67 0.33 0.16 0.17 0.13 0.10 0.02 0.00 0.00 0.00 0.00 0.00 0.01 0.00 0.02 0.16 0.32 0.66 0.70 0.59 0.16 0.11 0.20 0.23 0.18 0.66 0.43 0.37 0.32 0.13 0.00 0.01 0.01 0.01 0.01 0.01 0.01 0.01
1.51 1.37 2.03 1.11 0.90 0.66 0.38 0.29 0.24 0.10 0.13 0.15 0.07 0.01 0.00 0.00 0.00 0.00 0.00 0.00 0.00 0.02 0.19 0.44 0.99 0.76 0.61 0.44 0.48 0.65 0.32 0.36 0.61 0.98 0.74 0.40 0.17 0.00 0.00 0.00 0.01 0.01 0.02 0.01 0.01
1.51 1.45 2.85 1.92 0.53 0.16 0.29 0.33 0.26 0.06 0.07 0.13 0.10 0.03 0.04 0.02 0.00 0.00 0.00 0.00 0.00 0.00 0.16 0.72 0.80 0.85 0.68 0.62 0.88 0.72 0.33 0.52 1.06 1.11 0.36 0.18 0.07 0.02 0.01 0.01 0.02 0.04 0.04 0.02 0.02
1.02 0.67 0.70 0.82 0.43 0.07 0.27 0.29 0.36 0.23 0.12 0.17 0.11 0.04 0.06 0.02 0.00 0.00 0.00 0.00 0.00 0.00 0.16 0.66 1.15 1.28 0.54 0.32 0.69 0.60 0.31 0.43 0.96 0.55 0.51 0.16 0.06 0.03 0.04 0.05 0.07 0.09 0.08 0.06 0.06
0.64 0.56 0.11 0.04 0.03 0.02 0.17 0.27 0.34 0.34 0.27 0.19 0.13 0.04 0.04 0.05 0.00 0.00 0.00 0.00 0.00 0.01 0.15 0.55 0.95 0.81 0.34 0.20 0.40 0.47 0.23 0.35 0.56 0.41 0.30 0.12 0.11 0.06 0.04 0.06 0.06 0.17 0.11 0.08 0.08
0.62 0.49 0.14 0.06 0.04 0.04 0.06 0.12 0.23 0.37 0.24 0.09 0.08 0.11 0.07 0.03 0.01 0.00 0.00 0.00 0.00 0.01 0.07 0.34 0.63 0.82 0.64 0.41 0.55 0.52 0.26 0.31 0.41 0.35 0.24 0.14 0.12 0.04 0.05 0.12 0.27 0.46 0.11 0.05 0.02

GFSSW_prec_precacc_060.txt.gz
Total_Precipitation_Accumulation
0.12 0.13 0.17 0.18 0.18 0.16 0.16 0.15 0.16 0.16 0.21 0.26 0.27 0.30 0.40 0.45 0.44 0.22 0.10 0.02 0.03 0.03 0.02 0.00 0.01 0.02 0.01 0.02 0.08 0.07 0.13 0.23 0.07 0.01 0.00 0.00 0.00 0.00 0.00 0.00 0.00 0.00 0.00 0.00 0.01
0.12 0.14 0.17 0.20 0.21 0.19 0.20 0.21 0.23 0.19 0.15 0.22 0.27 0.32 0.32 0.40 0.32 0.17 0.02 0.05 0.10 0.21 0.07 0.00 0.02 0.03 0.02 0.06 0.08 0.18 0.20 0.06 0.02 0.01 0.01 0.02 0.00 0.00 0.00 0.00 0.00 0.00 0.00 0.00 0.01
0.14 0.16 0.20 0.25 0.24 0.25 0.26 0.30 0.29 0.22 0.15 0.16 0.22 0.32 0.45 0.45 0.27 0.05 0.00 0.02 0.19 0.37 0.15 0.00 0.03 0.05 0.06 0.05 0.03 0.04 0.11 0.00 0.01 0.02 0.12 0.07 0.00 0.00 0.00 0.00 0.00 0.00 0.00 0.00 0.01
0.18 0.22 0.27 0.25 0.27 0.36 0.34 0.36 0.31 0.23 0.18 0.18 0.22 0.39 0.61 0.61 0.23 0.06 0.01 0.04 0.25 0.54 0.29 0.05 0.04 0.09 0.04 0.02 0.00 0.00 0.00 0.00 0.02 0.04 0.14 0.09 0.02 0.00 0.00 0.00 0.00 0.00 0.00 0.00 0.00
0.26 0.35 0.31 0.29 0.30 0.39 0.39 0.26 0.26 0.22 0.19 0.16 0.30 0.80 0.76 0.54 0.12 0.13 0.09 0.10 0.39 0.68 0.29 0.04 0.02 0.04 0.02 0.00 0.01 0.00 0.00 0.00 0.01 0.01 0.03 0.09 0.06 0.00 0.00 0.00 0.00 0.00 0.00 0.00 0.00
0.32 0.37 0.29 0.32 0.39 0.38 0.24 0.22 0.24 0.26 0.36 0.23 0.45 0.68 0.66 0.32 0.04 0.08 0.11 0.20 0.31 0.56 0.34 0.08 0.01 0.02 0.02 0.01 0.03 0.00 0.00 0.01 0.02 0.00 0.01 0.04 0.04 0.01 0.00 0.00 0.00 0.00 0.00 0.00 0.00
0.41 0.41 0.32 0.41 0.37 0.30 0.20 0.25 0.33 0.27 0.31 0.34 0.55 0.62 0.44 0.10 0.08 0.17 0.12 0.25 0.40 0.47 0.35 0.14 0.04 0.14 0.11 0.08 0.01 0.02 0.06 0.02 0.00 0.00 0.00 0.00 0.00 0.01 0.00 0.00 0.00 0.00 0.00 0.00 0.00
0.47 0.43 0.38 0.46 0.38 0.37 0.33 0.40 0.51 0.60 0.66 0.51 0.62 0.68 0.30 0.02 0.09 0.16 0.21 0.25 0.48 0.89 0.58 0.50 0.09 0.10 0.14 0.11 0.06 0.09 0.14 0.04 0.00 0.00 0.00 0.00 0.00 0.00 0.00 0.00 0.00 0.00 0.00 0.00 0.00
0.51 0.44 0.44 0.52 0.51 0.46 0.45 0.33 0.43 0.45 0.74 0.80 0.81 0.59 0.25 0.10 0.05 0.08 0.22 0.37 0.47 1.04 1.16 0.94 0.51 0.20 0.16 0.17 0.19 0.19 0.06 0.02 0.00 0.00 0.00 0.00 0.00 0.00 0.00 0.00 0.00 0.00 0.00 0.00 0.00
0.50 0.44 0.47 0.47 0.58 0.62 0.66 0.66 0.56 0.57 0.69 1.12 0.92 0.68 0.17 0.15 0.10 0.15 0.27 0.48 0.57 1.11 1.43 1.25 0.87 0.41 0.20 0.22 0.17 0.07 0.05 0.03 0.01 0.00 0.01 0.00 0.00 0.00 0.00 0.00 0.00 0.00 0.00 0.00 0.00
0.55 0.45 0.41 0.51 0.63 0.54 0.78 1.13 0.93 0.94 1.09 0.98 0.43 0.33 0.19 0.26 0.34 0.37 0.47 0.63 1.04 1.43 1.23 0.78 0.53 0.30 0.11 0.06 0.06 0.05 0.07 0.04 0.01 0.01 0.02 0.00 0.00 0.00 0.00 0.00 0.00 0.00 0.00 0.00 0.00
0.47 0.42 0.45 0.53 0.62 0.91 1.21 1.21 0.72 0.62 0.82 0.56 0.13 0.17 0.11 0.17 0.58 0.61 0.78 1.24 1.05 1.20 0.96 0.85 0.42 0.08 0.17 0.09 0.09 0.11 0.12 0.04 0.03 0.02 0.04 0.01 0.00 0.00 0.00 0.00 0.00 0.00 0.00 0.00 0.00
0.37 0.42 0.49 0.65 0.76 1.04 1.03 0.60 0.36 0.74 1.15 0.83 0.31 0.34 0.27 0.30 0.69 0.67 1.11 1.36 0.96 0.84 0.66 0.68 0.26 0.10 0.24 0.24 0.15 0.11 0.14 0.10 0.04 0.06 0.05 0.04 0.01 0.00 0.00 0.00 0.00 0.00 0.00 0.00 0.00
0.45 0.48 0.66 0.93 1.22 0.83 0.73 0.47 0.60 1.08 1.40 1.04 0.69 0.66 0.45 0.91 1.02 0.53 1.52 1.34 1.11 0.77 0.56 0.71 0.41 0.29 0.25 0.46 0.17 0.13 0.07 0.11 0.17 0.15 0.04 0.06 0.03 0.00 0.00 0.00 0.00 0.00 0.00 0.00 0.00
0.82 0.71 0.59 1.10 1.12 0.94 0.68 0.42 0.81 1.47 1.49 0.97 0.88 0.68 0.83 0.80 0.56 0.61 1.03 0.90 0.68 0.49 0.61 0.62 0.42 0.49 0.33 0.43 0.15 0.21 0.07 0.11 0.23 0.35 0.35 0.07 0.09 0.01 0.00 0.00 0.00 0.00 0.00 0.00 0.00
0.91 0.88 0.80 0.85 0.88 0.84 0.77 0.54 1.26 1.54 1.80 1.83 1.41 1.22 0.71 0.49 0.35 0.72 0.96 0.55 0.45 0.58 0.62 0.45 0.37 0.67 0.48 0.37 0.26 0.21 0.25 0.26 0.47 0.48 0.69 0.30 0.07 0.01 0.00 0.00 0.00 0.00 0.00 0.00 0.00
0.87 1.10 1.12 0.67 0.73 0.73 1.24 1.07 1.41 0.98 0.98 1.33 1.08 0.53 0.33 0.36 0.50 0.73 0.91 0.51 0.60 0.90 0.81 0.92 0.80 0.60 0.51 0.60 0.67 0.49 0.62 0.84 0.76 0.91 0.42 0.15 0.16 0.06 0.00 0.00 0.00 0.00 0.00 0.00 0.00
1.09 1.19 1.27 0.91 0.79 0.86 1.70 1.11 0.84 0.55 0.84 0.78 0.37 0.35 0.43 0.30 0.40 0.53 0.81 0.36 0.18 0.36 0.58 0.71 0.94 0.71 0.53 0.55 0.83 0.61 0.58 0.64 0.38 0.28 0.17 0.08 0.26 0.05 0.00 0.00 0.00 0.00 0.00 0.00 0.00
1.36 1.64 1.54 1.36 1.03 1.14 1.34 0.95 0.67 0.78 0.90 0.46 0.29 0.32 0.36 0.15 0.24 0.47 0.39 0.18 0.07 0.13 0.48 0.39 0.43 0.41 0.41 0.29 0.54 0.70 0.65 0.36 0.50 0.18 0.27 0.09 0.08 0.04 0.01 0.00 0.00 0.00 0.00 0.00 0.00
1.79 2.23 1.33 1.12 1.27 1.20 1.09 0.83 0.46 0.38 0.28 0.16 0.24 0.11 0.08 0.05 0.10 0.10 0.12 0.02 0.00 0.01 0.18 0.29 0.45 0.54 0.53 0.48 0.55 0.54 0.32 0.50 1.03 0.61 0.19 0.06 0.02 0.04 0.00 0.00 0.00 0.00 0.00 0.00 0.00
1.87 2.06 1.29 1.18 1.75 1.67 1.35 0.94 0.30 0.17 0.14 0.13 0.05 0.02 0.01 0.01 0.01 0.01 0.01 0.00 0.00 0.00 0.14 0.33 0.56 0.72 0.92 0.66 0.43 0.59 0.58 0.38 0.52 0.43 0.25 0.10 0.02 0.00 0.00 0.01 0.01 0.01 0.00 0.00 0.00
1.68 1.59 1.41 1.61 2.06 1.56 0.99 0.67 0.33 0.16 0.17 0.13 0.10 0.02 0.00 0.00 0.00 0.00 0.00 0.01 0.00 0.02 0.16 0.32 0.66 0.71 0.59 0.16 0.11 0.20 0.23 0.18 0.66 0.43 0.37 0.32 0.13 0.00 0.01 0.01 0.01 0.01 0.01 0.01 0.01
1.51 1.37 2.03 1.11 0.90 0.66 0.38 0.29 0.24 0.10 0.13 0.15 0.07 0.01 0.00 0.00 0.00 0.00 0.00 0.00 0.00 0.02 0.19 0.44 0.99 0.77 0.63 0.45 0.48 0.65 0.32 0.36 0.61 0.98 0.74 0.40 0.17 0.00 0.00 0.00 0.01 0.01 0.02 0.01 0.01
1.51 1.45 2.85 1.92 0.53 0.16 0.29 0.33 0.26 0.06 0.07 0.13 0.10 0.03 0.04 0.02 0.00 0.00 0.00 0.00 0.00 0.00 0.16 0.72 0.80 0.85 0.68 0.62 0.88 0.72 0.33 0.52 1.06 1.12 0.36 0.18 0.07 0.02 0.01 0.01 0.02 0.04 0.04 0.02 0.02
1.02 0.67 0.70 0.82 0.43 0.07 0.27 0.29 0.36 0.23 0.12 0.17 0.11 0.04 0.06 0.02 0.00 0.00 0.00 0.00 0.00 0.00 0.16 0.66 1.15 1.28 0.54 0.32 0.69 0.60 0.31 0.43 0.96 0.55 0.51 0.16 0.06 0.03 0.04 0.05 0.07 0.09 0.08 0.06 0.06
0.64 0.56 0.11 0.04 0.03 0.02 0.17 0.27 0.34 0.34 0.27 0.19 0.13 0.04 0.04 0.05 0.00 0.00 0.00 0.00 0.00 0.01 0.15 0.55 0.95 0.81 0.34 0.20 0.40 0.47 0.23 0.35 0.56 0.41 0.30 0.12 0.11 0.06 0.04 0.06 0.06 0.17 0.11 0.08 0.08
0.62 0.49 0.14 0.06 0.04 0.04 0.06 0.12 0.23 0.37 0.24 0.09 0.08 0.11 0.07 0.03 0.01 0.00 0.00 0.00 0.00 0.01 0.07 0.34 0.63 0.82 0.64 0.41 0.55 0.52 0.26 0.31 0.41 0.35 0.24 0.14 0.12 0.04 0.05 0.12 0.27 0.46 0.11 0.05 0.02

GFSSW_prec_precacc_063.txt.gz
Total_Precipitation_Accumulation
0.13 0.14 0.18 0.21 0.20 0.19 0.18 0.17 0.21 0.25 0.27 0.28 0.28 0.32 0.40 0.46 0.45 0.24 0.11 0.02 0.03 0.03 0.07 0.01 0.01 0.02 0.01 0.06 0.13 0.08 0.15 0.23 0.07 0.01 0.00 0.00 0.00 0.00 0.00 0.00 0.00 0.00 0.00 0.00 0.01
0.13 0.15 0.20 0.22 0.23 0.20 0.21 0.22 0.29 0.32 0.32 0.33 0.31 0.34 0.33 0.41 0.32 0.17 0.02 0.05 0.10 0.23 0.10 0.02 0.02 0.03 0.03 0.09 0.16 0.24 0.26 0.06 0.02 0.01 0.01 0.02 0.00 0.00 0.00 0.00 0.00 0.00 0.00 0.00 0.01
0.15 0.18 0.21 0.26 0.25 0.27 0.28 0.31 0.36 0.32 0.32 0.35 0.31 0.33 0.45 0.46 0.27 0.05 0.00 0.02 0.20 0.37 0.20 0.02 0.04 0.05 0.07 0.09 0.09 0.11 0.14 0.00 0.01 0.03 0.14 0.07 0.01 0.00 0.00 0.00 0.00 0.02 0.00 0.00 0.01
0.20 0.24 0.28 0.25 0.29 0.38 0.35 0.37 0.34 0.28 0.27 0.25 0.24 0.39 0.61 0.61 0.23 0.07 0.01 0.06 0.28 0.56 0.35 0.08 0.04 0.09 0.05 0.03 0.01 0.02 0.00 0.00 0.02 0.06 0.17 0.09 0.02 0.00 0.00 0.00 0.00 0.03 0.04 0.03 0.01
0.28 0.36 0.31 0.29 0.30 0.39 0.39 0.26 0.27 0.23 0.19 0.16 0.30 0.80 0.76 0.54 0.12 0.15 0.09 0.12 0.43 0.69 0.33 0.07 0.02 0.04 0.02 0.00 0.01 0.00 0.00 0.01 0.06 0.04 0.04 0.11 0.10 0.00 0.00 0.00 0.00 0.01 0.03 0.01 0.00
0.35 0.38 0.30 0.32 0.39 0.38 0.24 0.22 0.24 0.26 0.36 0.23 0.45 0.68 0.66 0.32 0.04 0.09 0.11 0.20 0.32 0.57 0.47 0.16 0.01 0.03 0.03 0.01 0.04 0.00 0.00 0.02 0.06 0.02 0.02 0.10 0.11 0.06 0.00 0.00 0.00 0.01 0.01 0.00 0.00
0.43 0.42 0.33 0.41 0.37 0.30 0.20 0.25 0.33 0.27 0.31 0.34 0.55 0.62 0.44 0.10 0.08 0.17 0.12 0.25 0.40 0.48 0.54 0.24 0.04 0.15 0.11 0.08 0.02 0.03 0.08 0.04 0.01 0.00 0.00 0.01 0.09 0.10 0.00 0.00 0.00 0.01 0.00 0.00 0.00
0.48 0.44 0.38 0.46 0.38 0.37 0.33 0.40 0.51 0.60 0.66 0.53 0.63 0.68 0.30 0.02 0.09 0.16 0.22 0.25 0.50 0.91 0.78 0.66 0.12 0.12 0.14 0.11 0.08 0.10 0.17 0.05 0.00 0.00 0.00 0.05 0.04 0.01 0.02 0.00 0.00 0.00 0.00 0.00 0.00
0.51 0.45 0.45 0.52 0.51 0.46 0.45 0.33 0.43 0.45 0.74 0.81 0.81 0.59 0.25 0.13 0.08 0.09 0.23 0.37 0.52 1.09 1.39 1.27 0.58 0.22 0.17 0.18 0.20 0.19 0.07 0.02 0.00 0.00 0.00 0.01 0.00 0.01 0.00 0.00 0.00 0.00 0.00 0.00 0.00
0.51 0.45 0.48 0.48 0.58 0.62 0.66 0.66 0.56 0.57 0.69 1.13 0.92 0.69 0.18 0.19 0.14 0.19 0.29 0.49 0.60 1.17 1.64 1.67 0.92 0.42 0.20 0.23 0.17 0.07 0.05 0.03 0.01 0.00 0.01 0.00 0.00 0.00 0.00 0.00 0.00 0.00 0.00 0.00 0.00
0.55 0.45 0.42 0.51 0.63 0.54 0.78 1.13 0.93 0.94 1.09 0.98 0.43 0.34 0.21 0.29 0.41 0.41 0.47 0.64 1.15 1.55 1.55 1.17 0.54 0.30 0.11 0.06 0.06 0.05 0.07 0.04 0.01 0.01 0.02 0.00 0.00 0.00 0.00 0.00 0.00 0.00 0.00 0.00 0.00
0.48 0.43 0.46 0.53 0.62 0.91 1.21 1.21 0.72 0.62 0.82 0.56 0.13 0.19 0.12 0.20 0.61 0.62 0.78 1.31 1.32 1.47 1.25 1.10 0.43 0.08 0.17 0.09 0.09 0.11 0.12 0.04 0.03 0.02 0.04 0.01 0.00 0.00 0.00 0.00 0.00 0.00 0.00 0.00 0.00
0.37 0.42 0.49 0.65 0.76 1.04 1.03 0.60 0.36 0.74 1.15 0.83 0.32 0.34 0.27 0.31 0.70 0.67 1.11 1.44 1.27 1.09 0.82 0.77 0.27 0.11 0.25 0.24 0.15 0.11 0.14 0.10 0.04 0.06 0.05 0.04 0.01 0.00 0.00 0.00 0.00 0.00 0.00 0.00 0.00
0.45 0.48 0.66 0.93 1.22 0.83 0.73 0.47 0.60 1.08 1.40 1.05 0.69 0.66 0.45 0.92 1.05 0.54 1.57 1.47 1.39 0.96 0.69 0.74 0.41 0.29 0.25 0.47 0.17 0.13 0.07 0.11 0.17 0.15 0.04 0.06 0.03 0.00 0.00 0.00 0.00 0.00 0.00 0.00 0.00
0.82 0.71 0.59 1.10 1.12 0.94 0.68 0.42 0.81 1.47 1.50 0.98 0.88 0.68 0.83 0.81 0.60 0.70 1.18 1.03 0.83 0.72 0.66 0.64 0.42 0.49 0.33 0.43 0.15 0.21 0.07 0.11 0.23 0.35 0.35 0.07 0.09 0.01 0.00 0.00 0.00 0.00 0.00 0.00 0.00
0.91 0.88 0.80 0.85 0.88 0.84 0.77 0.54 1.26 1.54 1.83 1.85 1.41 1.22 0.71 0.50 0.40 0.87 1.12 0.67 0.54 0.64 0.62 0.45 0.37 0.67 0.48 0.37 0.26 0.21 0.25 0.26 0.47 0.48 0.69 0.30 0.07 0.01 0.00 0.00 0.00 0.00 0.00 0.00 0.00
0.87 1.10 1.12 0.67 0.73 0.73 1.24 1.07 1.41 0.98 0.99 1.34 1.09 0.53 0.34 0.41 0.57 0.83 1.03 0.58 0.68 0.96 0.82 0.92 0.80 0.60 0.51 0.60 0.68 0.49 0.62 0.84 0.77 0.92 0.42 0.15 0.16 0.06 0.00 0.00 0.00 0.00 0.00 0.00 0.00
1.09 1.19 1.27 0.91 0.79 0.86 1.70 1.11 0.84 0.55 0.85 0.79 0.39 0.36 0.44 0.31 0.46 0.58 0.83 0.36 0.18 0.36 0.59 0.71 0.94 0.71 0.53 0.55 0.83 0.61 0.58 0.64 0.38 0.28 0.17 0.08 0.26 0.05 0.00 0.00 0.00 0.00 0.00 0.00 0.00
1.36 1.64 1.54 1.36 1.03 1.14 1.34 0.95 0.67 0.78 0.90 0.46 0.29 0.32 0.37 0.16 0.24 0.47 0.39 0.18 0.07 0.13 0.48 0.39 0.43 0.41 0.41 0.29 0.54 0.70 0.65 0.36 0.50 0.18 0.27 0.09 0.08 0.04 0.01 0.00 0.00 0.00 0.00 0.00 0.00
1.79 2.23 1.33 1.12 1.27 1.20 1.09 0.83 0.46 0.38 0.28 0.16 0.24 0.11 0.08 0.06 0.10 0.10 0.12 0.02 0.00 0.01 0.18 0.29 0.45 0.54 0.53 0.49 0.55 0.54 0.32 0.50 1.03 0.61 0.19 0.06 0.02 0.04 0.00 0.00 0.00 0.00 0.00 0.00 0.00
1.87 2.06 1.29 1.18 1.75 1.67 1.35 0.94 0.30 0.17 0.14 0.13 0.05 0.02 0.01 0.01 0.01 0.01 0.01 0.00 0.00 0.00 0.14 0.33 0.56 0.72 0.93 0.67 0.45 0.59 0.58 0.38 0.52 0.43 0.25 0.10 0.02 0.00 0.00 0.01 0.01 0.01 0.00 0.00 0.00
1.68 1.59 1.41 1.61 2.06 1.56 0.99 0.67 0.33 0.16 0.17 0.13 0.10 0.02 0.00 0.00 0.00 0.00 0.00 0.01 0.00 0.02 0.16 0.32 0.66 0.72 0.60 0.16 0.11 0.21 0.23 0.18 0.66 0.43 0.37 0.32 0.13 0.00 0.01 0.01 0.01 0.01 0.01 0.01 0.01
1.51 1.37 2.03 1.11 0.90 0.66 0.38 0.29 0.24 0.10 0.13 0.15 0.07 0.01 0.00 0.00 0.00 0.00 0.00 0.00 0.00 0.02 0.19 0.44 0.99 0.78 0.65 0.46 0.49 0.67 0.32 0.36 0.61 0.98 0.74 0.40 0.17 0.00 0.00 0.00 0.01 0.01 0.02 0.01 0.01
1.51 1.45 2.85 1.92 0.53 0.16 0.29 0.33 0.26 0.06 0.07 0.13 0.10 0.03 0.04 0.02 0.00 0.00 0.00 0.00 0.00 0.00 0.16 0.72 0.80 0.85 0.68 0.62 0.88 0.72 0.33 0.52 1.06 1.12 0.36 0.18 0.07 0.02 0.01 0.01 0.02 0.04 0.04 0.02 0.02
1.02 0.67 0.70 0.82 0.43 0.07 0.27 0.29 0.36 0.23 0.12 0.17 0.11 0.04 0.06 0.02 0.00 0.00 0.00 0.00 0.00 0.00 0.16 0.66 1.15 1.28 0.54 0.32 0.69 0.60 0.31 0.43 0.96 0.55 0.51 0.16 0.06 0.03 0.04 0.05 0.07 0.09 0.08 0.06 0.06
0.64 0.56 0.11 0.04 0.03 0.02 0.17 0.27 0.34 0.34 0.27 0.19 0.13 0.04 0.04 0.05 0.00 0.00 0.00 0.00 0.00 0.01 0.15 0.55 0.95 0.81 0.34 0.20 0.40 0.47 0.23 0.35 0.56 0.41 0.30 0.12 0.11 0.06 0.04 0.06 0.06 0.17 0.11 0.08 0.08
0.62 0.49 0.14 0.06 0.04 0.04 0.06 0.12 0.23 0.37 0.24 0.09 0.08 0.11 0.07 0.03 0.01 0.00 0.00 0.00 0.00 0.01 0.07 0.34 0.63 0.82 0.64 0.41 0.55 0.52 0.26 0.31 0.41 0.35 0.24 0.14 0.12 0.04 0.05 0.12 0.27 0.46 0.11 0.05 0.02

GFSSW_prec_precacc_066.txt.gz
Total_Precipitation_Accumulation
0.14 0.15 0.20 0.21 0.20 0.19 0.18 0.18 0.22 0.27 0.34 0.41 0.37 0.37 0.45 0.47 0.45 0.24 0.11 0.02 0.03 0.04 0.13 0.04 0.01 0.02 0.02 0.09 0.18 0.15 0.21 0.24 0.07 0.01 0.00 0.00 0.00 0.00 0.00 0.00 0.00 0.00 0.00 0.00 0.01
0.14 0.17 0.20 0.22 0.23 0.20 0.22 0.23 0.30 0.35 0.43 0.47 0.49 0.46 0.40 0.42 0.32 0.17 0.02 0.05 0.10 0.24 0.11 0.04 0.02 0.03 0.04 0.14 0.23 0.36 0.40 0.07 0.02 0.01 0.01 0.02 0.00 0.00 0.00 0.00 0.01 0.02 0.02 0.01 0.01
0.17 0.20 0.22 0.26 0.26 0.28 0.28 0.32 0.37 0.35 0.34 0.41 0.51 0.51 0.50 0.46 0.27 0.05 0.00 0.02 0.23 0.40 0.21 0.04 0.05 0.05 0.08 0.13 0.14 0.20 0.23 0.01 0.01 0.03 0.14 0.07 0.01 0.00 0.00 0.00 0.00 0.03 0.07 0.07 0.02
0.22 0.25 0.28 0.26 0.29 0.38 0.35 0.37 0.34 0.28 0.27 0.30 0.33 0.49 0.65 0.61 0.23 0.08 0.01 0.07 0.35 0.63 0.36 0.11 0.06 0.09 0.05 0.04 0.02 0.04 0.03 0.00 0.03 0.07 0.17 0.09 0.02 0.00 0.00 0.00 0.00 0.03 0.09 0.12 0.12
0.30 0.38 0.31 0.30 0.31 0.39 0.39 0.26 0.27 0.23 0.19 0.16 0.30 0.82 0.76 0.54 0.12 0.16 0.10 0.14 0.53 0.78 0.35 0.11 0.04 0.04 0.02 0.01 0.03 0.00 0.00 0.02 0.08 0.06 0.04 0.12 0.10 0.01 0.00 0.00 0.00 0.01 0.04 0.04 0.07
0.36 0.40 0.30 0.33 0.39 0.38 0.24 0.22 0.24 0.26 0.36 0.23 0.45 0.68 0.66 0.32 0.04 0.10 0.12 0.20 0.32 0.57 0.48 0.20 0.03 0.03 0.03 0.02 0.05 0.01 0.01 0.06 0.14 0.04 0.03 0.11 0.11 0.06 0.00 0.00 0.00 0.01 0.03 0.01 0.03
0.44 0.43 0.33 0.42 0.38 0.30 0.20 0.25 0.33 0.27 0.31 0.34 0.55 0.62 0.44 0.10 0.08 0.17 0.12 0.25 0.40 0.48 0.54 0.29 0.06 0.15 0.12 0.09 0.04 0.04 0.11 0.12 0.10 0.08 0.03 0.03 0.16 0.11 0.00 0.00 0.00 0.01 0.02 0.01 0.00
0.48 0.45 0.39 0.46 0.38 0.37 0.33 0.40 0.52 0.60 0.66 0.55 0.65 0.68 0.30 0.02 0.09 0.16 0.22 0.26 0.50 0.92 0.78 0.75 0.15 0.13 0.15 0.12 0.09 0.12 0.21 0.08 0.03 0.07 0.05 0.10 0.09 0.02 0.03 0.00 0.00 0.00 0.00 0.00 0.00
0.51 0.45 0.46 0.53 0.51 0.46 0.45 0.33 0.44 0.45 0.75 0.84 0.83 0.59 0.25 0.15 0.09 0.09 0.23 0.37 0.54 1.16 1.40 1.54 0.78 0.23 0.19 0.19 0.20 0.20 0.08 0.02 0.01 0.01 0.01 0.02 0.00 0.02 0.03 0.01 0.00 0.00 0.00 0.00 0.00
0.51 0.45 0.48 0.48 0.58 0.62 0.66 0.66 0.56 0.57 0.69 1.13 0.92 0.69 0.19 0.21 0.17 0.20 0.30 0.50 0.65 1.25 1.78 2.14 1.22 0.44 0.21 0.23 0.17 0.07 0.05 0.03 0.01 0.00 0.01 0.00 0.00 0.00 0.01 0.02 0.00 0.00 0.00 0.00 0.00
0.55 0.45 0.42 0.51 0.63 0.54 0.78 1.13 0.93 0.94 1.09 0.98 0.43 0.34 0.21 0.32 0.45 0.47 0.51 0.65 1.22 1.65 1.80 1.72 0.75 0.31 0.11 0.06 0.06 0.05 0.07 0.04 0.01 0.01 0.02 0.00 0.00 0.00 0.00 0.02 0.01 0.00 0.00 0.00 0.00
0.48 0.43 0.46 0.53 0.62 0.91 1.21 1.21 0.72 0.62 0.82 0.56 0.13 0.19 0.12 0.23 0.67 0.64 0.78 1.33 1.42 1.56 1.49 1.52 0.48 0.08 0.17 0.09 0.09 0.11 0.12 0.04 0.03 0.02 0.04 0.01 0.00 0.00 0.00 0.00 0.00 0.00 0.00 0.00 0.00
0.37 0.42 0.49 0.65 0.76 1.04 1.03 0.60 0.36 0.74 1.15 0.83 0.32 0.34 0.27 0.31 0.71 0.67 1.11 1.45 1.29 1.19 1.01 0.94 0.27 0.11 0.25 0.24 0.15 0.11 0.14 0.10 0.04 0.06 0.05 0.04 0.01 0.00 0.00 0.00 0.00 0.00 0.00 0.00 0.00
0.45 0.49 0.67 0.93 1.22 0.83 0.73 0.47 0.60 1.08 1.40 1.06 0.69 0.67 0.46 0.92 1.06 0.54 1.58 1.48 1.43 1.00 0.84 0.93 0.42 0.30 0.27 0.47 0.17 0.13 0.07 0.11 0.17 0.15 0.04 0.06 0.03 0.00 0.00 0.00 0.00 0.00 0.00 0.00 0.00
0.82 0.72 0.60 1.10 1.12 0.94 0.68 0.42 0.81 1.47 1.51 0.98 0.88 0.68 0.85 0.82 0.60 0.71 1.19 1.07 0.98 0.83 0.85 0.75 0.43 0.49 0.33 0.44 0.15 0.21 0.07 0.11 0.23 0.35 0.35 0.07 0.09 0.01 0.00 0.00 0.00 0.00 0.00 0.00 0.00
0.91 0.88 0.80 0.85 0.88 0.84 0.77 0.54 1.26 1.54 1.83 1.85 1.41 1.22 0.72 0.50 0.40 0.91 1.15 0.76 0.76 0.71 0.67 0.46 0.38 0.67 0.48 0.37 0.26 0.21 0.25 0.26 0.47 0.48 0.69 0.30 0.07 0.01 0.00 0.00 0.00 0.00 0.00 0.00 0.00
0.87 1.10 1.12 0.67 0.73 0.73 1.24 1.07 1.41 0.98 0.99 1.34 1.09 0.53 0.34 0.43 0.60 0.87 1.07 0.67 0.93 1.06 0.95 0.95 0.80 0.60 0.51 0.60 0.68 0.49 0.62 0.84 0.77 0.92 0.42 0.15 0.16 0.06 0.00 0.00 0.00 0.00 0.00 0.00 0.00
1.09 1.19 1.27 0.91 0.79 0.86 1.70 1.11 0.84 0.55 0.85 0.79 0.39 0.36 0.44 0.33 0.49 0.65 0.87 0.38 0.20 0.37 0.60 0.73 0.95 0.71 0.53 0.55 0.83 0.61 0.58 0.64 0.38 0.28 0.17 0.08 0.26 0.05 0.00 0.00 0.00 0.00 0.00 0.00 0.00
1.36 1.64 1.54 1.36 1.03 1.14 1.34 0.95 0.67 0.78 0.90 0.46 0.29 0.32 0.37 0.16 0.25 0.47 0.40 0.18 0.07 0.13 0.48 0.39 0.43 0.41 0.41 0.29 0.54 0.70 0.65 0.36 0.50 0.18 0.27 0.09 0.08 0.04 0.01 0.00 0.00 0.00 0.00 0.00 0.00
1.79 2.23 1.33 1.12 1.27 1.20 1.09 0.83 0.46 0.38 0.28 0.16 0.24 0.11 0.08 0.06 0.10 0.10 0.12 0.02 0.00 0.01 0.18 0.29 0.45 0.54 0.53 0.49 0.55 0.54 0.32 0.50 1.03 0.61 0.19 0.06 0.02 0.04 0.00 0.00 0.00 0.00 0.00 0.00 0.00
1.87 2.06 1.29 1.18 1.75 1.67 1.35 0.94 0.30 0.17 0.14 0.13 0.05 0.02 0.01 0.01 0.01 0.01 0.01 0.00 0.00 0.00 0.14 0.33 0.56 0.72 0.93 0.68 0.45 0.59 0.58 0.38 0.52 0.43 0.25 0.10 0.02 0.00 0.00 0.01 0.01 0.01 0.00 0.00 0.00
1.68 1.59 1.41 1.61 2.06 1.56 0.99 0.67 0.33 0.16 0.17 0.13 0.10 0.02 0.00 0.00 0.00 0.00 0.00 0.01 0.00 0.02 0.16 0.32 0.66 0.72 0.60 0.16 0.11 0.21 0.24 0.18 0.66 0.43 0.37 0.32 0.13 0.00 0.01 0.01 0.01 0.01 0.01 0.01 0.01
1.51 1.37 2.03 1.11 0.90 0.66 0.38 0.29 0.24 0.10 0.13 0.15 0.07 0.01 0.00 0.00 0.00 0.00 0.00 0.00 0.00 0.02 0.19 0.44 0.99 0.78 0.65 0.46 0.49 0.69 0.33 0.36 0.61 0.98 0.74 0.40 0.17 0.00 0.00 0.00 0.01 0.01 0.02 0.01 0.01
1.51 1.45 2.85 1.92 0.53 0.16 0.29 0.33 0.26 0.06 0.07 0.13 0.10 0.03 0.04 0.02 0.00 0.00 0.00 0.00 0.00 0.00 0.16 0.72 0.80 0.85 0.68 0.62 0.88 0.72 0.34 0.52 1.06 1.13 0.36 0.18 0.07 0.02 0.01 0.01 0.02 0.04 0.04 0.02 0.02
1.02 0.67 0.70 0.82 0.43 0.07 0.27 0.29 0.36 0.23 0.12 0.17 0.11 0.04 0.06 0.02 0.00 0.00 0.00 0.00 0.00 0.00 0.16 0.66 1.15 1.28 0.54 0.32 0.69 0.60 0.31 0.43 0.97 0.55 0.51 0.16 0.06 0.03 0.04 0.05 0.07 0.09 0.08 0.06 0.06
0.64 0.56 0.11 0.04 0.03 0.02 0.17 0.27 0.34 0.34 0.27 0.19 0.13 0.04 0.04 0.05 0.00 0.00 0.00 0.00 0.00 0.01 0.15 0.55 0.95 0.81 0.34 0.20 0.40 0.47 0.23 0.35 0.56 0.41 0.30 0.12 0.11 0.06 0.04 0.06 0.06 0.17 0.11 0.08 0.08
0.62 0.49 0.14 0.06 0.04 0.04 0.06 0.12 0.23 0.37 0.24 0.09 0.08 0.11 0.07 0.03 0.01 0.00 0.00 0.00 0.00 0.01 0.07 0.34 0.63 0.82 0.64 0.41 0.55 0.52 0.26 0.31 0.41 0.35 0.24 0.14 0.12 0.04 0.05 0.12 0.27 0.46 0.11 0.05 0.02

GFSSW_prec_precacc_069.txt.gz
Total_Precipitation_Accumulation
0.15 0.17 0.21 0.22 0.21 0.19 0.19 0.18 0.22 0.28 0.36 0.43 0.44 0.49 0.58 0.56 0.47 0.25 0.11 0.02 0.03 0.05 0.14 0.06 0.02 0.02 0.02 0.10 0.22 0.20 0.26 0.29 0.08 0.01 0.00 0.00 0.00 0.00 0.00 0.00 0.00 0.00 0.00 0.00 0.01
0.15 0.19 0.21 0.22 0.24 0.21 0.22 0.23 0.30 0.35 0.43 0.48 0.56 0.61 0.51 0.47 0.33 0.17 0.02 0.05 0.10 0.27 0.12 0.05 0.03 0.03 0.06 0.16 0.30 0.43 0.43 0.09 0.02 0.01 0.01 0.02 0.00 0.00 0.00 0.00 0.01 0.02 0.02 0.02 0.05
0.17 0.22 0.22 0.26 0.26 0.28 0.28 0.32 0.37 0.35 0.34 0.41 0.53 0.64 0.66 0.55 0.28 0.05 0.00 0.02 0.23 0.47 0.27 0.05 0.06 0.06 0.09 0.16 0.18 0.27 0.24 0.01 0.01 0.03 0.14 0.07 0.01 0.00 0.00 0.00 0.00 0.03 0.07 0.08 0.04
0.22 0.28 0.28 0.26 0.29 0.38 0.35 0.37 0.35 0.28 0.27 0.30 0.34 0.56 0.80 0.64 0.23 0.08 0.01 0.07 0.35 0.73 0.43 0.13 0.09 0.10 0.05 0.06 0.02 0.06 0.03 0.01 0.04 0.08 0.17 0.09 0.02 0.00 0.00 0.00 0.00 0.03 0.09 0.13 0.17
0.30 0.39 0.32 0.30 0.31 0.39 0.39 0.26 0.27 0.23 0.19 0.16 0.30 0.85 0.77 0.54 0.12 0.16 0.10 0.14 0.54 0.90 0.42 0.16 0.08 0.04 0.03 0.01 0.03 0.01 0.02 0.04 0.11 0.07 0.04 0.12 0.10 0.01 0.00 0.00 0.00 0.01 0.04 0.04 0.09
0.36 0.40 0.31 0.33 0.40 0.38 0.24 0.22 0.24 0.26 0.36 0.23 0.46 0.70 0.66 0.32 0.04 0.10 0.12 0.20 0.33 0.71 0.50 0.24 0.09 0.03 0.03 0.02 0.06 0.01 0.03 0.08 0.17 0.08 0.04 0.11 0.11 0.06 0.00 0.00 0.00 0.01 0.03 0.01 0.04
0.44 0.43 0.34 0.42 0.38 0.31 0.20 0.26 0.34 0.27 0.31 0.34 0.56 0.62 0.44 0.10 0.08 0.17 0.12 0.25 0.40 0.55 0.54 0.30 0.13 0.17 0.12 0.10 0.05 0.05 0.13 0.18 0.14 0.15 0.10 0.05 0.16 0.11 0.00 0.00 0.00 0.01 0.02 0.01 0.00
0.48 0.45 0.40 0.47 0.39 0.37 0.33 0.40 0.52 0.60 0.66 0.56 0.66 0.68 0.30 0.02 0.09 0.16 0.22 0.26 0.51 0.93 0.78 0.76 0.25 0.15 0.16 0.13 0.10 0.15 0.24 0.10 0.06 0.12 0.24 0.20 0.13 0.02 0.03 0.00 0.00 0.00 0.00 0.00 0.00
0.52 0.45 0.46 0.54 0.52 0.46 0.46 0.33 0.44 0.45 0.75 0.84 0.83 0.59 0.25 0.15 0.09 0.09 0.23 0.37 0.56 1.23 1.44 1.62 1.04 0.29 0.20 0.20 0.21 0.22 0.08 0.02 0.01 0.04 0.10 0.08 0.03 0.02 0.03 0.01 0.00 0.00 0.00 0.00 0.00
0.51 0.45 0.48 0.49 0.59 0.62 0.66 0.66 0.56 0.57 0.69 1.13 0.92 0.69 0.19 0.22 0.17 0.20 0.30 0.50 0.73 1.38 1.85 2.30 1.69 0.50 0.22 0.24 0.17 0.07 0.05 0.03 0.01 0.00 0.02 0.01 0.00 0.00 0.02 0.02 0.00 0.00 0.00 0.00 0.00
0.56 0.46 0.42 0.52 0.64 0.54 0.78 1.13 0.93 0.94 1.09 0.98 0.43 0.34 0.22 0.36 0.46 0.48 0.53 0.66 1.31 1.77 1.87 1.93 1.13 0.36 0.11 0.06 0.06 0.05 0.07 0.04 0.01 0.01 0.02 0.00 0.00 0.01 0.00 0.02 0.01 0.01 0.00 0.00 0.00
0.48 0.43 0.46 0.54 0.63 0.91 1.21 1.21 0.72 0.62 0.82 0.56 0.13 0.19 0.12 0.29 0.74 0.66 0.80 1.33 1.61 1.68 1.51 1.68 0.62 0.09 0.17 0.09 0.09 0.11 0.12 0.04 0.03 0.02 0.04 0.01 0.00 0.00 0.00 0.00 0.00 0.00 0.00 0.00 0.00
0.38 0.43 0.50 0.66 0.76 1.04 1.03 0.60 0.36 0.74 1.15 0.85 0.33 0.35 0.28 0.34 0.74 0.67 1.12 1.50 1.57 1.23 1.04 1.01 0.29 0.11 0.27 0.24 0.15 0.11 0.14 0.10 0.04 0.06 0.05 0.04 0.01 0.00 0.00 0.00 0.00 0.00 0.00 0.00 0.00
0.45 0.49 0.67 0.93 1.22 0.83 0.73 0.47 0.60 1.08 1.40 1.08 0.71 0.74 0.47 0.92 1.07 0.54 1.58 1.52 1.55 1.06 0.92 1.00 0.42 0.30 0.29 0.48 0.17 0.13 0.07 0.11 0.17 0.15 0.04 0.06 0.03 0.00 0.00 0.00 0.00 0.00 0.00 0.00 0.00
0.83 0.72 0.60 1.10 1.12 0.94 0.68 0.42 0.81 1.47 1.51 0.98 0.88 0.69 0.85 0.83 0.61 0.72 1.19 1.08 0.99 0.86 0.94 0.84 0.44 0.50 0.36 0.45 0.15 0.21 0.07 0.11 0.23 0.35 0.35 0.07 0.09 0.01 0.00 0.00 0.00 0.00 0.00 0.00 0.00
0.91 0.89 0.80 0.85 0.88 0.84 0.77 0.54 1.26 1.54 1.83 1.85 1.41 1.23 0.73 0.51 0.40 0.91 1.15 0.76 0.78 0.74 0.80 0.47 0.38 0.69 0.50 0.37 0.26 0.21 0.25 0.26 0.47 0.48 0.69 0.30 0.07 0.01 0.00 0.00 0.00 0.00 0.00 0.00 0.00
0.87 1.10 1.12 0.67 0.73 0.73 1.24 1.07 1.41 0.98 0.99 1.34 1.10 0.54 0.36 0.45 0.60 0.87 1.08 0.67 0.96 1.10 1.14 1.06 0.84 0.61 0.51 0.61 0.68 0.49 0.62 0.84 0.78 0.92 0.42 0.15 0.16 0.06 0.00 0.00 0.00 0.00 0.00 0.00 0.00
1.09 1.19 1.27 0.91 0.79 0.86 1.70 1.11 0.84 0.55 0.85 0.79 0.39 0.36 0.45 0.34 0.51 0.66 0.88 0.42 0.23 0.37 0.65 0.81 1.01 0.71 0.53 0.55 0.84 0.61 0.58 0.64 0.38 0.28 0.17 0.08 0.26 0.05 0.00 0.00 0.00 0.00 0.00 0.00 0.00
1.36 1.64 1.54 1.36 1.03 1.14 1.34 0.95 0.67 0.78 0.90 0.46 0.29 0.32 0.37 0.16 0.26 0.48 0.40 0.19 0.07 0.13 0.48 0.39 0.44 0.41 0.41 0.29 0.54 0.70 0.65 0.36 0.50 0.18 0.27 0.09 0.08 0.04 0.01 0.00 0.00 0.00 0.00 0.00 0.00
1.79 2.23 1.33 1.12 1.27 1.20 1.09 0.83 0.46 0.38 0.28 0.16 0.24 0.11 0.08 0.06 0.10 0.10 0.12 0.02 0.00 0.01 0.18 0.29 0.45 0.54 0.53 0.49 0.55 0.54 0.32 0.50 1.03 0.61 0.19 0.06 0.02 0.04 0.00 0.00 0.00 0.00 0.00 0.00 0.00
1.87 2.06 1.29 1.18 1.75 1.67 1.35 0.94 0.30 0.17 0.14 0.13 0.05 0.02 0.01 0.01 0.01 0.01 0.01 0.00 0.00 0.00 0.14 0.33 0.56 0.72 0.93 0.68 0.45 0.59 0.58 0.38 0.52 0.43 0.25 0.10 0.02 0.00 0.00 0.01 0.01 0.01 0.00 0.00 0.00
1.68 1.59 1.41 1.61 2.06 1.56 0.99 0.67 0.33 0.16 0.17 0.13 0.10 0.02 0.00 0.00 0.00 0.00 0.00 0.01 0.00 0.02 0.16 0.32 0.66 0.72 0.60 0.16 0.11 0.21 0.24 0.18 0.66 0.43 0.37 0.32 0.13 0.00 0.01 0.01 0.01 0.01 0.01 0.01 0.01
1.51 1.37 2.03 1.11 0.90 0.66 0.38 0.29 0.24 0.10 0.13 0.15 0.07 0.01 0.00 0.00 0.00 0.00 0.00 0.00 0.00 0.02 0.19 0.44 0.99 0.78 0.66 0.47 0.49 0.69 0.33 0.36 0.61 0.98 0.75 0.40 0.17 0.00 0.00 0.00 0.01 0.01 0.02 0.01 0.01
1.51 1.45 2.85 1.92 0.53 0.16 0.29 0.33 0.26 0.06 0.07 0.13 0.10 0.03 0.04 0.02 0.00 0.00 0.00 0.00 0.00 0.00 0.16 0.72 0.80 0.85 0.68 0.62 0.88 0.72 0.34 0.52 1.06 1.13 0.37 0.18 0.07 0.02 0.01 0.01 0.02 0.04 0.04 0.02 0.02
1.02 0.67 0.70 0.82 0.43 0.07 0.27 0.29 0.36 0.23 0.12 0.17 0.11 0.04 0.06 0.02 0.00 0.00 0.00 0.00 0.00 0.00 0.16 0.66 1.15 1.28 0.54 0.32 0.69 0.60 0.31 0.43 0.97 0.55 0.51 0.16 0.06 0.03 0.04 0.05 0.07 0.09 0.08 0.06 0.06
0.64 0.56 0.11 0.04 0.03 0.02 0.17 0.27 0.34 0.34 0.27 0.19 0.13 0.04 0.04 0.05 0.00 0.00 0.00 0.00 0.00 0.01 0.15 0.55 0.95 0.81 0.34 0.20 0.40 0.47 0.23 0.35 0.56 0.41 0.30 0.12 0.11 0.06 0.04 0.06 0.06 0.17 0.11 0.08 0.08
0.62 0.49 0.14 0.06 0.04 0.04 0.06 0.12 0.23 0.37 0.24 0.09 0.08 0.11 0.07 0.03 0.01 0.00 0.00 0.00 0.00 0.01 0.07 0.34 0.63 0.82 0.64 0.41 0.55 0.52 0.26 0.31 0.41 0.35 0.24 0.14 0.12 0.04 0.05 0.12 0.27 0.46 0.11 0.05 0.02

GFSSW_prec_precacc_072.txt.gz
Total_Precipitation_Accumulation
0.16 0.18 0.22 0.22 0.21 0.20 0.19 0.18 0.23 0.28 0.36 0.43 0.44 0.52 0.64 0.69 0.60 0.29 0.12 0.02 0.03 0.06 0.15 0.06 0.03 0.02 0.04 0.13 0.25 0.28 0.31 0.30 0.08 0.01 0.00 0.00 0.00 0.00 0.00 0.00 0.00 0.00 0.00 0.00 0.01
0.15 0.21 0.21 0.22 0.24 0.21 0.22 0.23 0.30 0.35 0.43 0.48 0.57 0.66 0.60 0.58 0.41 0.23 0.02 0.05 0.10 0.30 0.14 0.05 0.04 0.04 0.07 0.19 0.36 0.49 0.46 0.09 0.02 0.01 0.01 0.02 0.00 0.00 0.00 0.00 0.01 0.02 0.02 0.03 0.06
0.17 0.24 0.23 0.26 0.26 0.28 0.28 0.32 0.37 0.35 0.34 0.41 0.53 0.67 0.76 0.69 0.33 0.07 0.02 0.02 0.23 0.48 0.35 0.07 0.08 0.08 0.10 0.19 0.23 0.31 0.26 0.01 0.01 0.03 0.14 0.07 0.01 0.00 0.00 0.00 0.00 0.03 0.07 0.09 0.06
0.22 0.28 0.30 0.26 0.30 0.38 0.35 0.37 0.35 0.28 0.27 0.30 0.34 0.56 0.84 0.70 0.31 0.08 0.02 0.07 0.35 0.74 0.49 0.20 0.13 0.12 0.06 0.07 0.04 0.08 0.05 0.02 0.04 0.09 0.17 0.09 0.02 0.00 0.00 0.00 0.00 0.03 0.09 0.15 0.20
0.31 0.39 0.32 0.31 0.31 0.40 0.39 0.26 0.27 0.23 0.19 0.16 0.30 0.85 0.78 0.55 0.13 0.16 0.10 0.14 0.54 0.91 0.46 0.23 0.12 0.05 0.03 0.02 0.05 0.02 0.04 0.05 0.13 0.07 0.04 0.12 0.10 0.01 0.00 0.00 0.00 0.01 0.04 0.06 0.16
0.37 0.40 0.31 0.34 0.40 0.39 0.24 0.22 0.25 0.26 0.36 0.23 0.46 0.71 0.66 0.32 0.04 0.10 0.12 0.20 0.34 0.73 0.55 0.34 0.16 0.03 0.03 0.03 0.08 0.02 0.06 0.12 0.20 0.10 0.04 0.11 0.11 0.06 0.00 0.00 0.00 0.01 0.03 0.02 0.05
0.45 0.43 0.34 0.43 0.39 0.31 0.21 0.26 0.34 0.28 0.32 0.34 0.56 0.62 0.44 0.10 0.08 0.17 0.12 0.25 0.41 0.58 0.56 0.37 0.21 0.18 0.12 0.10 0.06 0.07 0.15 0.23 0.22 0.22 0.13 0.05 0.18 0.11 0.00 0.00 0.00 0.01 0.02 0.01 0.00
0.49 0.45 0.40 0.47 0.39 0.37 0.33 0.40 0.52 0.60 0.66 0.56 0.66 0.68 0.30 0.02 0.09 0.16 0.22 0.26 0.51 0.94 0.79 0.78 0.34 0.20 0.16 0.14 0.11 0.21 0.28 0.13 0.08 0.18 0.28 0.22 0.15 0.02 0.03 0.00 0.00 0.00 0.00 0.00 0.00
0.53 0.46 0.46 0.54 0.52 0.46 0.46 0.33 0.44 0.45 0.75 0.84 0.83 0.59 0.25 0.15 0.09 0.09 0.23 0.37 0.57 1.27 1.47 1.66 1.19 0.43 0.23 0.22 0.22 0.25 0.09 0.03 0.02 0.06 0.11 0.09 0.03 0.02 0.04 0.01 0.00 0.00 0.00 0.00 0.00
0.52 0.46 0.49 0.49 0.59 0.62 0.66 0.66 0.56 0.57 0.69 1.13 0.92 0.69 0.19 0.22 0.18 0.20 0.30 0.50 0.75 1.44 1.96 2.40 1.93 0.77 0.24 0.25 0.18 0.07 0.05 0.03 0.01 0.02 0.02 0.01 0.00 0.01 0.02 0.02 0.00 0.00 0.00 0.00 0.00
0.56 0.46 0.42 0.52 0.64 0.55 0.78 1.13 0.93 0.94 1.09 0.98 0.43 0.34 0.26 0.40 0.46 0.49 0.53 0.67 1.38 1.92 2.02 2.03 1.32 0.52 0.12 0.06 0.06 0.05 0.08 0.04 0.01 0.01 0.02 0.00 0.01 0.01 0.00 0.02 0.01 0.01 0.00 0.00 0.00
0.48 0.43 0.46 0.54 0.63 0.91 1.21 1.21 0.72 0.62 0.82 0.56 0.13 0.19 0.16 0.37 0.75 0.67 0.80 1.35 1.69 1.97 1.59 1.72 0.75 0.16 0.18 0.09 0.09 0.11 0.12 0.05 0.03 0.03 0.05 0.01 0.00 0.00 0.00 0.00 0.00 0.00 0.00 0.00 0.00
0.38 0.43 0.50 0.66 0.76 1.04 1.03 0.60 0.36 0.74 1.15 0.86 0.35 0.35 0.32 0.41 0.78 0.72 1.13 1.52 1.60 1.32 1.06 1.04 0.33 0.14 0.29 0.25 0.15 0.11 0.14 0.10 0.04 0.06 0.05 0.04 0.01 0.00 0.00 0.00 0.00 0.00 0.00 0.00 0.00
0.45 0.50 0.68 0.93 1.22 0.83 0.73 0.47 0.60 1.08 1.40 1.09 0.74 0.77 0.49 0.93 1.09 0.56 1.61 1.56 1.65 1.09 0.93 1.04 0.43 0.31 0.31 0.49 0.18 0.13 0.07 0.11 0.17 0.15 0.04 0.06 0.03 0.00 0.00 0.00 0.00 0.00 0.00 0.00 0.00
0.83 0.73 0.60 1.10 1.12 0.94 0.68 0.42 0.81 1.47 1.51 0.98 0.88 0.69 0.85 0.85 0.62 0.74 1.23 1.14 1.04 0.87 0.95 0.87 0.45 0.51 0.38 0.46 0.15 0.21 0.07 0.11 0.23 0.35 0.35 0.07 0.09 0.01 0.00 0.00 0.00 0.00 0.00 0.00 0.00
0.92 0.89 0.81 0.85 0.88 0.84 0.77 0.54 1.26 1.54 1.83 1.85 1.41 1.24 0.75 0.52 0.41 0.91 1.18 0.80 0.82 0.76 0.83 0.48 0.39 0.71 0.53 0.37 0.26 0.21 0.25 0.26 0.47 0.48 0.69 0.30 0.07 0.01 0.00 0.00 0.00 0.00 0.00 0.00 0.00
0.87 1.10 1.12 0.67 0.73 0.73 1.24 1.07 1.41 0.98 0.99 1.34 1.10 0.56 0.37 0.46 0.61 0.89 1.09 0.68 0.98 1.18 1.23 1.09 0.85 0.62 0.53 0.61 0.68 0.49 0.62 0.85 0.78 0.93 0.43 0.15 0.16 0.06 0.00 0.00 0.00 0.00 0.00 0.00 0.00
1.09 1.19 1.27 0.91 0.79 0.86 1.70 1.11 0.84 0.55 0.85 0.79 0.40 0.37 0.46 0.35 0.52 0.68 0.88 0.43 0.24 0.38 0.67 0.85 1.05 0.74 0.54 0.56 0.84 0.61 0.58 0.64 0.38 0.29 0.17 0.08 0.26 0.05 0.00 0.00 0.00 0.00 0.00 0.00 0.00
1.36 1.64 1.54 1.36 1.03 1.14 1.34 0.95 0.67 0.78 0.90 0.46 0.30 0.33 0.37 0.16 0.27 0.48 0.40 0.19 0.07 0.13 0.49 0.40 0.46 0.42 0.41 0.29 0.54 0.70 0.65 0.36 0.50 0.18 0.27 0.09 0.08 0.04 0.01 0.00 0.00 0.00 0.00 0.00 0.00
1.79 2.23 1.33 1.12 1.27 1.20 1.09 0.83 0.46 0.38 0.28 0.16 0.24 0.11 0.08 0.06 0.10 0.10 0.13 0.02 0.00 0.01 0.18 0.29 0.46 0.54 0.53 0.49 0.56 0.54 0.32 0.50 1.03 0.61 0.19 0.06 0.02 0.04 0.00 0.00 0.00 0.00 0.00 0.00 0.00
1.87 2.06 1.29 1.18 1.75 1.67 1.35 0.94 0.30 0.17 0.14 0.13 0.05 0.02 0.01 0.01 0.01 0.01 0.01 0.00 0.00 0.00 0.14 0.33 0.56 0.73 0.94 0.68 0.46 0.60 0.58 0.38 0.52 0.43 0.25 0.10 0.02 0.00 0.00 0.01 0.01 0.01 0.00 0.00 0.00
1.68 1.59 1.41 1.61 2.07 1.56 0.99 0.67 0.33 0.16 0.17 0.13 0.10 0.02 0.00 0.00 0.00 0.00 0.00 0.01 0.00 0.02 0.16 0.32 0.66 0.72 0.60 0.16 0.11 0.21 0.24 0.18 0.66 0.43 0.37 0.32 0.13 0.00 0.01 0.01 0.01 0.01 0.01 0.01 0.01
1.51 1.37 2.03 1.11 0.90 0.66 0.38 0.29 0.24 0.10 0.13 0.15 0.07 0.01 0.00 0.00 0.00 0.00 0.00 0.00 0.00 0.02 0.19 0.44 0.99 0.78 0.66 0.47 0.49 0.69 0.33 0.36 0.61 0.98 0.75 0.40 0.17 0.00 0.00 0.00 0.01 0.01 0.02 0.01 0.01
1.51 1.45 2.85 1.92 0.53 0.16 0.29 0.33 0.26 0.06 0.07 0.13 0.10 0.03 0.04 0.02 0.00 0.00 0.00 0.00 0.00 0.00 0.16 0.72 0.80 0.85 0.69 0.62 0.88 0.72 0.34 0.52 1.06 1.13 0.37 0.18 0.07 0.02 0.01 0.01 0.02 0.04 0.04 0.02 0.02
1.02 0.67 0.70 0.82 0.43 0.07 0.27 0.29 0.36 0.23 0.12 0.17 0.11 0.04 0.06 0.02 0.00 0.00 0.00 0.00 0.00 0.00 0.16 0.66 1.15 1.28 0.54 0.32 0.69 0.60 0.31 0.43 0.97 0.55 0.51 0.16 0.06 0.03 0.04 0.05 0.07 0.09 0.08 0.06 0.06
0.64 0.56 0.11 0.04 0.03 0.02 0.17 0.27 0.34 0.34 0.27 0.19 0.13 0.04 0.04 0.05 0.00 0.00 0.00 0.00 0.00 0.01 0.15 0.55 0.95 0.81 0.34 0.20 0.40 0.47 0.23 0.35 0.56 0.41 0.30 0.12 0.11 0.06 0.04 0.06 0.06 0.17 0.11 0.08 0.08
0.62 0.49 0.14 0.06 0.04 0.04 0.06 0.12 0.23 0.37 0.24 0.09 0.08 0.11 0.07 0.03 0.01 0.00 0.00 0.00 0.00 0.01 0.07 0.34 0.63 0.82 0.64 0.41 0.55 0.52 0.26 0.31 0.41 0.35 0.24 0.14 0.12 0.04 0.05 0.12 0.27 0.46 0.11 0.05 0.02

GFSSW_prec_precacc_075.txt.gz
Total_Precipitation_Accumulation
0.16 0.19 0.23 0.22 0.21 0.20 0.19 0.18 0.23 0.28 0.36 0.43 0.44 0.52 0.64 0.71 0.66 0.40 0.16 0.03 0.03 0.09 0.20 0.07 0.03 0.02 0.05 0.15 0.30 0.32 0.38 0.32 0.08 0.01 0.00 0.00 0.00 0.00 0.00 0.00 0.00 0.00 0.02 0.02 0.03
0.16 0.22 0.23 0.23 0.24 0.21 0.22 0.23 0.30 0.35 0.43 0.48 0.57 0.66 0.61 0.59 0.45 0.36 0.14 0.10 0.11 0.31 0.16 0.06 0.05 0.04 0.08 0.21 0.42 0.67 0.62 0.10 0.02 0.01 0.01 0.02 0.00 0.00 0.00 0.00 0.01 0.02 0.02 0.03 0.08
0.18 0.24 0.24 0.27 0.26 0.28 0.28 0.32 0.37 0.35 0.34 0.41 0.53 0.67 0.76 0.73 0.38 0.09 0.11 0.11 0.24 0.48 0.39 0.11 0.10 0.10 0.10 0.21 0.26 0.40 0.45 0.04 0.01 0.04 0.14 0.07 0.01 0.00 0.00 0.00 0.00 0.03 0.07 0.10 0.09
0.24 0.28 0.30 0.27 0.30 0.38 0.35 0.37 0.35 0.28 0.27 0.30 0.34 0.56 0.84 0.74 0.40 0.11 0.11 0.12 0.36 0.74 0.51 0.25 0.20 0.16 0.06 0.07 0.05 0.10 0.09 0.08 0.07 0.09 0.17 0.09 0.02 0.00 0.00 0.00 0.00 0.03 0.09 0.17 0.24
0.32 0.40 0.32 0.31 0.32 0.40 0.40 0.26 0.27 0.24 0.19 0.16 0.30 0.85 0.78 0.55 0.13 0.16 0.10 0.14 0.54 0.91 0.47 0.28 0.16 0.09 0.03 0.02 0.05 0.04 0.07 0.07 0.23 0.08 0.04 0.12 0.10 0.01 0.00 0.00 0.00 0.01 0.04 0.08 0.23
0.38 0.41 0.31 0.34 0.41 0.39 0.24 0.23 0.25 0.27 0.36 0.23 0.46 0.71 0.66 0.32 0.04 0.10 0.12 0.20 0.34 0.73 0.57 0.41 0.24 0.05 0.04 0.03 0.08 0.02 0.07 0.14 0.26 0.18 0.05 0.11 0.11 0.06 0.00 0.00 0.00 0.01 0.03 0.03 0.07
0.46 0.44 0.34 0.43 0.39 0.31 0.21 0.26 0.34 0.28 0.32 0.34 0.56 0.62 0.44 0.10 0.08 0.17 0.12 0.25 0.41 0.59 0.61 0.43 0.36 0.28 0.13 0.10 0.06 0.07 0.18 0.27 0.26 0.37 0.17 0.06 0.21 0.11 0.00 0.00 0.00 0.01 0.02 0.01 0.01
0.50 0.46 0.40 0.47 0.39 0.37 0.33 0.41 0.52 0.60 0.66 0.56 0.66 0.68 0.30 0.02 0.09 0.16 0.22 0.26 0.51 0.94 0.81 0.81 0.40 0.34 0.18 0.14 0.13 0.23 0.32 0.17 0.10 0.24 0.34 0.25 0.16 0.02 0.03 0.00 0.00 0.00 0.00 0.00 0.01
0.53 0.46 0.47 0.54 0.52 0.46 0.46 0.34 0.44 0.45 0.75 0.84 0.83 0.59 0.25 0.15 0.10 0.09 0.23 0.37 0.57 1.27 1.47 1.70 1.24 0.50 0.32 0.25 0.25 0.28 0.11 0.04 0.05 0.09 0.15 0.10 0.05 0.02 0.04 0.01 0.00 0.00 0.00 0.00 0.00
0.53 0.46 0.49 0.49 0.59 0.63 0.66 0.66 0.56 0.57 0.69 1.13 0.92 0.70 0.20 0.22 0.18 0.20 0.30 0.50 0.76 1.45 1.97 2.53 1.98 0.81 0.29 0.30 0.19 0.07 0.05 0.03 0.02 0.04 0.06 0.05 0.03 0.01 0.02 0.02 0.00 0.00 0.00 0.00 0.00
0.57 0.46 0.42 0.52 0.64 0.55 0.78 1.13 0.93 0.94 1.09 0.98 0.43 0.34 0.26 0.40 0.47 0.49 0.53 0.67 1.41 1.93 2.11 2.20 1.36 0.60 0.13 0.06 0.06 0.05 0.08 0.05 0.01 0.02 0.04 0.02 0.02 0.02 0.00 0.02 0.01 0.01 0.00 0.00 0.00
0.49 0.43 0.47 0.55 0.63 0.91 1.21 1.21 0.72 0.62 0.82 0.56 0.14 0.20 0.16 0.38 0.75 0.68 0.80 1.36 1.71 2.02 1.72 1.83 0.79 0.19 0.19 0.10 0.10 0.11 0.13 0.07 0.04 0.04 0.06 0.02 0.00 0.00 0.00 0.00 0.00 0.00 0.00 0.00 0.00
0.38 0.43 0.50 0.67 0.76 1.04 1.03 0.60 0.36 0.74 1.15 0.87 0.35 0.36 0.35 0.45 0.81 0.73 1.14 1.53 1.62 1.51 1.14 1.07 0.35 0.19 0.33 0.27 0.16 0.11 0.14 0.11 0.05 0.08 0.07 0.05 0.01 0.00 0.00 0.00 0.00 0.00 0.00 0.00 0.00
0.45 0.50 0.68 0.93 1.22 0.83 0.73 0.47 0.60 1.08 1.41 1.09 0.74 0.78 0.51 0.99 1.20 0.56 1.63 1.58 1.70 1.34 1.01 1.07 0.46 0.39 0.33 0.49 0.18 0.14 0.07 0.11 0.17 0.16 0.04 0.06 0.03 0.00 0.00 0.00 0.00 0.00 0.00 0.00 0.00
0.83 0.73 0.61 1.10 1.12 0.94 0.68 0.42 0.81 1.47 1.52 0.98 0.89 0.69 0.86 0.86 0.65 0.78 1.28 1.16 1.08 0.98 0.97 0.87 0.46 0.56 0.41 0.46 0.16 0.21 0.07 0.11 0.24 0.36 0.35 0.07 0.09 0.01 0.00 0.00 0.00 0.00 0.00 0.00 0.00
0.92 0.89 0.81 0.85 0.88 0.84 0.77 0.54 1.26 1.55 1.83 1.85 1.41 1.24 0.75 0.53 0.42 0.94 1.27 0.91 0.86 0.78 0.84 0.48 0.39 0.75 0.57 0.38 0.26 0.21 0.25 0.26 0.47 0.48 0.69 0.30 0.07 0.01 0.00 0.00 0.00 0.00 0.00 0.00 0.00
0.87 1.10 1.12 0.67 0.73 0.73 1.24 1.07 1.41 0.99 0.99 1.34 1.11 0.56 0.37 0.46 0.61 0.92 1.16 0.76 1.00 1.20 1.25 1.11 0.86 0.65 0.56 0.63 0.69 0.50 0.63 0.85 0.78 0.93 0.43 0.15 0.16 0.06 0.00 0.00 0.00 0.00 0.00 0.00 0.00
1.09 1.19 1.27 0.91 0.79 0.86 1.70 1.11 0.84 0.55 0.85 0.79 0.41 0.38 0.47 0.36 0.53 0.70 0.90 0.46 0.25 0.39 0.67 0.88 1.10 0.78 0.56 0.57 0.85 0.63 0.58 0.64 0.38 0.29 0.17 0.08 0.26 0.05 0.00 0.00 0.00 0.00 0.00 0.00 0.00
1.36 1.64 1.54 1.36 1.03 1.14 1.34 0.95 0.67 0.78 0.90 0.46 0.31 0.34 0.38 0.16 0.27 0.50 0.41 0.20 0.08 0.13 0.50 0.41 0.47 0.43 0.42 0.31 0.55 0.72 0.66 0.36 0.50 0.18 0.27 0.09 0.08 0.04 0.01 0.00 0.00 0.00 0.00 0.00 0.00
1.79 2.24 1.33 1.12 1.27 1.20 1.09 0.83 0.46 0.38 0.28 0.16 0.24 0.11 0.08 0.06 0.10 0.10 0.14 0.03 0.00 0.01 0.18 0.29 0.47 0.55 0.54 0.51 0.57 0.55 0.32 0.51 1.03 0.61 0.19 0.06 0.02 0.04 0.00 0.00 0.00 0.00 0.00 0.00 0.00
1.87 2.06 1.29 1.18 1.75 1.67 1.35 0.94 0.30 0.17 0.14 0.13 0.05 0.02 0.01 0.01 0.01 0.02 0.02 0.00 0.00 0.00 0.14 0.34 0.56 0.74 0.95 0.70 0.48 0.60 0.58 0.38 0.52 0.43 0.25 0.10 0.02 0.00 0.00 0.01 0.01 0.01 0.00 0.00 0.00
1.68 1.59 1.41 1.61 2.07 1.56 0.99 0.67 0.33 0.16 0.17 0.13 0.10 0.02 0.01 0.00 0.00 0.01 0.01 0.01 0.00 0.02 0.16 0.32 0.67 0.73 0.61 0.16 0.11 0.22 0.24 0.18 0.66 0.43 0.37 0.32 0.13 0.00 0.01 0.01 0.01 0.01 0.01 0.01 0.01
1.51 1.37 2.03 1.11 0.90 0.66 0.38 0.29 0.24 0.10 0.13 0.15 0.07 0.01 0.00 0.00 0.00 0.00 0.00 0.00 0.00 0.02 0.19 0.44 0.99 0.78 0.67 0.47 0.49 0.69 0.33 0.36 0.61 0.99 0.75 0.40 0.17 0.00 0.00 0.00 0.01 0.01 0.02 0.01 0.01
1.51 1.45 2.85 1.92 0.53 0.16 0.29 0.33 0.26 0.06 0.07 0.13 0.10 0.03 0.04 0.02 0.00 0.00 0.00 0.00 0.00 0.00 0.16 0.72 0.80 0.85 0.69 0.62 0.88 0.72 0.34 0.52 1.06 1.14 0.37 0.18 0.07 0.02 0.01 0.01 0.02 0.04 0.04 0.02 0.02
1.02 0.67 0.70 0.82 0.43 0.07 0.27 0.29 0.36 0.23 0.12 0.17 0.11 0.04 0.06 0.02 0.00 0.00 0.00 0.00 0.00 0.00 0.16 0.66 1.15 1.28 0.54 0.32 0.69 0.60 0.31 0.43 0.97 0.55 0.51 0.16 0.06 0.03 0.04 0.05 0.07 0.09 0.08 0.06 0.06
0.64 0.56 0.11 0.04 0.03 0.02 0.17 0.27 0.34 0.34 0.27 0.19 0.13 0.04 0.04 0.05 0.00 0.00 0.00 0.00 0.00 0.01 0.15 0.55 0.95 0.81 0.34 0.20 0.40 0.47 0.23 0.35 0.56 0.41 0.30 0.12 0.11 0.06 0.04 0.06 0.06 0.17 0.11 0.08 0.08
0.62 0.49 0.14 0.06 0.04 0.04 0.06 0.12 0.23 0.37 0.24 0.09 0.08 0.11 0.07 0.03 0.01 0.00 0.00 0.00 0.00 0.01 0.07 0.35 0.63 0.82 0.65 0.41 0.55 0.52 0.26 0.31 0.41 0.35 0.24 0.14 0.12 0.04 0.05 0.12 0.27 0.46 0.11 0.05 0.02

GFSSW_prec_precacc_078.txt.gz
Total_Precipitation_Accumulation
0.16 0.20 0.24 0.23 0.21 0.20 0.19 0.19 0.23 0.28 0.36 0.43 0.44 0.52 0.64 0.71 0.66 0.42 0.18 0.07 0.07 0.11 0.21 0.07 0.03 0.02 0.05 0.18 0.34 0.40 0.48 0.34 0.08 0.04 0.01 0.00 0.00 0.00 0.00 0.00 0.00 0.00 0.11 0.07 0.04
0.16 0.22 0.23 0.24 0.25 0.21 0.22 0.23 0.30 0.35 0.43 0.48 0.57 0.66 0.61 0.59 0.46 0.40 0.21 0.21 0.15 0.34 0.17 0.08 0.05 0.05 0.10 0.24 0.53 0.78 0.69 0.10 0.02 0.01 0.01 0.02 0.00 0.00 0.00 0.00 0.01 0.02 0.03 0.03 0.08
0.19 0.24 0.24 0.27 0.28 0.29 0.28 0.32 0.37 0.35 0.34 0.41 0.53 0.67 0.76 0.73 0.40 0.13 0.16 0.17 0.28 0.50 0.40 0.12 0.12 0.13 0.11 0.24 0.33 0.53 0.56 0.06 0.06 0.09 0.16 0.07 0.01 0.00 0.00 0.00 0.00 0.03 0.07 0.10 0.10
0.24 0.29 0.30 0.27 0.31 0.39 0.36 0.38 0.35 0.28 0.28 0.30 0.34 0.56 0.84 0.74 0.43 0.14 0.14 0.27 0.46 0.78 0.52 0.29 0.24 0.21 0.07 0.09 0.09 0.17 0.16 0.13 0.12 0.15 0.20 0.10 0.02 0.00 0.00 0.00 0.00 0.03 0.09 0.19 0.28
0.32 0.41 0.33 0.31 0.32 0.41 0.41 0.27 0.28 0.25 0.20 0.16 0.30 0.85 0.78 0.55 0.13 0.16 0.11 0.17 0.57 0.92 0.48 0.31 0.22 0.12 0.04 0.02 0.08 0.11 0.10 0.09 0.28 0.17 0.06 0.13 0.10 0.01 0.00 0.00 0.00 0.01 0.04 0.10 0.29
0.38 0.42 0.32 0.34 0.41 0.40 0.25 0.23 0.26 0.27 0.36 0.23 0.46 0.71 0.66 0.32 0.04 0.10 0.12 0.21 0.35 0.73 0.58 0.45 0.27 0.07 0.05 0.03 0.09 0.03 0.09 0.19 0.30 0.29 0.18 0.15 0.12 0.06 0.00 0.00 0.00 0.01 0.03 0.04 0.11
0.46 0.44 0.35 0.43 0.39 0.31 0.21 0.26 0.35 0.28 0.32 0.34 0.56 0.62 0.44 0.10 0.08 0.17 0.12 0.25 0.43 0.61 0.65 0.53 0.42 0.32 0.16 0.11 0.06 0.07 0.19 0.43 0.31 0.41 0.26 0.22 0.30 0.11 0.00 0.00 0.00 0.01 0.02 0.01 0.04
0.50 0.46 0.41 0.48 0.39 0.38 0.34 0.41 0.53 0.60 0.66 0.56 0.66 0.68 0.31 0.02 0.09 0.16 0.22 0.26 0.51 0.96 0.86 0.91 0.44 0.38 0.21 0.15 0.13 0.25 0.34 0.24 0.24 0.36 0.57 0.37 0.18 0.02 0.03 0.00 0.00 0.00 0.00 0.00 0.01
0.53 0.47 0.47 0.54 0.53 0.47 0.46 0.34 0.44 0.45 0.75 0.84 0.83 0.59 0.26 0.15 0.10 0.09 0.23 0.37 0.57 1.28 1.50 1.73 1.28 0.64 0.35 0.28 0.29 0.31 0.13 0.04 0.06 0.11 0.35 0.30 0.14 0.02 0.04 0.01 0.00 0.00 0.00 0.00 0.00
0.53 0.46 0.49 0.49 0.60 0.63 0.66 0.66 0.56 0.57 0.69 1.13 0.92 0.72 0.21 0.22 0.18 0.20 0.30 0.50 0.77 1.46 1.98 2.55 2.03 0.94 0.43 0.35 0.21 0.08 0.05 0.03 0.03 0.06 0.10 0.13 0.10 0.02 0.02 0.02 0.00 0.00 0.00 0.00 0.00
0.57 0.46 0.43 0.52 0.65 0.55 0.78 1.13 0.93 0.94 1.09 0.99 0.43 0.34 0.26 0.40 0.47 0.50 0.53 0.67 1.41 1.93 2.12 2.24 1.40 0.65 0.23 0.10 0.06 0.05 0.08 0.05 0.01 0.03 0.05 0.04 0.05 0.04 0.00 0.02 0.01 0.01 0.00 0.00 0.00
0.49 0.44 0.47 0.55 0.64 0.91 1.21 1.21 0.72 0.62 0.82 0.56 0.14 0.20 0.16 0.38 0.75 0.68 0.80 1.36 1.71 2.03 1.73 1.88 0.80 0.19 0.23 0.14 0.15 0.15 0.13 0.08 0.06 0.06 0.11 0.03 0.01 0.00 0.00 0.00 0.00 0.00 0.00 0.00 0.00
0.38 0.43 0.50 0.67 0.76 1.04 1.03 0.60 0.36 0.74 1.15 0.87 0.35 0.36 0.35 0.46 0.81 0.73 1.14 1.54 1.62 1.51 1.14 1.13 0.37 0.19 0.34 0.27 0.23 0.12 0.14 0.11 0.08 0.10 0.10 0.07 0.01 0.00 0.00 0.00 0.00 0.00 0.00 0.00 0.00
0.45 0.50 0.68 0.93 1.22 0.83 0.73 0.47 0.60 1.08 1.41 1.10 0.74 0.78 0.51 1.01 1.20 0.56 1.63 1.59 1.70 1.35 1.02 1.11 0.48 0.39 0.34 0.50 0.19 0.15 0.07 0.11 0.19 0.19 0.05 0.06 0.03 0.00 0.00 0.00 0.00 0.00 0.00 0.00 0.00
0.83 0.73 0.61 1.10 1.12 0.94 0.68 0.42 0.81 1.47 1.52 0.99 0.89 0.69 0.87 0.88 0.66 0.79 1.30 1.20 1.08 1.08 1.05 0.90 0.46 0.59 0.43 0.47 0.16 0.23 0.08 0.12 0.25 0.37 0.36 0.08 0.09 0.01 0.00 0.00 0.00 0.00 0.00 0.00 0.00
0.92 0.89 0.81 0.85 0.88 0.84 0.77 0.54 1.26 1.55 1.83 1.85 1.42 1.24 0.76 0.54 0.43 0.97 1.30 0.98 0.90 0.93 0.91 0.49 0.39 0.80 0.60 0.40 0.27 0.22 0.27 0.27 0.48 0.49 0.70 0.30 0.07 0.01 0.00 0.00 0.00 0.00 0.00 0.00 0.00
0.87 1.10 1.12 0.67 0.73 0.73 1.24 1.07 1.41 0.99 0.99 1.34 1.11 0.56 0.37 0.46 0.62 1.07 1.21 0.78 1.04 1.33 1.27 1.11 0.90 0.74 0.58 0.65 0.70 0.50 0.65 0.86 0.79 0.93 0.43 0.15 0.16 0.06 0.00 0.00 0.00 0.00 0.00 0.00 0.00
1.09 1.19 1.27 0.91 0.79 0.86 1.70 1.11 0.84 0.55 0.85 0.79 0.41 0.38 0.47 0.36 0.53 0.72 0.95 0.50 0.26 0.41 0.68 0.88 1.14 0.88 0.59 0.58 0.86 0.63 0.58 0.64 0.39 0.29 0.17 0.08 0.26 0.05 0.00 0.00 0.00 0.00 0.00 0.00 0.00
1.36 1.64 1.54 1.36 1.03 1.14 1.34 0.95 0.67 0.78 0.90 0.46 0.31 0.35 0.38 0.16 0.27 0.51 0.42 0.22 0.08 0.13 0.51 0.41 0.47 0.43 0.44 0.31 0.57 0.74 0.67 0.36 0.50 0.18 0.27 0.09 0.08 0.04 0.01 0.00 0.00 0.00 0.00 0.00 0.00
1.79 2.24 1.34 1.12 1.27 1.20 1.09 0.83 0.46 0.38 0.28 0.17 0.25 0.12 0.09 0.06 0.11 0.11 0.14 0.03 0.01 0.02 0.18 0.30 0.47 0.55 0.55 0.52 0.58 0.56 0.33 0.51 1.04 0.61 0.19 0.06 0.02 0.04 0.00 0.00 0.00 0.00 0.00 0.00 0.00
1.87 2.06 1.29 1.18 1.75 1.68 1.35 0.94 0.30 0.17 0.14 0.13 0.06 0.03 0.01 0.01 0.02 0.02 0.03 0.00 0.00 0.00 0.14 0.34 0.57 0.74 0.97 0.73 0.49 0.60 0.59 0.39 0.52 0.43 0.25 0.11 0.02 0.00 0.00 0.01 0.01 0.01 0.00 0.00 0.00
1.68 1.59 1.41 1.62 2.08 1.56 0.99 0.67 0.33 0.16 0.17 0.13 0.10 0.02 0.01 0.01 0.01 0.01 0.01 0.01 0.00 0.02 0.16 0.32 0.68 0.73 0.62 0.17 0.12 0.23 0.24 0.18 0.66 0.43 0.37 0.32 0.13 0.00 0.01 0.01 0.01 0.01 0.01 0.01 0.01
1.51 1.37 2.03 1.11 0.91 0.66 0.38 0.29 0.24 0.10 0.13 0.15 0.07 0.01 0.01 0.01 0.01 0.00 0.00 0.00 0.00 0.02 0.19 0.44 1.00 0.78 0.68 0.47 0.49 0.69 0.33 0.36 0.62 0.99 0.75 0.40 0.17 0.00 0.00 0.00 0.01 0.01 0.02 0.01 0.01
1.51 1.45 2.86 1.92 0.53 0.16 0.29 0.33 0.26 0.06 0.07 0.13 0.10 0.03 0.04 0.02 0.00 0.01 0.00 0.00 0.00 0.00 0.16 0.72 0.81 0.85 0.69 0.62 0.88 0.72 0.34 0.52 1.07 1.14 0.37 0.18 0.07 0.02 0.01 0.01 0.02 0.04 0.04 0.02 0.02
1.02 0.67 0.70 0.82 0.43 0.07 0.27 0.29 0.36 0.23 0.12 0.17 0.11 0.04 0.06 0.03 0.01 0.01 0.00 0.00 0.00 0.00 0.16 0.66 1.15 1.28 0.54 0.32 0.69 0.60 0.31 0.43 0.98 0.55 0.51 0.16 0.06 0.03 0.04 0.05 0.07 0.09 0.08 0.06 0.06
0.64 0.56 0.11 0.04 0.03 0.02 0.17 0.27 0.34 0.34 0.27 0.19 0.13 0.04 0.04 0.05 0.01 0.01 0.00 0.00 0.01 0.01 0.15 0.55 0.95 0.81 0.34 0.20 0.40 0.47 0.23 0.35 0.56 0.41 0.30 0.12 0.11 0.06 0.04 0.06 0.06 0.17 0.11 0.08 0.08
0.62 0.49 0.14 0.06 0.04 0.04 0.06 0.12 0.23 0.37 0.24 0.09 0.08 0.11 0.07 0.03 0.01 0.00 0.00 0.00 0.00 0.01 0.07 0.36 0.63 0.82 0.65 0.41 0.55 0.52 0.26 0.31 0.41 0.35 0.24 0.14 0.12 0.04 0.05 0.12 0.27 0.46 0.11 0.05 0.02

GFSSW_prec_precacc_081.txt.gz
Total_Precipitation_Accumulation
0.17 0.20 0.24 0.23 0.22 0.20 0.19 0.19 0.23 0.28 0.36 0.43 0.44 0.52 0.64 0.71 0.66 0.43 0.19 0.07 0.09 0.16 0.26 0.08 0.04 0.02 0.07 0.20 0.40 0.49 0.55 0.34 0.08 0.04 0.02 0.00 0.00 0.00 0.00 0.00 0.00 0.01 0.12 0.09 0.05
0.17 0.23 0.24 0.24 0.25 0.22 0.23 0.23 0.30 0.35 0.43 0.48 0.57 0.66 0.61 0.59 0.46 0.40 0.26 0.33 0.29 0.43 0.26 0.10 0.07 0.06 0.12 0.25 0.63 0.88 0.81 0.11 0.04 0.04 0.01 0.02 0.00 0.00 0.00 0.00 0.01 0.03 0.03 0.03 0.08
0.19 0.25 0.24 0.28 0.28 0.30 0.30 0.32 0.37 0.35 0.35 0.41 0.53 0.67 0.76 0.73 0.40 0.13 0.21 0.28 0.41 0.56 0.41 0.13 0.16 0.18 0.12 0.25 0.39 0.62 0.67 0.10 0.16 0.15 0.17 0.07 0.01 0.00 0.00 0.00 0.00 0.03 0.07 0.10 0.11
0.24 0.30 0.31 0.28 0.31 0.39 0.37 0.39 0.35 0.28 0.29 0.30 0.34 0.56 0.84 0.74 0.43 0.14 0.14 0.27 0.47 0.84 0.57 0.33 0.27 0.26 0.08 0.11 0.11 0.22 0.21 0.18 0.21 0.21 0.23 0.10 0.02 0.00 0.00 0.00 0.00 0.03 0.10 0.20 0.29
0.32 0.41 0.33 0.31 0.32 0.41 0.41 0.28 0.28 0.25 0.20 0.16 0.30 0.85 0.78 0.55 0.14 0.16 0.11 0.19 0.59 0.94 0.50 0.34 0.26 0.16 0.04 0.02 0.10 0.13 0.14 0.14 0.34 0.27 0.10 0.14 0.10 0.01 0.00 0.00 0.00 0.01 0.04 0.14 0.34
0.38 0.42 0.32 0.35 0.41 0.40 0.25 0.24 0.26 0.28 0.36 0.23 0.46 0.71 0.66 0.32 0.04 0.10 0.12 0.31 0.51 0.76 0.60 0.48 0.29 0.12 0.07 0.03 0.11 0.04 0.12 0.23 0.36 0.35 0.37 0.18 0.13 0.06 0.00 0.00 0.00 0.01 0.03 0.05 0.14
0.46 0.44 0.35 0.44 0.40 0.31 0.22 0.27 0.35 0.28 0.32 0.34 0.56 0.62 0.44 0.10 0.08 0.17 0.12 0.31 0.63 0.63 0.68 0.55 0.47 0.40 0.20 0.13 0.06 0.10 0.24 0.52 0.43 0.53 0.41 0.28 0.39 0.12 0.00 0.00 0.00 0.01 0.02 0.01 0.04
0.50 0.46 0.41 0.48 0.39 0.38 0.34 0.41 0.53 0.61 0.66 0.56 0.66 0.68 0.31 0.02 0.09 0.16 0.22 0.26 0.58 1.01 0.91 0.98 0.50 0.42 0.23 0.16 0.14 0.28 0.41 0.34 0.35 0.51 0.68 0.51 0.28 0.05 0.03 0.00 0.00 0.00 0.00 0.00 0.01
0.53 0.47 0.47 0.54 0.53 0.47 0.47 0.34 0.44 0.45 0.75 0.84 0.83 0.60 0.26 0.15 0.10 0.09 0.23 0.38 0.58 1.31 1.54 1.82 1.34 0.69 0.37 0.30 0.32 0.35 0.20 0.14 0.14 0.21 0.46 0.38 0.19 0.05 0.05 0.01 0.00 0.00 0.00 0.00 0.00
0.53 0.46 0.49 0.50 0.60 0.63 0.66 0.66 0.56 0.57 0.69 1.13 0.92 0.73 0.21 0.22 0.18 0.20 0.30 0.50 0.77 1.48 2.01 2.59 2.19 0.95 0.44 0.38 0.24 0.09 0.05 0.04 0.04 0.10 0.12 0.16 0.15 0.07 0.06 0.02 0.00 0.00 0.00 0.00 0.00
0.57 0.46 0.43 0.52 0.65 0.56 0.78 1.13 0.93 0.94 1.09 0.99 0.43 0.34 0.27 0.40 0.47 0.50 0.53 0.67 1.41 1.93 2.12 2.24 1.60 0.68 0.24 0.10 0.08 0.06 0.09 0.05 0.01 0.04 0.06 0.04 0.07 0.06 0.03 0.03 0.01 0.01 0.00 0.00 0.00
0.49 0.44 0.47 0.55 0.64 0.91 1.21 1.21 0.72 0.62 0.82 0.56 0.14 0.20 0.16 0.38 0.75 0.68 0.80 1.36 1.71 2.03 1.73 1.88 0.89 0.24 0.31 0.16 0.19 0.16 0.13 0.08 0.08 0.10 0.15 0.04 0.01 0.00 0.00 0.01 0.00 0.00 0.00 0.00 0.00
0.38 0.43 0.50 0.67 0.76 1.04 1.03 0.60 0.36 0.74 1.15 0.87 0.35 0.36 0.35 0.46 0.82 0.73 1.14 1.54 1.62 1.51 1.14 1.14 0.39 0.22 0.42 0.34 0.25 0.14 0.14 0.11 0.09 0.15 0.15 0.11 0.05 0.00 0.00 0.00 0.00 0.00 0.00 0.00 0.00
0.45 0.50 0.68 0.93 1.22 0.83 0.73 0.47 0.60 1.08 1.41 1.10 0.74 0.78 0.51 1.01 1.20 0.56 1.63 1.59 1.70 1.35 1.02 1.14 0.49 0.39 0.35 0.53 0.21 0.16 0.07 0.11 0.19 0.21 0.06 0.08 0.06 0.00 0.00 0.00 0.00 0.00 0.00 0.00 0.00
0.83 0.73 0.61 1.10 1.12 0.94 0.68 0.42 0.81 1.47 1.52 0.99 0.89 0.69 0.87 0.88 0.66 0.79 1.30 1.20 1.09 1.08 1.05 0.91 0.47 0.59 0.43 0.47 0.17 0.25 0.08 0.13 0.28 0.40 0.37 0.09 0.09 0.01 0.00 0.00 0.00 0.00 0.00 0.00 0.00
0.92 0.89 0.81 0.85 0.88 0.84 0.77 0.54 1.26 1.55 1.83 1.86 1.42 1.24 0.76 0.54 0.44 0.97 1.32 0.99 0.91 0.94 0.93 0.52 0.39 0.80 0.62 0.42 0.29 0.24 0.28 0.30 0.51 0.52 0.70 0.30 0.07 0.01 0.00 0.00 0.00 0.00 0.00 0.00 0.00
0.87 1.10 1.12 0.67 0.73 0.73 1.24 1.07 1.41 0.99 0.99 1.34 1.11 0.56 0.38 0.46 0.67 1.14 1.22 0.79 1.11 1.48 1.30 1.14 0.94 0.76 0.58 0.66 0.71 0.52 0.67 0.96 0.86 0.94 0.43 0.15 0.16 0.06 0.00 0.00 0.00 0.00 0.00 0.00 0.00
1.09 1.19 1.27 0.91 0.79 0.86 1.70 1.11 0.84 0.55 0.85 0.79 0.41 0.38 0.47 0.36 0.54 0.74 0.97 0.50 0.31 0.45 0.68 0.89 1.29 0.94 0.60 0.59 0.87 0.64 0.59 0.65 0.40 0.29 0.17 0.08 0.26 0.05 0.00 0.00 0.00 0.00 0.00 0.00 0.00
1.36 1.64 1.54 1.36 1.03 1.14 1.34 0.95 0.67 0.78 0.90 0.46 0.31 0.35 0.38 0.17 0.27 0.52 0.43 0.22 0.10 0.14 0.52 0.41 0.58 0.47 0.44 0.31 0.57 0.75 0.67 0.36 0.50 0.18 0.27 0.09 0.08 0.04 0.01 0.00 0.00 0.00 0.00 0.00 0.00
1.79 2.24 1.34 1.12 1.27 1.20 1.10 0.83 0.46 0.38 0.28 0.17 0.26 0.12 0.09 0.06 0.11 0.11 0.15 0.04 0.01 0.02 0.18 0.30 0.48 0.56 0.55 0.52 0.58 0.56 0.33 0.51 1.04 0.61 0.19 0.06 0.02 0.04 0.00 0.00 0.00 0.00 0.00 0.00 0.00
1.87 2.07 1.29 1.18 1.75 1.68 1.35 0.94 0.30 0.17 0.14 0.13 0.06 0.03 0.01 0.01 0.02 0.03 0.03 0.00 0.00 0.00 0.14 0.34 0.57 0.74 0.97 0.73 0.49 0.60 0.59 0.39 0.52 0.43 0.25 0.11 0.02 0.00 0.00 0.01 0.01 0.01 0.00 0.00 0.00
1.68 1.59 1.41 1.62 2.08 1.56 0.99 0.67 0.33 0.16 0.17 0.13 0.10 0.02 0.01 0.01 0.01 0.01 0.01 0.01 0.00 0.02 0.16 0.32 0.68 0.73 0.62 0.17 0.13 0.23 0.24 0.18 0.66 0.43 0.37 0.32 0.13 0.00 0.01 0.01 0.01 0.01 0.01 0.01 0.01
1.51 1.37 2.03 1.11 0.91 0.66 0.38 0.29 0.24 0.10 0.13 0.15 0.07 0.01 0.01 0.02 0.01 0.00 0.00 0.00 0.00 0.02 0.19 0.44 1.00 0.78 0.68 0.47 0.49 0.69 0.33 0.37 0.62 0.99 0.75 0.40 0.17 0.00 0.00 0.00 0.01 0.01 0.02 0.01 0.01
1.51 1.45 2.86 1.92 0.53 0.16 0.29 0.33 0.26 0.06 0.07 0.13 0.10 0.03 0.04 0.02 0.00 0.01 0.00 0.00 0.00 0.00 0.16 0.72 0.81 0.85 0.69 0.62 0.88 0.72 0.34 0.53 1.07 1.14 0.37 0.18 0.07 0.02 0.01 0.01 0.02 0.04 0.04 0.02 0.02
1.02 0.67 0.70 0.82 0.43 0.07 0.27 0.29 0.36 0.23 0.12 0.17 0.11 0.04 0.06 0.03 0.01 0.01 0.00 0.00 0.00 0.00 0.16 0.66 1.15 1.28 0.54 0.32 0.69 0.60 0.31 0.43 0.98 0.55 0.51 0.16 0.06 0.03 0.04 0.05 0.07 0.09 0.08 0.06 0.06
0.64 0.56 0.11 0.04 0.03 0.02 0.17 0.27 0.34 0.34 0.27 0.19 0.13 0.04 0.04 0.05 0.01 0.01 0.00 0.00 0.01 0.01 0.15 0.55 0.95 0.81 0.34 0.20 0.40 0.47 0.23 0.35 0.56 0.41 0.30 0.12 0.11 0.06 0.04 0.06 0.06 0.17 0.11 0.08 0.08
0.62 0.49 0.14 0.06 0.04 0.04 0.06 0.12 0.23 0.37 0.24 0.09 0.08 0.11 0.07 0.03 0.01 0.00 0.00 0.00 0.00 0.01 0.07 0.36 0.63 0.82 0.65 0.41 0.55 0.52 0.26 0.31 0.41 0.35 0.24 0.14 0.12 0.04 0.05 0.12 0.27 0.46 0.11 0.05 0.02

GFSSW_prec_precacc_084.txt.gz
Total_Precipitation_Accumulation
0.17 0.20 0.25 0.24 0.22 0.21 0.20 0.19 0.23 0.28 0.36 0.44 0.44 0.52 0.64 0.71 0.66 0.43 0.19 0.07 0.09 0.18 0.30 0.11 0.08 0.04 0.07 0.21 0.51 0.60 0.64 0.37 0.08 0.04 0.02 0.00 0.00 0.00 0.00 0.00 0.00 0.01 0.12 0.09 0.06
0.17 0.23 0.24 0.25 0.26 0.22 0.24 0.25 0.31 0.35 0.43 0.49 0.57 0.66 0.61 0.59 0.46 0.40 0.26 0.34 0.33 0.47 0.30 0.17 0.09 0.10 0.13 0.27 0.73 1.03 0.88 0.14 0.04 0.06 0.02 0.03 0.00 0.00 0.00 0.00 0.01 0.04 0.04 0.03 0.08
0.19 0.25 0.25 0.28 0.28 0.30 0.30 0.33 0.38 0.35 0.35 0.42 0.53 0.67 0.76 0.73 0.40 0.13 0.21 0.30 0.52 0.67 0.44 0.19 0.21 0.20 0.13 0.29 0.45 0.73 0.73 0.12 0.20 0.17 0.18 0.08 0.01 0.00 0.00 0.00 0.00 0.04 0.08 0.11 0.11
0.24 0.30 0.31 0.28 0.31 0.40 0.37 0.40 0.36 0.28 0.29 0.31 0.35 0.56 0.84 0.74 0.43 0.14 0.14 0.27 0.50 0.92 0.60 0.43 0.36 0.30 0.10 0.12 0.13 0.35 0.24 0.27 0.29 0.30 0.27 0.11 0.03 0.00 0.00 0.00 0.00 0.04 0.12 0.21 0.29
0.32 0.41 0.33 0.31 0.33 0.42 0.42 0.28 0.29 0.26 0.21 0.17 0.30 0.85 0.78 0.55 0.14 0.16 0.11 0.19 0.60 0.94 0.52 0.40 0.34 0.21 0.05 0.02 0.11 0.24 0.18 0.27 0.45 0.36 0.16 0.15 0.10 0.01 0.00 0.00 0.00 0.01 0.04 0.15 0.39
0.38 0.42 0.32 0.35 0.42 0.40 0.25 0.24 0.27 0.28 0.37 0.23 0.46 0.71 0.66 0.32 0.04 0.10 0.12 0.38 0.57 0.76 0.60 0.51 0.35 0.20 0.09 0.03 0.12 0.09 0.24 0.31 0.55 0.41 0.43 0.19 0.14 0.06 0.00 0.00 0.00 0.01 0.03 0.06 0.16
0.46 0.45 0.35 0.44 0.40 0.32 0.22 0.27 0.35 0.28 0.32 0.34 0.56 0.62 0.44 0.10 0.08 0.17 0.12 0.43 0.84 0.64 0.68 0.58 0.53 0.47 0.24 0.14 0.06 0.15 0.33 0.63 0.60 0.64 0.61 0.36 0.40 0.12 0.00 0.00 0.00 0.01 0.02 0.03 0.10
0.50 0.46 0.41 0.48 0.40 0.38 0.34 0.41 0.53 0.61 0.66 0.56 0.66 0.68 0.31 0.02 0.09 0.16 0.22 0.33 0.69 1.03 0.98 1.07 0.61 0.52 0.27 0.17 0.14 0.32 0.49 0.46 0.46 0.65 0.91 0.76 0.34 0.07 0.03 0.00 0.00 0.00 0.00 0.01 0.05
0.53 0.47 0.47 0.54 0.53 0.47 0.47 0.34 0.44 0.45 0.75 0.84 0.83 0.60 0.27 0.15 0.10 0.09 0.23 0.39 0.63 1.41 1.71 1.86 1.41 0.72 0.39 0.32 0.35 0.40 0.24 0.18 0.18 0.27 0.73 0.70 0.36 0.09 0.07 0.01 0.00 0.00 0.00 0.00 0.00
0.53 0.46 0.49 0.50 0.60 0.63 0.66 0.66 0.56 0.57 0.69 1.13 0.92 0.73 0.21 0.22 0.18 0.20 0.30 0.50 0.78 1.50 2.02 2.61 2.21 1.00 0.44 0.42 0.26 0.09 0.09 0.08 0.10 0.14 0.32 0.46 0.28 0.14 0.09 0.02 0.00 0.00 0.00 0.00 0.00
0.57 0.46 0.43 0.52 0.65 0.56 0.78 1.13 0.93 0.94 1.09 0.99 0.43 0.34 0.27 0.40 0.47 0.50 0.53 0.67 1.41 1.93 2.13 2.26 1.64 0.74 0.25 0.13 0.09 0.07 0.09 0.07 0.04 0.06 0.12 0.13 0.10 0.10 0.05 0.03 0.01 0.01 0.00 0.00 0.00
0.50 0.44 0.47 0.55 0.64 0.91 1.21 1.21 0.72 0.62 0.82 0.56 0.14 0.20 0.16 0.38 0.75 0.68 0.80 1.36 1.71 2.03 1.73 1.90 0.99 0.27 0.32 0.20 0.20 0.17 0.15 0.10 0.13 0.15 0.16 0.05 0.02 0.01 0.02 0.01 0.00 0.00 0.00 0.00 0.00
0.41 0.43 0.50 0.67 0.76 1.04 1.03 0.60 0.36 0.74 1.15 0.87 0.35 0.36 0.35 0.46 0.82 0.73 1.14 1.54 1.62 1.51 1.14 1.16 0.58 0.23 0.43 0.37 0.28 0.16 0.16 0.11 0.12 0.19 0.20 0.15 0.05 0.00 0.00 0.00 0.00 0.00 0.00 0.00 0.00
0.48 0.50 0.68 0.93 1.22 0.83 0.73 0.47 0.60 1.08 1.41 1.10 0.74 0.78 0.51 1.01 1.20 0.56 1.63 1.59 1.70 1.35 1.02 1.16 0.61 0.41 0.35 0.54 0.21 0.17 0.07 0.12 0.22 0.23 0.10 0.16 0.08 0.00 0.00 0.00 0.00 0.00 0.00 0.00 0.00
0.86 0.73 0.61 1.10 1.12 0.94 0.68 0.42 0.81 1.47 1.52 0.99 0.89 0.69 0.87 0.88 0.66 0.79 1.30 1.20 1.09 1.08 1.05 0.91 0.49 0.61 0.44 0.47 0.17 0.26 0.09 0.13 0.31 0.44 0.38 0.12 0.10 0.01 0.00 0.00 0.00 0.00 0.00 0.00 0.00
0.94 0.89 0.81 0.85 0.88 0.84 0.77 0.54 1.26 1.55 1.83 1.86 1.42 1.24 0.76 0.54 0.46 0.97 1.32 0.99 0.91 0.94 0.93 0.54 0.40 0.82 0.64 0.42 0.29 0.26 0.29 0.30 0.53 0.58 0.73 0.30 0.07 0.01 0.00 0.00 0.00 0.00 0.00 0.00 0.00
0.90 1.10 1.12 0.67 0.73 0.73 1.24 1.07 1.41 0.99 0.99 1.34 1.11 0.56 0.38 0.47 0.73 1.14 1.22 0.79 1.11 1.48 1.33 1.18 0.94 0.77 0.62 0.71 0.75 0.54 0.68 1.01 0.95 1.07 0.44 0.15 0.16 0.06 0.00 0.00 0.00 0.00 0.00 0.00 0.00
1.12 1.19 1.27 0.91 0.79 0.86 1.70 1.11 0.84 0.55 0.85 0.80 0.41 0.38 0.47 0.36 0.55 0.74 0.97 0.50 0.31 0.45 0.70 0.91 1.30 0.95 0.62 0.62 0.89 0.65 0.59 0.67 0.42 0.31 0.17 0.08 0.26 0.05 0.00 0.00 0.00 0.00 0.00 0.00 0.00
1.38 1.64 1.54 1.36 1.03 1.14 1.34 0.95 0.67 0.78 0.90 0.46 0.31 0.35 0.38 0.17 0.28 0.52 0.43 0.22 0.11 0.14 0.53 0.42 0.62 0.48 0.44 0.31 0.57 0.75 0.67 0.36 0.50 0.18 0.27 0.09 0.08 0.04 0.01 0.00 0.00 0.00 0.00 0.00 0.00
1.81 2.24 1.34 1.12 1.27 1.20 1.10 0.83 0.46 0.38 0.28 0.17 0.26 0.13 0.10 0.06 0.11 0.11 0.15 0.04 0.02 0.02 0.18 0.30 0.51 0.57 0.55 0.52 0.58 0.56 0.33 0.51 1.04 0.61 0.19 0.06 0.02 0.04 0.00 0.00 0.00 0.00 0.00 0.00 0.00
1.88 2.08 1.30 1.18 1.75 1.68 1.35 0.94 0.30 0.17 0.14 0.13 0.06 0.04 0.02 0.01 0.02 0.03 0.03 0.00 0.00 0.00 0.14 0.34 0.57 0.74 0.97 0.73 0.49 0.60 0.59 0.39 0.52 0.43 0.25 0.11 0.02 0.00 0.00 0.01 0.01 0.01 0.00 0.00 0.00
1.68 1.60 1.42 1.62 2.08 1.56 0.99 0.67 0.33 0.16 0.17 0.13 0.10 0.02 0.01 0.01 0.01 0.01 0.01 0.01 0.00 0.02 0.16 0.32 0.68 0.73 0.62 0.17 0.13 0.23 0.24 0.18 0.66 0.43 0.37 0.32 0.13 0.00 0.01 0.01 0.01 0.01 0.01 0.01 0.01
1.53 1.39 2.04 1.12 0.91 0.66 0.38 0.29 0.24 0.10 0.13 0.15 0.07 0.01 0.01 0.02 0.01 0.01 0.00 0.00 0.00 0.02 0.19 0.44 1.00 0.79 0.69 0.48 0.49 0.69 0.33 0.37 0.62 0.99 0.75 0.40 0.17 0.00 0.00 0.00 0.01 0.01 0.02 0.01 0.01
1.55 1.46 2.87 1.93 0.53 0.16 0.29 0.33 0.26 0.06 0.07 0.13 0.10 0.03 0.04 0.03 0.00 0.01 0.00 0.00 0.00 0.00 0.16 0.72 0.81 0.85 0.70 0.62 0.88 0.72 0.34 0.53 1.07 1.14 0.37 0.18 0.07 0.02 0.01 0.01 0.02 0.04 0.04 0.02 0.02
1.04 0.67 0.70 0.83 0.43 0.07 0.27 0.29 0.36 0.23 0.12 0.17 0.11 0.04 0.06 0.03 0.01 0.01 0.00 0.00 0.00 0.00 0.16 0.66 1.15 1.28 0.54 0.32 0.69 0.60 0.31 0.43 0.98 0.55 0.51 0.16 0.06 0.03 0.04 0.05 0.07 0.09 0.08 0.06 0.06
0.65 0.56 0.11 0.04 0.03 0.02 0.17 0.27 0.34 0.34 0.27 0.19 0.13 0.04 0.04 0.05 0.01 0.01 0.00 0.00 0.01 0.01 0.15 0.55 0.95 0.81 0.34 0.20 0.40 0.47 0.23 0.35 0.56 0.41 0.30 0.12 0.11 0.06 0.04 0.06 0.06 0.17 0.11 0.08 0.08
0.62 0.49 0.14 0.06 0.04 0.04 0.06 0.12 0.23 0.37 0.24 0.09 0.08 0.11 0.07 0.03 0.01 0.00 0.00 0.00 0.00 0.01 0.07 0.36 0.63 0.82 0.65 0.41 0.55 0.52 0.26 0.31 0.41 0.35 0.24 0.14 0.12 0.04 0.05 0.12 0.27 0.46 0.11 0.05 0.02

GFSSW_prec_precacc_087.txt.gz
Total_Precipitation_Accumulation
0.17 0.20 0.25 0.24 0.23 0.21 0.20 0.20 0.24 0.28 0.36 0.44 0.45 0.52 0.64 0.71 0.66 0.43 0.19 0.07 0.09 0.18 0.31 0.11 0.10 0.09 0.11 0.21 0.53 0.80 0.97 0.55 0.08 0.04 0.02 0.00 0.00 0.00 0.00 0.00 0.00 0.01 0.12 0.09 0.07
0.17 0.23 0.24 0.25 0.26 0.22 0.24 0.25 0.32 0.36 0.43 0.49 0.58 0.66 0.61 0.59 0.46 0.40 0.26 0.34 0.34 0.51 0.31 0.21 0.16 0.19 0.20 0.28 0.75 1.27 1.25 0.38 0.06 0.06 0.02 0.03 0.00 0.00 0.00 0.00 0.01 0.05 0.04 0.03 0.08
0.19 0.25 0.25 0.29 0.29 0.30 0.30 0.33 0.38 0.37 0.35 0.42 0.53 0.67 0.76 0.73 0.40 0.13 0.21 0.30 0.53 0.71 0.45 0.20 0.25 0.33 0.20 0.31 0.47 0.94 1.04 0.28 0.24 0.20 0.19 0.10 0.02 0.00 0.00 0.00 0.00 0.04 0.08 0.11 0.11
0.24 0.30 0.31 0.28 0.31 0.40 0.37 0.40 0.36 0.30 0.30 0.31 0.35 0.56 0.84 0.74 0.43 0.14 0.14 0.27 0.51 0.95 0.63 0.44 0.43 0.41 0.13 0.13 0.15 0.45 0.59 0.42 0.41 0.35 0.31 0.13 0.04 0.01 0.00 0.00 0.00 0.04 0.13 0.21 0.29
0.33 0.41 0.33 0.31 0.33 0.42 0.42 0.28 0.29 0.27 0.22 0.17 0.31 0.86 0.78 0.55 0.14 0.16 0.11 0.19 0.60 0.94 0.53 0.42 0.38 0.28 0.07 0.02 0.12 0.28 0.44 0.53 0.55 0.41 0.22 0.17 0.11 0.02 0.00 0.00 0.00 0.02 0.07 0.18 0.40
0.41 0.43 0.32 0.35 0.42 0.40 0.25 0.24 0.27 0.29 0.37 0.24 0.46 0.71 0.66 0.32 0.04 0.10 0.12 0.39 0.61 0.77 0.60 0.52 0.43 0.26 0.12 0.05 0.12 0.11 0.41 0.57 0.67 0.50 0.48 0.23 0.16 0.07 0.01 0.00 0.01 0.04 0.12 0.12 0.20
0.51 0.46 0.35 0.44 0.40 0.32 0.22 0.27 0.35 0.29 0.32 0.35 0.57 0.62 0.44 0.10 0.08 0.17 0.12 0.54 0.96 0.66 0.68 0.58 0.65 0.60 0.29 0.15 0.07 0.16 0.52 0.86 0.69 0.78 0.67 0.41 0.44 0.14 0.01 0.00 0.01 0.02 0.05 0.13 0.22
0.57 0.48 0.42 0.48 0.40 0.38 0.34 0.41 0.53 0.61 0.66 0.56 0.66 0.68 0.31 0.02 0.09 0.16 0.22 0.37 0.77 1.04 0.98 1.08 0.70 0.68 0.31 0.19 0.15 0.34 0.66 0.74 0.62 0.87 1.12 0.85 0.43 0.08 0.04 0.00 0.00 0.00 0.01 0.08 0.15
0.62 0.51 0.48 0.54 0.53 0.47 0.47 0.34 0.44 0.45 0.75 0.84 0.83 0.60 0.27 0.15 0.10 0.09 0.23 0.39 0.69 1.48 1.83 1.95 1.62 1.04 0.44 0.35 0.37 0.43 0.37 0.42 0.38 0.46 1.12 0.94 0.53 0.13 0.07 0.01 0.00 0.00 0.00 0.01 0.06
0.61 0.53 0.51 0.50 0.60 0.63 0.66 0.66 0.56 0.57 0.69 1.13 0.92 0.73 0.21 0.22 0.18 0.20 0.30 0.50 0.79 1.60 2.36 2.72 2.40 1.30 0.47 0.44 0.28 0.10 0.15 0.18 0.31 0.30 0.60 0.80 0.44 0.28 0.10 0.02 0.00 0.00 0.00 0.00 0.00
0.67 0.54 0.46 0.53 0.65 0.56 0.78 1.13 0.93 0.94 1.09 0.99 0.43 0.34 0.27 0.40 0.47 0.50 0.53 0.67 1.41 1.95 2.18 2.28 1.65 0.83 0.27 0.15 0.11 0.07 0.10 0.10 0.12 0.15 0.22 0.31 0.36 0.27 0.07 0.03 0.01 0.01 0.00 0.00 0.00
0.61 0.51 0.50 0.56 0.64 0.91 1.21 1.21 0.72 0.62 0.82 0.56 0.14 0.20 0.16 0.38 0.75 0.68 0.80 1.36 1.71 2.03 1.73 1.90 0.99 0.30 0.37 0.22 0.22 0.18 0.15 0.11 0.16 0.19 0.19 0.13 0.11 0.17 0.08 0.01 0.00 0.00 0.00 0.00 0.00
0.53 0.52 0.56 0.69 0.76 1.04 1.03 0.60 0.36 0.74 1.15 0.87 0.35 0.36 0.35 0.46 0.82 0.73 1.14 1.54 1.62 1.51 1.14 1.18 0.59 0.25 0.48 0.42 0.30 0.17 0.16 0.12 0.12 0.21 0.22 0.20 0.08 0.02 0.05 0.01 0.00 0.00 0.00 0.00 0.00
0.63 0.62 0.75 0.94 1.22 0.83 0.73 0.47 0.60 1.08 1.41 1.10 0.74 0.78 0.51 1.01 1.20 0.56 1.63 1.59 1.70 1.35 1.02 1.17 0.67 0.43 0.37 0.62 0.26 0.19 0.08 0.13 0.25 0.24 0.15 0.25 0.13 0.00 0.00 0.01 0.00 0.00 0.00 0.00 0.00
1.02 0.88 0.69 1.12 1.13 0.94 0.68 0.42 0.81 1.47 1.52 0.99 0.89 0.69 0.87 0.88 0.66 0.79 1.30 1.20 1.09 1.08 1.05 0.92 0.54 0.62 0.44 0.53 0.20 0.27 0.09 0.15 0.34 0.47 0.39 0.17 0.17 0.01 0.00 0.00 0.00 0.00 0.00 0.00 0.00
1.11 1.04 0.88 0.87 0.88 0.84 0.77 0.54 1.26 1.55 1.83 1.86 1.42 1.24 0.76 0.54 0.50 0.97 1.32 0.99 0.91 0.94 0.94 0.55 0.41 0.83 0.65 0.44 0.30 0.29 0.30 0.32 0.59 0.64 0.75 0.30 0.07 0.01 0.00 0.00 0.00 0.00 0.00 0.00 0.00
1.09 1.25 1.18 0.71 0.73 0.73 1.24 1.07 1.41 0.99 0.99 1.34 1.11 0.56 0.38 0.49 0.79 1.14 1.22 0.79 1.11 1.48 1.36 1.20 0.96 0.80 0.65 0.72 0.78 0.60 0.68 1.07 1.04 1.20 0.45 0.15 0.16 0.06 0.00 0.00 0.00 0.00 0.00 0.00 0.00
1.34 1.34 1.35 0.96 0.80 0.86 1.70 1.11 0.84 0.55 0.85 0.80 0.41 0.38 0.47 0.37 0.55 0.74 0.98 0.50 0.31 0.45 0.71 0.92 1.32 1.03 0.64 0.64 0.94 0.68 0.59 0.67 0.45 0.33 0.17 0.08 0.26 0.05 0.00 0.00 0.00 0.00 0.00 0.00 0.00
1.65 1.77 1.60 1.39 1.03 1.14 1.34 0.95 0.67 0.78 0.90 0.46 0.31 0.35 0.38 0.17 0.28 0.53 0.43 0.22 0.11 0.14 0.53 0.42 0.63 0.49 0.53 0.33 0.61 0.76 0.67 0.36 0.50 0.18 0.27 0.09 0.08 0.04 0.01 0.00 0.00 0.00 0.00 0.00 0.00
2.04 2.36 1.40 1.14 1.27 1.20 1.10 0.83 0.46 0.38 0.28 0.17 0.26 0.13 0.10 0.06 0.11 0.11 0.15 0.04 0.02 0.02 0.18 0.30 0.52 0.58 0.57 0.53 0.59 0.56 0.33 0.51 1.04 0.61 0.19 0.06 0.02 0.04 0.00 0.00 0.00 0.00 0.00 0.00 0.00
2.14 2.23 1.36 1.19 1.75 1.68 1.35 0.94 0.30 0.17 0.14 0.13 0.06 0.04 0.02 0.01 0.02 0.03 0.03 0.00 0.00 0.00 0.14 0.34 0.57 0.75 0.97 0.73 0.49 0.60 0.59 0.39 0.52 0.43 0.25 0.11 0.02 0.00 0.00 0.01 0.01 0.01 0.00 0.00 0.00
1.91 1.74 1.48 1.62 2.08 1.56 0.99 0.67 0.33 0.16 0.17 0.13 0.10 0.02 0.01 0.01 0.01 0.02 0.01 0.01 0.00 0.02 0.16 0.32 0.68 0.73 0.62 0.17 0.13 0.23 0.24 0.18 0.66 0.43 0.37 0.32 0.13 0.00 0.01 0.01 0.01 0.01 0.01 0.01 0.01
1.69 1.53 2.09 1.12 0.91 0.66 0.38 0.29 0.24 0.10 0.13 0.15 0.07 0.01 0.01 0.02 0.02 0.01 0.00 0.00 0.00 0.02 0.19 0.44 1.00 0.79 0.69 0.48 0.49 0.69 0.33 0.37 0.62 0.99 0.75 0.40 0.17 0.00 0.00 0.00 0.01 0.01 0.02 0.01 0.01
1.63 1.58 2.95 1.95 0.53 0.16 0.29 0.33 0.26 0.06 0.07 0.13 0.10 0.03 0.04 0.03 0.00 0.01 0.00 0.00 0.00 0.00 0.16 0.72 0.81 0.85 0.70 0.62 0.88 0.72 0.34 0.53 1.07 1.14 0.37 0.18 0.07 0.02 0.01 0.01 0.02 0.04 0.04 0.02 0.02
1.13 0.71 0.71 0.84 0.43 0.07 0.27 0.29 0.36 0.23 0.12 0.17 0.11 0.04 0.06 0.03 0.01 0.01 0.00 0.00 0.00 0.00 0.16 0.66 1.15 1.28 0.54 0.32 0.69 0.60 0.31 0.43 0.98 0.55 0.51 0.16 0.06 0.03 0.04 0.05 0.07 0.09 0.08 0.06 0.06
0.72 0.57 0.11 0.04 0.03 0.02 0.17 0.27 0.34 0.34 0.27 0.19 0.13 0.04 0.04 0.05 0.01 0.01 0.00 0.00 0.01 0.01 0.15 0.55 0.95 0.81 0.34 0.20 0.40 0.47 0.23 0.35 0.56 0.41 0.30 0.12 0.11 0.06 0.04 0.06 0.06 0.17 0.11 0.08 0.08
0.66 0.49 0.14 0.06 0.04 0.04 0.06 0.12 0.23 0.37 0.24 0.09 0.08 0.11 0.07 0.03 0.01 0.00 0.00 0.00 0.00 0.01 0.07 0.36 0.63 0.82 0.65 0.41 0.55 0.52 0.26 0.31 0.41 0.35 0.24 0.14 0.12 0.04 0.05 0.12 0.27 0.46 0.11 0.05 0.02

GFSSW_prec_precacc_090.txt.gz
Total_Precipitation_Accumulation
0.17 0.21 0.25 0.25 0.23 0.21 0.21 0.20 0.24 0.29 0.37 0.44 0.45 0.53 0.65 0.71 0.66 0.43 0.19 0.07 0.09 0.18 0.32 0.11 0.10 0.09 0.14 0.24 0.55 0.85 1.05 0.66 0.13 0.04 0.02 0.00 0.00 0.00 0.00 0.00 0.01 0.01 0.12 0.10 0.17
0.17 0.23 0.25 0.25 0.26 0.23 0.24 0.25 0.32 0.36 0.45 0.50 0.58 0.67 0.61 0.59 0.46 0.40 0.26 0.34 0.34 0.51 0.32 0.21 0.16 0.22 0.25 0.32 0.81 1.32 1.29 0.40 0.09 0.06 0.02 0.04 0.01 0.00 0.00 0.01 0.05 0.06 0.04 0.05 0.16
0.23 0.26 0.26 0.29 0.29 0.30 0.30 0.34 0.39 0.37 0.36 0.43 0.54 0.68 0.77 0.73 0.40 0.13 0.21 0.30 0.53 0.71 0.45 0.20 0.25 0.36 0.27 0.40 0.54 0.99 1.06 0.29 0.29 0.26 0.22 0.11 0.03 0.00 0.00 0.01 0.01 0.04 0.08 0.11 0.11
0.29 0.32 0.34 0.29 0.32 0.40 0.38 0.40 0.36 0.30 0.31 0.33 0.36 0.57 0.84 0.74 0.43 0.14 0.14 0.27 0.51 0.95 0.65 0.48 0.44 0.47 0.20 0.20 0.24 0.50 0.59 0.43 0.47 0.46 0.43 0.15 0.05 0.01 0.00 0.00 0.00 0.04 0.13 0.21 0.29
0.40 0.45 0.36 0.34 0.33 0.42 0.42 0.28 0.29 0.27 0.23 0.18 0.31 0.86 0.78 0.55 0.14 0.16 0.11 0.19 0.60 0.95 0.53 0.43 0.40 0.30 0.11 0.08 0.17 0.32 0.44 0.54 0.71 0.62 0.42 0.23 0.14 0.03 0.01 0.00 0.02 0.03 0.08 0.18 0.40
0.48 0.47 0.36 0.38 0.43 0.41 0.25 0.24 0.27 0.29 0.38 0.24 0.47 0.71 0.66 0.32 0.04 0.10 0.12 0.39 0.62 0.78 0.61 0.52 0.45 0.30 0.17 0.09 0.18 0.13 0.42 0.66 0.94 0.78 0.81 0.33 0.19 0.10 0.02 0.02 0.10 0.16 0.18 0.13 0.20
0.58 0.52 0.40 0.47 0.42 0.33 0.22 0.27 0.35 0.29 0.32 0.35 0.58 0.62 0.44 0.10 0.08 0.17 0.12 0.54 0.97 0.68 0.70 0.58 0.66 0.63 0.38 0.19 0.09 0.18 0.55 0.92 1.06 1.21 1.09 0.52 0.49 0.17 0.03 0.04 0.10 0.13 0.18 0.23 0.29
0.64 0.56 0.47 0.53 0.44 0.40 0.34 0.41 0.53 0.61 0.66 0.56 0.66 0.68 0.31 0.02 0.09 0.16 0.22 0.37 0.79 1.04 0.98 1.08 0.75 0.82 0.49 0.29 0.22 0.38 0.72 0.82 0.90 1.27 1.70 0.92 0.48 0.11 0.07 0.06 0.06 0.14 0.21 0.23 0.24
0.69 0.60 0.55 0.61 0.56 0.48 0.47 0.34 0.44 0.46 0.75 0.85 0.83 0.60 0.27 0.15 0.10 0.09 0.23 0.39 0.71 1.48 1.84 2.01 1.67 1.18 0.58 0.44 0.44 0.46 0.39 0.47 0.56 0.74 1.59 1.09 0.56 0.16 0.09 0.04 0.01 0.05 0.12 0.20 0.28
0.68 0.62 0.60 0.58 0.65 0.66 0.67 0.67 0.56 0.57 0.69 1.13 0.92 0.73 0.21 0.22 0.18 0.20 0.30 0.50 0.79 1.61 2.37 2.77 2.60 1.48 0.55 0.48 0.29 0.10 0.15 0.23 0.43 0.48 0.89 1.08 0.51 0.34 0.11 0.03 0.01 0.00 0.02 0.02 0.08
0.74 0.62 0.56 0.62 0.69 0.57 0.79 1.13 0.93 0.94 1.09 0.99 0.43 0.34 0.27 0.40 0.47 0.50 0.53 0.67 1.42 1.97 2.27 2.37 1.92 1.17 0.31 0.17 0.11 0.07 0.11 0.11 0.27 0.41 0.42 0.53 0.46 0.43 0.14 0.03 0.01 0.01 0.00 0.00 0.01
0.65 0.58 0.62 0.64 0.69 0.94 1.22 1.22 0.72 0.62 0.82 0.56 0.14 0.20 0.16 0.38 0.75 0.68 0.80 1.36 1.71 2.03 1.73 1.91 1.02 0.48 0.43 0.28 0.25 0.18 0.16 0.13 0.27 0.46 0.38 0.28 0.22 0.23 0.30 0.03 0.00 0.00 0.00 0.00 0.00
0.55 0.60 0.69 0.78 0.79 1.06 1.04 0.60 0.36 0.74 1.15 0.87 0.35 0.36 0.35 0.46 0.82 0.73 1.14 1.54 1.62 1.51 1.14 1.18 0.59 0.26 0.52 0.46 0.35 0.18 0.16 0.12 0.15 0.28 0.31 0.29 0.13 0.04 0.15 0.11 0.01 0.00 0.00 0.00 0.00
0.64 0.70 0.89 1.03 1.24 0.84 0.75 0.47 0.60 1.08 1.41 1.10 0.74 0.78 0.51 1.01 1.20 0.56 1.63 1.59 1.70 1.35 1.02 1.17 0.68 0.43 0.38 0.65 0.28 0.21 0.10 0.16 0.28 0.25 0.16 0.28 0.17 0.00 0.02 0.06 0.04 0.00 0.00 0.00 0.00
1.03 0.96 0.84 1.19 1.19 0.99 0.70 0.42 0.81 1.47 1.52 0.99 0.89 0.69 0.87 0.88 0.66 0.79 1.30 1.20 1.09 1.08 1.05 0.92 0.55 0.63 0.46 0.60 0.22 0.28 0.10 0.18 0.36 0.48 0.40 0.18 0.20 0.01 0.00 0.01 0.00 0.00 0.00 0.00 0.00
1.11 1.12 1.04 0.96 0.93 0.87 0.78 0.54 1.26 1.55 1.83 1.86 1.42 1.24 0.76 0.55 0.51 0.97 1.32 0.99 0.91 0.94 0.95 0.56 0.41 0.83 0.67 0.50 0.33 0.30 0.32 0.36 0.60 0.65 0.75 0.30 0.07 0.01 0.00 0.00 0.00 0.00 0.00 0.00 0.00
1.09 1.31 1.29 0.74 0.77 0.76 1.25 1.07 1.41 0.99 0.99 1.34 1.11 0.56 0.38 0.50 0.81 1.15 1.22 0.79 1.11 1.49 1.38 1.21 0.96 0.81 0.68 0.73 0.79 0.62 0.72 1.16 1.13 1.28 0.46 0.15 0.16 0.06 0.00 0.00 0.00 0.00 0.00 0.00 0.00
1.35 1.43 1.46 1.00 0.85 0.89 1.71 1.11 0.84 0.55 0.85 0.80 0.41 0.38 0.47 0.37 0.55 0.75 0.98 0.50 0.31 0.45 0.72 0.92 1.33 1.07 0.65 0.65 0.97 0.70 0.60 0.69 0.47 0.35 0.17 0.08 0.26 0.05 0.00 0.00 0.00 0.00 0.00 0.00 0.00
1.71 1.90 1.68 1.45 1.12 1.20 1.35 0.95 0.67 0.78 0.90 0.46 0.31 0.35 0.38 0.17 0.28 0.53 0.43 0.22 0.11 0.14 0.53 0.42 0.64 0.51 0.59 0.34 0.64 0.77 0.67 0.36 0.50 0.18 0.27 0.09 0.08 0.04 0.01 0.00 0.00 0.00 0.00 0.00 0.00
2.22 2.55 1.49 1.22 1.37 1.27 1.11 0.83 0.46 0.38 0.28 0.17 0.26 0.13 0.10 0.06 0.11 0.11 0.15 0.04 0.02 0.02 0.18 0.30 0.52 0.69 0.66 0.56 0.60 0.56 0.33 0.51 1.04 0.61 0.19 0.06 0.02 0.04 0.00 0.00 0.00 0.00 0.00 0.00 0.00
2.31 2.44 1.45 1.32 1.85 1.74 1.36 0.94 0.30 0.17 0.14 0.13 0.06 0.04 0.02 0.01 0.02 0.03 0.03 0.00 0.00 0.00 0.14 0.34 0.57 0.76 0.97 0.74 0.50 0.60 0.59 0.39 0.52 0.43 0.25 0.11 0.02 0.00 0.00 0.01 0.01 0.01 0.00 0.00 0.00
2.13 1.91 1.53 1.75 2.19 1.59 0.99 0.67 0.33 0.16 0.17 0.13 0.10 0.02 0.01 0.01 0.01 0.02 0.01 0.01 0.00 0.02 0.16 0.32 0.68 0.73 0.62 0.17 0.13 0.23 0.24 0.18 0.66 0.43 0.37 0.32 0.13 0.00 0.01 0.01 0.01 0.01 0.01 0.01 0.01
1.87 1.66 2.27 1.24 0.96 0.67 0.38 0.29 0.24 0.10 0.13 0.15 0.07 0.01 0.01 0.02 0.02 0.01 0.00 0.00 0.00 0.02 0.19 0.44 1.00 0.79 0.69 0.48 0.49 0.69 0.33 0.37 0.62 0.99 0.75 0.40 0.17 0.00 0.00 0.00 0.01 0.01 0.02 0.01 0.01
1.72 1.74 3.19 2.08 0.55 0.17 0.29 0.33 0.26 0.06 0.07 0.13 0.10 0.03 0.04 0.03 0.00 0.01 0.00 0.00 0.00 0.00 0.16 0.72 0.81 0.85 0.70 0.62 0.88 0.72 0.34 0.53 1.07 1.14 0.37 0.18 0.07 0.02 0.01 0.01 0.02 0.04 0.04 0.02 0.02
1.17 0.76 0.76 0.88 0.44 0.07 0.27 0.29 0.36 0.23 0.12 0.17 0.11 0.04 0.06 0.03 0.01 0.01 0.00 0.00 0.00 0.00 0.16 0.66 1.15 1.28 0.54 0.32 0.69 0.60 0.31 0.43 0.98 0.55 0.51 0.16 0.06 0.03 0.04 0.05 0.07 0.09 0.08 0.06 0.06
0.74 0.58 0.11 0.05 0.03 0.02 0.17 0.27 0.34 0.34 0.27 0.19 0.13 0.04 0.04 0.05 0.01 0.01 0.00 0.00 0.01 0.01 0.15 0.55 0.95 0.81 0.34 0.20 0.40 0.47 0.23 0.35 0.56 0.41 0.30 0.12 0.11 0.06 0.04 0.06 0.06 0.17 0.11 0.08 0.08
0.69 0.50 0.15 0.07 0.04 0.04 0.06 0.12 0.23 0.37 0.24 0.09 0.08 0.11 0.07 0.03 0.01 0.00 0.00 0.00 0.00 0.01 0.07 0.36 0.63 0.82 0.65 0.41 0.55 0.52 0.26 0.31 0.41 0.35 0.24 0.14 0.12 0.04 0.05 0.12 0.27 0.46 0.11 0.05 0.02

GFSSW_prec_precacc_093.txt.gz
Total_Precipitation_Accumulation
0.18 0.21 0.25 0.25 0.23 0.21 0.21 0.21 0.24 0.29 0.37 0.45 0.46 0.53 0.65 0.71 0.66 0.43 0.19 0.07 0.09 0.18 0.32 0.11 0.10 0.09 0.14 0.25 0.58 0.89 1.09 0.66 0.14 0.04 0.02 0.01 0.01 0.01 0.00 0.00 0.01 0.01 0.12 0.10 0.25
0.19 0.24 0.26 0.26 0.27 0.23 0.24 0.25 0.32 0.36 0.45 0.51 0.60 0.68 0.62 0.59 0.46 0.40 0.26 0.34 0.34 0.51 0.32 0.21 0.16 0.22 0.25 0.33 0.84 1.38 1.33 0.40 0.09 0.06 0.02 0.04 0.01 0.01 0.01 0.01 0.05 0.07 0.05 0.05 0.19
0.28 0.30 0.27 0.31 0.30 0.31 0.30 0.34 0.39 0.37 0.36 0.44 0.57 0.69 0.77 0.73 0.40 0.13 0.21 0.30 0.53 0.71 0.45 0.20 0.26 0.37 0.27 0.40 0.56 1.04 1.08 0.29 0.29 0.26 0.23 0.12 0.03 0.01 0.04 0.04 0.01 0.05 0.08 0.11 0.13
0.34 0.38 0.37 0.31 0.33 0.41 0.38 0.41 0.37 0.30 0.31 0.34 0.39 0.57 0.84 0.74 0.43 0.14 0.14 0.27 0.51 0.95 0.65 0.49 0.47 0.48 0.20 0.20 0.25 0.55 0.60 0.43 0.47 0.47 0.46 0.17 0.09 0.04 0.04 0.01 0.01 0.05 0.15 0.23 0.30
0.44 0.51 0.42 0.35 0.36 0.43 0.43 0.29 0.29 0.27 0.23 0.20 0.34 0.87 0.78 0.55 0.14 0.16 0.11 0.19 0.60 0.95 0.54 0.44 0.42 0.32 0.11 0.09 0.21 0.36 0.46 0.56 0.71 0.62 0.45 0.28 0.16 0.06 0.03 0.02 0.04 0.13 0.22 0.25 0.43
0.50 0.51 0.42 0.42 0.46 0.42 0.26 0.25 0.27 0.29 0.39 0.26 0.49 0.73 0.66 0.32 0.04 0.10 0.12 0.39 0.62 0.78 0.62 0.55 0.47 0.33 0.18 0.11 0.24 0.17 0.43 0.68 0.95 0.78 0.85 0.45 0.23 0.12 0.04 0.06 0.17 0.34 0.23 0.19 0.22
0.59 0.56 0.45 0.51 0.45 0.34 0.23 0.28 0.36 0.30 0.33 0.36 0.60 0.64 0.44 0.10 0.08 0.17 0.12 0.54 0.97 0.69 0.72 0.61 0.68 0.67 0.39 0.22 0.13 0.22 0.63 0.96 1.07 1.22 1.18 0.81 0.68 0.20 0.04 0.11 0.24 0.33 0.33 0.29 0.30
0.64 0.58 0.50 0.57 0.47 0.42 0.35 0.42 0.53 0.61 0.67 0.57 0.69 0.68 0.31 0.02 0.09 0.16 0.22 0.37 0.80 1.04 0.99 1.09 0.76 0.84 0.53 0.40 0.29 0.42 0.78 0.88 0.91 1.28 1.88 1.42 0.78 0.19 0.08 0.14 0.18 0.35 0.50 0.37 0.26
0.69 0.61 0.63 0.72 0.63 0.51 0.48 0.35 0.44 0.46 0.75 0.87 0.85 0.60 0.27 0.15 0.10 0.09 0.23 0.39 0.71 1.48 1.84 2.04 1.70 1.19 0.62 0.62 0.55 0.51 0.43 0.52 0.57 0.76 1.83 1.68 0.98 0.35 0.12 0.09 0.08 0.15 0.27 0.43 0.49
0.68 0.63 0.66 0.66 0.70 0.69 0.68 0.67 0.57 0.58 0.69 1.14 0.93 0.73 0.21 0.22 0.18 0.20 0.30 0.50 0.79 1.61 2.37 2.78 2.61 1.49 0.59 0.65 0.41 0.11 0.16 0.24 0.44 0.50 1.04 1.55 0.96 0.50 0.14 0.06 0.05 0.06 0.11 0.13 0.31
0.74 0.62 0.60 0.71 0.73 0.59 0.80 1.14 0.95 0.95 1.09 0.99 0.43 0.34 0.27 0.40 0.47 0.50 0.53 0.67 1.42 1.97 2.27 2.39 2.00 1.25 0.34 0.19 0.14 0.08 0.13 0.13 0.29 0.44 0.50 0.87 0.83 0.58 0.17 0.05 0.04 0.05 0.05 0.08 0.14
0.65 0.58 0.63 0.71 0.73 0.96 1.25 1.24 0.74 0.63 0.82 0.56 0.14 0.20 0.16 0.38 0.75 0.68 0.80 1.36 1.71 2.03 1.73 1.91 1.07 0.66 0.52 0.30 0.28 0.21 0.17 0.14 0.29 0.52 0.56 0.55 0.61 0.34 0.33 0.06 0.03 0.03 0.02 0.02 0.04
0.55 0.60 0.71 0.86 0.82 1.08 1.05 0.62 0.37 0.74 1.15 0.87 0.35 0.36 0.35 0.46 0.82 0.73 1.14 1.54 1.62 1.51 1.14 1.18 0.59 0.31 0.55 0.50 0.40 0.20 0.17 0.12 0.19 0.34 0.35 0.39 0.41 0.20 0.17 0.13 0.03 0.01 0.00 0.00 0.00
0.64 0.71 0.92 1.09 1.26 0.85 0.77 0.50 0.62 1.09 1.41 1.10 0.74 0.78 0.51 1.01 1.20 0.56 1.63 1.59 1.70 1.35 1.02 1.17 0.68 0.44 0.40 0.67 0.31 0.23 0.10 0.16 0.28 0.25 0.17 0.31 0.27 0.11 0.06 0.10 0.07 0.01 0.00 0.00 0.00
1.03 0.96 0.87 1.24 1.21 1.01 0.73 0.47 0.84 1.47 1.53 0.99 0.89 0.69 0.87 0.88 0.66 0.79 1.30 1.20 1.09 1.08 1.05 0.93 0.56 0.63 0.48 0.61 0.24 0.29 0.11 0.19 0.36 0.48 0.40 0.19 0.22 0.06 0.02 0.02 0.03 0.01 0.01 0.00 0.00
1.12 1.12 1.05 1.03 0.94 0.90 0.82 0.58 1.27 1.56 1.84 1.86 1.42 1.24 0.76 0.55 0.52 0.97 1.32 0.99 0.91 0.94 0.97 0.58 0.41 0.84 0.69 0.53 0.34 0.31 0.34 0.37 0.60 0.65 0.75 0.30 0.08 0.02 0.00 0.00 0.00 0.01 0.00 0.02 0.00
1.10 1.32 1.30 0.77 0.79 0.80 1.30 1.09 1.45 1.00 0.99 1.34 1.11 0.56 0.38 0.50 0.81 1.15 1.22 0.79 1.11 1.49 1.40 1.22 0.96 0.81 0.71 0.82 0.84 0.63 0.81 1.21 1.16 1.29 0.46 0.15 0.16 0.06 0.00 0.00 0.00 0.00 0.00 0.01 0.01
1.36 1.43 1.46 1.00 0.87 0.94 1.78 1.14 0.87 0.57 0.85 0.80 0.41 0.38 0.47 0.37 0.56 0.75 0.98 0.50 0.31 0.45 0.72 0.92 1.34 1.08 0.66 0.66 1.00 0.77 0.64 0.70 0.47 0.35 0.17 0.08 0.26 0.05 0.00 0.00 0.00 0.00 0.00 0.00 0.00
1.72 1.90 1.70 1.46 1.16 1.28 1.44 1.00 0.68 0.79 0.90 0.46 0.31 0.35 0.38 0.17 0.28 0.53 0.43 0.22 0.11 0.14 0.53 0.42 0.67 0.52 0.59 0.34 0.64 0.77 0.67 0.36 0.50 0.18 0.27 0.09 0.08 0.04 0.01 0.00 0.00 0.00 0.00 0.00 0.00
2.23 2.61 1.58 1.27 1.45 1.41 1.22 0.85 0.47 0.38 0.28 0.17 0.26 0.13 0.10 0.06 0.11 0.11 0.15 0.04 0.02 0.02 0.18 0.30 0.54 0.81 0.68 0.57 0.61 0.56 0.33 0.51 1.04 0.61 0.19 0.06 0.02 0.04 0.00 0.00 0.00 0.00 0.00 0.00 0.00
2.32 2.47 1.55 1.49 1.96 1.90 1.43 0.96 0.31 0.17 0.14 0.13 0.06 0.04 0.02 0.01 0.02 0.03 0.03 0.00 0.01 0.00 0.14 0.34 0.59 0.79 0.97 0.74 0.50 0.60 0.59 0.39 0.52 0.43 0.25 0.11 0.02 0.00 0.00 0.01 0.01 0.01 0.00 0.00 0.00
2.20 1.95 1.59 1.92 2.31 1.65 1.00 0.69 0.34 0.16 0.17 0.13 0.10 0.02 0.01 0.01 0.01 0.02 0.01 0.01 0.00 0.02 0.16 0.32 0.68 0.73 0.62 0.17 0.13 0.23 0.24 0.18 0.66 0.43 0.37 0.32 0.13 0.00 0.01 0.01 0.01 0.01 0.01 0.01 0.01
1.96 1.69 2.39 1.31 0.99 0.68 0.39 0.31 0.25 0.10 0.13 0.15 0.07 0.01 0.01 0.02 0.02 0.01 0.00 0.00 0.00 0.02 0.19 0.44 1.00 0.79 0.69 0.48 0.49 0.69 0.33 0.37 0.62 0.99 0.75 0.40 0.17 0.00 0.00 0.00 0.01 0.01 0.02 0.01 0.01
1.84 1.81 3.41 2.25 0.57 0.17 0.33 0.35 0.26 0.06 0.07 0.13 0.10 0.03 0.04 0.03 0.00 0.01 0.00 0.00 0.00 0.00 0.16 0.72 0.81 0.85 0.70 0.62 0.88 0.72 0.34 0.53 1.07 1.14 0.37 0.18 0.07 0.02 0.01 0.01 0.02 0.04 0.04 0.02 0.02
1.28 0.78 0.80 0.93 0.47 0.08 0.29 0.30 0.36 0.23 0.12 0.17 0.11 0.04 0.06 0.03 0.01 0.01 0.00 0.00 0.00 0.00 0.16 0.66 1.15 1.28 0.54 0.32 0.69 0.60 0.31 0.43 0.98 0.55 0.51 0.16 0.06 0.03 0.04 0.05 0.07 0.09 0.08 0.06 0.06
0.76 0.58 0.11 0.06 0.05 0.07 0.18 0.27 0.34 0.34 0.27 0.19 0.13 0.04 0.04 0.05 0.01 0.01 0.00 0.00 0.01 0.01 0.15 0.55 0.95 0.81 0.34 0.20 0.40 0.47 0.23 0.35 0.56 0.41 0.30 0.12 0.11 0.06 0.04 0.06 0.06 0.17 0.11 0.08 0.08
0.69 0.50 0.15 0.09 0.06 0.06 0.07 0.12 0.23 0.37 0.24 0.09 0.08 0.11 0.07 0.03 0.01 0.00 0.00 0.00 0.00 0.01 0.07 0.36 0.63 0.82 0.65 0.41 0.55 0.52 0.26 0.31 0.41 0.35 0.24 0.14 0.12 0.04 0.05 0.12 0.27 0.46 0.11 0.05 0.02

GFSSW_prec_precacc_096.txt.gz
Total_Precipitation_Accumulation
0.22 0.24 0.28 0.25 0.23 0.21 0.21 0.21 0.24 0.29 0.37 0.45 0.47 0.55 0.65 0.71 0.66 0.43 0.19 0.07 0.09 0.18 0.32 0.11 0.10 0.09 0.14 0.25 0.58 0.92 1.13 0.67 0.14 0.04 0.02 0.01 0.01 0.01 0.01 0.00 0.01 0.01 0.12 0.10 0.25
0.22 0.30 0.32 0.29 0.27 0.23 0.24 0.25 0.32 0.37 0.45 0.51 0.61 0.70 0.62 0.59 0.46 0.40 0.26 0.34 0.34 0.51 0.32 0.21 0.16 0.22 0.25 0.33 0.84 1.40 1.34 0.40 0.09 0.06 0.02 0.04 0.01 0.01 0.02 0.01 0.06 0.10 0.08 0.06 0.20
0.28 0.32 0.30 0.33 0.31 0.31 0.30 0.34 0.39 0.37 0.36 0.44 0.58 0.71 0.77 0.73 0.40 0.13 0.21 0.30 0.53 0.71 0.45 0.20 0.26 0.37 0.27 0.40 0.56 1.05 1.09 0.29 0.29 0.26 0.24 0.13 0.04 0.01 0.05 0.05 0.01 0.05 0.11 0.12 0.15
0.34 0.39 0.41 0.37 0.38 0.43 0.39 0.41 0.37 0.30 0.31 0.34 0.40 0.59 0.84 0.74 0.43 0.14 0.14 0.27 0.51 0.95 0.65 0.49 0.47 0.49 0.21 0.21 0.25 0.55 0.60 0.43 0.47 0.47 0.47 0.18 0.10 0.07 0.05 0.02 0.01 0.06 0.27 0.31 0.32
0.44 0.51 0.43 0.41 0.41 0.45 0.44 0.30 0.29 0.27 0.23 0.20 0.34 0.87 0.78 0.55 0.14 0.16 0.11 0.19 0.60 0.95 0.54 0.44 0.42 0.33 0.12 0.09 0.21 0.36 0.46 0.56 0.71 0.62 0.47 0.31 0.19 0.11 0.05 0.02 0.04 0.19 0.38 0.44 0.48
0.50 0.51 0.42 0.44 0.49 0.45 0.28 0.25 0.28 0.29 0.39 0.27 0.49 0.73 0.66 0.32 0.04 0.10 0.12 0.39 0.62 0.78 0.62 0.55 0.47 0.35 0.22 0.12 0.25 0.17 0.44 0.68 0.97 0.79 0.86 0.47 0.24 0.16 0.06 0.09 0.18 0.40 0.37 0.38 0.34
0.59 0.56 0.46 0.52 0.48 0.38 0.27 0.30 0.36 0.30 0.34 0.36 0.60 0.64 0.44 0.10 0.08 0.17 0.12 0.54 0.97 0.69 0.72 0.62 0.71 0.74 0.47 0.23 0.13 0.23 0.64 0.98 1.08 1.23 1.21 0.85 0.69 0.21 0.04 0.11 0.25 0.35 0.40 0.52 0.44
0.64 0.58 0.50 0.58 0.52 0.50 0.40 0.45 0.54 0.61 0.67 0.57 0.69 0.68 0.31 0.02 0.09 0.16 0.22 0.37 0.80 1.04 0.99 1.09 0.78 0.89 0.55 0.40 0.31 0.50 0.93 0.99 0.93 1.29 1.91 1.48 0.79 0.19 0.08 0.14 0.19 0.39 0.60 0.55 0.37
0.69 0.61 0.63 0.73 0.71 0.60 0.54 0.38 0.45 0.47 0.76 0.87 0.85 0.60 0.27 0.15 0.10 0.09 0.23 0.39 0.72 1.48 1.84 2.05 1.71 1.20 0.63 0.63 0.60 0.56 0.55 0.66 0.64 0.77 1.84 1.70 0.98 0.38 0.18 0.11 0.09 0.18 0.36 0.62 0.67
0.68 0.63 0.66 0.67 0.79 0.78 0.71 0.68 0.58 0.58 0.69 1.14 0.94 0.73 0.21 0.22 0.18 0.20 0.30 0.50 0.79 1.61 2.37 2.80 2.62 1.50 0.60 0.66 0.46 0.16 0.18 0.28 0.50 0.52 1.04 1.56 0.98 0.62 0.31 0.17 0.06 0.07 0.15 0.27 0.56
0.74 0.62 0.60 0.71 0.81 0.63 0.81 1.16 0.96 0.95 1.09 0.99 0.44 0.34 0.27 0.40 0.47 0.50 0.53 0.67 1.42 1.98 2.27 2.39 2.00 1.25 0.34 0.19 0.21 0.13 0.18 0.17 0.36 0.48 0.51 0.88 0.89 0.71 0.33 0.25 0.09 0.06 0.08 0.17 0.42
0.65 0.58 0.63 0.72 0.79 0.97 1.25 1.26 0.76 0.64 0.82 0.56 0.14 0.20 0.16 0.38 0.75 0.68 0.80 1.36 1.71 2.03 1.73 1.91 1.07 0.71 0.59 0.30 0.28 0.24 0.21 0.19 0.32 0.54 0.56 0.56 0.65 0.50 0.48 0.22 0.14 0.05 0.06 0.10 0.19
0.55 0.60 0.71 0.91 0.90 1.11 1.08 0.64 0.37 0.74 1.15 0.87 0.35 0.36 0.35 0.46 0.82 0.73 1.14 1.54 1.62 1.51 1.14 1.18 0.59 0.36 0.58 0.52 0.42 0.24 0.19 0.14 0.22 0.35 0.35 0.41 0.54 0.42 0.35 0.27 0.12 0.04 0.04 0.06 0.07
0.65 0.71 0.93 1.14 1.29 0.88 0.78 0.50 0.62 1.09 1.42 1.10 0.75 0.78 0.51 1.01 1.20 0.56 1.63 1.59 1.70 1.35 1.02 1.17 0.68 0.44 0.40 0.69 0.35 0.26 0.12 0.17 0.30 0.26 0.17 0.31 0.42 0.33 0.27 0.24 0.10 0.04 0.03 0.04 0.03
1.06 0.97 0.88 1.26 1.21 1.01 0.74 0.47 0.85 1.48 1.56 0.99 0.89 0.69 0.87 0.88 0.66 0.79 1.30 1.20 1.09 1.08 1.05 0.93 0.57 0.66 0.48 0.62 0.29 0.35 0.13 0.19 0.36 0.48 0.40 0.19 0.33 0.23 0.15 0.09 0.06 0.03 0.03 0.02 0.01
1.15 1.13 1.06 1.05 0.96 0.91 0.82 0.59 1.28 1.59 1.87 1.86 1.42 1.24 0.77 0.55 0.52 0.97 1.32 0.99 0.91 0.94 0.99 0.58 0.42 0.85 0.71 0.55 0.44 0.35 0.40 0.40 0.61 0.65 0.75 0.32 0.18 0.12 0.04 0.03 0.05 0.02 0.01 0.02 0.00
1.13 1.33 1.31 0.77 0.82 0.81 1.30 1.10 1.47 1.02 1.00 1.35 1.11 0.56 0.38 0.51 0.82 1.15 1.22 0.79 1.11 1.51 1.41 1.22 0.97 0.83 0.74 0.85 0.94 0.67 0.83 1.22 1.16 1.29 0.46 0.17 0.20 0.09 0.00 0.00 0.01 0.02 0.00 0.01 0.02
1.39 1.44 1.46 1.00 0.89 0.96 1.79 1.18 0.90 0.58 0.85 0.80 0.41 0.38 0.47 0.37 0.56 0.75 0.98 0.50 0.31 0.46 0.72 0.92 1.34 1.16 0.73 0.72 1.13 0.85 0.65 0.71 0.48 0.35 0.18 0.08 0.27 0.05 0.00 0.00 0.00 0.02 0.00 0.00 0.01
1.75 1.91 1.71 1.47 1.17 1.30 1.45 1.03 0.70 0.81 0.91 0.46 0.31 0.35 0.39 0.17 0.28 0.53 0.43 0.22 0.11 0.14 0.54 0.42 0.68 0.54 0.62 0.40 0.72 0.79 0.67 0.36 0.50 0.18 0.28 0.10 0.09 0.04 0.01 0.00 0.00 0.00 0.00 0.00 0.00
2.25 2.61 1.58 1.29 1.46 1.43 1.25 0.87 0.50 0.39 0.28 0.17 0.26 0.13 0.10 0.06 0.11 0.11 0.15 0.04 0.02 0.02 0.18 0.30 0.59 0.83 0.69 0.57 0.61 0.56 0.33 0.51 1.04 0.61 0.20 0.06 0.02 0.04 0.01 0.00 0.00 0.00 0.00 0.00 0.00
2.33 2.48 1.65 1.67 2.05 1.99 1.47 0.99 0.36 0.18 0.14 0.13 0.06 0.04 0.02 0.01 0.02 0.03 0.03 0.00 0.01 0.00 0.14 0.34 0.60 0.81 1.00 0.75 0.50 0.60 0.59 0.39 0.52 0.43 0.25 0.11 0.02 0.00 0.00 0.01 0.01 0.01 0.00 0.00 0.00
2.21 1.96 1.82 2.28 2.48 1.73 1.02 0.75 0.39 0.16 0.17 0.13 0.10 0.02 0.01 0.01 0.01 0.02 0.01 0.01 0.00 0.02 0.16 0.32 0.68 0.74 0.63 0.17 0.13 0.23 0.24 0.18 0.66 0.43 0.37 0.32 0.13 0.00 0.01 0.01 0.01 0.01 0.01 0.01 0.01
1.98 1.70 2.55 1.48 1.06 0.70 0.43 0.39 0.27 0.10 0.14 0.15 0.07 0.01 0.01 0.02 0.02 0.01 0.00 0.00 0.00 0.02 0.19 0.44 1.00 0.79 0.69 0.48 0.49 0.69 0.33 0.37 0.62 0.99 0.75 0.40 0.17 0.00 0.00 0.00 0.01 0.01 0.02 0.01 0.01
1.85 1.81 3.62 2.41 0.60 0.17 0.38 0.41 0.28 0.06 0.07 0.13 0.10 0.03 0.04 0.03 0.00 0.01 0.00 0.00 0.00 0.00 0.16 0.72 0.81 0.85 0.70 0.62 0.88 0.72 0.34 0.53 1.07 1.14 0.37 0.18 0.07 0.02 0.01 0.01 0.02 0.04 0.04 0.02 0.02
1.29 0.78 0.84 0.97 0.49 0.10 0.32 0.32 0.37 0.23 0.12 0.17 0.11 0.04 0.06 0.03 0.01 0.01 0.00 0.00 0.00 0.00 0.16 0.66 1.15 1.28 0.54 0.32 0.69 0.60 0.31 0.43 0.98 0.55 0.51 0.16 0.06 0.03 0.04 0.05 0.07 0.09 0.08 0.06 0.06
0.76 0.58 0.11 0.06 0.06 0.12 0.21 0.28 0.34 0.34 0.27 0.19 0.14 0.04 0.04 0.05 0.01 0.01 0.00 0.00 0.01 0.01 0.15 0.55 0.95 0.81 0.34 0.20 0.40 0.47 0.23 0.35 0.56 0.41 0.30 0.12 0.11 0.06 0.04 0.06 0.06 0.17 0.11 0.08 0.08
0.69 0.50 0.15 0.11 0.11 0.08 0.07 0.12 0.23 0.37 0.24 0.09 0.08 0.11 0.07 0.03 0.01 0.00 0.00 0.00 0.00 0.01 0.07 0.36 0.63 0.82 0.65 0.41 0.55 0.52 0.26 0.31 0.41 0.35 0.24 0.14 0.12 0.04 0.05 0.12 0.27 0.46 0.11 0.05 0.02

GFSSW_prec_precacc_099.txt.gz
Total_Precipitation_Accumulation
0.22 0.25 0.30 0.32 0.31 0.23 0.21 0.21 0.24 0.29 0.37 0.45 0.47 0.55 0.66 0.71 0.66 0.43 0.19 0.07 0.09 0.18 0.32 0.11 0.10 0.09 0.14 0.25 0.58 0.92 1.13 0.67 0.14 0.04 0.02 0.01 0.01 0.01 0.01 0.00 0.01 0.01 0.12 0.10 0.25
0.22 0.30 0.33 0.33 0.31 0.26 0.25 0.25 0.32 0.37 0.45 0.51 0.61 0.70 0.62 0.59 0.46 0.40 0.26 0.34 0.34 0.51 0.32 0.21 0.16 0.22 0.25 0.33 0.84 1.40 1.34 0.40 0.09 0.06 0.02 0.04 0.01 0.01 0.02 0.01 0.06 0.10 0.09 0.06 0.20
0.28 0.32 0.31 0.34 0.33 0.34 0.33 0.35 0.39 0.37 0.36 0.44 0.58 0.71 0.77 0.73 0.40 0.13 0.21 0.30 0.53 0.71 0.45 0.20 0.26 0.37 0.27 0.40 0.56 1.05 1.09 0.29 0.29 0.26 0.24 0.13 0.04 0.01 0.05 0.05 0.01 0.05 0.12 0.22 0.26
0.34 0.39 0.41 0.37 0.40 0.49 0.46 0.46 0.37 0.30 0.31 0.34 0.40 0.59 0.84 0.74 0.43 0.14 0.14 0.27 0.51 0.95 0.65 0.49 0.47 0.50 0.21 0.21 0.25 0.55 0.60 0.43 0.47 0.47 0.47 0.18 0.10 0.07 0.05 0.02 0.01 0.06 0.27 0.41 0.54
0.45 0.51 0.43 0.41 0.41 0.48 0.48 0.32 0.30 0.27 0.23 0.20 0.34 0.88 0.78 0.55 0.14 0.16 0.11 0.19 0.60 0.95 0.54 0.44 0.43 0.35 0.13 0.09 0.21 0.36 0.46 0.56 0.71 0.62 0.47 0.32 0.19 0.11 0.05 0.02 0.04 0.20 0.39 0.49 0.75
0.50 0.51 0.42 0.44 0.49 0.46 0.33 0.30 0.30 0.30 0.39 0.27 0.50 0.73 0.66 0.32 0.04 0.10 0.12 0.39 0.62 0.78 0.62 0.55 0.47 0.36 0.23 0.13 0.27 0.18 0.44 0.68 0.97 0.79 0.86 0.47 0.24 0.18 0.06 0.10 0.18 0.40 0.37 0.39 0.45
0.59 0.56 0.46 0.52 0.48 0.41 0.35 0.36 0.41 0.32 0.34 0.36 0.61 0.64 0.44 0.10 0.08 0.17 0.12 0.54 0.97 0.69 0.73 0.62 0.72 0.75 0.49 0.26 0.14 0.23 0.64 0.99 1.08 1.23 1.21 0.87 0.70 0.22 0.04 0.11 0.26 0.35 0.40 0.52 0.49
0.64 0.58 0.50 0.58 0.52 0.52 0.48 0.48 0.56 0.62 0.67 0.57 0.69 0.69 0.31 0.02 0.09 0.16 0.22 0.37 0.80 1.04 0.99 1.09 0.78 0.90 0.55 0.41 0.31 0.50 0.94 0.99 0.93 1.30 1.91 1.54 0.81 0.19 0.10 0.16 0.20 0.40 0.60 0.56 0.43
0.69 0.61 0.63 0.73 0.71 0.71 0.65 0.42 0.48 0.48 0.78 0.88 0.85 0.60 0.27 0.15 0.10 0.09 0.23 0.39 0.72 1.48 1.85 2.06 1.72 1.22 0.64 0.64 0.60 0.56 0.57 0.73 0.73 0.77 1.87 1.75 1.02 0.40 0.19 0.13 0.10 0.19 0.37 0.63 0.72
0.68 0.63 0.66 0.67 0.80 0.85 0.83 0.79 0.63 0.60 0.72 1.15 0.94 0.74 0.21 0.22 0.18 0.20 0.30 0.50 0.79 1.62 2.39 2.82 2.64 1.52 0.61 0.67 0.47 0.17 0.20 0.33 0.59 0.54 1.08 1.61 0.99 0.69 0.34 0.17 0.06 0.07 0.15 0.29 0.61
0.77 0.62 0.60 0.71 0.81 0.69 0.86 1.21 1.01 0.98 1.10 0.99 0.45 0.35 0.27 0.40 0.47 0.50 0.53 0.67 1.42 2.00 2.28 2.40 2.02 1.25 0.34 0.19 0.21 0.13 0.20 0.23 0.47 0.61 0.52 0.89 0.89 0.72 0.33 0.25 0.09 0.06 0.08 0.20 0.49
0.72 0.59 0.63 0.72 0.81 1.03 1.27 1.28 0.77 0.66 0.83 0.56 0.14 0.20 0.16 0.38 0.75 0.68 0.80 1.36 1.71 2.03 1.75 1.92 1.08 0.71 0.62 0.31 0.29 0.24 0.22 0.24 0.36 0.60 0.59 0.57 0.65 0.50 0.48 0.22 0.15 0.08 0.06 0.16 0.34
0.66 0.61 0.71 0.93 0.96 1.23 1.13 0.66 0.38 0.74 1.16 0.87 0.35 0.36 0.35 0.46 0.82 0.73 1.14 1.54 1.62 1.51 1.15 1.18 0.59 0.36 0.60 0.52 0.43 0.25 0.20 0.19 0.29 0.39 0.38 0.42 0.56 0.43 0.35 0.27 0.13 0.07 0.06 0.11 0.15
0.76 0.75 0.93 1.15 1.31 0.92 0.95 0.52 0.62 1.09 1.43 1.10 0.75 0.78 0.51 1.01 1.20 0.56 1.63 1.59 1.70 1.35 1.03 1.18 0.68 0.45 0.41 0.71 0.37 0.28 0.12 0.20 0.38 0.33 0.23 0.32 0.51 0.44 0.29 0.28 0.15 0.06 0.04 0.10 0.10
1.21 1.02 0.88 1.26 1.24 1.02 0.75 0.47 0.85 1.48 1.61 1.01 0.89 0.70 0.87 0.88 0.66 0.79 1.30 1.20 1.09 1.08 1.06 0.94 0.58 0.67 0.50 0.68 0.37 0.41 0.15 0.23 0.38 0.49 0.44 0.20 0.42 0.43 0.34 0.30 0.15 0.05 0.03 0.06 0.09
1.21 1.16 1.06 1.05 0.98 0.93 0.83 0.59 1.28 1.63 1.91 1.87 1.43 1.24 0.77 0.56 0.53 0.97 1.32 0.99 0.91 0.95 1.00 0.59 0.42 0.87 0.73 0.58 0.54 0.41 0.43 0.41 0.63 0.68 0.80 0.36 0.32 0.33 0.29 0.30 0.20 0.02 0.02 0.05 0.04
1.19 1.38 1.31 0.77 0.84 0.83 1.30 1.13 1.50 1.06 1.01 1.36 1.12 0.56 0.39 0.52 0.83 1.15 1.22 0.79 1.12 1.54 1.43 1.22 0.97 0.83 0.75 0.96 1.02 0.71 0.86 1.27 1.20 1.34 0.53 0.23 0.27 0.27 0.11 0.11 0.06 0.02 0.02 0.03 0.04
1.42 1.45 1.47 1.01 0.89 0.97 1.79 1.25 0.96 0.59 0.86 0.80 0.41 0.38 0.48 0.37 0.56 0.75 0.98 0.50 0.31 0.46 0.74 0.93 1.36 1.19 0.77 0.82 1.20 0.88 0.68 0.75 0.48 0.37 0.21 0.10 0.34 0.17 0.03 0.02 0.02 0.04 0.02 0.01 0.03
1.77 1.97 1.73 1.47 1.18 1.31 1.47 1.06 0.75 0.83 0.91 0.47 0.32 0.36 0.39 0.18 0.28 0.53 0.43 0.23 0.12 0.15 0.55 0.44 0.74 0.57 0.73 0.59 0.80 0.79 0.67 0.36 0.51 0.18 0.28 0.12 0.16 0.12 0.04 0.01 0.02 0.04 0.04 0.00 0.00
2.31 2.64 1.60 1.32 1.47 1.45 1.30 0.89 0.53 0.40 0.28 0.17 0.27 0.13 0.10 0.06 0.11 0.12 0.16 0.04 0.03 0.02 0.19 0.33 0.65 0.90 0.76 0.72 0.64 0.57 0.33 0.51 1.04 0.61 0.20 0.06 0.03 0.09 0.04 0.05 0.04 0.08 0.03 0.00 0.00
2.34 2.49 1.66 1.72 2.08 2.05 1.52 1.00 0.41 0.18 0.14 0.13 0.07 0.04 0.02 0.01 0.02 0.03 0.03 0.01 0.01 0.01 0.15 0.37 0.68 0.87 1.02 0.76 0.50 0.60 0.59 0.39 0.52 0.43 0.25 0.11 0.03 0.00 0.00 0.02 0.01 0.02 0.01 0.00 0.00
2.21 2.00 1.90 2.33 2.56 1.79 1.05 0.77 0.46 0.16 0.17 0.14 0.11 0.03 0.01 0.01 0.01 0.02 0.01 0.02 0.00 0.02 0.17 0.33 0.69 0.77 0.64 0.18 0.13 0.23 0.24 0.18 0.66 0.43 0.37 0.32 0.13 0.00 0.01 0.01 0.01 0.01 0.01 0.01 0.01
1.99 1.82 2.75 1.57 1.10 0.72 0.46 0.43 0.30 0.10 0.15 0.18 0.09 0.01 0.01 0.02 0.02 0.01 0.00 0.00 0.00 0.02 0.19 0.44 1.00 0.80 0.69 0.48 0.49 0.69 0.33 0.37 0.62 0.99 0.75 0.40 0.17 0.00 0.00 0.00 0.01 0.01 0.02 0.01 0.01
1.86 1.89 3.74 2.47 0.61 0.18 0.41 0.45 0.29 0.06 0.07 0.14 0.11 0.03 0.04 0.03 0.00 0.01 0.00 0.00 0.00 0.00 0.16 0.72 0.81 0.85 0.70 0.62 0.88 0.72 0.34 0.53 1.07 1.14 0.37 0.18 0.07 0.02 0.01 0.01 0.02 0.04 0.04 0.02 0.02
1.29 0.79 0.85 0.98 0.49 0.11 0.36 0.34 0.37 0.23 0.13 0.17 0.12 0.04 0.06 0.03 0.01 0.01 0.00 0.00 0.00 0.00 0.16 0.66 1.15 1.28 0.54 0.32 0.69 0.60 0.31 0.43 0.98 0.55 0.51 0.16 0.06 0.03 0.04 0.05 0.07 0.09 0.08 0.06 0.06
0.76 0.58 0.12 0.07 0.06 0.16 0.23 0.28 0.34 0.34 0.27 0.20 0.14 0.04 0.04 0.05 0.01 0.01 0.00 0.00 0.01 0.01 0.15 0.55 0.95 0.81 0.34 0.20 0.40 0.47 0.23 0.35 0.56 0.41 0.30 0.12 0.11 0.06 0.04 0.06 0.06 0.17 0.11 0.08 0.08
0.69 0.50 0.15 0.12 0.12 0.10 0.08 0.12 0.23 0.37 0.24 0.09 0.09 0.11 0.07 0.03 0.01 0.00 0.00 0.00 0.00 0.01 0.07 0.36 0.63 0.82 0.65 0.41 0.55 0.52 0.26 0.31 0.41 0.35 0.24 0.14 0.12 0.04 0.05 0.12 0.27 0.46 0.11 0.05 0.02

GFSSW_prec_precacc_102.txt.gz
Total_Precipitation_Accumulation
0.22 0.25 0.30 0.33 0.33 0.31 0.31 0.28 0.26 0.29 0.37 0.45 0.47 0.55 0.67 0.71 0.66 0.43 0.19 0.07 0.09 0.18 0.32 0.11 0.10 0.09 0.14 0.25 0.58 0.92 1.13 0.67 0.14 0.04 0.02 0.01 0.01 0.01 0.01 0.00 0.01 0.01 0.12 0.10 0.25
0.22 0.30 0.33 0.33 0.32 0.28 0.29 0.31 0.33 0.37 0.45 0.51 0.61 0.70 0.62 0.59 0.46 0.40 0.26 0.34 0.34 0.51 0.32 0.21 0.16 0.22 0.25 0.33 0.84 1.40 1.34 0.40 0.09 0.06 0.02 0.04 0.01 0.01 0.02 0.01 0.06 0.10 0.09 0.06 0.21
0.29 0.32 0.31 0.34 0.33 0.34 0.35 0.40 0.43 0.38 0.37 0.44 0.58 0.71 0.77 0.73 0.40 0.13 0.21 0.30 0.53 0.71 0.45 0.20 0.26 0.37 0.27 0.40 0.56 1.05 1.09 0.29 0.29 0.26 0.24 0.13 0.04 0.01 0.05 0.05 0.01 0.05 0.12 0.22 0.29
0.34 0.39 0.41 0.37 0.40 0.49 0.48 0.55 0.50 0.35 0.33 0.34 0.40 0.59 0.84 0.74 0.43 0.14 0.14 0.27 0.51 0.95 0.65 0.49 0.47 0.50 0.21 0.21 0.25 0.55 0.60 0.43 0.47 0.47 0.47 0.18 0.10 0.07 0.05 0.02 0.01 0.06 0.27 0.41 0.54
0.45 0.51 0.43 0.41 0.41 0.48 0.49 0.39 0.43 0.31 0.24 0.20 0.34 0.88 0.78 0.55 0.14 0.16 0.11 0.19 0.60 0.95 0.54 0.44 0.43 0.35 0.13 0.09 0.21 0.36 0.46 0.56 0.71 0.62 0.47 0.32 0.19 0.11 0.05 0.02 0.04 0.20 0.39 0.49 0.76
0.50 0.51 0.42 0.44 0.49 0.46 0.34 0.37 0.40 0.35 0.40 0.27 0.50 0.73 0.66 0.32 0.04 0.10 0.12 0.39 0.62 0.78 0.62 0.55 0.47 0.36 0.24 0.13 0.27 0.18 0.44 0.68 0.97 0.79 0.86 0.47 0.24 0.18 0.06 0.10 0.18 0.40 0.38 0.40 0.46
0.59 0.57 0.46 0.52 0.48 0.41 0.36 0.44 0.54 0.40 0.35 0.37 0.62 0.65 0.44 0.10 0.08 0.17 0.12 0.54 0.97 0.69 0.73 0.62 0.72 0.76 0.49 0.26 0.14 0.23 0.65 0.99 1.08 1.23 1.21 0.87 0.70 0.22 0.04 0.11 0.26 0.36 0.41 0.53 0.50
0.66 0.60 0.50 0.58 0.52 0.52 0.49 0.54 0.61 0.66 0.71 0.60 0.71 0.69 0.31 0.02 0.09 0.16 0.22 0.37 0.80 1.04 0.99 1.09 0.79 0.91 0.56 0.41 0.32 0.51 0.94 1.00 0.93 1.30 1.91 1.55 0.81 0.19 0.10 0.16 0.20 0.41 0.62 0.57 0.43
0.72 0.62 0.64 0.73 0.71 0.71 0.82 0.51 0.54 0.52 0.81 0.90 0.87 0.62 0.27 0.15 0.10 0.09 0.23 0.39 0.72 1.49 1.85 2.06 1.72 1.22 0.65 0.65 0.61 0.56 0.57 0.73 0.73 0.77 1.87 1.75 1.02 0.40 0.19 0.13 0.12 0.19 0.41 0.63 0.72
0.76 0.67 0.68 0.67 0.80 0.85 0.92 0.98 0.80 0.67 0.77 1.18 0.97 0.75 0.22 0.22 0.18 0.20 0.30 0.50 0.79 1.62 2.40 2.82 2.65 1.54 0.62 0.69 0.48 0.18 0.22 0.34 0.62 0.60 1.10 1.62 0.99 0.71 0.39 0.18 0.06 0.10 0.16 0.29 0.61
0.93 0.71 0.62 0.72 0.81 0.70 0.93 1.28 1.15 1.17 1.18 1.01 0.45 0.35 0.27 0.40 0.47 0.50 0.53 0.67 1.42 2.01 2.29 2.41 2.03 1.26 0.34 0.20 0.21 0.13 0.21 0.23 0.49 0.69 0.53 0.89 0.90 0.73 0.48 0.41 0.11 0.10 0.12 0.20 0.50
0.81 0.66 0.67 0.72 0.82 1.07 1.28 1.31 0.80 0.72 0.86 0.59 0.15 0.20 0.16 0.38 0.75 0.68 0.80 1.36 1.72 2.03 1.76 1.94 1.08 0.71 0.62 0.33 0.30 0.25 0.23 0.24 0.40 0.67 0.61 0.58 0.66 0.50 0.48 0.26 0.16 0.08 0.07 0.18 0.36
0.77 0.71 0.76 0.94 0.98 1.33 1.19 0.68 0.38 0.75 1.17 0.87 0.35 0.37 0.35 0.46 0.82 0.73 1.14 1.54 1.62 1.51 1.16 1.21 0.60 0.37 0.61 0.54 0.43 0.25 0.21 0.20 0.37 0.45 0.42 0.46 0.58 0.44 0.36 0.27 0.13 0.07 0.06 0.11 0.20
0.89 0.93 1.01 1.16 1.34 0.96 1.11 0.74 0.65 1.09 1.46 1.12 0.75 0.78 0.51 1.01 1.20 0.56 1.63 1.59 1.70 1.35 1.03 1.18 0.68 0.46 0.44 0.73 0.38 0.29 0.14 0.23 0.47 0.49 0.45 0.34 0.55 0.46 0.29 0.28 0.15 0.07 0.04 0.14 0.16
1.28 1.08 0.91 1.26 1.28 1.07 0.78 0.52 0.86 1.49 1.66 1.04 0.90 0.70 0.88 0.88 0.66 0.79 1.30 1.20 1.09 1.08 1.06 0.96 0.60 0.69 0.51 0.70 0.37 0.42 0.17 0.24 0.39 0.53 0.81 0.28 0.45 0.52 0.40 0.31 0.15 0.05 0.06 0.14 0.16
1.24 1.17 1.06 1.05 0.98 0.96 0.84 0.60 1.28 1.65 1.97 1.89 1.43 1.25 0.78 0.56 0.53 0.97 1.32 0.99 0.91 0.95 1.00 0.59 0.44 0.88 0.75 0.59 0.54 0.41 0.43 0.41 0.64 0.73 1.06 0.40 0.44 0.53 0.45 0.40 0.29 0.04 0.08 0.15 0.16
1.21 1.41 1.31 0.78 0.87 0.85 1.31 1.13 1.52 1.13 1.06 1.39 1.12 0.57 0.40 0.52 0.83 1.15 1.22 0.79 1.12 1.57 1.45 1.24 0.99 0.84 0.76 0.99 1.03 0.72 0.90 1.34 1.25 1.43 0.66 0.38 0.39 0.47 0.33 0.23 0.22 0.06 0.11 0.23 0.23
1.42 1.45 1.47 1.01 0.93 0.99 1.80 1.28 1.04 0.64 0.92 0.82 0.41 0.39 0.49 0.38 0.56 0.75 0.98 0.50 0.31 0.47 0.77 0.95 1.40 1.19 0.78 0.86 1.21 0.96 0.83 0.87 0.58 0.49 0.38 0.22 0.50 0.48 0.26 0.29 0.15 0.06 0.12 0.13 0.14
1.77 1.97 1.73 1.48 1.20 1.32 1.48 1.15 0.88 0.87 0.92 0.47 0.32 0.37 0.40 0.18 0.28 0.53 0.43 0.24 0.14 0.16 0.59 0.46 0.76 0.58 0.77 0.61 0.80 0.82 0.69 0.36 0.56 0.21 0.35 0.28 0.43 0.43 0.39 0.34 0.06 0.06 0.07 0.10 0.15
2.35 2.66 1.62 1.35 1.47 1.46 1.31 0.98 0.60 0.41 0.28 0.17 0.28 0.13 0.10 0.06 0.11 0.12 0.16 0.06 0.06 0.03 0.20 0.35 0.71 0.95 0.85 0.78 0.65 0.57 0.33 0.51 1.05 0.64 0.25 0.12 0.07 0.26 0.30 0.18 0.08 0.10 0.09 0.03 0.02
2.36 2.50 1.68 1.75 2.08 2.06 1.54 1.08 0.45 0.18 0.14 0.14 0.08 0.04 0.02 0.01 0.02 0.05 0.05 0.01 0.02 0.02 0.16 0.41 0.87 0.99 1.06 0.78 0.51 0.61 0.59 0.39 0.52 0.43 0.25 0.12 0.09 0.03 0.05 0.05 0.03 0.06 0.03 0.01 0.00
2.22 2.01 1.92 2.35 2.56 1.80 1.08 0.78 0.47 0.16 0.17 0.14 0.11 0.03 0.01 0.01 0.02 0.03 0.03 0.03 0.01 0.05 0.25 0.36 0.76 0.80 0.65 0.18 0.13 0.23 0.24 0.18 0.66 0.43 0.37 0.32 0.16 0.00 0.01 0.02 0.01 0.02 0.01 0.01 0.01
2.00 1.85 2.76 1.57 1.10 0.73 0.47 0.44 0.30 0.10 0.15 0.19 0.12 0.01 0.01 0.03 0.03 0.02 0.01 0.00 0.00 0.02 0.19 0.44 1.01 0.82 0.70 0.48 0.49 0.69 0.33 0.37 0.62 0.99 0.75 0.40 0.17 0.00 0.00 0.00 0.01 0.01 0.02 0.01 0.01
1.87 1.90 3.74 2.47 0.61 0.18 0.42 0.46 0.30 0.06 0.08 0.14 0.12 0.03 0.05 0.03 0.01 0.01 0.00 0.00 0.00 0.00 0.16 0.72 0.81 0.86 0.71 0.63 0.88 0.72 0.34 0.53 1.07 1.14 0.37 0.18 0.07 0.02 0.01 0.01 0.02 0.04 0.04 0.02 0.02
1.30 0.79 0.85 0.98 0.50 0.11 0.36 0.34 0.37 0.23 0.13 0.17 0.12 0.04 0.07 0.03 0.01 0.01 0.00 0.00 0.00 0.00 0.16 0.66 1.15 1.28 0.54 0.32 0.69 0.60 0.31 0.43 0.98 0.55 0.51 0.16 0.06 0.03 0.04 0.05 0.07 0.09 0.08 0.06 0.06
0.77 0.58 0.12 0.07 0.06 0.16 0.23 0.28 0.34 0.34 0.28 0.20 0.15 0.04 0.04 0.05 0.01 0.01 0.00 0.00 0.01 0.01 0.15 0.55 0.95 0.81 0.34 0.20 0.40 0.47 0.23 0.35 0.56 0.41 0.30 0.12 0.11 0.06 0.04 0.06 0.06 0.17 0.11 0.08 0.08
0.69 0.50 0.15 0.12 0.13 0.10 0.08 0.12 0.23 0.37 0.24 0.09 0.09 0.11 0.07 0.03 0.01 0.00 0.00 0.00 0.00 0.01 0.07 0.36 0.63 0.82 0.65 0.41 0.55 0.52 0.26 0.31 0.41 0.35 0.24 0.14 0.12 0.04 0.05 0.12 0.27 0.46 0.11 0.05 0.02

GFSSW_prec_precacc_105.txt.gz
Total_Precipitation_Accumulation
0.23 0.25 0.30 0.33 0.33 0.31 0.32 0.34 0.40 0.36 0.39 0.45 0.47 0.55 0.67 0.71 0.66 0.43 0.19 0.07 0.09 0.18 0.32 0.11 0.10 0.09 0.14 0.25 0.58 0.92 1.13 0.67 0.14 0.04 0.02 0.01 0.01 0.01 0.01 0.00 0.01 0.01 0.12 0.10 0.25
0.22 0.31 0.34 0.33 0.32 0.28 0.29 0.33 0.42 0.45 0.47 0.52 0.61 0.70 0.62 0.59 0.46 0.40 0.26 0.34 0.34 0.51 0.32 0.21 0.16 0.22 0.25 0.33 0.84 1.40 1.34 0.40 0.09 0.06 0.02 0.04 0.01 0.01 0.02 0.01 0.06 0.10 0.09 0.06 0.21
0.29 0.33 0.31 0.35 0.33 0.34 0.35 0.40 0.46 0.44 0.39 0.44 0.58 0.71 0.77 0.73 0.40 0.13 0.21 0.30 0.53 0.71 0.45 0.20 0.26 0.37 0.27 0.40 0.56 1.05 1.09 0.29 0.29 0.26 0.24 0.13 0.04 0.01 0.05 0.05 0.01 0.05 0.12 0.22 0.29
0.35 0.40 0.41 0.37 0.41 0.49 0.48 0.56 0.55 0.46 0.38 0.36 0.41 0.59 0.84 0.74 0.43 0.14 0.14 0.27 0.51 0.95 0.65 0.49 0.47 0.50 0.21 0.21 0.25 0.55 0.60 0.43 0.47 0.47 0.47 0.18 0.10 0.07 0.05 0.02 0.01 0.06 0.27 0.41 0.54
0.46 0.52 0.44 0.41 0.41 0.48 0.49 0.39 0.45 0.47 0.39 0.24 0.35 0.88 0.78 0.55 0.14 0.16 0.11 0.19 0.60 0.95 0.54 0.44 0.43 0.35 0.13 0.09 0.21 0.36 0.46 0.56 0.71 0.62 0.47 0.32 0.19 0.11 0.05 0.02 0.04 0.20 0.39 0.49 0.76
0.52 0.52 0.43 0.44 0.49 0.47 0.34 0.37 0.40 0.41 0.48 0.34 0.51 0.73 0.66 0.32 0.04 0.10 0.12 0.39 0.62 0.78 0.62 0.55 0.47 0.36 0.24 0.13 0.27 0.18 0.44 0.68 0.97 0.79 0.86 0.47 0.24 0.18 0.06 0.10 0.18 0.40 0.38 0.40 0.46
0.63 0.60 0.49 0.53 0.48 0.41 0.36 0.44 0.56 0.49 0.44 0.43 0.66 0.67 0.45 0.10 0.08 0.17 0.12 0.54 0.97 0.69 0.73 0.62 0.72 0.76 0.49 0.26 0.14 0.23 0.65 0.99 1.08 1.23 1.21 0.87 0.70 0.22 0.04 0.11 0.26 0.36 0.41 0.53 0.50
0.72 0.64 0.53 0.61 0.53 0.52 0.49 0.54 0.65 0.72 0.84 0.83 0.84 0.72 0.36 0.04 0.09 0.16 0.22 0.37 0.80 1.04 0.99 1.09 0.79 0.91 0.56 0.41 0.32 0.51 0.94 1.00 0.93 1.30 1.91 1.55 0.81 0.19 0.10 0.16 0.20 0.41 0.62 0.57 0.43
0.82 0.69 0.68 0.77 0.74 0.71 0.86 0.74 0.59 0.62 0.85 1.02 0.97 0.64 0.27 0.15 0.10 0.09 0.23 0.39 0.72 1.49 1.85 2.06 1.72 1.22 0.65 0.65 0.61 0.56 0.57 0.73 0.73 0.77 1.87 1.75 1.02 0.40 0.19 0.13 0.12 0.19 0.41 0.63 0.72
1.00 0.92 0.81 0.72 0.83 0.85 0.94 1.30 1.04 0.76 0.82 1.23 0.98 0.79 0.24 0.22 0.18 0.20 0.30 0.50 0.79 1.63 2.41 2.83 2.65 1.54 0.62 0.69 0.48 0.19 0.24 0.34 0.62 0.60 1.10 1.62 0.99 0.71 0.39 0.19 0.06 0.10 0.17 0.29 0.61
1.07 0.94 0.73 0.77 0.82 0.72 0.95 1.33 1.31 1.49 1.26 1.05 0.45 0.35 0.27 0.40 0.47 0.50 0.53 0.67 1.42 2.01 2.30 2.42 2.03 1.26 0.34 0.20 0.21 0.13 0.21 0.23 0.49 0.69 0.54 0.89 0.90 0.73 0.49 0.47 0.14 0.12 0.13 0.22 0.51
0.89 0.79 0.73 0.75 0.83 1.10 1.29 1.32 0.85 0.89 1.01 0.68 0.22 0.22 0.16 0.38 0.75 0.68 0.80 1.36 1.72 2.03 1.76 1.95 1.08 0.71 0.62 0.33 0.31 0.26 0.25 0.25 0.40 0.70 0.62 0.58 0.66 0.50 0.48 0.32 0.21 0.10 0.07 0.19 0.39
0.80 0.75 0.77 0.94 1.00 1.38 1.21 0.69 0.48 0.77 1.18 0.91 0.38 0.40 0.36 0.46 0.82 0.73 1.14 1.54 1.62 1.51 1.16 1.21 0.60 0.37 0.61 0.55 0.46 0.26 0.22 0.20 0.38 0.47 0.42 0.47 0.58 0.44 0.37 0.27 0.13 0.07 0.06 0.11 0.23
0.89 0.95 1.03 1.17 1.35 1.00 1.20 0.77 0.67 1.11 1.51 1.13 0.75 0.79 0.52 1.02 1.20 0.56 1.63 1.59 1.70 1.35 1.03 1.18 0.68 0.46 0.44 0.74 0.41 0.30 0.14 0.24 0.48 0.56 0.52 0.42 0.59 0.47 0.30 0.28 0.15 0.07 0.04 0.14 0.22
1.28 1.08 0.93 1.28 1.31 1.14 0.84 0.64 0.87 1.50 1.69 1.08 0.91 0.71 0.88 0.88 0.66 0.79 1.30 1.20 1.09 1.08 1.06 0.96 0.61 0.69 0.51 0.70 0.38 0.42 0.17 0.24 0.40 0.59 0.94 0.41 0.54 0.55 0.41 0.31 0.15 0.05 0.06 0.16 0.24
1.24 1.17 1.07 1.05 0.98 0.98 0.84 0.61 1.28 1.67 2.05 1.95 1.44 1.26 0.78 0.56 0.53 0.97 1.32 0.99 0.91 0.95 1.00 0.59 0.44 0.88 0.75 0.59 0.54 0.41 0.43 0.41 0.65 0.78 1.26 0.49 0.49 0.64 0.55 0.42 0.29 0.05 0.12 0.22 0.25
1.21 1.41 1.31 0.79 0.89 0.85 1.31 1.13 1.53 1.20 1.13 1.41 1.12 0.57 0.40 0.52 0.83 1.15 1.22 0.79 1.12 1.57 1.45 1.24 0.99 0.84 0.76 0.99 1.03 0.72 0.92 1.40 1.36 1.57 0.79 0.47 0.48 0.67 0.49 0.27 0.25 0.17 0.26 0.31 0.28
1.42 1.45 1.47 1.01 0.94 0.99 1.80 1.29 1.14 0.74 0.95 0.82 0.41 0.39 0.50 0.39 0.57 0.75 0.98 0.50 0.31 0.47 0.78 0.96 1.41 1.19 0.78 0.87 1.21 0.97 0.87 1.03 0.73 0.63 0.54 0.34 0.71 0.78 0.47 0.41 0.36 0.33 0.36 0.31 0.30
1.77 1.97 1.74 1.48 1.20 1.32 1.48 1.20 0.96 0.92 0.93 0.47 0.32 0.37 0.40 0.18 0.28 0.53 0.43 0.24 0.15 0.16 0.63 0.47 0.76 0.58 0.77 0.62 0.80 0.82 0.73 0.50 0.78 0.36 0.42 0.42 0.70 0.76 0.60 0.57 0.32 0.47 0.31 0.34 0.32
2.35 2.66 1.63 1.35 1.47 1.46 1.32 1.04 0.63 0.41 0.28 0.18 0.29 0.14 0.10 0.06 0.11 0.12 0.17 0.06 0.07 0.03 0.20 0.36 0.73 0.96 0.85 0.78 0.65 0.57 0.33 0.54 1.10 0.69 0.38 0.22 0.23 0.82 0.81 0.44 0.22 0.25 0.22 0.16 0.08
2.36 2.50 1.68 1.75 2.08 2.06 1.55 1.11 0.45 0.18 0.15 0.15 0.09 0.04 0.02 0.01 0.02 0.06 0.06 0.02 0.02 0.06 0.19 0.50 0.97 1.03 1.06 0.78 0.51 0.61 0.59 0.39 0.52 0.44 0.28 0.14 0.28 0.47 0.39 0.17 0.08 0.08 0.06 0.03 0.06
2.22 2.01 1.92 2.35 2.56 1.80 1.08 0.78 0.47 0.16 0.17 0.14 0.12 0.03 0.01 0.01 0.02 0.05 0.05 0.05 0.03 0.10 0.30 0.40 0.79 0.80 0.65 0.18 0.13 0.23 0.24 0.18 0.66 0.43 0.37 0.33 0.32 0.14 0.09 0.10 0.03 0.07 0.02 0.01 0.02
2.00 1.85 2.76 1.57 1.10 0.73 0.47 0.44 0.30 0.10 0.15 0.19 0.12 0.01 0.01 0.03 0.03 0.02 0.01 0.01 0.00 0.02 0.20 0.44 1.01 0.82 0.70 0.48 0.49 0.69 0.33 0.37 0.62 0.99 0.75 0.40 0.25 0.02 0.00 0.00 0.01 0.01 0.02 0.02 0.01
1.87 1.90 3.74 2.47 0.61 0.18 0.42 0.46 0.30 0.06 0.08 0.14 0.12 0.03 0.05 0.03 0.01 0.01 0.00 0.00 0.00 0.00 0.16 0.72 0.81 0.86 0.71 0.63 0.88 0.72 0.34 0.53 1.07 1.14 0.37 0.18 0.09 0.02 0.01 0.01 0.02 0.04 0.04 0.02 0.02
1.30 0.79 0.85 0.98 0.50 0.11 0.36 0.34 0.37 0.23 0.13 0.17 0.12 0.04 0.07 0.03 0.01 0.01 0.00 0.00 0.00 0.00 0.16 0.66 1.15 1.28 0.54 0.32 0.69 0.60 0.31 0.43 0.98 0.55 0.51 0.16 0.06 0.03 0.04 0.05 0.07 0.09 0.08 0.06 0.06
0.77 0.58 0.12 0.07 0.06 0.16 0.23 0.28 0.34 0.34 0.28 0.20 0.15 0.04 0.04 0.05 0.01 0.01 0.00 0.00 0.01 0.01 0.15 0.55 0.95 0.81 0.34 0.20 0.40 0.47 0.23 0.35 0.56 0.41 0.30 0.12 0.11 0.06 0.04 0.06 0.06 0.17 0.11 0.08 0.08
0.69 0.50 0.15 0.12 0.13 0.10 0.08 0.12 0.23 0.37 0.24 0.09 0.09 0.11 0.07 0.03 0.01 0.00 0.00 0.00 0.00 0.01 0.07 0.36 0.63 0.82 0.65 0.41 0.55 0.52 0.26 0.31 0.41 0.35 0.24 0.14 0.12 0.04 0.05 0.12 0.27 0.46 0.11 0.05 0.02

GFSSW_prec_precacc_108.txt.gz
Total_Precipitation_Accumulation
0.23 0.26 0.30 0.33 0.33 0.31 0.32 0.34 0.43 0.50 0.51 0.46 0.47 0.55 0.67 0.71 0.67 0.43 0.19 0.07 0.09 0.18 0.32 0.11 0.10 0.09 0.14 0.25 0.58 0.92 1.13 0.67 0.14 0.04 0.02 0.01 0.01 0.01 0.01 0.00 0.01 0.01 0.12 0.10 0.26
0.27 0.35 0.36 0.34 0.33 0.28 0.30 0.33 0.42 0.51 0.60 0.56 0.64 0.71 0.62 0.59 0.46 0.40 0.26 0.34 0.34 0.51 0.32 0.21 0.16 0.22 0.25 0.33 0.84 1.40 1.34 0.40 0.09 0.06 0.02 0.04 0.01 0.01 0.02 0.01 0.06 0.10 0.09 0.06 0.22
0.37 0.40 0.36 0.38 0.36 0.35 0.35 0.40 0.46 0.45 0.50 0.54 0.59 0.72 0.77 0.73 0.40 0.13 0.21 0.30 0.53 0.71 0.45 0.20 0.26 0.37 0.27 0.40 0.56 1.05 1.09 0.29 0.29 0.26 0.24 0.13 0.04 0.01 0.05 0.05 0.01 0.05 0.12 0.22 0.29
0.41 0.43 0.44 0.40 0.44 0.51 0.48 0.56 0.55 0.46 0.43 0.43 0.42 0.59 0.84 0.74 0.43 0.14 0.14 0.27 0.51 0.95 0.65 0.49 0.47 0.50 0.21 0.21 0.25 0.55 0.60 0.43 0.47 0.47 0.47 0.18 0.10 0.07 0.05 0.02 0.01 0.06 0.27 0.41 0.54
0.51 0.59 0.48 0.44 0.44 0.49 0.50 0.39 0.45 0.47 0.46 0.36 0.39 0.91 0.80 0.56 0.14 0.16 0.11 0.19 0.60 0.95 0.54 0.44 0.43 0.35 0.13 0.09 0.21 0.36 0.46 0.56 0.71 0.62 0.47 0.32 0.19 0.11 0.05 0.02 0.04 0.20 0.39 0.49 0.76
0.56 0.59 0.49 0.53 0.55 0.48 0.34 0.37 0.40 0.42 0.56 0.57 0.73 0.81 0.67 0.33 0.04 0.10 0.12 0.39 0.62 0.78 0.62 0.55 0.47 0.36 0.24 0.13 0.27 0.18 0.44 0.68 0.97 0.79 0.86 0.47 0.24 0.18 0.06 0.10 0.18 0.40 0.38 0.40 0.46
0.68 0.67 0.59 0.63 0.54 0.44 0.36 0.44 0.56 0.50 0.54 0.63 0.83 0.85 0.51 0.11 0.08 0.17 0.12 0.54 0.97 0.69 0.73 0.62 0.72 0.76 0.49 0.26 0.14 0.23 0.65 0.99 1.08 1.23 1.21 0.87 0.70 0.22 0.04 0.11 0.26 0.36 0.41 0.53 0.50
0.77 0.69 0.62 0.72 0.59 0.54 0.49 0.54 0.65 0.74 0.98 0.95 1.01 0.93 0.47 0.05 0.09 0.16 0.22 0.37 0.80 1.04 0.99 1.09 0.79 0.91 0.56 0.41 0.32 0.51 0.94 1.00 0.93 1.30 1.91 1.55 0.81 0.19 0.10 0.16 0.20 0.41 0.62 0.57 0.43
0.84 0.78 0.81 0.89 0.78 0.72 0.86 0.91 0.72 0.68 1.03 1.21 1.18 0.85 0.40 0.15 0.10 0.09 0.23 0.39 0.72 1.49 1.85 2.06 1.72 1.23 0.65 0.65 0.61 0.56 0.57 0.73 0.73 0.77 1.87 1.75 1.02 0.40 0.19 0.13 0.12 0.19 0.41 0.63 0.72
1.02 1.10 1.01 0.77 0.89 0.86 0.95 1.76 1.49 0.88 1.05 1.34 1.14 0.89 0.27 0.22 0.18 0.20 0.30 0.50 0.80 1.64 2.42 2.83 2.66 1.54 0.62 0.69 0.48 0.19 0.24 0.34 0.62 0.60 1.10 1.62 0.99 0.71 0.39 0.19 0.06 0.10 0.17 0.29 0.61
1.13 1.12 0.86 0.80 0.85 0.74 0.99 1.49 1.65 1.70 1.55 1.12 0.50 0.36 0.28 0.40 0.47 0.50 0.53 0.67 1.43 2.02 2.30 2.43 2.03 1.26 0.34 0.20 0.21 0.13 0.21 0.23 0.49 0.69 0.54 0.89 0.90 0.73 0.49 0.47 0.14 0.12 0.13 0.22 0.51
0.92 0.85 0.78 0.78 0.88 1.15 1.30 1.36 1.01 1.13 1.24 0.78 0.25 0.22 0.16 0.38 0.75 0.68 0.80 1.36 1.72 2.04 1.77 1.95 1.09 0.71 0.62 0.33 0.31 0.26 0.26 0.25 0.40 0.70 0.62 0.58 0.66 0.50 0.48 0.32 0.21 0.10 0.07 0.19 0.39
0.80 0.76 0.79 0.94 1.01 1.38 1.21 0.71 0.55 0.83 1.33 1.04 0.47 0.42 0.36 0.46 0.82 0.73 1.14 1.54 1.62 1.51 1.16 1.21 0.60 0.37 0.61 0.55 0.46 0.26 0.22 0.20 0.38 0.47 0.42 0.47 0.58 0.44 0.37 0.27 0.13 0.07 0.06 0.11 0.24
0.90 0.96 1.03 1.17 1.35 1.00 1.20 0.78 0.69 1.11 1.52 1.20 0.81 0.83 0.53 1.02 1.21 0.56 1.63 1.59 1.70 1.35 1.03 1.18 0.68 0.46 0.44 0.74 0.42 0.30 0.14 0.24 0.49 0.57 0.53 0.43 0.61 0.47 0.30 0.28 0.15 0.07 0.04 0.14 0.22
1.29 1.09 0.93 1.28 1.31 1.15 0.85 0.64 0.87 1.50 1.72 1.13 0.93 0.71 0.88 0.88 0.66 0.79 1.30 1.20 1.09 1.08 1.06 0.96 0.61 0.69 0.51 0.70 0.39 0.43 0.17 0.24 0.40 0.60 0.97 0.41 0.63 0.56 0.42 0.31 0.15 0.05 0.06 0.16 0.25
1.25 1.18 1.07 1.05 0.98 0.98 0.84 0.61 1.28 1.68 2.10 2.00 1.48 1.29 0.78 0.56 0.53 0.97 1.32 0.99 0.91 0.95 1.00 0.59 0.44 0.88 0.75 0.59 0.54 0.41 0.43 0.41 0.65 0.81 1.33 0.52 0.55 0.69 0.58 0.43 0.29 0.05 0.12 0.23 0.28
1.21 1.41 1.31 0.79 0.89 0.85 1.31 1.13 1.53 1.24 1.17 1.43 1.15 0.57 0.40 0.52 0.83 1.15 1.22 0.79 1.12 1.57 1.45 1.24 0.99 0.84 0.76 0.99 1.03 0.72 0.93 1.41 1.41 1.69 0.84 0.50 0.52 0.71 0.50 0.28 0.25 0.17 0.29 0.38 0.36
1.42 1.45 1.47 1.01 0.94 0.99 1.80 1.29 1.19 0.81 0.97 0.82 0.41 0.39 0.50 0.39 0.57 0.75 0.98 0.50 0.31 0.47 0.78 0.96 1.41 1.19 0.78 0.87 1.21 0.97 0.89 1.11 0.81 0.72 0.61 0.36 0.78 0.94 0.66 0.52 0.50 0.41 0.64 0.68 0.42
1.77 1.97 1.74 1.48 1.20 1.32 1.48 1.21 1.01 0.94 0.94 0.47 0.32 0.37 0.40 0.18 0.28 0.53 0.43 0.24 0.15 0.16 0.63 0.47 0.76 0.58 0.77 0.62 0.80 0.83 0.80 0.65 0.94 0.51 0.48 0.50 0.82 1.00 0.98 1.02 0.63 0.92 0.81 0.66 0.50
2.35 2.66 1.63 1.35 1.47 1.46 1.32 1.06 0.64 0.41 0.28 0.18 0.29 0.14 0.10 0.06 0.11 0.12 0.17 0.07 0.09 0.04 0.20 0.36 0.73 0.96 0.85 0.78 0.65 0.57 0.38 0.62 1.17 0.79 0.45 0.24 0.34 1.19 1.23 0.83 0.61 0.55 0.44 0.38 0.32
2.36 2.50 1.68 1.75 2.08 2.06 1.56 1.13 0.45 0.18 0.15 0.15 0.09 0.04 0.02 0.01 0.03 0.06 0.08 0.04 0.04 0.11 0.20 0.52 0.98 1.03 1.06 0.78 0.51 0.62 0.64 0.39 0.53 0.45 0.32 0.18 0.53 0.87 0.78 0.44 0.21 0.18 0.22 0.22 0.23
2.22 2.01 1.92 2.35 2.56 1.80 1.08 0.78 0.47 0.16 0.17 0.14 0.12 0.03 0.01 0.01 0.02 0.07 0.09 0.06 0.03 0.11 0.31 0.41 0.79 0.80 0.65 0.18 0.13 0.24 0.25 0.18 0.66 0.43 0.37 0.36 0.55 0.48 0.35 0.26 0.12 0.10 0.07 0.05 0.05
2.00 1.85 2.76 1.57 1.10 0.73 0.47 0.44 0.30 0.10 0.15 0.19 0.12 0.01 0.01 0.03 0.03 0.02 0.01 0.01 0.00 0.02 0.20 0.44 1.01 0.82 0.70 0.48 0.49 0.69 0.33 0.37 0.62 0.99 0.75 0.41 0.34 0.05 0.03 0.05 0.05 0.02 0.02 0.02 0.01
1.87 1.90 3.74 2.47 0.61 0.18 0.42 0.46 0.30 0.06 0.08 0.14 0.12 0.03 0.05 0.03 0.01 0.01 0.00 0.00 0.00 0.00 0.16 0.72 0.81 0.86 0.71 0.63 0.88 0.72 0.34 0.53 1.07 1.14 0.37 0.18 0.09 0.02 0.01 0.01 0.02 0.04 0.04 0.02 0.02
1.30 0.79 0.85 0.98 0.50 0.11 0.36 0.34 0.37 0.23 0.13 0.17 0.12 0.04 0.07 0.03 0.01 0.01 0.00 0.00 0.00 0.00 0.16 0.66 1.15 1.28 0.54 0.32 0.69 0.60 0.31 0.43 0.98 0.55 0.51 0.16 0.06 0.03 0.04 0.05 0.07 0.09 0.08 0.06 0.06
0.77 0.58 0.12 0.07 0.06 0.16 0.23 0.28 0.34 0.34 0.28 0.20 0.15 0.04 0.04 0.05 0.01 0.01 0.00 0.00 0.01 0.01 0.15 0.55 0.95 0.81 0.34 0.20 0.40 0.47 0.23 0.35 0.56 0.41 0.30 0.12 0.11 0.06 0.04 0.06 0.06 0.17 0.11 0.08 0.08
0.69 0.50 0.15 0.12 0.13 0.10 0.08 0.12 0.23 0.37 0.24 0.09 0.09 0.11 0.07 0.03 0.01 0.00 0.00 0.00 0.00 0.01 0.07 0.36 0.63 0.82 0.65 0.41 0.55 0.52 0.26 0.31 0.41 0.35 0.24 0.14 0.12 0.04 0.05 0.12 0.27 0.46 0.11 0.05 0.02

GFSSW_prec_precacc_111.txt.gz
Total_Precipitation_Accumulation
0.28 0.31 0.36 0.38 0.35 0.32 0.32 0.34 0.43 0.51 0.58 0.57 0.51 0.56 0.67 0.71 0.67 0.43 0.19 0.07 0.09 0.18 0.32 0.11 0.10 0.09 0.14 0.25 0.58 0.92 1.13 0.67 0.14 0.04 0.02 0.01 0.01 0.01 0.01 0.00 0.01 0.01 0.12 0.10 0.26
0.33 0.42 0.43 0.38 0.36 0.32 0.31 0.33 0.42 0.51 0.62 0.68 0.73 0.72 0.62 0.59 0.46 0.40 0.26 0.34 0.34 0.51 0.32 0.21 0.16 0.22 0.25 0.33 0.84 1.40 1.34 0.40 0.09 0.06 0.02 0.04 0.01 0.01 0.02 0.01 0.06 0.10 0.09 0.06 0.22
0.41 0.45 0.43 0.43 0.40 0.39 0.37 0.41 0.46 0.45 0.51 0.64 0.70 0.75 0.78 0.73 0.40 0.13 0.21 0.30 0.53 0.71 0.45 0.20 0.26 0.37 0.27 0.40 0.56 1.05 1.09 0.29 0.29 0.26 0.24 0.13 0.04 0.01 0.05 0.05 0.01 0.05 0.12 0.22 0.29
0.44 0.47 0.49 0.44 0.49 0.55 0.49 0.56 0.55 0.46 0.43 0.48 0.73 0.71 0.84 0.74 0.43 0.14 0.14 0.27 0.51 0.95 0.65 0.49 0.47 0.50 0.21 0.21 0.25 0.55 0.60 0.43 0.47 0.47 0.47 0.18 0.10 0.07 0.05 0.02 0.01 0.06 0.27 0.41 0.54
0.55 0.62 0.53 0.49 0.49 0.53 0.51 0.40 0.45 0.47 0.46 0.38 0.58 1.05 0.82 0.56 0.14 0.16 0.11 0.19 0.60 0.95 0.54 0.44 0.43 0.35 0.13 0.09 0.21 0.36 0.46 0.56 0.71 0.62 0.47 0.32 0.19 0.11 0.05 0.02 0.04 0.20 0.39 0.49 0.76
0.62 0.63 0.53 0.57 0.66 0.56 0.36 0.37 0.40 0.42 0.56 0.60 0.94 0.86 0.68 0.35 0.04 0.10 0.12 0.39 0.62 0.78 0.62 0.55 0.47 0.36 0.24 0.13 0.27 0.18 0.44 0.68 0.97 0.79 0.86 0.47 0.24 0.18 0.06 0.10 0.18 0.40 0.38 0.40 0.46
0.71 0.69 0.61 0.71 0.64 0.49 0.38 0.44 0.56 0.50 0.54 0.80 1.04 1.01 0.59 0.14 0.09 0.17 0.12 0.54 0.97 0.69 0.73 0.62 0.72 0.76 0.49 0.26 0.14 0.23 0.65 0.99 1.08 1.23 1.21 0.87 0.70 0.22 0.04 0.11 0.26 0.36 0.41 0.53 0.50
0.79 0.70 0.62 0.76 0.70 0.63 0.50 0.54 0.65 0.74 0.99 1.37 1.62 1.02 0.63 0.09 0.10 0.17 0.22 0.37 0.80 1.04 0.99 1.09 0.79 0.91 0.56 0.41 0.32 0.51 0.94 1.00 0.93 1.30 1.91 1.55 0.81 0.19 0.10 0.16 0.20 0.41 0.62 0.57 0.43
0.86 0.82 0.86 0.93 0.86 0.86 0.88 0.91 0.76 0.70 1.14 1.62 1.49 0.95 0.54 0.20 0.14 0.09 0.23 0.39 0.72 1.49 1.85 2.06 1.72 1.23 0.65 0.65 0.61 0.56 0.57 0.73 0.73 0.77 1.87 1.75 1.02 0.40 0.19 0.13 0.12 0.19 0.41 0.63 0.72
1.04 1.29 1.19 0.85 0.95 0.93 0.96 1.89 1.93 0.98 1.38 1.63 1.28 1.00 0.41 0.26 0.20 0.23 0.30 0.50 0.80 1.64 2.42 2.83 2.66 1.54 0.62 0.69 0.48 0.19 0.24 0.34 0.62 0.60 1.10 1.62 0.99 0.71 0.39 0.19 0.06 0.10 0.17 0.29 0.61
1.15 1.17 0.90 0.86 0.89 0.77 1.00 1.71 1.91 1.88 1.81 1.32 0.58 0.41 0.30 0.41 0.47 0.51 0.53 0.67 1.43 2.03 2.31 2.43 2.03 1.26 0.34 0.20 0.21 0.13 0.21 0.23 0.49 0.69 0.54 0.89 0.90 0.73 0.49 0.47 0.14 0.12 0.13 0.22 0.51
0.92 0.86 0.81 0.82 0.95 1.18 1.32 1.46 1.19 1.41 1.61 0.94 0.27 0.22 0.18 0.40 0.76 0.68 0.80 1.36 1.72 2.04 1.77 1.95 1.09 0.71 0.62 0.33 0.31 0.26 0.26 0.25 0.40 0.70 0.62 0.58 0.66 0.50 0.48 0.32 0.21 0.10 0.07 0.19 0.39
0.80 0.76 0.79 0.94 1.02 1.38 1.24 0.75 0.62 0.96 1.54 1.19 0.52 0.45 0.36 0.46 0.82 0.73 1.14 1.54 1.62 1.51 1.16 1.21 0.60 0.37 0.61 0.55 0.46 0.26 0.22 0.20 0.38 0.47 0.42 0.47 0.58 0.44 0.37 0.27 0.13 0.07 0.06 0.11 0.24
0.90 0.96 1.03 1.17 1.35 1.00 1.20 0.78 0.69 1.12 1.56 1.40 0.90 0.90 0.53 1.02 1.21 0.56 1.63 1.59 1.70 1.35 1.03 1.18 0.68 0.46 0.44 0.74 0.42 0.30 0.14 0.24 0.49 0.58 0.53 0.43 0.62 0.47 0.30 0.28 0.15 0.07 0.04 0.14 0.22
1.29 1.09 0.93 1.28 1.31 1.15 0.85 0.64 0.87 1.50 1.74 1.18 0.96 0.73 0.89 0.88 0.66 0.79 1.30 1.20 1.09 1.08 1.06 0.96 0.61 0.69 0.51 0.70 0.39 0.43 0.17 0.24 0.40 0.60 0.98 0.42 0.66 0.56 0.42 0.31 0.15 0.05 0.06 0.16 0.25
1.25 1.18 1.07 1.05 0.98 0.98 0.84 0.61 1.28 1.68 2.13 2.01 1.49 1.30 0.78 0.56 0.53 0.97 1.32 0.99 0.91 0.95 1.00 0.59 0.44 0.88 0.75 0.59 0.55 0.41 0.43 0.41 0.65 0.82 1.36 0.53 0.62 0.70 0.58 0.44 0.29 0.05 0.12 0.23 0.28
1.21 1.41 1.31 0.79 0.89 0.85 1.31 1.13 1.53 1.25 1.19 1.45 1.17 0.57 0.40 0.52 0.83 1.15 1.22 0.79 1.12 1.57 1.45 1.24 0.99 0.84 0.76 0.99 1.03 0.72 0.93 1.41 1.42 1.73 0.86 0.52 0.59 0.73 0.52 0.28 0.25 0.17 0.29 0.40 0.40
1.42 1.45 1.47 1.01 0.94 0.99 1.80 1.29 1.21 0.83 0.97 0.82 0.41 0.39 0.50 0.39 0.57 0.75 0.98 0.50 0.31 0.47 0.78 0.96 1.41 1.19 0.78 0.87 1.21 0.97 0.89 1.15 0.84 0.74 0.62 0.37 0.83 1.01 0.74 0.55 0.51 0.42 0.67 0.95 0.90
1.77 1.97 1.74 1.48 1.20 1.32 1.48 1.21 1.03 0.94 0.94 0.47 0.32 0.37 0.40 0.18 0.28 0.53 0.43 0.24 0.15 0.16 0.63 0.48 0.76 0.58 0.77 0.62 0.80 0.83 0.82 0.70 1.00 0.55 0.55 0.55 0.92 1.19 1.25 1.18 0.69 1.11 1.24 1.14 0.78
2.35 2.66 1.63 1.35 1.47 1.46 1.32 1.06 0.64 0.41 0.28 0.18 0.29 0.14 0.10 0.06 0.11 0.12 0.17 0.07 0.11 0.04 0.21 0.37 0.74 0.96 0.85 0.78 0.65 0.58 0.43 0.67 1.21 0.84 0.50 0.31 0.45 1.48 1.60 1.15 0.91 0.97 0.87 0.68 0.61
2.36 2.50 1.68 1.75 2.08 2.06 1.56 1.13 0.45 0.18 0.15 0.15 0.09 0.04 0.02 0.01 0.03 0.11 0.13 0.07 0.06 0.12 0.22 0.53 0.98 1.03 1.06 0.78 0.51 0.65 0.69 0.41 0.53 0.45 0.34 0.22 0.71 1.18 1.14 0.77 0.50 0.51 0.54 0.53 0.51
2.22 2.01 1.92 2.35 2.56 1.80 1.08 0.78 0.47 0.16 0.17 0.14 0.12 0.03 0.01 0.01 0.03 0.11 0.11 0.08 0.03 0.11 0.31 0.41 0.79 0.80 0.65 0.18 0.13 0.24 0.25 0.19 0.67 0.44 0.37 0.37 0.72 0.78 0.68 0.49 0.27 0.26 0.18 0.13 0.09
2.00 1.85 2.76 1.57 1.10 0.73 0.47 0.44 0.30 0.10 0.15 0.19 0.12 0.01 0.01 0.03 0.03 0.02 0.01 0.01 0.00 0.02 0.20 0.44 1.01 0.82 0.70 0.48 0.49 0.69 0.33 0.37 0.62 0.99 0.75 0.42 0.42 0.13 0.15 0.13 0.07 0.02 0.02 0.02 0.01
1.87 1.90 3.74 2.47 0.61 0.18 0.42 0.46 0.30 0.06 0.08 0.14 0.12 0.03 0.05 0.03 0.01 0.01 0.00 0.00 0.00 0.00 0.16 0.72 0.81 0.86 0.71 0.63 0.88 0.72 0.34 0.53 1.08 1.15 0.37 0.18 0.09 0.02 0.01 0.01 0.02 0.04 0.04 0.02 0.02
1.30 0.79 0.85 0.98 0.50 0.11 0.36 0.34 0.37 0.23 0.13 0.17 0.12 0.04 0.07 0.03 0.01 0.01 0.00 0.00 0.00 0.00 0.16 0.66 1.15 1.28 0.54 0.32 0.69 0.60 0.31 0.43 0.98 0.55 0.51 0.16 0.06 0.03 0.04 0.05 0.07 0.09 0.08 0.06 0.06
0.77 0.58 0.12 0.07 0.06 0.16 0.23 0.28 0.34 0.34 0.28 0.20 0.15 0.04 0.04 0.05 0.01 0.01 0.00 0.00 0.01 0.01 0.15 0.55 0.95 0.81 0.34 0.20 0.40 0.47 0.23 0.35 0.56 0.41 0.30 0.12 0.11 0.06 0.04 0.06 0.06 0.17 0.11 0.08 0.08
0.69 0.50 0.15 0.12 0.13 0.10 0.08 0.12 0.23 0.37 0.24 0.09 0.09 0.11 0.07 0.03 0.01 0.00 0.00 0.00 0.00 0.01 0.07 0.36 0.63 0.82 0.65 0.41 0.55 0.52 0.26 0.31 0.41 0.35 0.24 0.14 0.12 0.04 0.05 0.12 0.27 0.46 0.11 0.05 0.02

GFSSW_prec_precacc_114.txt.gz
Total_Precipitation_Accumulation
0.29 0.33 0.40 0.45 0.43 0.39 0.37 0.35 0.43 0.51 0.59 0.59 0.60 0.67 0.67 0.71 0.67 0.43 0.19 0.07 0.09 0.18 0.32 0.11 0.10 0.09 0.14 0.25 0.58 0.92 1.13 0.67 0.14 0.04 0.02 0.01 0.01 0.01 0.01 0.00 0.01 0.01 0.12 0.10 0.26
0.38 0.45 0.47 0.43 0.39 0.35 0.34 0.34 0.43 0.51 0.62 0.69 0.79 0.86 0.65 0.59 0.46 0.40 0.26 0.34 0.34 0.51 0.32 0.21 0.16 0.22 0.25 0.33 0.84 1.40 1.34 0.40 0.09 0.06 0.02 0.04 0.01 0.01 0.02 0.01 0.06 0.10 0.09 0.06 0.22
0.57 0.54 0.49 0.49 0.46 0.45 0.40 0.41 0.46 0.45 0.51 0.64 0.73 0.94 0.80 0.73 0.40 0.13 0.21 0.30 0.53 0.71 0.45 0.20 0.26 0.37 0.27 0.40 0.56 1.05 1.09 0.29 0.29 0.26 0.24 0.13 0.04 0.01 0.05 0.05 0.01 0.05 0.12 0.22 0.29
0.67 0.62 0.54 0.47 0.53 0.62 0.54 0.59 0.55 0.46 0.43 0.48 0.79 0.85 0.95 0.77 0.43 0.14 0.14 0.27 0.51 0.95 0.65 0.49 0.47 0.50 0.21 0.21 0.25 0.55 0.60 0.43 0.47 0.47 0.47 0.18 0.10 0.07 0.05 0.02 0.01 0.06 0.27 0.41 0.54
0.69 0.70 0.54 0.49 0.50 0.56 0.55 0.47 0.48 0.47 0.46 0.38 0.85 1.43 0.90 0.66 0.17 0.16 0.12 0.19 0.60 0.95 0.54 0.44 0.43 0.35 0.13 0.09 0.21 0.36 0.46 0.56 0.71 0.62 0.47 0.32 0.19 0.11 0.05 0.02 0.04 0.20 0.39 0.49 0.76
0.72 0.69 0.55 0.57 0.66 0.57 0.37 0.42 0.44 0.42 0.56 0.60 1.15 1.40 0.84 0.48 0.07 0.10 0.12 0.39 0.62 0.78 0.62 0.55 0.47 0.36 0.24 0.13 0.27 0.18 0.44 0.68 0.97 0.79 0.86 0.47 0.24 0.18 0.06 0.10 0.18 0.40 0.38 0.40 0.46
0.74 0.70 0.62 0.71 0.64 0.51 0.43 0.48 0.57 0.50 0.54 0.80 1.15 1.32 0.75 0.20 0.10 0.18 0.12 0.54 0.97 0.69 0.73 0.62 0.72 0.76 0.49 0.26 0.14 0.23 0.65 0.99 1.08 1.23 1.21 0.87 0.70 0.22 0.04 0.11 0.26 0.36 0.41 0.53 0.50
0.81 0.71 0.63 0.77 0.70 0.66 0.56 0.54 0.65 0.74 0.99 1.47 1.79 1.18 0.85 0.16 0.12 0.19 0.22 0.37 0.80 1.04 0.99 1.09 0.79 0.91 0.56 0.41 0.32 0.51 0.94 1.00 0.93 1.30 1.91 1.55 0.81 0.19 0.10 0.16 0.20 0.41 0.62 0.57 0.43
0.87 0.85 0.91 0.98 0.86 0.89 0.92 0.92 0.80 0.73 1.19 1.86 1.78 1.14 0.72 0.30 0.24 0.14 0.23 0.39 0.72 1.49 1.85 2.06 1.72 1.23 0.65 0.65 0.61 0.56 0.57 0.73 0.73 0.77 1.87 1.75 1.02 0.40 0.19 0.13 0.12 0.19 0.41 0.63 0.72
1.04 1.29 1.24 0.92 0.99 1.01 0.98 1.90 1.97 1.00 1.54 1.86 1.53 1.15 0.55 0.39 0.27 0.23 0.30 0.50 0.80 1.64 2.42 2.83 2.66 1.54 0.62 0.69 0.48 0.19 0.24 0.34 0.62 0.60 1.10 1.62 0.99 0.71 0.39 0.19 0.06 0.10 0.17 0.29 0.61
1.15 1.17 0.92 0.90 0.91 0.81 1.01 1.78 1.95 1.93 2.03 1.60 0.71 0.45 0.36 0.50 0.48 0.51 0.53 0.67 1.43 2.03 2.31 2.43 2.03 1.26 0.34 0.20 0.21 0.13 0.21 0.23 0.49 0.69 0.54 0.89 0.90 0.73 0.49 0.47 0.14 0.12 0.13 0.22 0.51
0.92 0.86 0.82 0.84 0.97 1.19 1.33 1.57 1.23 1.55 1.99 1.26 0.38 0.28 0.27 0.44 0.77 0.68 0.80 1.36 1.72 2.04 1.77 1.96 1.09 0.71 0.62 0.33 0.31 0.26 0.26 0.25 0.40 0.70 0.62 0.58 0.66 0.50 0.48 0.32 0.21 0.10 0.07 0.19 0.39
0.80 0.76 0.79 0.95 1.03 1.40 1.30 0.88 0.81 1.06 1.71 1.48 0.72 0.55 0.43 0.48 0.82 0.73 1.14 1.54 1.62 1.51 1.16 1.21 0.60 0.37 0.61 0.55 0.46 0.26 0.22 0.20 0.38 0.47 0.42 0.47 0.58 0.44 0.37 0.27 0.13 0.07 0.06 0.11 0.24
0.90 0.96 1.03 1.17 1.35 1.00 1.25 0.88 0.78 1.14 1.62 1.61 0.99 0.95 0.54 1.02 1.21 0.56 1.63 1.59 1.70 1.35 1.03 1.18 0.68 0.46 0.44 0.74 0.42 0.30 0.14 0.24 0.49 0.59 0.53 0.43 0.64 0.47 0.30 0.28 0.15 0.07 0.04 0.14 0.22
1.29 1.09 0.93 1.28 1.31 1.16 0.85 0.64 0.87 1.50 1.76 1.22 0.98 0.74 0.89 0.88 0.66 0.79 1.30 1.20 1.09 1.08 1.06 0.96 0.61 0.69 0.51 0.70 0.39 0.43 0.17 0.24 0.40 0.61 1.00 0.42 0.70 0.56 0.42 0.31 0.15 0.05 0.06 0.16 0.25
1.25 1.18 1.07 1.05 0.98 0.98 0.84 0.61 1.28 1.68 2.16 2.02 1.50 1.31 0.78 0.56 0.53 0.97 1.32 0.99 0.91 0.95 1.00 0.59 0.44 0.88 0.75 0.59 0.55 0.41 0.44 0.41 0.65 0.83 1.39 0.54 0.66 0.71 0.59 0.46 0.30 0.05 0.12 0.23 0.28
1.21 1.41 1.31 0.79 0.89 0.85 1.31 1.13 1.53 1.26 1.20 1.46 1.17 0.57 0.40 0.52 0.83 1.15 1.22 0.79 1.12 1.57 1.45 1.24 0.99 0.84 0.76 0.99 1.03 0.73 0.94 1.41 1.42 1.74 0.86 0.54 0.66 0.75 0.58 0.30 0.26 0.18 0.30 0.40 0.40
1.42 1.45 1.47 1.01 0.94 0.99 1.80 1.29 1.21 0.84 0.97 0.82 0.41 0.39 0.50 0.39 0.57 0.75 0.98 0.50 0.31 0.47 0.78 0.96 1.41 1.19 0.78 0.87 1.21 0.97 0.90 1.16 0.85 0.74 0.62 0.38 0.86 1.04 0.84 0.61 0.55 0.43 0.68 0.97 1.06
1.77 1.97 1.74 1.48 1.20 1.32 1.48 1.21 1.03 0.94 0.94 0.47 0.32 0.37 0.40 0.18 0.28 0.53 0.43 0.24 0.15 0.16 0.63 0.48 0.76 0.58 0.77 0.62 0.81 0.83 0.84 0.74 1.05 0.56 0.59 0.59 0.95 1.21 1.31 1.21 0.71 1.17 1.27 1.35 1.33
2.35 2.66 1.63 1.35 1.47 1.46 1.32 1.06 0.64 0.41 0.28 0.18 0.29 0.14 0.10 0.06 0.11 0.12 0.17 0.07 0.11 0.04 0.21 0.37 0.74 0.96 0.85 0.78 0.65 0.59 0.45 0.70 1.24 0.87 0.56 0.38 0.49 1.56 1.73 1.28 1.05 1.13 1.17 1.05 1.06
2.36 2.50 1.68 1.75 2.08 2.06 1.56 1.13 0.45 0.18 0.15 0.15 0.09 0.04 0.02 0.02 0.05 0.13 0.14 0.07 0.06 0.13 0.23 0.54 0.99 1.03 1.06 0.78 0.52 0.67 0.72 0.42 0.55 0.47 0.39 0.26 0.78 1.34 1.35 1.03 0.76 0.79 0.83 0.80 0.76
2.22 2.01 1.92 2.35 2.56 1.80 1.08 0.78 0.47 0.16 0.17 0.14 0.12 0.03 0.01 0.02 0.04 0.13 0.12 0.09 0.03 0.11 0.31 0.41 0.79 0.80 0.65 0.18 0.13 0.25 0.26 0.19 0.67 0.44 0.37 0.38 0.82 0.94 0.90 0.71 0.45 0.38 0.25 0.17 0.11
2.00 1.85 2.76 1.57 1.10 0.73 0.47 0.44 0.30 0.10 0.15 0.19 0.12 0.01 0.01 0.03 0.03 0.02 0.01 0.01 0.00 0.02 0.20 0.44 1.01 0.82 0.70 0.48 0.49 0.69 0.33 0.37 0.63 0.99 0.75 0.42 0.51 0.22 0.22 0.17 0.09 0.03 0.02 0.02 0.01
1.87 1.90 3.74 2.47 0.61 0.18 0.42 0.46 0.30 0.06 0.08 0.14 0.12 0.03 0.05 0.03 0.01 0.01 0.00 0.00 0.00 0.00 0.16 0.72 0.81 0.86 0.71 0.63 0.88 0.72 0.34 0.53 1.08 1.15 0.37 0.18 0.10 0.02 0.02 0.01 0.02 0.04 0.04 0.02 0.02
1.30 0.79 0.85 0.98 0.50 0.11 0.36 0.34 0.37 0.23 0.13 0.17 0.12 0.04 0.07 0.03 0.01 0.01 0.00 0.00 0.00 0.00 0.16 0.66 1.15 1.28 0.54 0.32 0.69 0.60 0.31 0.43 0.98 0.55 0.51 0.16 0.06 0.03 0.04 0.05 0.07 0.09 0.08 0.06 0.06
0.77 0.58 0.12 0.07 0.06 0.16 0.23 0.28 0.34 0.34 0.28 0.20 0.15 0.04 0.04 0.05 0.01 0.01 0.00 0.00 0.01 0.01 0.15 0.55 0.95 0.81 0.34 0.20 0.40 0.47 0.23 0.35 0.56 0.41 0.30 0.12 0.11 0.06 0.04 0.06 0.06 0.17 0.11 0.08 0.08
0.69 0.50 0.15 0.12 0.13 0.10 0.08 0.12 0.23 0.37 0.24 0.09 0.09 0.11 0.07 0.03 0.01 0.00 0.00 0.00 0.00 0.01 0.07 0.36 0.63 0.82 0.65 0.41 0.55 0.52 0.26 0.31 0.41 0.35 0.24 0.14 0.12 0.04 0.05 0.12 0.27 0.46 0.11 0.05 0.02

GFSSW_prec_precacc_117.txt.gz
Total_Precipitation_Accumulation
0.45 0.48 0.47 0.51 0.46 0.44 0.44 0.42 0.46 0.52 0.59 0.63 0.64 0.81 0.73 0.71 0.67 0.43 0.19 0.07 0.09 0.18 0.32 0.11 0.10 0.09 0.14 0.25 0.58 0.92 1.13 0.67 0.14 0.04 0.02 0.01 0.01 0.01 0.01 0.00 0.01 0.01 0.12 0.10 0.26
0.51 0.67 0.64 0.57 0.49 0.40 0.39 0.40 0.47 0.51 0.62 0.70 0.85 0.93 0.80 0.60 0.46 0.40 0.26 0.34 0.34 0.51 0.32 0.21 0.16 0.22 0.25 0.33 0.84 1.40 1.34 0.40 0.09 0.06 0.02 0.04 0.01 0.01 0.02 0.01 0.06 0.10 0.09 0.06 0.22
0.69 0.75 0.76 0.66 0.59 0.59 0.51 0.50 0.47 0.45 0.51 0.64 0.75 1.05 0.88 0.77 0.40 0.13 0.21 0.30 0.53 0.71 0.45 0.20 0.26 0.37 0.27 0.40 0.56 1.05 1.09 0.29 0.29 0.26 0.24 0.13 0.04 0.01 0.05 0.05 0.01 0.05 0.12 0.22 0.29
0.73 0.76 0.70 0.62 0.61 0.73 0.74 0.71 0.59 0.47 0.43 0.48 0.79 1.00 1.08 0.80 0.44 0.14 0.14 0.27 0.51 0.95 0.65 0.49 0.47 0.50 0.21 0.21 0.25 0.55 0.60 0.43 0.47 0.47 0.47 0.18 0.10 0.07 0.05 0.02 0.01 0.06 0.27 0.41 0.54
0.78 0.83 0.61 0.59 0.54 0.56 0.57 0.54 0.57 0.55 0.46 0.38 0.86 1.54 1.01 0.83 0.25 0.16 0.16 0.20 0.60 0.95 0.54 0.44 0.43 0.35 0.13 0.09 0.21 0.36 0.46 0.56 0.71 0.62 0.47 0.32 0.19 0.11 0.05 0.02 0.04 0.20 0.39 0.49 0.76
0.75 0.71 0.55 0.57 0.67 0.57 0.37 0.42 0.51 0.47 0.57 0.60 1.21 1.52 0.90 0.55 0.16 0.14 0.16 0.39 0.62 0.78 0.62 0.55 0.47 0.36 0.24 0.13 0.27 0.18 0.44 0.68 0.97 0.79 0.86 0.47 0.24 0.18 0.06 0.10 0.18 0.40 0.38 0.40 0.46
0.74 0.70 0.62 0.71 0.64 0.51 0.43 0.48 0.57 0.50 0.54 0.80 1.27 1.56 0.95 0.33 0.19 0.27 0.14 0.54 0.97 0.69 0.73 0.62 0.72 0.76 0.49 0.26 0.14 0.23 0.65 0.99 1.08 1.23 1.21 0.87 0.70 0.22 0.04 0.11 0.26 0.36 0.41 0.53 0.50
0.81 0.72 0.64 0.78 0.71 0.67 0.57 0.55 0.65 0.74 0.99 1.47 1.87 1.36 1.09 0.29 0.27 0.31 0.22 0.37 0.80 1.04 0.99 1.09 0.79 0.91 0.56 0.41 0.32 0.51 0.94 1.00 0.93 1.30 1.91 1.55 0.81 0.19 0.10 0.16 0.20 0.41 0.62 0.57 0.43
0.88 0.87 0.95 0.99 0.87 0.89 0.94 1.00 0.86 0.75 1.24 1.88 1.81 1.23 0.91 0.46 0.34 0.17 0.23 0.39 0.72 1.49 1.85 2.06 1.72 1.23 0.65 0.65 0.61 0.56 0.57 0.73 0.73 0.77 1.87 1.75 1.02 0.40 0.19 0.13 0.12 0.19 0.41 0.63 0.72
1.06 1.32 1.28 0.94 1.01 1.05 1.04 1.94 2.00 1.00 1.55 1.88 1.60 1.33 0.73 0.61 0.34 0.25 0.30 0.50 0.80 1.64 2.42 2.83 2.66 1.54 0.62 0.69 0.48 0.19 0.24 0.34 0.62 0.60 1.10 1.62 0.99 0.71 0.39 0.19 0.06 0.10 0.17 0.29 0.61
1.16 1.18 0.95 0.93 0.93 0.81 1.01 1.78 1.95 2.00 2.26 1.75 0.83 0.56 0.47 0.64 0.50 0.52 0.53 0.67 1.43 2.03 2.31 2.43 2.03 1.26 0.34 0.20 0.21 0.13 0.21 0.23 0.49 0.69 0.54 0.89 0.90 0.73 0.49 0.47 0.14 0.12 0.13 0.22 0.51
0.92 0.86 0.83 0.88 1.00 1.19 1.33 1.57 1.27 1.68 2.38 1.58 0.56 0.44 0.42 0.50 0.77 0.68 0.80 1.36 1.72 2.04 1.77 1.96 1.09 0.71 0.62 0.33 0.31 0.26 0.26 0.25 0.40 0.70 0.62 0.58 0.66 0.50 0.48 0.32 0.21 0.10 0.07 0.19 0.39
0.80 0.76 0.79 0.95 1.03 1.40 1.30 0.94 0.94 1.11 1.89 1.80 0.95 0.76 0.63 0.52 0.83 0.73 1.14 1.54 1.62 1.51 1.16 1.21 0.60 0.37 0.61 0.55 0.46 0.26 0.22 0.20 0.38 0.47 0.42 0.47 0.58 0.44 0.37 0.27 0.13 0.07 0.06 0.11 0.24
0.90 0.96 1.03 1.17 1.35 1.01 1.27 0.93 0.82 1.14 1.66 1.78 1.08 1.01 0.57 1.02 1.21 0.56 1.63 1.59 1.70 1.35 1.03 1.18 0.68 0.46 0.44 0.74 0.42 0.30 0.14 0.24 0.49 0.59 0.53 0.43 0.66 0.47 0.30 0.28 0.15 0.07 0.04 0.14 0.22
1.29 1.09 0.93 1.28 1.31 1.16 0.86 0.64 0.87 1.50 1.77 1.26 1.01 0.74 0.89 0.88 0.66 0.79 1.30 1.20 1.09 1.08 1.06 0.96 0.61 0.69 0.51 0.70 0.39 0.43 0.17 0.24 0.40 0.61 1.01 0.42 0.73 0.56 0.42 0.31 0.15 0.05 0.06 0.17 0.25
1.25 1.18 1.07 1.05 0.98 0.98 0.84 0.61 1.28 1.68 2.19 2.03 1.50 1.31 0.78 0.56 0.53 0.97 1.32 0.99 0.91 0.95 1.00 0.59 0.44 0.88 0.75 0.59 0.55 0.41 0.44 0.41 0.65 0.84 1.40 0.54 0.68 0.72 0.59 0.52 0.31 0.06 0.13 0.25 0.29
1.21 1.41 1.31 0.79 0.89 0.85 1.31 1.13 1.53 1.26 1.21 1.46 1.17 0.57 0.40 0.52 0.83 1.15 1.22 0.79 1.12 1.57 1.45 1.24 0.99 0.84 0.76 0.99 1.03 0.73 0.94 1.41 1.42 1.74 0.86 0.54 0.69 0.76 0.62 0.38 0.31 0.21 0.33 0.40 0.40
1.42 1.45 1.47 1.01 0.94 0.99 1.80 1.29 1.22 0.86 0.98 0.82 0.41 0.39 0.50 0.39 0.57 0.75 0.98 0.50 0.31 0.47 0.78 0.96 1.41 1.19 0.78 0.87 1.21 0.97 0.90 1.17 0.86 0.74 0.62 0.38 0.87 1.05 0.88 0.70 0.60 0.45 0.70 0.98 1.07
1.77 1.97 1.74 1.48 1.20 1.32 1.48 1.21 1.04 0.95 0.94 0.47 0.32 0.37 0.40 0.18 0.28 0.53 0.43 0.24 0.15 0.16 0.63 0.48 0.76 0.58 0.77 0.62 0.81 0.83 0.85 0.75 1.07 0.56 0.60 0.59 0.95 1.22 1.31 1.24 0.73 1.19 1.30 1.36 1.42
2.35 2.66 1.63 1.35 1.47 1.46 1.32 1.06 0.64 0.41 0.28 0.18 0.29 0.14 0.10 0.06 0.11 0.12 0.17 0.07 0.11 0.04 0.21 0.37 0.74 0.96 0.85 0.78 0.65 0.59 0.46 0.72 1.26 0.89 0.57 0.39 0.50 1.59 1.75 1.31 1.10 1.24 1.25 1.19 1.37
2.36 2.50 1.68 1.75 2.08 2.06 1.56 1.13 0.45 0.18 0.15 0.15 0.09 0.04 0.02 0.02 0.05 0.13 0.14 0.07 0.06 0.13 0.23 0.55 0.99 1.03 1.06 0.78 0.53 0.69 0.75 0.45 0.57 0.49 0.42 0.26 0.78 1.40 1.41 1.11 0.90 0.90 0.92 0.92 0.91
2.22 2.01 1.92 2.35 2.56 1.80 1.08 0.78 0.47 0.16 0.17 0.14 0.12 0.03 0.01 0.02 0.04 0.13 0.12 0.09 0.03 0.11 0.31 0.41 0.79 0.81 0.65 0.18 0.13 0.25 0.26 0.19 0.69 0.49 0.39 0.39 0.84 0.96 0.92 0.78 0.56 0.46 0.29 0.18 0.12
2.00 1.85 2.76 1.57 1.10 0.73 0.47 0.44 0.30 0.10 0.15 0.19 0.12 0.01 0.01 0.03 0.03 0.02 0.01 0.01 0.00 0.02 0.20 0.44 1.01 0.82 0.70 0.48 0.49 0.69 0.33 0.37 0.63 0.99 0.76 0.42 0.53 0.25 0.24 0.18 0.12 0.04 0.02 0.02 0.01
1.87 1.90 3.74 2.47 0.61 0.18 0.42 0.46 0.30 0.06 0.08 0.14 0.12 0.03 0.05 0.03 0.01 0.01 0.00 0.00 0.00 0.00 0.16 0.72 0.81 0.86 0.71 0.63 0.88 0.72 0.34 0.53 1.08 1.15 0.37 0.18 0.10 0.04 0.03 0.01 0.02 0.04 0.04 0.02 0.02
1.30 0.79 0.85 0.98 0.50 0.11 0.36 0.34 0.37 0.23 0.13 0.17 0.12 0.04 0.07 0.03 0.01 0.01 0.00 0.00 0.00 0.00 0.16 0.66 1.15 1.28 0.54 0.32 0.69 0.60 0.31 0.43 0.98 0.55 0.51 0.16 0.06 0.03 0.04 0.05 0.07 0.09 0.08 0.06 0.06
0.77 0.58 0.12 0.07 0.06 0.16 0.23 0.28 0.34 0.34 0.28 0.20 0.15 0.04 0.04 0.05 0.01 0.01 0.00 0.00 0.01 0.01 0.15 0.55 0.95 0.81 0.34 0.20 0.40 0.47 0.23 0.35 0.56 0.41 0.30 0.12 0.11 0.06 0.04 0.06 0.06 0.17 0.11 0.08 0.08
0.69 0.50 0.15 0.12 0.13 0.10 0.08 0.12 0.23 0.37 0.24 0.09 0.09 0.11 0.07 0.03 0.01 0.00 0.00 0.00 0.00 0.01 0.07 0.36 0.63 0.82 0.65 0.41 0.55 0.52 0.26 0.31 0.41 0.35 0.24 0.14 0.12 0.04 0.05 0.12 0.27 0.46 0.11 0.05 0.02

GFSSW_prec_precacc_120.txt.gz
Total_Precipitation_Accumulation
0.47 0.59 0.71 0.80 0.62 0.47 0.50 0.46 0.48 0.52 0.59 0.64 0.67 1.01 1.13 0.74 0.67 0.43 0.19 0.07 0.09 0.18 0.32 0.11 0.10 0.09 0.14 0.25 0.58 0.92 1.13 0.67 0.14 0.04 0.02 0.01 0.01 0.01 0.01 0.00 0.01 0.01 0.12 0.10 0.26
0.54 0.77 1.02 1.03 0.98 0.53 0.43 0.42 0.48 0.51 0.62 0.70 0.91 0.98 1.10 0.65 0.46 0.40 0.26 0.34 0.34 0.51 0.32 0.21 0.16 0.22 0.25 0.33 0.84 1.40 1.34 0.40 0.09 0.06 0.02 0.04 0.01 0.01 0.02 0.01 0.06 0.10 0.09 0.06 0.22
0.73 0.77 0.92 1.04 1.01 0.86 0.61 0.62 0.54 0.48 0.51 0.64 0.78 1.19 1.16 0.83 0.41 0.13 0.21 0.30 0.53 0.71 0.45 0.20 0.26 0.37 0.27 0.40 0.56 1.05 1.09 0.29 0.29 0.26 0.24 0.13 0.04 0.01 0.05 0.05 0.01 0.05 0.12 0.22 0.29
0.81 0.79 0.74 0.76 0.88 0.95 0.84 0.81 0.69 0.49 0.43 0.48 0.79 1.12 1.32 0.91 0.56 0.14 0.14 0.28 0.51 0.95 0.65 0.49 0.47 0.50 0.21 0.21 0.25 0.55 0.60 0.43 0.47 0.47 0.47 0.18 0.10 0.07 0.05 0.02 0.01 0.06 0.27 0.41 0.54
0.81 0.88 0.66 0.73 0.74 0.64 0.65 0.75 0.71 0.62 0.47 0.38 0.86 1.60 1.11 0.96 0.36 0.17 0.18 0.21 0.60 0.95 0.54 0.44 0.43 0.35 0.13 0.09 0.21 0.36 0.46 0.56 0.71 0.62 0.47 0.32 0.19 0.11 0.05 0.02 0.04 0.20 0.39 0.49 0.76
0.76 0.72 0.56 0.58 0.67 0.57 0.38 0.50 0.58 0.51 0.57 0.60 1.21 1.55 1.01 0.75 0.23 0.15 0.19 0.39 0.62 0.78 0.62 0.55 0.47 0.36 0.24 0.13 0.27 0.18 0.44 0.68 0.97 0.79 0.86 0.47 0.24 0.18 0.06 0.10 0.18 0.40 0.38 0.40 0.46
0.75 0.72 0.62 0.72 0.66 0.52 0.44 0.52 0.59 0.52 0.54 0.82 1.29 1.58 1.01 0.47 0.28 0.37 0.18 0.54 0.97 0.69 0.73 0.62 0.72 0.76 0.49 0.26 0.14 0.23 0.65 0.99 1.08 1.23 1.21 0.87 0.70 0.22 0.04 0.11 0.26 0.36 0.41 0.53 0.50
0.83 0.74 0.65 0.79 0.74 0.67 0.57 0.55 0.65 0.74 0.99 1.48 1.90 1.42 1.22 0.39 0.32 0.39 0.22 0.37 0.80 1.04 0.99 1.09 0.79 0.91 0.56 0.41 0.32 0.51 0.94 1.00 0.93 1.30 1.91 1.55 0.81 0.19 0.10 0.16 0.20 0.41 0.62 0.57 0.43
0.89 0.89 0.95 0.99 0.87 0.93 0.98 1.03 0.88 0.75 1.24 1.89 1.82 1.31 1.14 0.73 0.46 0.22 0.23 0.39 0.72 1.49 1.85 2.06 1.72 1.23 0.65 0.65 0.61 0.56 0.57 0.73 0.73 0.77 1.87 1.75 1.02 0.40 0.19 0.13 0.12 0.19 0.41 0.63 0.72
1.07 1.34 1.29 0.95 1.02 1.08 1.08 1.95 2.00 1.00 1.55 1.88 1.61 1.40 0.98 0.81 0.42 0.26 0.30 0.50 0.80 1.64 2.42 2.83 2.66 1.54 0.62 0.69 0.48 0.19 0.24 0.34 0.62 0.60 1.10 1.62 0.99 0.71 0.39 0.19 0.06 0.10 0.17 0.29 0.61
1.16 1.19 0.96 0.93 0.93 0.81 1.01 1.78 1.95 2.02 2.28 1.76 0.84 0.63 0.59 0.74 0.51 0.52 0.53 0.67 1.43 2.03 2.31 2.43 2.03 1.26 0.34 0.20 0.21 0.13 0.21 0.23 0.49 0.69 0.54 0.89 0.90 0.73 0.49 0.47 0.14 0.12 0.13 0.22 0.51
0.93 0.87 0.83 0.88 1.00 1.19 1.33 1.58 1.29 1.71 2.52 1.71 0.62 0.51 0.51 0.53 0.79 0.68 0.80 1.36 1.72 2.04 1.77 1.96 1.09 0.71 0.62 0.33 0.31 0.26 0.26 0.25 0.40 0.70 0.62 0.58 0.66 0.50 0.48 0.32 0.21 0.10 0.07 0.19 0.39
0.80 0.76 0.79 0.95 1.03 1.40 1.30 1.00 1.01 1.12 2.00 2.06 1.12 0.91 0.75 0.56 0.84 0.73 1.14 1.54 1.62 1.51 1.16 1.21 0.60 0.37 0.61 0.55 0.46 0.26 0.22 0.20 0.38 0.47 0.42 0.47 0.58 0.44 0.37 0.27 0.13 0.07 0.06 0.11 0.24
0.90 0.96 1.03 1.17 1.35 1.01 1.27 0.94 0.83 1.14 1.68 1.94 1.18 1.10 0.63 1.04 1.21 0.56 1.63 1.59 1.70 1.35 1.03 1.18 0.68 0.46 0.44 0.74 0.42 0.30 0.14 0.24 0.49 0.59 0.53 0.44 0.66 0.47 0.30 0.28 0.15 0.07 0.04 0.14 0.22
1.29 1.09 0.93 1.28 1.31 1.16 0.86 0.64 0.87 1.50 1.79 1.35 1.05 0.75 0.89 0.88 0.66 0.79 1.30 1.20 1.09 1.08 1.06 0.96 0.61 0.69 0.51 0.70 0.39 0.43 0.17 0.24 0.40 0.62 1.02 0.42 0.75 0.56 0.42 0.31 0.15 0.05 0.06 0.17 0.26
1.25 1.18 1.07 1.05 0.98 0.98 0.84 0.61 1.28 1.68 2.22 2.04 1.51 1.31 0.78 0.56 0.53 0.97 1.32 0.99 0.91 0.95 1.00 0.59 0.44 0.88 0.75 0.59 0.55 0.41 0.44 0.41 0.65 0.84 1.41 0.54 0.69 0.72 0.59 0.55 0.32 0.07 0.14 0.26 0.29
1.21 1.41 1.31 0.79 0.89 0.85 1.31 1.13 1.53 1.27 1.21 1.46 1.17 0.57 0.40 0.52 0.83 1.15 1.22 0.79 1.12 1.57 1.45 1.24 0.99 0.84 0.76 0.99 1.03 0.73 0.95 1.41 1.42 1.75 0.86 0.54 0.70 0.77 0.62 0.40 0.35 0.27 0.36 0.43 0.42
1.42 1.45 1.47 1.01 0.94 0.99 1.80 1.29 1.22 0.87 0.98 0.82 0.41 0.39 0.50 0.39 0.57 0.75 0.98 0.50 0.31 0.47 0.78 0.96 1.41 1.19 0.78 0.87 1.21 0.97 0.91 1.18 0.86 0.74 0.62 0.38 0.87 1.06 0.88 0.71 0.64 0.49 0.72 1.00 1.08
1.77 1.97 1.74 1.48 1.20 1.32 1.48 1.21 1.04 0.95 0.94 0.47 0.32 0.37 0.40 0.18 0.28 0.53 0.43 0.24 0.15 0.16 0.63 0.48 0.76 0.58 0.77 0.62 0.81 0.83 0.86 0.76 1.09 0.57 0.61 0.60 0.96 1.22 1.31 1.24 0.73 1.22 1.33 1.37 1.50
2.35 2.66 1.63 1.35 1.47 1.46 1.32 1.06 0.64 0.41 0.28 0.18 0.29 0.14 0.10 0.06 0.11 0.12 0.17 0.07 0.11 0.04 0.21 0.37 0.75 0.96 0.85 0.78 0.65 0.60 0.47 0.75 1.30 0.91 0.58 0.39 0.52 1.61 1.75 1.33 1.13 1.26 1.28 1.25 1.52
2.36 2.50 1.68 1.75 2.08 2.06 1.56 1.13 0.45 0.18 0.15 0.15 0.09 0.04 0.02 0.02 0.05 0.13 0.14 0.07 0.06 0.14 0.23 0.55 0.99 1.03 1.06 0.78 0.53 0.70 0.76 0.46 0.58 0.51 0.43 0.26 0.79 1.41 1.41 1.13 0.92 0.91 0.92 0.93 0.96
2.22 2.01 1.92 2.35 2.56 1.80 1.08 0.78 0.47 0.16 0.17 0.14 0.12 0.03 0.01 0.02 0.04 0.13 0.12 0.09 0.03 0.11 0.31 0.41 0.79 0.81 0.65 0.18 0.13 0.25 0.26 0.19 0.70 0.50 0.40 0.39 0.85 0.96 0.92 0.79 0.60 0.47 0.29 0.18 0.12
2.00 1.85 2.76 1.57 1.10 0.73 0.47 0.44 0.30 0.10 0.15 0.19 0.12 0.01 0.01 0.03 0.03 0.02 0.01 0.01 0.00 0.02 0.20 0.44 1.01 0.82 0.70 0.48 0.49 0.69 0.33 0.37 0.63 1.00 0.76 0.42 0.54 0.25 0.24 0.21 0.14 0.04 0.02 0.02 0.01
1.87 1.90 3.74 2.47 0.61 0.18 0.42 0.46 0.30 0.06 0.08 0.14 0.12 0.03 0.05 0.03 0.01 0.01 0.00 0.00 0.00 0.00 0.16 0.72 0.81 0.86 0.71 0.63 0.88 0.72 0.34 0.53 1.08 1.15 0.37 0.18 0.10 0.05 0.03 0.01 0.02 0.04 0.04 0.02 0.02
1.30 0.79 0.85 0.98 0.50 0.11 0.36 0.34 0.37 0.23 0.13 0.17 0.12 0.04 0.07 0.03 0.01 0.01 0.00 0.00 0.00 0.00 0.16 0.66 1.15 1.28 0.54 0.32 0.69 0.60 0.31 0.43 0.98 0.55 0.51 0.16 0.06 0.03 0.04 0.05 0.07 0.09 0.08 0.06 0.06
0.77 0.58 0.12 0.07 0.06 0.16 0.23 0.28 0.34 0.34 0.28 0.20 0.15 0.04 0.04 0.05 0.01 0.01 0.00 0.00 0.01 0.01 0.15 0.55 0.95 0.81 0.34 0.20 0.40 0.47 0.23 0.35 0.56 0.41 0.30 0.12 0.11 0.06 0.04 0.06 0.06 0.17 0.11 0.08 0.08
0.69 0.50 0.15 0.12 0.13 0.10 0.08 0.12 0.23 0.37 0.24 0.09 0.09 0.11 0.07 0.03 0.01 0.00 0.00 0.00 0.00 0.01 0.07 0.36 0.63 0.82 0.65 0.41 0.55 0.52 0.26 0.31 0.41 0.35 0.24 0.14 0.12 0.04 0.05 0.12 0.27 0.46 0.11 0.05 0.02

GFSSW_prec_precacc_123.txt.gz
Total_Precipitation_Accumulation
0.50 0.60 0.77 0.94 1.05 0.85 0.60 0.49 0.51 0.52 0.59 0.64 0.68 1.21 1.23 0.74 0.67 0.43 0.19 0.07 0.09 0.18 0.32 0.11 0.10 0.09 0.14 0.25 0.58 0.92 1.13 0.67 0.14 0.04 0.02 0.01 0.01 0.01 0.01 0.00 0.01 0.01 0.12 0.10 0.26
0.56 0.78 1.07 1.22 1.40 1.16 0.55 0.48 0.52 0.52 0.62 0.70 0.94 1.17 1.35 0.67 0.46 0.40 0.26 0.34 0.34 0.51 0.32 0.21 0.16 0.22 0.25 0.33 0.84 1.40 1.34 0.40 0.09 0.06 0.02 0.04 0.01 0.01 0.02 0.01 0.06 0.10 0.09 0.06 0.22
0.77 0.79 0.93 1.15 1.44 1.77 0.99 0.68 0.58 0.48 0.51 0.64 0.81 1.42 1.47 0.91 0.42 0.13 0.21 0.30 0.53 0.71 0.45 0.20 0.26 0.37 0.27 0.40 0.56 1.05 1.09 0.29 0.29 0.26 0.24 0.13 0.04 0.01 0.05 0.05 0.01 0.05 0.12 0.22 0.29
0.86 0.83 0.76 0.78 1.00 1.45 1.25 0.85 0.74 0.51 0.43 0.48 0.83 1.43 1.64 1.11 0.63 0.14 0.14 0.28 0.51 0.95 0.65 0.49 0.47 0.50 0.21 0.21 0.25 0.55 0.60 0.43 0.47 0.47 0.47 0.18 0.10 0.07 0.05 0.02 0.01 0.06 0.27 0.41 0.54
0.84 0.90 0.67 0.75 0.77 0.84 0.79 0.77 0.75 0.65 0.47 0.38 0.90 1.76 1.34 1.12 0.46 0.18 0.18 0.22 0.60 0.95 0.54 0.44 0.43 0.35 0.13 0.09 0.21 0.36 0.46 0.56 0.71 0.62 0.47 0.32 0.19 0.11 0.05 0.02 0.04 0.20 0.39 0.49 0.76
0.79 0.72 0.57 0.59 0.68 0.60 0.42 0.56 0.63 0.53 0.57 0.60 1.25 1.58 1.16 0.90 0.31 0.18 0.20 0.39 0.62 0.78 0.62 0.55 0.47 0.36 0.24 0.13 0.27 0.18 0.44 0.68 0.97 0.79 0.86 0.47 0.24 0.18 0.06 0.10 0.18 0.40 0.38 0.40 0.46
0.78 0.72 0.63 0.74 0.69 0.55 0.50 0.62 0.65 0.53 0.55 0.85 1.33 1.63 1.15 0.68 0.36 0.45 0.18 0.54 0.97 0.69 0.73 0.62 0.72 0.76 0.49 0.26 0.14 0.23 0.65 0.99 1.08 1.23 1.21 0.87 0.70 0.22 0.04 0.11 0.26 0.36 0.41 0.53 0.50
0.86 0.75 0.66 0.81 0.75 0.70 0.63 0.62 0.65 0.74 1.01 1.49 1.91 1.45 1.40 0.64 0.40 0.43 0.22 0.37 0.80 1.04 0.99 1.09 0.79 0.91 0.56 0.41 0.32 0.51 0.94 1.00 0.93 1.30 1.91 1.55 0.81 0.19 0.10 0.16 0.20 0.41 0.62 0.57 0.43
0.91 0.89 0.97 1.03 0.94 0.95 1.00 1.03 0.88 0.76 1.25 1.89 1.83 1.34 1.38 1.00 0.53 0.22 0.23 0.39 0.72 1.49 1.85 2.06 1.72 1.23 0.65 0.65 0.61 0.56 0.57 0.73 0.73 0.77 1.87 1.75 1.02 0.40 0.19 0.13 0.12 0.19 0.41 0.63 0.72
1.08 1.35 1.29 0.97 1.09 1.13 1.11 1.96 2.01 1.00 1.55 1.88 1.64 1.44 1.15 0.98 0.47 0.27 0.30 0.50 0.80 1.64 2.42 2.83 2.66 1.54 0.62 0.69 0.48 0.19 0.24 0.34 0.62 0.60 1.10 1.62 0.99 0.71 0.39 0.19 0.06 0.10 0.17 0.29 0.61
1.17 1.19 0.97 0.94 0.93 0.82 1.01 1.78 1.95 2.03 2.29 1.79 0.89 0.64 0.67 0.83 0.57 0.53 0.53 0.67 1.43 2.03 2.31 2.43 2.03 1.26 0.34 0.20 0.21 0.13 0.21 0.23 0.49 0.69 0.54 0.89 0.90 0.73 0.49 0.47 0.14 0.12 0.13 0.22 0.51
0.93 0.87 0.83 0.88 1.00 1.19 1.33 1.58 1.29 1.72 2.54 1.73 0.67 0.54 0.56 0.55 0.81 0.68 0.80 1.36 1.72 2.04 1.77 1.96 1.09 0.71 0.62 0.33 0.31 0.26 0.26 0.25 0.40 0.70 0.62 0.58 0.66 0.50 0.48 0.32 0.21 0.10 0.07 0.19 0.39
0.80 0.76 0.79 0.95 1.03 1.40 1.30 1.00 1.01 1.12 2.02 2.11 1.18 0.99 0.82 0.56 0.84 0.73 1.14 1.54 1.62 1.51 1.16 1.21 0.60 0.37 0.61 0.55 0.46 0.26 0.22 0.20 0.38 0.47 0.42 0.47 0.58 0.44 0.37 0.27 0.13 0.07 0.06 0.11 0.24
0.90 0.96 1.03 1.17 1.35 1.02 1.27 0.94 0.83 1.14 1.69 1.98 1.22 1.15 0.65 1.04 1.21 0.56 1.63 1.59 1.70 1.35 1.03 1.18 0.68 0.46 0.44 0.74 0.42 0.30 0.14 0.24 0.49 0.59 0.53 0.44 0.66 0.47 0.30 0.28 0.15 0.07 0.04 0.14 0.22
1.29 1.09 0.93 1.28 1.31 1.16 0.86 0.64 0.87 1.50 1.81 1.41 1.06 0.75 0.89 0.88 0.66 0.79 1.30 1.20 1.09 1.08 1.06 0.96 0.61 0.69 0.51 0.70 0.39 0.43 0.17 0.24 0.40 0.62 1.02 0.42 0.75 0.56 0.42 0.31 0.15 0.05 0.06 0.17 0.26
1.25 1.18 1.07 1.05 0.98 0.98 0.84 0.61 1.28 1.68 2.24 2.04 1.51 1.31 0.78 0.56 0.53 0.97 1.32 0.99 0.91 0.95 1.00 0.59 0.44 0.88 0.75 0.59 0.55 0.41 0.44 0.41 0.65 0.84 1.41 0.54 0.69 0.72 0.59 0.55 0.32 0.07 0.14 0.26 0.29
1.21 1.41 1.31 0.79 0.89 0.85 1.31 1.13 1.53 1.28 1.21 1.46 1.17 0.57 0.40 0.52 0.83 1.15 1.22 0.79 1.12 1.57 1.45 1.24 0.99 0.84 0.76 0.99 1.03 0.73 0.95 1.42 1.42 1.75 0.86 0.54 0.70 0.77 0.62 0.40 0.36 0.28 0.37 0.43 0.42
1.42 1.45 1.47 1.01 0.94 0.99 1.80 1.29 1.22 0.87 0.98 0.82 0.41 0.39 0.50 0.39 0.57 0.75 0.98 0.50 0.31 0.47 0.78 0.96 1.41 1.19 0.78 0.87 1.21 0.97 0.91 1.18 0.86 0.74 0.63 0.38 0.88 1.06 0.88 0.71 0.65 0.50 0.73 1.00 1.09
1.77 1.97 1.74 1.48 1.20 1.32 1.48 1.21 1.04 0.95 0.94 0.47 0.32 0.37 0.40 0.18 0.28 0.53 0.43 0.24 0.15 0.16 0.63 0.48 0.76 0.58 0.77 0.62 0.81 0.84 0.86 0.76 1.10 0.58 0.62 0.60 0.97 1.22 1.31 1.24 0.73 1.22 1.33 1.37 1.52
2.35 2.66 1.63 1.35 1.47 1.46 1.32 1.06 0.64 0.41 0.28 0.18 0.29 0.14 0.10 0.06 0.11 0.12 0.17 0.07 0.11 0.04 0.21 0.37 0.75 0.96 0.85 0.78 0.65 0.60 0.47 0.77 1.33 0.93 0.59 0.39 0.52 1.61 1.75 1.33 1.13 1.26 1.28 1.25 1.54
2.36 2.50 1.68 1.75 2.08 2.06 1.56 1.13 0.45 0.18 0.15 0.15 0.09 0.04 0.02 0.02 0.05 0.13 0.14 0.07 0.06 0.14 0.23 0.55 1.00 1.03 1.06 0.78 0.53 0.70 0.77 0.47 0.60 0.51 0.44 0.27 0.79 1.41 1.41 1.13 0.92 0.91 0.92 0.93 0.96
2.22 2.01 1.92 2.35 2.56 1.80 1.08 0.78 0.47 0.16 0.17 0.14 0.12 0.03 0.01 0.02 0.04 0.13 0.12 0.09 0.03 0.11 0.32 0.41 0.80 0.81 0.65 0.18 0.13 0.25 0.27 0.20 0.72 0.51 0.40 0.39 0.85 0.96 0.92 0.80 0.61 0.47 0.29 0.18 0.12
2.00 1.85 2.76 1.57 1.10 0.73 0.47 0.44 0.30 0.10 0.15 0.19 0.12 0.01 0.01 0.03 0.03 0.02 0.01 0.01 0.00 0.02 0.20 0.44 1.01 0.82 0.70 0.48 0.49 0.69 0.33 0.37 0.63 1.00 0.76 0.43 0.54 0.25 0.24 0.21 0.14 0.04 0.02 0.02 0.01
1.87 1.90 3.74 2.47 0.61 0.18 0.42 0.46 0.30 0.06 0.08 0.14 0.12 0.03 0.05 0.03 0.01 0.01 0.00 0.00 0.00 0.00 0.16 0.72 0.81 0.86 0.71 0.63 0.88 0.72 0.34 0.53 1.08 1.15 0.37 0.18 0.10 0.05 0.03 0.01 0.02 0.04 0.04 0.02 0.02
1.30 0.79 0.85 0.98 0.50 0.11 0.36 0.34 0.37 0.23 0.13 0.17 0.12 0.04 0.07 0.03 0.01 0.01 0.00 0.00 0.00 0.00 0.16 0.66 1.15 1.28 0.54 0.32 0.69 0.60 0.31 0.43 0.98 0.55 0.51 0.16 0.06 0.03 0.04 0.05 0.07 0.09 0.08 0.06 0.06
0.77 0.58 0.12 0.07 0.06 0.16 0.23 0.28 0.34 0.34 0.28 0.20 0.15 0.04 0.04 0.05 0.01 0.01 0.00 0.00 0.01 0.01 0.15 0.55 0.95 0.81 0.34 0.20 0.40 0.47 0.23 0.35 0.56 0.41 0.30 0.12 0.11 0.06 0.04 0.06 0.06 0.17 0.11 0.08 0.08
0.69 0.50 0.15 0.12 0.13 0.10 0.08 0.12 0.23 0.37 0.24 0.09 0.09 0.11 0.07 0.03 0.01 0.00 0.00 0.00 0.00 0.01 0.07 0.36 0.63 0.82 0.65 0.41 0.55 0.52 0.26 0.31 0.41 0.35 0.24 0.14 0.12 0.04 0.05 0.12 0.27 0.46 0.11 0.05 0.02

GFSSW_prec_precacc_126.txt.gz
Total_Precipitation_Accumulation
0.53 0.62 0.79 1.03 1.15 0.97 0.91 0.75 0.66 0.56 0.59 0.64 0.68 1.25 1.29 0.74 0.67 0.43 0.19 0.07 0.09 0.18 0.32 0.11 0.10 0.09 0.14 0.25 0.58 0.92 1.13 0.67 0.14 0.04 0.02 0.01 0.01 0.01 0.01 0.00 0.01 0.01 0.12 0.10 0.26
0.61 0.82 1.11 1.36 1.55 1.42 1.08 0.62 0.58 0.54 0.62 0.70 0.94 1.24 1.43 0.68 0.46 0.40 0.26 0.34 0.34 0.51 0.32 0.21 0.16 0.22 0.25 0.33 0.84 1.40 1.34 0.40 0.09 0.06 0.02 0.04 0.01 0.01 0.02 0.01 0.06 0.10 0.09 0.06 0.22
0.83 0.83 0.97 1.23 1.65 2.31 1.78 0.75 0.60 0.48 0.51 0.64 0.82 1.52 1.71 0.95 0.42 0.13 0.21 0.30 0.53 0.71 0.45 0.20 0.26 0.37 0.27 0.40 0.56 1.05 1.09 0.29 0.29 0.26 0.24 0.13 0.04 0.01 0.05 0.05 0.01 0.05 0.12 0.22 0.29
0.89 0.86 0.83 0.83 1.13 1.78 1.86 0.94 0.77 0.51 0.43 0.48 0.85 1.63 2.08 1.27 0.65 0.14 0.14 0.28 0.51 0.95 0.65 0.49 0.47 0.50 0.21 0.21 0.25 0.55 0.60 0.43 0.47 0.47 0.47 0.18 0.10 0.07 0.05 0.02 0.01 0.06 0.27 0.41 0.54
0.86 0.93 0.72 0.84 0.90 1.20 1.00 0.80 0.76 0.65 0.47 0.40 1.01 2.16 1.72 1.40 0.52 0.18 0.19 0.22 0.60 0.95 0.54 0.44 0.43 0.35 0.13 0.09 0.21 0.36 0.46 0.56 0.71 0.62 0.47 0.32 0.19 0.11 0.05 0.02 0.04 0.20 0.39 0.49 0.76
0.82 0.76 0.60 0.63 0.83 0.72 0.44 0.59 0.64 0.53 0.57 0.65 1.42 1.95 1.32 1.09 0.43 0.18 0.20 0.39 0.62 0.78 0.62 0.55 0.47 0.36 0.24 0.13 0.27 0.18 0.44 0.68 0.97 0.79 0.86 0.47 0.24 0.18 0.06 0.10 0.18 0.40 0.38 0.40 0.46
0.80 0.76 0.65 0.77 0.75 0.61 0.54 0.63 0.66 0.53 0.56 0.90 1.39 1.70 1.32 0.92 0.50 0.52 0.18 0.54 0.97 0.69 0.73 0.62 0.72 0.76 0.49 0.26 0.14 0.23 0.65 0.99 1.08 1.23 1.21 0.87 0.70 0.22 0.04 0.11 0.26 0.36 0.41 0.53 0.50
0.87 0.76 0.68 0.83 0.80 0.79 0.68 0.62 0.66 0.75 1.03 1.51 1.92 1.47 1.56 0.85 0.53 0.50 0.22 0.37 0.80 1.04 0.99 1.09 0.79 0.91 0.56 0.41 0.32 0.51 0.94 1.00 0.93 1.30 1.91 1.55 0.81 0.19 0.10 0.16 0.20 0.41 0.62 0.57 0.43
0.91 0.89 0.97 1.04 0.94 0.96 1.00 1.04 0.88 0.76 1.26 1.90 1.84 1.39 1.54 1.11 0.57 0.23 0.23 0.39 0.72 1.49 1.85 2.06 1.72 1.23 0.65 0.65 0.61 0.56 0.57 0.73 0.73 0.77 1.87 1.75 1.02 0.40 0.19 0.13 0.12 0.19 0.41 0.63 0.72
1.08 1.35 1.29 0.97 1.10 1.14 1.12 1.96 2.01 1.01 1.55 1.88 1.64 1.49 1.30 1.05 0.49 0.27 0.30 0.50 0.80 1.64 2.42 2.83 2.66 1.54 0.62 0.69 0.48 0.19 0.24 0.34 0.62 0.60 1.10 1.62 0.99 0.71 0.39 0.19 0.06 0.10 0.17 0.29 0.61
1.17 1.19 0.97 0.94 0.93 0.82 1.01 1.78 1.95 2.04 2.30 1.82 0.91 0.67 0.78 0.89 0.57 0.53 0.53 0.67 1.43 2.03 2.31 2.43 2.03 1.26 0.34 0.20 0.21 0.13 0.21 0.23 0.49 0.69 0.54 0.89 0.90 0.73 0.49 0.47 0.14 0.12 0.13 0.22 0.51
0.93 0.87 0.83 0.88 1.00 1.19 1.33 1.58 1.29 1.72 2.57 1.78 0.70 0.58 0.61 0.57 0.82 0.68 0.80 1.36 1.72 2.04 1.77 1.96 1.09 0.71 0.62 0.33 0.31 0.26 0.26 0.25 0.40 0.70 0.62 0.58 0.66 0.50 0.48 0.32 0.21 0.10 0.07 0.19 0.39
0.80 0.76 0.79 0.95 1.03 1.40 1.30 1.01 1.01 1.12 2.03 2.18 1.23 1.03 0.83 0.57 0.85 0.73 1.14 1.54 1.62 1.51 1.16 1.21 0.60 0.37 0.61 0.55 0.46 0.26 0.22 0.20 0.38 0.47 0.42 0.47 0.58 0.44 0.37 0.27 0.13 0.07 0.06 0.11 0.24
0.90 0.96 1.03 1.17 1.35 1.02 1.27 0.94 0.83 1.14 1.69 2.00 1.23 1.16 0.65 1.04 1.21 0.56 1.63 1.59 1.70 1.35 1.03 1.18 0.68 0.46 0.44 0.74 0.42 0.30 0.14 0.24 0.49 0.59 0.53 0.44 0.66 0.47 0.30 0.28 0.15 0.07 0.04 0.14 0.22
1.29 1.09 0.93 1.28 1.31 1.16 0.86 0.64 0.87 1.50 1.81 1.41 1.07 0.75 0.89 0.88 0.66 0.79 1.30 1.20 1.09 1.08 1.06 0.96 0.61 0.69 0.51 0.70 0.39 0.43 0.17 0.24 0.40 0.62 1.02 0.42 0.75 0.56 0.42 0.31 0.15 0.05 0.06 0.17 0.26
1.25 1.18 1.07 1.05 0.98 0.98 0.84 0.61 1.28 1.68 2.24 2.04 1.51 1.31 0.78 0.56 0.53 0.97 1.32 0.99 0.91 0.95 1.00 0.59 0.44 0.88 0.75 0.59 0.55 0.41 0.44 0.41 0.65 0.84 1.41 0.54 0.69 0.72 0.59 0.55 0.32 0.07 0.14 0.26 0.29
1.21 1.41 1.31 0.79 0.89 0.85 1.31 1.13 1.53 1.28 1.21 1.46 1.17 0.57 0.40 0.52 0.83 1.15 1.22 0.79 1.12 1.57 1.45 1.24 0.99 0.84 0.76 0.99 1.03 0.73 0.95 1.42 1.42 1.75 0.86 0.54 0.70 0.77 0.62 0.40 0.36 0.28 0.37 0.43 0.42
1.42 1.45 1.47 1.01 0.94 0.99 1.80 1.29 1.22 0.87 0.98 0.82 0.41 0.39 0.50 0.39 0.57 0.75 0.98 0.50 0.31 0.47 0.78 0.96 1.41 1.19 0.78 0.87 1.21 0.97 0.91 1.18 0.86 0.75 0.63 0.38 0.88 1.06 0.88 0.71 0.65 0.50 0.73 1.00 1.09
1.77 1.97 1.74 1.48 1.20 1.32 1.48 1.21 1.04 0.95 0.94 0.47 0.32 0.37 0.40 0.18 0.28 0.53 0.43 0.24 0.15 0.16 0.63 0.48 0.76 0.58 0.77 0.62 0.81 0.84 0.87 0.77 1.11 0.58 0.62 0.60 0.97 1.22 1.31 1.24 0.73 1.22 1.33 1.37 1.52
2.35 2.66 1.63 1.35 1.47 1.46 1.32 1.06 0.64 0.41 0.28 0.18 0.29 0.14 0.10 0.06 0.11 0.12 0.17 0.07 0.11 0.04 0.21 0.37 0.75 0.96 0.85 0.78 0.65 0.60 0.47 0.78 1.34 0.94 0.60 0.39 0.52 1.61 1.75 1.33 1.13 1.26 1.28 1.25 1.54
2.36 2.50 1.68 1.75 2.08 2.06 1.56 1.13 0.45 0.18 0.15 0.15 0.09 0.04 0.02 0.02 0.05 0.13 0.14 0.07 0.06 0.14 0.23 0.55 1.00 1.03 1.06 0.78 0.53 0.71 0.77 0.47 0.61 0.52 0.45 0.27 0.79 1.41 1.41 1.13 0.92 0.91 0.92 0.93 0.96
2.22 2.01 1.92 2.35 2.56 1.80 1.08 0.78 0.47 0.16 0.17 0.14 0.12 0.03 0.01 0.02 0.04 0.13 0.12 0.09 0.03 0.11 0.32 0.41 0.80 0.81 0.65 0.18 0.13 0.25 0.27 0.20 0.73 0.53 0.41 0.40 0.85 0.96 0.92 0.80 0.61 0.47 0.29 0.18 0.12
2.00 1.85 2.76 1.57 1.10 0.73 0.47 0.44 0.30 0.10 0.15 0.19 0.12 0.01 0.01 0.03 0.03 0.02 0.01 0.01 0.00 0.02 0.20 0.44 1.01 0.82 0.70 0.48 0.49 0.69 0.33 0.37 0.63 1.00 0.77 0.43 0.54 0.25 0.24 0.21 0.14 0.04 0.02 0.02 0.01
1.87 1.90 3.74 2.47 0.61 0.18 0.42 0.46 0.30 0.06 0.08 0.14 0.12 0.03 0.05 0.03 0.01 0.01 0.00 0.00 0.00 0.00 0.16 0.72 0.81 0.86 0.71 0.63 0.88 0.72 0.34 0.53 1.08 1.15 0.37 0.18 0.10 0.05 0.03 0.01 0.02 0.04 0.04 0.02 0.02
1.30 0.79 0.85 0.98 0.50 0.11 0.36 0.34 0.37 0.23 0.13 0.17 0.12 0.04 0.07 0.03 0.01 0.01 0.00 0.00 0.00 0.00 0.16 0.66 1.15 1.28 0.54 0.32 0.69 0.60 0.31 0.43 0.98 0.55 0.51 0.16 0.06 0.03 0.04 0.05 0.07 0.09 0.08 0.06 0.06
0.77 0.58 0.12 0.07 0.06 0.16 0.23 0.28 0.34 0.34 0.28 0.20 0.15 0.04 0.04 0.05 0.01 0.01 0.00 0.00 0.01 0.01 0.15 0.55 0.95 0.81 0.34 0.20 0.40 0.47 0.23 0.35 0.56 0.41 0.30 0.12 0.11 0.06 0.04 0.06 0.06 0.17 0.11 0.08 0.08
0.69 0.50 0.15 0.12 0.13 0.10 0.08 0.12 0.23 0.37 0.24 0.09 0.09 0.11 0.07 0.03 0.01 0.00 0.00 0.00 0.00 0.01 0.07 0.36 0.63 0.82 0.65 0.41 0.55 0.52 0.26 0.31 0.41 0.35 0.24 0.14 0.12 0.04 0.05 0.12 0.27 0.46 0.11 0.05 0.02

GFSSW_prec_precacc_129.txt.gz
Total_Precipitation_Accumulation
0.58 0.66 0.82 1.06 1.21 1.04 1.02 0.98 0.91 0.65 0.64 0.66 0.75 1.37 1.45 0.76 0.67 0.43 0.19 0.07 0.09 0.18 0.32 0.11 0.10 0.09 0.14 0.25 0.58 0.92 1.13 0.67 0.14 0.04 0.02 0.01 0.01 0.01 0.01 0.00 0.01 0.01 0.12 0.10 0.26
0.65 0.87 1.15 1.40 1.70 1.67 1.32 1.10 0.80 0.61 0.62 0.70 0.96 1.30 1.52 0.71 0.46 0.40 0.26 0.34 0.34 0.51 0.32 0.21 0.16 0.22 0.25 0.33 0.84 1.40 1.34 0.40 0.09 0.06 0.02 0.04 0.01 0.01 0.02 0.01 0.06 0.10 0.09 0.06 0.22
0.86 0.88 1.06 1.48 2.10 2.84 2.43 1.04 0.62 0.49 0.51 0.64 0.83 1.60 1.75 1.02 0.42 0.13 0.21 0.30 0.53 0.71 0.45 0.20 0.26 0.37 0.27 0.40 0.56 1.05 1.09 0.29 0.29 0.26 0.24 0.13 0.04 0.01 0.05 0.05 0.01 0.05 0.12 0.22 0.29
0.93 0.93 0.98 1.14 1.66 2.40 2.19 0.95 0.77 0.51 0.43 0.50 0.90 1.79 2.18 1.30 0.65 0.14 0.14 0.28 0.51 0.95 0.65 0.49 0.47 0.50 0.21 0.21 0.25 0.55 0.60 0.43 0.47 0.47 0.47 0.18 0.10 0.07 0.05 0.02 0.01 0.06 0.27 0.41 0.54
0.91 1.04 0.87 1.13 1.29 1.49 1.05 0.80 0.76 0.66 0.51 0.50 1.08 2.43 1.93 1.43 0.54 0.18 0.19 0.22 0.60 0.95 0.54 0.44 0.43 0.35 0.13 0.09 0.21 0.36 0.46 0.56 0.71 0.62 0.47 0.32 0.19 0.11 0.05 0.02 0.04 0.20 0.39 0.49 0.76
0.85 0.81 0.69 0.73 0.90 0.76 0.47 0.60 0.65 0.57 0.62 0.67 1.47 2.25 1.50 1.18 0.50 0.19 0.20 0.39 0.62 0.78 0.62 0.55 0.47 0.36 0.24 0.13 0.27 0.18 0.44 0.68 0.97 0.79 0.86 0.47 0.24 0.18 0.06 0.10 0.18 0.40 0.38 0.40 0.46
0.82 0.79 0.65 0.77 0.75 0.62 0.55 0.64 0.67 0.57 0.62 0.96 1.51 1.80 1.50 1.14 0.75 0.57 0.18 0.54 0.97 0.69 0.73 0.62 0.72 0.76 0.49 0.26 0.14 0.23 0.65 0.99 1.08 1.23 1.21 0.87 0.70 0.22 0.04 0.11 0.26 0.36 0.41 0.53 0.50
0.88 0.76 0.68 0.83 0.80 0.79 0.69 0.64 0.68 0.78 1.06 1.58 2.03 1.56 1.80 1.09 0.71 0.52 0.22 0.37 0.80 1.04 0.99 1.09 0.79 0.91 0.56 0.41 0.32 0.51 0.94 1.00 0.93 1.30 1.91 1.55 0.81 0.19 0.10 0.16 0.20 0.41 0.62 0.57 0.43
0.91 0.89 0.97 1.04 0.94 0.97 1.01 1.04 0.89 0.78 1.27 1.91 1.88 1.44 1.71 1.32 0.67 0.24 0.23 0.39 0.72 1.49 1.85 2.06 1.72 1.23 0.65 0.65 0.61 0.56 0.57 0.73 0.73 0.77 1.87 1.75 1.02 0.40 0.19 0.13 0.12 0.19 0.41 0.63 0.72
1.08 1.35 1.29 0.97 1.10 1.14 1.12 1.96 2.01 1.01 1.55 1.88 1.65 1.53 1.40 1.14 0.53 0.27 0.30 0.50 0.80 1.64 2.42 2.83 2.66 1.54 0.62 0.69 0.48 0.19 0.24 0.34 0.62 0.60 1.10 1.62 0.99 0.71 0.39 0.19 0.06 0.10 0.17 0.29 0.61
1.17 1.19 0.97 0.94 0.93 0.82 1.01 1.78 1.95 2.05 2.31 1.83 0.93 0.69 0.80 0.90 0.57 0.53 0.53 0.67 1.43 2.03 2.31 2.43 2.03 1.26 0.34 0.20 0.21 0.13 0.21 0.23 0.49 0.69 0.54 0.89 0.90 0.73 0.49 0.47 0.14 0.12 0.13 0.22 0.51
0.93 0.87 0.83 0.88 1.00 1.19 1.33 1.58 1.29 1.72 2.60 1.81 0.75 0.60 0.62 0.57 0.82 0.68 0.80 1.36 1.72 2.04 1.77 1.96 1.09 0.71 0.62 0.33 0.31 0.26 0.26 0.25 0.40 0.70 0.62 0.58 0.66 0.50 0.48 0.32 0.21 0.10 0.07 0.19 0.39
0.80 0.76 0.79 0.95 1.03 1.40 1.30 1.01 1.01 1.12 2.04 2.22 1.26 1.04 0.83 0.57 0.85 0.73 1.14 1.54 1.62 1.51 1.16 1.21 0.60 0.37 0.61 0.55 0.46 0.26 0.22 0.20 0.38 0.47 0.42 0.47 0.58 0.44 0.37 0.27 0.13 0.07 0.06 0.11 0.24
0.90 0.96 1.03 1.17 1.35 1.02 1.27 0.94 0.83 1.14 1.69 2.00 1.23 1.16 0.65 1.04 1.21 0.56 1.63 1.59 1.70 1.35 1.03 1.18 0.68 0.46 0.44 0.74 0.42 0.30 0.14 0.24 0.49 0.59 0.53 0.44 0.66 0.47 0.30 0.28 0.15 0.07 0.04 0.14 0.22
1.29 1.09 0.93 1.28 1.31 1.16 0.86 0.64 0.87 1.50 1.82 1.41 1.07 0.75 0.89 0.88 0.66 0.79 1.30 1.20 1.09 1.08 1.06 0.96 0.61 0.69 0.51 0.70 0.39 0.43 0.17 0.24 0.40 0.62 1.02 0.42 0.75 0.56 0.42 0.31 0.15 0.05 0.06 0.17 0.26
1.25 1.18 1.07 1.05 0.98 0.98 0.84 0.61 1.28 1.68 2.25 2.04 1.51 1.31 0.78 0.56 0.53 0.97 1.32 0.99 0.91 0.95 1.00 0.59 0.44 0.88 0.75 0.59 0.55 0.41 0.44 0.41 0.65 0.84 1.41 0.54 0.69 0.72 0.59 0.55 0.32 0.07 0.14 0.26 0.29
1.21 1.41 1.31 0.79 0.89 0.85 1.31 1.13 1.53 1.28 1.21 1.46 1.17 0.57 0.40 0.52 0.83 1.15 1.22 0.79 1.12 1.57 1.45 1.24 0.99 0.84 0.76 0.99 1.03 0.73 0.95 1.42 1.42 1.75 0.86 0.54 0.70 0.77 0.62 0.40 0.36 0.28 0.37 0.43 0.42
1.42 1.45 1.47 1.01 0.94 0.99 1.80 1.29 1.22 0.87 0.98 0.82 0.41 0.39 0.50 0.39 0.57 0.75 0.98 0.50 0.31 0.47 0.78 0.96 1.41 1.19 0.78 0.87 1.21 0.97 0.91 1.18 0.86 0.75 0.63 0.38 0.88 1.06 0.88 0.71 0.65 0.50 0.73 1.00 1.09
1.77 1.97 1.74 1.48 1.20 1.32 1.48 1.21 1.04 0.95 0.94 0.47 0.32 0.37 0.40 0.18 0.28 0.53 0.43 0.24 0.15 0.16 0.63 0.48 0.76 0.58 0.77 0.62 0.81 0.84 0.87 0.77 1.11 0.58 0.62 0.60 0.97 1.22 1.31 1.24 0.73 1.22 1.33 1.37 1.52
2.35 2.66 1.63 1.35 1.47 1.46 1.32 1.06 0.64 0.41 0.28 0.18 0.29 0.14 0.10 0.06 0.11 0.12 0.17 0.07 0.11 0.04 0.21 0.37 0.75 0.96 0.85 0.78 0.65 0.60 0.47 0.78 1.34 0.94 0.60 0.39 0.52 1.61 1.75 1.33 1.13 1.26 1.28 1.25 1.54
2.36 2.50 1.68 1.75 2.08 2.06 1.56 1.13 0.45 0.18 0.15 0.15 0.09 0.04 0.02 0.02 0.05 0.13 0.14 0.07 0.06 0.14 0.23 0.55 1.00 1.03 1.06 0.78 0.53 0.71 0.77 0.47 0.61 0.52 0.45 0.27 0.79 1.41 1.41 1.13 0.92 0.91 0.92 0.93 0.96
2.22 2.01 1.92 2.35 2.56 1.80 1.08 0.78 0.47 0.16 0.17 0.14 0.12 0.03 0.01 0.02 0.04 0.13 0.12 0.09 0.03 0.11 0.32 0.41 0.80 0.81 0.65 0.18 0.13 0.25 0.27 0.20 0.73 0.54 0.41 0.41 0.85 0.96 0.92 0.80 0.61 0.47 0.29 0.18 0.12
2.00 1.85 2.76 1.57 1.10 0.73 0.47 0.44 0.30 0.10 0.15 0.19 0.12 0.01 0.01 0.03 0.03 0.02 0.01 0.01 0.00 0.02 0.20 0.44 1.01 0.82 0.70 0.48 0.49 0.69 0.33 0.37 0.63 1.00 0.77 0.43 0.54 0.25 0.24 0.21 0.14 0.04 0.02 0.02 0.01
1.87 1.90 3.74 2.47 0.61 0.18 0.42 0.46 0.30 0.06 0.08 0.14 0.12 0.03 0.05 0.03 0.01 0.01 0.00 0.00 0.00 0.00 0.16 0.72 0.81 0.86 0.71 0.63 0.88 0.72 0.34 0.53 1.08 1.15 0.37 0.18 0.10 0.05 0.03 0.01 0.02 0.04 0.04 0.02 0.02
1.30 0.79 0.85 0.98 0.50 0.11 0.36 0.34 0.37 0.23 0.13 0.17 0.12 0.04 0.07 0.03 0.01 0.01 0.00 0.00 0.00 0.00 0.16 0.66 1.15 1.28 0.54 0.32 0.69 0.60 0.31 0.43 0.98 0.55 0.51 0.16 0.06 0.03 0.04 0.05 0.07 0.09 0.08 0.06 0.06
0.77 0.58 0.12 0.07 0.06 0.16 0.23 0.28 0.34 0.34 0.28 0.20 0.15 0.04 0.04 0.05 0.01 0.01 0.00 0.00 0.01 0.01 0.15 0.55 0.95 0.81 0.34 0.20 0.40 0.47 0.23 0.35 0.56 0.41 0.30 0.12 0.11 0.06 0.04 0.06 0.06 0.17 0.11 0.08 0.08
0.69 0.50 0.15 0.12 0.13 0.10 0.08 0.12 0.23 0.37 0.24 0.09 0.09 0.11 0.07 0.03 0.01 0.00 0.00 0.00 0.00 0.01 0.07 0.36 0.63 0.82 0.65 0.41 0.55 0.52 0.26 0.31 0.41 0.35 0.24 0.14 0.12 0.04 0.05 0.12 0.27 0.46 0.11 0.05 0.02

GFSSW_prec_precacc_132.txt.gz
Total_Precipitation_Accumulation
0.62 0.69 0.84 1.07 1.24 1.07 1.06 1.03 0.93 0.66 0.64 0.69 0.87 1.87 1.84 0.77 0.67 0.43 0.19 0.07 0.09 0.18 0.32 0.11 0.10 0.09 0.14 0.25 0.58 0.92 1.13 0.67 0.14 0.04 0.02 0.01 0.01 0.01 0.01 0.00 0.01 0.01 0.12 0.10 0.26
0.75 1.06 1.40 1.62 1.90 1.95 1.50 1.24 0.89 0.66 0.65 0.74 1.12 1.79 1.97 0.73 0.46 0.40 0.26 0.34 0.34 0.51 0.32 0.21 0.16 0.22 0.25 0.33 0.84 1.40 1.34 0.40 0.09 0.06 0.02 0.04 0.01 0.01 0.02 0.01 0.06 0.10 0.09 0.06 0.22
1.02 1.27 1.54 2.26 2.76 3.48 3.04 1.44 0.72 0.54 0.53 0.66 0.98 2.20 2.11 1.07 0.42 0.13 0.21 0.30 0.53 0.71 0.45 0.20 0.26 0.37 0.27 0.40 0.56 1.05 1.09 0.29 0.29 0.26 0.24 0.13 0.04 0.01 0.05 0.05 0.01 0.05 0.12 0.22 0.29
0.99 1.18 1.41 1.43 1.84 2.51 2.25 0.98 0.78 0.52 0.44 0.53 1.09 2.34 2.33 1.37 0.65 0.14 0.14 0.28 0.51 0.95 0.65 0.49 0.47 0.50 0.21 0.21 0.25 0.55 0.60 0.43 0.47 0.47 0.47 0.18 0.10 0.07 0.05 0.02 0.01 0.06 0.27 0.41 0.54
0.93 1.08 0.98 1.24 1.33 1.49 1.06 0.80 0.76 0.69 0.60 0.59 1.34 2.66 1.95 1.53 0.56 0.18 0.19 0.22 0.60 0.95 0.54 0.44 0.43 0.35 0.13 0.09 0.21 0.36 0.46 0.56 0.71 0.62 0.47 0.32 0.19 0.11 0.05 0.02 0.04 0.20 0.39 0.49 0.76
0.86 0.82 0.70 0.74 0.92 0.78 0.49 0.64 0.71 0.61 0.64 0.72 1.56 2.29 1.50 1.22 0.50 0.19 0.20 0.39 0.62 0.78 0.62 0.55 0.47 0.36 0.24 0.13 0.27 0.18 0.44 0.68 0.97 0.79 0.86 0.47 0.24 0.18 0.06 0.10 0.18 0.40 0.38 0.40 0.46
0.82 0.79 0.66 0.78 0.77 0.66 0.61 0.71 0.72 0.58 0.62 0.96 1.52 1.83 1.51 1.16 0.77 0.57 0.18 0.54 0.97 0.69 0.73 0.62 0.72 0.76 0.49 0.26 0.14 0.23 0.65 0.99 1.08 1.23 1.21 0.87 0.70 0.22 0.04 0.11 0.26 0.36 0.41 0.53 0.50
0.88 0.76 0.68 0.84 0.80 0.80 0.71 0.69 0.75 0.82 1.06 1.59 2.08 1.66 1.96 1.16 0.73 0.52 0.22 0.37 0.80 1.04 0.99 1.09 0.79 0.91 0.56 0.41 0.32 0.51 0.94 1.00 0.93 1.30 1.91 1.55 0.81 0.19 0.10 0.16 0.20 0.41 0.62 0.57 0.43
0.91 0.89 0.97 1.04 0.94 0.97 1.01 1.04 0.92 0.82 1.28 1.95 1.95 1.57 1.95 1.44 0.70 0.24 0.23 0.39 0.72 1.49 1.85 2.06 1.72 1.23 0.65 0.65 0.61 0.56 0.57 0.73 0.73 0.77 1.87 1.75 1.02 0.40 0.19 0.13 0.12 0.19 0.41 0.63 0.72
1.08 1.35 1.29 0.97 1.10 1.14 1.12 1.96 2.01 1.01 1.55 1.89 1.68 1.62 1.59 1.30 0.55 0.27 0.30 0.50 0.80 1.64 2.42 2.83 2.66 1.54 0.62 0.69 0.48 0.19 0.24 0.34 0.62 0.60 1.10 1.62 0.99 0.71 0.39 0.19 0.06 0.10 0.17 0.29 0.61
1.17 1.19 0.97 0.94 0.93 0.82 1.01 1.78 1.95 2.06 2.32 1.85 0.96 0.72 0.89 0.93 0.58 0.53 0.53 0.67 1.43 2.03 2.31 2.43 2.03 1.26 0.34 0.20 0.21 0.13 0.21 0.23 0.49 0.69 0.54 0.89 0.90 0.73 0.49 0.47 0.14 0.12 0.13 0.22 0.51
0.93 0.87 0.83 0.88 1.00 1.19 1.33 1.58 1.29 1.73 2.64 1.83 0.76 0.60 0.62 0.57 0.82 0.68 0.80 1.36 1.72 2.04 1.77 1.96 1.09 0.71 0.62 0.33 0.31 0.26 0.26 0.25 0.40 0.70 0.62 0.58 0.66 0.50 0.48 0.32 0.21 0.10 0.07 0.19 0.39
0.80 0.76 0.79 0.95 1.03 1.40 1.30 1.01 1.01 1.12 2.04 2.23 1.27 1.06 0.84 0.57 0.85 0.73 1.14 1.54 1.62 1.51 1.16 1.21 0.60 0.37 0.61 0.55 0.46 0.26 0.22 0.20 0.38 0.47 0.42 0.47 0.58 0.44 0.37 0.27 0.13 0.07 0.06 0.11 0.24
0.90 0.96 1.03 1.17 1.35 1.02 1.27 0.94 0.83 1.14 1.69 2.00 1.23 1.16 0.65 1.04 1.21 0.56 1.63 1.59 1.70 1.35 1.03 1.18 0.68 0.46 0.44 0.74 0.42 0.30 0.14 0.24 0.49 0.59 0.53 0.44 0.66 0.47 0.30 0.28 0.15 0.07 0.04 0.14 0.22
1.29 1.09 0.93 1.28 1.31 1.16 0.86 0.64 0.87 1.50 1.82 1.42 1.07 0.75 0.89 0.88 0.66 0.79 1.30 1.20 1.09 1.08 1.06 0.96 0.61 0.69 0.51 0.70 0.39 0.43 0.17 0.24 0.40 0.62 1.02 0.42 0.75 0.56 0.42 0.31 0.15 0.05 0.06 0.17 0.26
1.25 1.18 1.07 1.05 0.98 0.98 0.84 0.61 1.28 1.68 2.25 2.04 1.51 1.31 0.78 0.56 0.53 0.97 1.32 0.99 0.91 0.95 1.00 0.59 0.44 0.88 0.75 0.59 0.55 0.41 0.44 0.41 0.65 0.84 1.41 0.54 0.69 0.72 0.59 0.55 0.32 0.07 0.14 0.26 0.29
1.21 1.41 1.31 0.79 0.89 0.85 1.31 1.13 1.53 1.28 1.21 1.46 1.17 0.57 0.40 0.52 0.83 1.15 1.22 0.79 1.12 1.57 1.45 1.24 0.99 0.84 0.76 0.99 1.03 0.73 0.95 1.42 1.42 1.75 0.86 0.54 0.70 0.77 0.62 0.40 0.36 0.28 0.37 0.43 0.42
1.42 1.45 1.47 1.01 0.94 0.99 1.80 1.29 1.22 0.87 0.98 0.82 0.41 0.39 0.50 0.39 0.57 0.75 0.98 0.50 0.31 0.47 0.78 0.96 1.41 1.19 0.78 0.87 1.21 0.97 0.91 1.18 0.86 0.75 0.63 0.38 0.88 1.06 0.88 0.71 0.65 0.50 0.73 1.00 1.09
1.77 1.97 1.74 1.48 1.20 1.32 1.48 1.21 1.04 0.95 0.94 0.47 0.32 0.37 0.40 0.18 0.28 0.53 0.43 0.24 0.15 0.16 0.63 0.48 0.76 0.58 0.77 0.62 0.81 0.84 0.87 0.77 1.11 0.58 0.62 0.60 0.97 1.22 1.31 1.24 0.73 1.22 1.33 1.37 1.52
2.35 2.66 1.63 1.35 1.47 1.46 1.32 1.06 0.64 0.41 0.28 0.18 0.29 0.14 0.10 0.06 0.11 0.12 0.17 0.07 0.11 0.04 0.21 0.37 0.75 0.96 0.85 0.78 0.65 0.60 0.47 0.78 1.34 0.94 0.60 0.39 0.52 1.61 1.75 1.33 1.13 1.26 1.28 1.25 1.54
2.36 2.50 1.68 1.75 2.08 2.06 1.56 1.13 0.45 0.18 0.15 0.15 0.09 0.04 0.02 0.02 0.05 0.13 0.14 0.07 0.06 0.14 0.23 0.55 1.00 1.03 1.06 0.78 0.53 0.71 0.77 0.47 0.61 0.52 0.45 0.27 0.79 1.41 1.41 1.13 0.92 0.91 0.92 0.93 0.96
2.22 2.01 1.92 2.35 2.56 1.80 1.08 0.78 0.47 0.16 0.17 0.14 0.12 0.03 0.01 0.02 0.04 0.13 0.12 0.09 0.03 0.11 0.32 0.41 0.80 0.81 0.65 0.18 0.13 0.25 0.27 0.20 0.73 0.54 0.41 0.41 0.85 0.96 0.92 0.80 0.61 0.47 0.29 0.18 0.12
2.00 1.85 2.76 1.57 1.10 0.73 0.47 0.44 0.30 0.10 0.15 0.19 0.12 0.01 0.01 0.03 0.03 0.02 0.01 0.01 0.00 0.02 0.20 0.44 1.01 0.82 0.70 0.48 0.49 0.69 0.33 0.37 0.63 1.00 0.77 0.43 0.54 0.25 0.24 0.21 0.14 0.04 0.02 0.02 0.01
1.87 1.90 3.74 2.47 0.61 0.18 0.42 0.46 0.30 0.06 0.08 0.14 0.12 0.03 0.05 0.03 0.01 0.01 0.00 0.00 0.00 0.00 0.16 0.72 0.81 0.86 0.71 0.63 0.88 0.72 0.34 0.53 1.08 1.15 0.37 0.18 0.10 0.05 0.03 0.01 0.02 0.04 0.04 0.02 0.02
1.30 0.79 0.85 0.98 0.50 0.11 0.36 0.34 0.37 0.23 0.13 0.17 0.12 0.04 0.07 0.03 0.01 0.01 0.00 0.00 0.00 0.00 0.16 0.66 1.15 1.28 0.54 0.32 0.69 0.60 0.31 0.43 0.98 0.55 0.51 0.16 0.06 0.03 0.04 0.05 0.07 0.09 0.08 0.06 0.06
0.77 0.58 0.12 0.07 0.06 0.16 0.23 0.28 0.34 0.34 0.28 0.20 0.15 0.04 0.04 0.05 0.01 0.01 0.00 0.00 0.01 0.01 0.15 0.55 0.95 0.81 0.34 0.20 0.40 0.47 0.23 0.35 0.56 0.41 0.30 0.12 0.11 0.06 0.04 0.06 0.06 0.17 0.11 0.08 0.08
0.69 0.50 0.15 0.12 0.13 0.10 0.08 0.12 0.23 0.37 0.24 0.09 0.09 0.11 0.07 0.03 0.01 0.00 0.00 0.00 0.00 0.01 0.07 0.36 0.63 0.82 0.65 0.41 0.55 0.52 0.26 0.31 0.41 0.35 0.24 0.14 0.12 0.04 0.05 0.12 0.27 0.46 0.11 0.05 0.02

GFSSW_prec_precacc_135.txt.gz
Total_Precipitation_Accumulation
0.79 0.86 0.94 1.09 1.25 1.08 1.06 1.03 0.93 0.66 0.64 0.69 0.87 1.99 2.38 0.87 0.67 0.43 0.19 0.07 0.09 0.18 0.32 0.11 0.10 0.09 0.14 0.25 0.58 0.92 1.13 0.67 0.14 0.04 0.02 0.01 0.01 0.01 0.01 0.00 0.01 0.01 0.12 0.10 0.26
1.02 1.20 1.59 1.77 1.95 1.97 1.52 1.25 0.89 0.66 0.65 0.74 1.15 2.05 2.91 0.76 0.46 0.40 0.28 0.35 0.34 0.51 0.32 0.21 0.16 0.22 0.25 0.33 0.84 1.40 1.34 0.40 0.09 0.06 0.02 0.04 0.01 0.01 0.02 0.01 0.06 0.10 0.09 0.06 0.22
1.13 1.34 1.60 2.40 3.03 3.64 3.08 1.46 0.73 0.54 0.56 0.71 1.09 2.85 2.99 1.07 0.42 0.13 0.22 0.31 0.53 0.71 0.45 0.20 0.26 0.37 0.27 0.40 0.56 1.05 1.09 0.29 0.29 0.26 0.24 0.13 0.04 0.01 0.05 0.05 0.01 0.05 0.12 0.22 0.29
1.01 1.21 1.44 1.45 1.88 2.58 2.35 1.08 0.84 0.58 0.53 0.68 1.42 3.08 2.72 1.37 0.65 0.14 0.15 0.28 0.51 0.95 0.65 0.49 0.47 0.50 0.21 0.21 0.25 0.55 0.60 0.43 0.47 0.47 0.47 0.18 0.10 0.07 0.05 0.02 0.01 0.06 0.27 0.41 0.54
0.94 1.09 1.00 1.27 1.38 1.53 1.09 0.89 0.88 0.79 0.71 0.84 1.77 3.15 2.24 1.55 0.56 0.18 0.19 0.22 0.60 0.95 0.54 0.44 0.43 0.35 0.13 0.09 0.21 0.36 0.46 0.56 0.71 0.62 0.47 0.32 0.19 0.11 0.05 0.02 0.04 0.20 0.39 0.49 0.76
0.86 0.82 0.72 0.78 0.99 0.86 0.56 0.71 0.78 0.66 0.73 1.06 2.00 2.57 1.71 1.26 0.50 0.19 0.20 0.39 0.62 0.78 0.62 0.55 0.47 0.36 0.24 0.13 0.27 0.18 0.44 0.68 0.97 0.79 0.86 0.47 0.24 0.18 0.06 0.10 0.18 0.40 0.38 0.40 0.46
0.83 0.79 0.66 0.78 0.79 0.73 0.67 0.72 0.72 0.59 0.71 1.16 1.74 1.91 1.63 1.19 0.77 0.57 0.18 0.54 0.97 0.69 0.73 0.62 0.72 0.76 0.49 0.26 0.14 0.23 0.65 0.99 1.08 1.23 1.21 0.87 0.70 0.22 0.04 0.11 0.26 0.36 0.41 0.53 0.50
0.88 0.76 0.68 0.84 0.81 0.80 0.74 0.71 0.75 0.83 1.07 1.63 2.15 1.69 2.00 1.16 0.73 0.52 0.22 0.37 0.80 1.04 0.99 1.09 0.79 0.91 0.56 0.41 0.32 0.51 0.94 1.00 0.93 1.30 1.91 1.55 0.81 0.19 0.10 0.16 0.20 0.41 0.62 0.57 0.43
0.91 0.89 0.97 1.04 0.94 0.97 1.01 1.04 0.93 0.83 1.28 1.95 1.96 1.59 1.97 1.44 0.70 0.24 0.23 0.39 0.72 1.49 1.85 2.06 1.72 1.23 0.65 0.65 0.61 0.56 0.57 0.73 0.73 0.77 1.87 1.75 1.02 0.40 0.19 0.13 0.12 0.19 0.41 0.63 0.72
1.08 1.35 1.29 0.97 1.10 1.14 1.12 1.96 2.01 1.01 1.56 1.89 1.69 1.64 1.60 1.30 0.55 0.27 0.30 0.50 0.80 1.64 2.42 2.83 2.66 1.54 0.62 0.69 0.48 0.19 0.24 0.34 0.62 0.60 1.10 1.62 0.99 0.71 0.39 0.19 0.06 0.10 0.17 0.29 0.61
1.17 1.19 0.97 0.94 0.93 0.82 1.01 1.78 1.96 2.09 2.32 1.87 1.00 0.74 0.90 0.93 0.58 0.53 0.53 0.67 1.43 2.03 2.31 2.43 2.03 1.26 0.34 0.20 0.21 0.13 0.21 0.23 0.49 0.69 0.54 0.89 0.90 0.73 0.49 0.47 0.14 0.12 0.13 0.22 0.51
0.93 0.87 0.83 0.88 1.00 1.19 1.33 1.58 1.29 1.74 2.66 1.85 0.78 0.61 0.64 0.58 0.82 0.68 0.80 1.36 1.72 2.04 1.77 1.96 1.09 0.71 0.62 0.33 0.31 0.26 0.26 0.25 0.40 0.70 0.62 0.58 0.66 0.50 0.48 0.32 0.21 0.10 0.07 0.19 0.39
0.80 0.76 0.79 0.95 1.03 1.40 1.30 1.01 1.01 1.12 2.05 2.28 1.29 1.07 0.84 0.57 0.85 0.73 1.14 1.54 1.62 1.51 1.16 1.21 0.60 0.37 0.61 0.55 0.46 0.26 0.22 0.20 0.38 0.47 0.42 0.47 0.58 0.44 0.37 0.27 0.13 0.07 0.06 0.11 0.24
0.90 0.96 1.03 1.17 1.35 1.02 1.27 0.94 0.83 1.14 1.69 2.01 1.23 1.16 0.65 1.04 1.21 0.56 1.63 1.59 1.70 1.35 1.03 1.18 0.68 0.46 0.44 0.74 0.42 0.30 0.14 0.24 0.49 0.59 0.53 0.44 0.66 0.47 0.30 0.28 0.15 0.07 0.04 0.14 0.22
1.29 1.09 0.93 1.28 1.31 1.16 0.86 0.64 0.87 1.50 1.82 1.42 1.07 0.75 0.89 0.88 0.66 0.79 1.30 1.20 1.09 1.08 1.06 0.96 0.61 0.69 0.51 0.70 0.39 0.43 0.17 0.24 0.40 0.62 1.02 0.42 0.75 0.56 0.42 0.31 0.15 0.05 0.06 0.17 0.26
1.25 1.18 1.07 1.05 0.98 0.98 0.84 0.61 1.28 1.68 2.25 2.04 1.51 1.31 0.78 0.56 0.53 0.97 1.32 0.99 0.91 0.95 1.00 0.59 0.44 0.88 0.75 0.59 0.55 0.41 0.44 0.41 0.65 0.84 1.41 0.54 0.69 0.72 0.59 0.55 0.32 0.07 0.14 0.26 0.29
1.21 1.41 1.31 0.79 0.89 0.85 1.31 1.13 1.53 1.28 1.21 1.46 1.17 0.57 0.40 0.52 0.83 1.15 1.22 0.79 1.12 1.57 1.45 1.24 0.99 0.84 0.76 0.99 1.03 0.73 0.95 1.42 1.42 1.75 0.86 0.54 0.70 0.77 0.62 0.40 0.36 0.28 0.37 0.43 0.42
1.42 1.45 1.47 1.01 0.94 0.99 1.80 1.29 1.22 0.87 0.98 0.82 0.41 0.39 0.50 0.39 0.57 0.75 0.98 0.50 0.31 0.47 0.78 0.96 1.41 1.19 0.78 0.87 1.21 0.97 0.91 1.18 0.86 0.75 0.63 0.38 0.88 1.06 0.88 0.71 0.65 0.50 0.73 1.00 1.09
1.77 1.97 1.74 1.48 1.20 1.32 1.48 1.21 1.04 0.95 0.94 0.47 0.32 0.37 0.40 0.18 0.28 0.53 0.43 0.24 0.15 0.16 0.63 0.48 0.76 0.58 0.77 0.62 0.81 0.84 0.87 0.77 1.11 0.58 0.62 0.60 0.97 1.22 1.31 1.24 0.73 1.22 1.33 1.37 1.52
2.35 2.66 1.63 1.35 1.47 1.46 1.32 1.06 0.64 0.41 0.28 0.18 0.29 0.14 0.10 0.06 0.11 0.12 0.17 0.07 0.11 0.04 0.21 0.37 0.75 0.96 0.85 0.78 0.65 0.60 0.47 0.78 1.34 0.94 0.60 0.39 0.52 1.61 1.75 1.33 1.13 1.26 1.28 1.25 1.54
2.36 2.50 1.68 1.75 2.08 2.06 1.56 1.13 0.45 0.18 0.15 0.15 0.09 0.04 0.02 0.02 0.05 0.13 0.14 0.07 0.06 0.14 0.23 0.55 1.00 1.03 1.06 0.78 0.53 0.71 0.77 0.47 0.61 0.52 0.45 0.27 0.79 1.41 1.41 1.13 0.92 0.91 0.92 0.93 0.96
2.22 2.01 1.92 2.35 2.56 1.80 1.08 0.78 0.47 0.16 0.17 0.14 0.12 0.03 0.01 0.02 0.04 0.13 0.12 0.09 0.03 0.11 0.32 0.41 0.80 0.81 0.65 0.18 0.13 0.25 0.27 0.20 0.73 0.54 0.41 0.41 0.85 0.96 0.92 0.80 0.61 0.47 0.29 0.18 0.12
2.00 1.85 2.76 1.57 1.10 0.73 0.47 0.44 0.30 0.10 0.15 0.19 0.12 0.01 0.01 0.03 0.03 0.02 0.01 0.01 0.00 0.02 0.20 0.44 1.01 0.82 0.70 0.48 0.49 0.69 0.33 0.37 0.63 1.00 0.77 0.43 0.54 0.25 0.24 0.21 0.14 0.04 0.02 0.02 0.01
1.87 1.90 3.74 2.47 0.61 0.18 0.42 0.46 0.30 0.06 0.08 0.14 0.12 0.03 0.05 0.03 0.01 0.01 0.00 0.00 0.00 0.00 0.16 0.72 0.81 0.86 0.71 0.63 0.88 0.72 0.34 0.53 1.08 1.15 0.37 0.18 0.10 0.05 0.03 0.01 0.02 0.04 0.04 0.02 0.02
1.30 0.79 0.85 0.98 0.50 0.11 0.36 0.34 0.37 0.23 0.13 0.17 0.12 0.04 0.07 0.03 0.01 0.01 0.00 0.00 0.00 0.00 0.16 0.66 1.15 1.28 0.54 0.32 0.69 0.60 0.31 0.43 0.98 0.55 0.51 0.16 0.06 0.03 0.04 0.05 0.07 0.09 0.08 0.06 0.06
0.77 0.58 0.12 0.07 0.06 0.16 0.23 0.28 0.34 0.34 0.28 0.20 0.15 0.04 0.04 0.05 0.01 0.01 0.00 0.00 0.01 0.01 0.15 0.55 0.95 0.81 0.34 0.20 0.40 0.47 0.23 0.35 0.56 0.41 0.30 0.12 0.11 0.06 0.04 0.06 0.06 0.17 0.11 0.08 0.08
0.69 0.50 0.15 0.12 0.13 0.10 0.08 0.12 0.23 0.37 0.24 0.09 0.09 0.11 0.07 0.03 0.01 0.00 0.00 0.00 0.00 0.01 0.07 0.36 0.63 0.82 0.65 0.41 0.55 0.52 0.26 0.31 0.41 0.35 0.24 0.14 0.12 0.04 0.05 0.12 0.27 0.46 0.11 0.05 0.02

GFSSW_prec_precacc_138.txt.gz
Total_Precipitation_Accumulation
0.83 0.90 0.98 1.13 1.25 1.08 1.06 1.04 0.93 0.66 0.65 0.69 0.87 2.00 2.52 1.46 0.67 0.43 0.19 0.07 0.09 0.18 0.32 0.11 0.10 0.09 0.14 0.25 0.58 0.92 1.13 0.67 0.14 0.04 0.02 0.01 0.01 0.01 0.01 0.00 0.01 0.01 0.12 0.10 0.26
1.06 1.24 1.65 1.87 1.97 1.97 1.53 1.25 0.89 0.67 0.66 0.75 1.15 2.08 3.14 1.20 0.47 0.40 0.30 0.36 0.34 0.51 0.32 0.21 0.16 0.22 0.25 0.33 0.84 1.40 1.34 0.40 0.09 0.06 0.02 0.04 0.01 0.01 0.02 0.01 0.06 0.10 0.09 0.06 0.22
1.16 1.40 1.65 2.46 3.11 3.66 3.10 1.47 0.74 0.56 0.56 0.71 1.11 2.99 3.47 1.25 0.42 0.13 0.23 0.31 0.53 0.71 0.45 0.20 0.26 0.37 0.27 0.40 0.56 1.05 1.09 0.29 0.29 0.26 0.24 0.13 0.04 0.01 0.05 0.05 0.01 0.05 0.12 0.22 0.29
1.02 1.25 1.52 1.50 2.07 2.83 2.47 1.11 0.85 0.58 0.53 0.70 1.52 3.47 3.29 1.48 0.66 0.14 0.15 0.28 0.51 0.95 0.65 0.49 0.47 0.50 0.21 0.21 0.25 0.55 0.60 0.43 0.47 0.47 0.47 0.18 0.10 0.07 0.05 0.02 0.01 0.06 0.27 0.41 0.54
0.94 1.10 1.04 1.34 1.50 2.00 1.55 1.17 1.01 0.84 0.78 0.95 1.99 3.52 2.51 1.58 0.56 0.18 0.19 0.22 0.60 0.95 0.54 0.44 0.43 0.35 0.13 0.09 0.21 0.36 0.46 0.56 0.71 0.62 0.47 0.32 0.19 0.11 0.05 0.02 0.04 0.20 0.39 0.49 0.76
0.86 0.82 0.73 0.85 1.02 1.02 0.93 1.05 0.99 0.77 0.85 1.23 2.25 2.79 1.89 1.26 0.50 0.19 0.20 0.39 0.62 0.78 0.62 0.55 0.47 0.36 0.24 0.13 0.27 0.18 0.44 0.68 0.97 0.79 0.86 0.47 0.24 0.18 0.06 0.10 0.18 0.40 0.38 0.40 0.46
0.83 0.79 0.67 0.80 0.82 0.74 0.71 0.85 0.95 0.82 1.05 1.44 1.98 2.08 1.72 1.19 0.77 0.57 0.18 0.54 0.97 0.69 0.73 0.62 0.72 0.76 0.49 0.26 0.14 0.23 0.65 0.99 1.08 1.23 1.21 0.87 0.70 0.22 0.04 0.11 0.26 0.36 0.41 0.53 0.50
0.88 0.76 0.69 0.85 0.82 0.81 0.74 0.75 0.82 1.03 1.33 1.86 2.33 1.78 2.06 1.16 0.73 0.52 0.22 0.37 0.80 1.04 0.99 1.09 0.79 0.91 0.56 0.41 0.32 0.51 0.94 1.00 0.93 1.30 1.91 1.55 0.81 0.19 0.10 0.16 0.20 0.41 0.62 0.57 0.43
0.91 0.89 0.97 1.04 0.94 0.97 1.01 1.05 0.93 0.84 1.32 2.01 2.03 1.64 1.99 1.44 0.70 0.24 0.23 0.39 0.72 1.49 1.85 2.06 1.72 1.23 0.65 0.65 0.61 0.56 0.57 0.73 0.73 0.77 1.87 1.75 1.02 0.40 0.19 0.13 0.12 0.19 0.41 0.63 0.72
1.08 1.35 1.29 0.97 1.10 1.14 1.12 1.96 2.01 1.01 1.56 1.90 1.70 1.65 1.60 1.30 0.55 0.27 0.30 0.50 0.80 1.64 2.42 2.83 2.66 1.54 0.62 0.69 0.48 0.19 0.24 0.34 0.62 0.60 1.10 1.62 0.99 0.71 0.39 0.19 0.06 0.10 0.17 0.29 0.61
1.17 1.19 0.97 0.94 0.93 0.82 1.02 1.78 1.96 2.11 2.32 1.88 1.00 0.74 0.90 0.93 0.58 0.53 0.53 0.67 1.43 2.03 2.31 2.43 2.03 1.26 0.34 0.20 0.21 0.13 0.21 0.23 0.49 0.69 0.54 0.89 0.90 0.73 0.49 0.47 0.14 0.12 0.13 0.22 0.51
0.93 0.87 0.83 0.88 1.00 1.19 1.33 1.58 1.29 1.75 2.66 1.85 0.78 0.61 0.64 0.58 0.82 0.68 0.80 1.36 1.72 2.04 1.77 1.96 1.09 0.71 0.62 0.33 0.31 0.26 0.26 0.25 0.40 0.70 0.62 0.58 0.66 0.50 0.48 0.32 0.21 0.10 0.07 0.19 0.39
0.80 0.76 0.79 0.95 1.03 1.40 1.30 1.01 1.01 1.12 2.05 2.28 1.29 1.07 0.84 0.57 0.85 0.73 1.14 1.54 1.62 1.51 1.16 1.21 0.60 0.37 0.61 0.55 0.46 0.26 0.22 0.20 0.38 0.47 0.42 0.47 0.58 0.44 0.37 0.27 0.13 0.07 0.06 0.11 0.24
0.90 0.96 1.03 1.17 1.35 1.02 1.27 0.94 0.83 1.14 1.69 2.01 1.23 1.16 0.65 1.04 1.21 0.56 1.63 1.59 1.70 1.35 1.03 1.18 0.68 0.46 0.44 0.74 0.42 0.30 0.14 0.24 0.49 0.59 0.53 0.44 0.66 0.47 0.30 0.28 0.15 0.07 0.04 0.14 0.22
1.29 1.09 0.93 1.28 1.31 1.16 0.86 0.64 0.87 1.50 1.82 1.42 1.07 0.75 0.89 0.88 0.66 0.79 1.30 1.20 1.09 1.08 1.06 0.96 0.61 0.69 0.51 0.70 0.39 0.43 0.17 0.24 0.40 0.62 1.02 0.42 0.75 0.56 0.42 0.31 0.15 0.05 0.06 0.17 0.26
1.25 1.18 1.07 1.05 0.98 0.98 0.84 0.61 1.28 1.68 2.25 2.04 1.51 1.31 0.78 0.56 0.53 0.97 1.32 0.99 0.91 0.95 1.00 0.59 0.44 0.88 0.75 0.59 0.55 0.41 0.44 0.41 0.65 0.84 1.41 0.54 0.69 0.72 0.59 0.55 0.32 0.07 0.14 0.26 0.29
1.21 1.41 1.31 0.79 0.89 0.85 1.31 1.13 1.53 1.28 1.21 1.46 1.17 0.57 0.40 0.52 0.83 1.15 1.22 0.79 1.12 1.57 1.45 1.24 0.99 0.84 0.76 0.99 1.03 0.73 0.95 1.42 1.42 1.75 0.86 0.54 0.70 0.77 0.62 0.40 0.36 0.28 0.37 0.43 0.42
1.42 1.45 1.47 1.01 0.94 0.99 1.80 1.29 1.22 0.87 0.98 0.82 0.41 0.39 0.50 0.39 0.57 0.75 0.98 0.50 0.31 0.47 0.78 0.96 1.41 1.19 0.78 0.87 1.21 0.97 0.91 1.18 0.86 0.75 0.63 0.38 0.88 1.06 0.88 0.71 0.65 0.50 0.73 1.00 1.09
1.77 1.97 1.74 1.48 1.20 1.32 1.48 1.21 1.04 0.95 0.94 0.47 0.32 0.37 0.40 0.18 0.28 0.53 0.43 0.24 0.15 0.16 0.63 0.48 0.76 0.58 0.77 0.62 0.81 0.84 0.87 0.77 1.11 0.58 0.62 0.60 0.97 1.22 1.31 1.24 0.73 1.22 1.33 1.37 1.52
2.35 2.66 1.63 1.35 1.47 1.46 1.32 1.06 0.64 0.41 0.28 0.18 0.29 0.14 0.10 0.06 0.11 0.12 0.17 0.07 0.11 0.04 0.21 0.37 0.75 0.96 0.85 0.78 0.65 0.60 0.47 0.78 1.34 0.94 0.60 0.39 0.52 1.61 1.75 1.33 1.13 1.26 1.28 1.25 1.54
2.36 2.50 1.68 1.75 2.08 2.06 1.56 1.13 0.45 0.18 0.15 0.15 0.09 0.04 0.02 0.02 0.05 0.13 0.14 0.07 0.06 0.14 0.23 0.55 1.00 1.03 1.06 0.78 0.53 0.71 0.77 0.47 0.61 0.52 0.45 0.27 0.79 1.41 1.41 1.13 0.92 0.91 0.92 0.93 0.96
2.22 2.01 1.92 2.35 2.56 1.80 1.08 0.78 0.47 0.16 0.17 0.14 0.12 0.03 0.01 0.02 0.04 0.13 0.12 0.09 0.03 0.11 0.32 0.41 0.80 0.81 0.65 0.18 0.13 0.25 0.27 0.20 0.73 0.54 0.41 0.41 0.85 0.96 0.92 0.80 0.61 0.47 0.29 0.18 0.12
2.00 1.85 2.76 1.57 1.10 0.73 0.47 0.44 0.30 0.10 0.15 0.19 0.12 0.01 0.01 0.03 0.03 0.02 0.01 0.01 0.00 0.02 0.20 0.44 1.01 0.82 0.70 0.48 0.49 0.69 0.33 0.37 0.63 1.00 0.77 0.43 0.54 0.25 0.24 0.21 0.14 0.04 0.02 0.02 0.01
1.87 1.90 3.74 2.47 0.61 0.18 0.42 0.46 0.30 0.06 0.08 0.14 0.12 0.03 0.05 0.03 0.01 0.01 0.00 0.00 0.00 0.00 0.16 0.72 0.81 0.86 0.71 0.63 0.88 0.72 0.34 0.53 1.08 1.15 0.37 0.18 0.10 0.05 0.03 0.01 0.02 0.04 0.04 0.02 0.02
1.30 0.79 0.85 0.98 0.50 0.11 0.36 0.34 0.37 0.23 0.13 0.17 0.12 0.04 0.07 0.03 0.01 0.01 0.00 0.00 0.00 0.00 0.16 0.66 1.15 1.28 0.54 0.32 0.69 0.60 0.31 0.43 0.98 0.55 0.51 0.16 0.06 0.03 0.04 0.05 0.07 0.09 0.08 0.06 0.06
0.77 0.58 0.12 0.07 0.06 0.16 0.23 0.28 0.34 0.34 0.28 0.20 0.15 0.04 0.04 0.05 0.01 0.01 0.00 0.00 0.01 0.01 0.15 0.55 0.95 0.81 0.34 0.20 0.40 0.47 0.23 0.35 0.56 0.41 0.30 0.12 0.11 0.06 0.04 0.06 0.06 0.17 0.11 0.08 0.08
0.69 0.50 0.15 0.12 0.13 0.10 0.08 0.12 0.23 0.37 0.24 0.09 0.09 0.11 0.07 0.03 0.01 0.00 0.00 0.00 0.00 0.01 0.07 0.36 0.63 0.82 0.65 0.41 0.55 0.52 0.26 0.31 0.41 0.35 0.24 0.14 0.12 0.04 0.05 0.12 0.27 0.46 0.11 0.05 0.02

GFSSW_prec_precacc_141.txt.gz
Total_Precipitation_Accumulation
0.87 0.98 1.06 1.21 1.30 1.10 1.13 1.12 0.95 0.66 0.65 0.70 0.88 2.00 2.64 2.06 0.69 0.43 0.20 0.08 0.09 0.18 0.32 0.11 0.10 0.09 0.14 0.25 0.58 0.92 1.13 0.67 0.14 0.04 0.02 0.01 0.01 0.01 0.01 0.00 0.01 0.01 0.12 0.10 0.26
1.08 1.31 1.75 2.04 2.03 2.01 1.54 1.29 0.90 0.67 0.67 0.77 1.16 2.10 3.19 1.50 0.48 0.40 0.32 0.38 0.34 0.51 0.32 0.21 0.16 0.22 0.25 0.33 0.84 1.40 1.34 0.40 0.09 0.06 0.02 0.04 0.01 0.01 0.02 0.01 0.06 0.10 0.09 0.06 0.22
1.17 1.45 1.76 2.67 3.27 3.72 3.14 1.47 0.74 0.59 0.58 0.72 1.11 3.00 3.49 1.33 0.44 0.13 0.23 0.31 0.53 0.71 0.45 0.20 0.26 0.37 0.27 0.40 0.56 1.05 1.09 0.29 0.29 0.26 0.24 0.13 0.04 0.01 0.05 0.05 0.01 0.05 0.12 0.22 0.29
1.02 1.27 1.64 1.64 2.52 2.97 2.50 1.11 0.86 0.59 0.53 0.71 1.53 3.49 3.37 1.58 0.68 0.14 0.15 0.28 0.51 0.95 0.65 0.49 0.47 0.50 0.21 0.21 0.25 0.55 0.60 0.43 0.47 0.47 0.47 0.18 0.10 0.07 0.05 0.02 0.01 0.06 0.27 0.41 0.54
0.94 1.10 1.12 1.52 2.11 2.29 1.63 1.20 1.03 0.85 0.78 0.96 2.01 3.54 2.57 1.68 0.57 0.18 0.19 0.22 0.60 0.95 0.54 0.44 0.43 0.35 0.13 0.09 0.21 0.36 0.46 0.56 0.71 0.62 0.47 0.32 0.19 0.11 0.05 0.02 0.04 0.20 0.39 0.49 0.76
0.86 0.83 0.75 0.94 1.38 1.56 1.27 1.20 1.06 0.82 0.89 1.27 2.27 2.81 1.93 1.32 0.51 0.19 0.20 0.39 0.62 0.78 0.62 0.55 0.47 0.36 0.24 0.13 0.27 0.18 0.44 0.68 0.97 0.79 0.86 0.47 0.24 0.18 0.06 0.10 0.18 0.40 0.38 0.40 0.46
0.83 0.80 0.67 0.84 1.04 1.22 1.18 1.15 1.09 0.91 1.09 1.45 1.99 2.11 1.75 1.20 0.77 0.57 0.18 0.54 0.97 0.69 0.73 0.62 0.72 0.76 0.49 0.26 0.14 0.23 0.65 0.99 1.08 1.23 1.21 0.87 0.70 0.22 0.04 0.11 0.26 0.36 0.41 0.53 0.50
0.88 0.76 0.69 0.85 0.85 0.88 0.85 0.83 0.91 1.10 1.38 1.90 2.36 1.80 2.06 1.16 0.73 0.52 0.22 0.37 0.80 1.04 0.99 1.09 0.79 0.91 0.56 0.41 0.32 0.51 0.94 1.00 0.93 1.30 1.91 1.55 0.81 0.19 0.10 0.16 0.20 0.41 0.62 0.57 0.43
0.91 0.89 0.97 1.04 0.94 0.97 1.02 1.06 0.97 0.92 1.43 2.12 2.11 1.69 1.99 1.44 0.70 0.24 0.23 0.39 0.72 1.49 1.85 2.06 1.72 1.23 0.65 0.65 0.61 0.56 0.57 0.73 0.73 0.77 1.87 1.75 1.02 0.40 0.19 0.13 0.12 0.19 0.41 0.63 0.72
1.08 1.35 1.29 0.97 1.10 1.14 1.12 1.96 2.01 1.02 1.61 1.97 1.75 1.69 1.61 1.30 0.55 0.27 0.30 0.50 0.80 1.64 2.42 2.83 2.66 1.54 0.62 0.69 0.48 0.19 0.24 0.34 0.62 0.60 1.10 1.62 0.99 0.71 0.39 0.19 0.06 0.10 0.17 0.29 0.61
1.17 1.19 0.97 0.94 0.93 0.82 1.02 1.78 1.96 2.11 2.32 1.88 1.02 0.75 0.90 0.93 0.58 0.53 0.53 0.67 1.43 2.03 2.31 2.43 2.03 1.26 0.34 0.20 0.21 0.13 0.21 0.23 0.49 0.69 0.54 0.89 0.90 0.73 0.49 0.47 0.14 0.12 0.13 0.22 0.51
0.93 0.87 0.83 0.88 1.00 1.19 1.33 1.58 1.29 1.75 2.66 1.85 0.78 0.61 0.64 0.58 0.82 0.68 0.80 1.36 1.72 2.04 1.77 1.96 1.09 0.71 0.62 0.33 0.31 0.26 0.26 0.25 0.40 0.70 0.62 0.58 0.66 0.50 0.48 0.32 0.21 0.10 0.07 0.19 0.39
0.80 0.76 0.79 0.95 1.03 1.40 1.30 1.01 1.01 1.12 2.05 2.28 1.29 1.07 0.84 0.57 0.85 0.73 1.14 1.54 1.62 1.51 1.16 1.21 0.60 0.37 0.61 0.55 0.46 0.26 0.22 0.20 0.38 0.47 0.42 0.47 0.58 0.44 0.37 0.27 0.13 0.07 0.06 0.11 0.24
0.90 0.96 1.03 1.17 1.35 1.02 1.27 0.94 0.83 1.14 1.69 2.01 1.23 1.16 0.65 1.04 1.21 0.56 1.63 1.59 1.70 1.35 1.03 1.18 0.68 0.46 0.44 0.74 0.42 0.30 0.14 0.24 0.49 0.59 0.53 0.44 0.66 0.47 0.30 0.28 0.15 0.07 0.04 0.14 0.22
1.29 1.09 0.93 1.28 1.31 1.16 0.86 0.64 0.87 1.50 1.82 1.42 1.07 0.75 0.89 0.88 0.66 0.79 1.30 1.20 1.09 1.08 1.06 0.96 0.61 0.69 0.51 0.70 0.39 0.43 0.17 0.24 0.40 0.62 1.02 0.42 0.75 0.56 0.42 0.31 0.15 0.05 0.06 0.17 0.26
1.25 1.18 1.07 1.05 0.98 0.98 0.84 0.61 1.28 1.68 2.25 2.04 1.51 1.31 0.78 0.56 0.53 0.97 1.32 0.99 0.91 0.95 1.00 0.59 0.44 0.88 0.75 0.59 0.55 0.41 0.44 0.41 0.65 0.84 1.41 0.54 0.69 0.72 0.59 0.55 0.32 0.07 0.14 0.26 0.29
1.21 1.41 1.31 0.79 0.89 0.85 1.31 1.13 1.53 1.28 1.21 1.46 1.17 0.57 0.40 0.52 0.83 1.15 1.22 0.79 1.12 1.57 1.45 1.24 0.99 0.84 0.76 0.99 1.03 0.73 0.95 1.42 1.42 1.75 0.86 0.54 0.70 0.77 0.62 0.40 0.36 0.28 0.37 0.43 0.42
1.42 1.45 1.47 1.01 0.94 0.99 1.80 1.29 1.22 0.87 0.98 0.82 0.41 0.39 0.50 0.39 0.57 0.75 0.98 0.50 0.31 0.47 0.78 0.96 1.41 1.19 0.78 0.87 1.21 0.97 0.91 1.18 0.86 0.75 0.63 0.38 0.88 1.06 0.88 0.71 0.65 0.50 0.73 1.00 1.09
1.77 1.97 1.74 1.48 1.20 1.32 1.48 1.21 1.04 0.95 0.94 0.47 0.32 0.37 0.40 0.18 0.28 0.53 0.43 0.24 0.15 0.16 0.63 0.48 0.76 0.58 0.77 0.62 0.81 0.84 0.87 0.77 1.11 0.58 0.62 0.60 0.97 1.22 1.31 1.24 0.73 1.22 1.33 1.37 1.52
2.35 2.66 1.63 1.35 1.47 1.46 1.32 1.06 0.64 0.41 0.28 0.18 0.29 0.14 0.10 0.06 0.11 0.12 0.17 0.07 0.11 0.04 0.21 0.37 0.75 0.96 0.85 0.78 0.65 0.60 0.47 0.78 1.34 0.94 0.60 0.39 0.52 1.61 1.75 1.33 1.13 1.26 1.28 1.25 1.54
2.36 2.50 1.68 1.75 2.08 2.06 1.56 1.13 0.45 0.18 0.15 0.15 0.09 0.04 0.02 0.02 0.05 0.13 0.14 0.07 0.06 0.14 0.23 0.55 1.00 1.03 1.06 0.78 0.53 0.71 0.77 0.47 0.61 0.52 0.45 0.27 0.79 1.41 1.41 1.13 0.92 0.91 0.92 0.93 0.96
2.22 2.01 1.92 2.35 2.56 1.80 1.08 0.78 0.47 0.16 0.17 0.14 0.12 0.03 0.01 0.02 0.04 0.13 0.12 0.09 0.03 0.11 0.32 0.41 0.80 0.81 0.65 0.18 0.13 0.25 0.27 0.20 0.73 0.54 0.41 0.41 0.85 0.96 0.92 0.80 0.61 0.47 0.29 0.18 0.12
2.00 1.85 2.76 1.57 1.10 0.73 0.47 0.44 0.30 0.10 0.15 0.19 0.12 0.01 0.01 0.03 0.03 0.02 0.01 0.01 0.00 0.02 0.20 0.44 1.01 0.82 0.70 0.48 0.49 0.69 0.33 0.37 0.63 1.00 0.77 0.43 0.54 0.25 0.24 0.21 0.14 0.04 0.02 0.02 0.01
1.87 1.90 3.74 2.47 0.61 0.18 0.42 0.46 0.30 0.06 0.08 0.14 0.12 0.03 0.05 0.03 0.01 0.01 0.00 0.00 0.00 0.00 0.16 0.72 0.81 0.86 0.71 0.63 0.88 0.72 0.34 0.53 1.08 1.15 0.37 0.18 0.10 0.05 0.03 0.01 0.02 0.04 0.04 0.02 0.02
1.30 0.79 0.85 0.98 0.50 0.11 0.36 0.34 0.37 0.23 0.13 0.17 0.12 0.04 0.07 0.03 0.01 0.01 0.00 0.00 0.00 0.00 0.16 0.66 1.15 1.28 0.54 0.32 0.69 0.60 0.31 0.43 0.98 0.55 0.51 0.16 0.06 0.03 0.04 0.05 0.07 0.09 0.08 0.06 0.06
0.77 0.58 0.12 0.07 0.06 0.16 0.23 0.28 0.34 0.34 0.28 0.20 0.15 0.04 0.04 0.05 0.01 0.01 0.00 0.00 0.01 0.01 0.15 0.55 0.95 0.81 0.34 0.20 0.40 0.47 0.23 0.35 0.56 0.41 0.30 0.12 0.11 0.06 0.04 0.06 0.06 0.17 0.11 0.08 0.08
0.69 0.50 0.15 0.12 0.13 0.10 0.08 0.12 0.23 0.37 0.24 0.09 0.09 0.11 0.07 0.03 0.01 0.00 0.00 0.00 0.00 0.01 0.07 0.36 0.63 0.82 0.65 0.41 0.55 0.52 0.26 0.31 0.41 0.35 0.24 0.14 0.12 0.04 0.05 0.12 0.27 0.46 0.11 0.05 0.02

GFSSW_prec_precacc_144.txt.gz
Total_Precipitation_Accumulation
0.87 1.03 1.08 1.23 1.34 1.19 1.26 1.24 0.98 0.68 0.65 0.72 0.91 2.18 3.02 2.66 0.77 0.43 0.21 0.09 0.09 0.18 0.32 0.11 0.10 0.09 0.14 0.25 0.58 0.92 1.13 0.67 0.14 0.04 0.02 0.01 0.01 0.01 0.01 0.00 0.01 0.01 0.12 0.10 0.26
1.10 1.35 1.78 2.09 2.09 2.06 1.66 1.43 0.90 0.67 0.68 0.78 1.17 2.21 3.37 1.87 0.51 0.40 0.34 0.40 0.34 0.51 0.32 0.21 0.16 0.22 0.25 0.33 0.84 1.40 1.34 0.40 0.09 0.06 0.02 0.04 0.01 0.01 0.02 0.01 0.06 0.10 0.09 0.06 0.22
1.21 1.48 1.78 2.72 3.34 3.80 3.19 1.49 0.74 0.59 0.59 0.72 1.12 3.05 3.59 1.51 0.45 0.13 0.23 0.31 0.53 0.71 0.45 0.20 0.26 0.37 0.27 0.40 0.56 1.05 1.09 0.29 0.29 0.26 0.24 0.13 0.04 0.01 0.05 0.05 0.01 0.05 0.12 0.22 0.29
1.05 1.31 1.67 1.65 2.54 3.04 2.52 1.12 0.88 0.60 0.54 0.71 1.53 3.51 3.38 1.62 0.70 0.14 0.15 0.28 0.51 0.95 0.65 0.49 0.47 0.50 0.21 0.21 0.25 0.55 0.60 0.43 0.47 0.47 0.47 0.18 0.10 0.07 0.05 0.02 0.01 0.06 0.27 0.41 0.54
0.95 1.13 1.24 1.62 2.12 2.30 1.65 1.22 1.05 0.85 0.79 0.97 2.01 3.54 2.57 1.71 0.58 0.18 0.19 0.22 0.60 0.95 0.54 0.44 0.43 0.35 0.13 0.09 0.21 0.36 0.46 0.56 0.71 0.62 0.47 0.32 0.19 0.11 0.05 0.02 0.04 0.20 0.39 0.49 0.76
0.87 0.84 0.85 1.13 1.43 1.56 1.28 1.21 1.09 0.85 0.92 1.27 2.27 2.81 1.93 1.34 0.51 0.19 0.20 0.39 0.62 0.78 0.62 0.55 0.47 0.36 0.24 0.13 0.27 0.18 0.44 0.68 0.97 0.79 0.86 0.47 0.24 0.18 0.06 0.10 0.18 0.40 0.38 0.40 0.46
0.83 0.80 0.71 1.01 1.25 1.29 1.21 1.18 1.11 0.92 1.09 1.45 1.99 2.11 1.75 1.20 0.77 0.57 0.18 0.54 0.97 0.69 0.73 0.62 0.72 0.76 0.49 0.26 0.14 0.23 0.65 0.99 1.08 1.23 1.21 0.87 0.70 0.22 0.04 0.11 0.26 0.36 0.41 0.53 0.50
0.88 0.76 0.69 0.88 0.91 0.93 0.89 0.84 0.91 1.10 1.38 1.90 2.36 1.80 2.06 1.16 0.73 0.52 0.22 0.37 0.80 1.04 0.99 1.09 0.79 0.91 0.56 0.41 0.32 0.51 0.94 1.00 0.93 1.30 1.91 1.55 0.81 0.19 0.10 0.16 0.20 0.41 0.62 0.57 0.43
0.91 0.89 0.97 1.05 0.97 1.01 1.04 1.09 0.99 0.94 1.43 2.12 2.11 1.69 1.99 1.44 0.70 0.24 0.23 0.39 0.72 1.49 1.85 2.06 1.72 1.23 0.65 0.65 0.61 0.56 0.57 0.73 0.73 0.77 1.87 1.75 1.02 0.40 0.19 0.13 0.12 0.19 0.41 0.63 0.72
1.08 1.35 1.29 0.97 1.10 1.15 1.13 1.98 2.01 1.02 1.61 1.97 1.75 1.69 1.61 1.30 0.55 0.27 0.30 0.50 0.80 1.64 2.42 2.83 2.66 1.54 0.62 0.69 0.48 0.19 0.24 0.34 0.62 0.60 1.10 1.62 0.99 0.71 0.39 0.19 0.06 0.10 0.17 0.29 0.61
1.17 1.19 0.97 0.94 0.93 0.82 1.02 1.78 1.96 2.11 2.32 1.88 1.02 0.75 0.90 0.93 0.58 0.53 0.53 0.67 1.43 2.03 2.31 2.43 2.03 1.26 0.34 0.20 0.21 0.13 0.21 0.23 0.49 0.69 0.54 0.89 0.90 0.73 0.49 0.47 0.14 0.12 0.13 0.22 0.51
0.93 0.87 0.83 0.88 1.00 1.19 1.33 1.58 1.29 1.75 2.66 1.85 0.78 0.61 0.64 0.58 0.82 0.68 0.80 1.36 1.72 2.04 1.77 1.96 1.09 0.71 0.62 0.33 0.31 0.26 0.26 0.25 0.40 0.70 0.62 0.58 0.66 0.50 0.48 0.32 0.21 0.10 0.07 0.19 0.39
0.80 0.76 0.79 0.95 1.03 1.40 1.30 1.01 1.01 1.12 2.05 2.28 1.29 1.07 0.84 0.57 0.85 0.73 1.14 1.54 1.62 1.51 1.16 1.21 0.60 0.37 0.61 0.55 0.46 0.26 0.22 0.20 0.38 0.47 0.42 0.47 0.58 0.44 0.37 0.27 0.13 0.07 0.06 0.11 0.24
0.90 0.96 1.03 1.17 1.35 1.02 1.27 0.94 0.83 1.14 1.69 2.01 1.23 1.16 0.65 1.04 1.21 0.56 1.63 1.59 1.70 1.35 1.03 1.18 0.68 0.46 0.44 0.74 0.42 0.30 0.14 0.24 0.49 0.59 0.53 0.44 0.66 0.47 0.30 0.28 0.15 0.07 0.04 0.14 0.22
1.29 1.09 0.93 1.28 1.31 1.16 0.86 0.64 0.87 1.50 1.82 1.42 1.07 0.75 0.89 0.88 0.66 0.79 1.30 1.20 1.09 1.08 1.06 0.96 0.61 0.69 0.51 0.70 0.39 0.43 0.17 0.24 0.40 0.62 1.02 0.42 0.75 0.56 0.42 0.31 0.15 0.05 0.06 0.17 0.26
1.25 1.18 1.07 1.05 0.98 0.98 0.84 0.61 1.28 1.68 2.25 2.04 1.51 1.31 0.78 0.56 0.53 0.97 1.32 0.99 0.91 0.95 1.00 0.59 0.44 0.88 0.75 0.59 0.55 0.41 0.44 0.41 0.65 0.84 1.41 0.54 0.69 0.72 0.59 0.55 0.32 0.07 0.14 0.26 0.29
1.21 1.41 1.31 0.79 0.89 0.85 1.31 1.13 1.53 1.28 1.21 1.46 1.17 0.57 0.40 0.52 0.83 1.15 1.22 0.79 1.12 1.57 1.45 1.24 0.99 0.84 0.76 0.99 1.03 0.73 0.95 1.42 1.42 1.75 0.86 0.54 0.70 0.77 0.62 0.40 0.36 0.28 0.37 0.43 0.42
1.42 1.45 1.47 1.01 0.94 0.99 1.80 1.29 1.22 0.87 0.98 0.82 0.41 0.39 0.50 0.39 0.57 0.75 0.98 0.50 0.31 0.47 0.78 0.96 1.41 1.19 0.78 0.87 1.21 0.97 0.91 1.18 0.86 0.75 0.63 0.38 0.88 1.06 0.88 0.71 0.65 0.50 0.73 1.00 1.09
1.77 1.97 1.74 1.48 1.20 1.32 1.48 1.21 1.04 0.95 0.94 0.47 0.32 0.37 0.40 0.18 0.28 0.53 0.43 0.24 0.15 0.16 0.63 0.48 0.76 0.58 0.77 0.62 0.81 0.84 0.87 0.77 1.11 0.58 0.62 0.60 0.97 1.22 1.31 1.24 0.73 1.22 1.33 1.37 1.52
2.35 2.66 1.63 1.35 1.47 1.46 1.32 1.06 0.64 0.41 0.28 0.18 0.29 0.14 0.10 0.06 0.11 0.12 0.17 0.07 0.11 0.04 0.21 0.37 0.75 0.96 0.85 0.78 0.65 0.60 0.47 0.78 1.34 0.94 0.60 0.39 0.52 1.61 1.75 1.33 1.13 1.26 1.28 1.25 1.54
2.36 2.50 1.68 1.75 2.08 2.06 1.56 1.13 0.45 0.18 0.15 0.15 0.09 0.04 0.02 0.02 0.05 0.13 0.14 0.07 0.06 0.14 0.23 0.55 1.00 1.03 1.06 0.78 0.53 0.71 0.77 0.47 0.61 0.52 0.45 0.27 0.79 1.41 1.41 1.13 0.92 0.91 0.92 0.93 0.96
2.22 2.01 1.92 2.35 2.56 1.80 1.08 0.78 0.47 0.16 0.17 0.14 0.12 0.03 0.01 0.02 0.04 0.13 0.12 0.09 0.03 0.11 0.32 0.41 0.80 0.81 0.65 0.18 0.13 0.25 0.27 0.20 0.73 0.54 0.41 0.41 0.85 0.96 0.92 0.80 0.61 0.47 0.29 0.18 0.12
2.00 1.85 2.76 1.57 1.10 0.73 0.47 0.44 0.30 0.10 0.15 0.19 0.12 0.01 0.01 0.03 0.03 0.02 0.01 0.01 0.00 0.02 0.20 0.44 1.01 0.82 0.70 0.48 0.49 0.69 0.33 0.37 0.63 1.00 0.77 0.43 0.54 0.25 0.24 0.21 0.14 0.04 0.02 0.02 0.01
1.87 1.90 3.74 2.47 0.61 0.18 0.42 0.46 0.30 0.06 0.08 0.14 0.12 0.03 0.05 0.03 0.01 0.01 0.00 0.00 0.00 0.00 0.16 0.72 0.81 0.86 0.71 0.63 0.88 0.72 0.34 0.53 1.08 1.15 0.37 0.18 0.10 0.05 0.03 0.01 0.02 0.04 0.04 0.02 0.02
1.30 0.79 0.85 0.98 0.50 0.11 0.36 0.34 0.37 0.23 0.13 0.17 0.12 0.04 0.07 0.03 0.01 0.01 0.00 0.00 0.00 0.00 0.16 0.66 1.15 1.28 0.54 0.32 0.69 0.60 0.31 0.43 0.98 0.55 0.51 0.16 0.06 0.03 0.04 0.05 0.07 0.09 0.08 0.06 0.06
0.77 0.58 0.12 0.07 0.06 0.16 0.23 0.28 0.34 0.34 0.28 0.20 0.15 0.04 0.04 0.05 0.01 0.01 0.00 0.00 0.01 0.01 0.15 0.55 0.95 0.81 0.34 0.20 0.40 0.47 0.23 0.35 0.56 0.41 0.30 0.12 0.11 0.06 0.04 0.06 0.06 0.17 0.11 0.08 0.08
0.69 0.50 0.15 0.12 0.13 0.10 0.08 0.12 0.23 0.37 0.24 0.09 0.09 0.11 0.07 0.03 0.01 0.00 0.00 0.00 0.00 0.01 0.07 0.36 0.63 0.82 0.65 0.41 0.55 0.52 0.26 0.31 0.41 0.35 0.24 0.14 0.12 0.04 0.05 0.12 0.27 0.46 0.11 0.05 0.02